<?xml version="1.0" encoding="utf-8"?>
<gpx xmlns:xsi="http://www.w3.org/2001/XMLSchema-instance" xmlns:xsd="http://www.w3.org/2001/XMLSchema" version="1.1" creator="Shapelink.com" xmlns="http://www.topografix.com/GPX/1/1" xmlns:gpxtpx="http://www.garmin.com/xmlschemas/TrackPointExtension/v1">
  <metadata>
    <name>Sykling 37.84 km, 2013-05-07</name>
    <desc></desc>
    <author><name>Mikael Blom</name></author> 
    <time>2013-05-07T15:28:21Z</time>
  </metadata>
  <trk>
    <name>Sykling 37.84 km, 2013-05-07</name>
    <trkseg>
      <trkpt lat="59.9787266" lon="17.7392648">
        <ele>47.2418</ele>
        <time>2013-05-07T15:28:21Z</time>
      </trkpt>
      <trkpt lat="59.9786967" lon="17.7392619">
        <ele>47.2418</ele>
        <time>2013-05-07T15:28:22Z</time>
      </trkpt>
      <trkpt lat="59.9786677" lon="17.7392603">
        <ele>47.7225</ele>
        <time>2013-05-07T15:28:23Z</time>
      </trkpt>
      <trkpt lat="59.9786258" lon="17.739258">
        <ele>45.7999</ele>
        <time>2013-05-07T15:28:24Z</time>
      </trkpt>
      <trkpt lat="59.9785833" lon="17.7392508">
        <ele>44.358</ele>
        <time>2013-05-07T15:28:25Z</time>
      </trkpt>
      <trkpt lat="59.9785432" lon="17.7392367">
        <ele>42.916</ele>
        <time>2013-05-07T15:28:26Z</time>
      </trkpt>
      <trkpt lat="59.9784983" lon="17.7392305">
        <ele>40.9934</ele>
        <time>2013-05-07T15:28:27Z</time>
      </trkpt>
      <trkpt lat="59.9784508" lon="17.7392279">
        <ele>39.5513</ele>
        <time>2013-05-07T15:28:28Z</time>
      </trkpt>
      <trkpt lat="59.9784011" lon="17.7392268">
        <ele>38.1094</ele>
        <time>2013-05-07T15:28:29Z</time>
      </trkpt>
      <trkpt lat="59.9783507" lon="17.7392146">
        <ele>36.1868</ele>
        <time>2013-05-07T15:28:30Z</time>
      </trkpt>
      <trkpt lat="59.9782992" lon="17.7392041">
        <ele>34.7449</ele>
        <time>2013-05-07T15:28:31Z</time>
      </trkpt>
      <trkpt lat="59.9782466" lon="17.7391896">
        <ele>34.2642</ele>
        <time>2013-05-07T15:28:32Z</time>
      </trkpt>
      <trkpt lat="59.9781922" lon="17.7391694">
        <ele>33.7834</ele>
        <time>2013-05-07T15:28:33Z</time>
      </trkpt>
      <trkpt lat="59.9781366" lon="17.739145">
        <ele>33.7834</ele>
        <time>2013-05-07T15:28:34Z</time>
      </trkpt>
      <trkpt lat="59.9780782" lon="17.7391174">
        <ele>31.8607</ele>
        <time>2013-05-07T15:28:35Z</time>
      </trkpt>
      <trkpt lat="59.9780259" lon="17.7390793">
        <ele>32.3416</ele>
        <time>2013-05-07T15:28:36Z</time>
      </trkpt>
      <trkpt lat="59.9779706" lon="17.7390386">
        <ele>31.8607</ele>
        <time>2013-05-07T15:28:37Z</time>
      </trkpt>
      <trkpt lat="59.9779133" lon="17.739">
        <ele>31.3801</ele>
        <time>2013-05-07T15:28:38Z</time>
      </trkpt>
      <trkpt lat="59.9778494" lon="17.7389765">
        <ele>29.9381</ele>
        <time>2013-05-07T15:28:39Z</time>
      </trkpt>
      <trkpt lat="59.9777799" lon="17.7389688">
        <ele>28.4962</ele>
        <time>2013-05-07T15:28:40Z</time>
      </trkpt>
      <trkpt lat="59.9777063" lon="17.7389654">
        <ele>27.0543</ele>
        <time>2013-05-07T15:28:41Z</time>
      </trkpt>
      <trkpt lat="59.9776291" lon="17.7389703">
        <ele>26.0929</ele>
        <time>2013-05-07T15:28:42Z</time>
      </trkpt>
      <trkpt lat="59.9775488" lon="17.7389865">
        <ele>25.1317</ele>
        <time>2013-05-07T15:28:43Z</time>
      </trkpt>
      <trkpt lat="59.9774658" lon="17.7390114">
        <ele>24.651</ele>
        <time>2013-05-07T15:28:44Z</time>
      </trkpt>
      <trkpt lat="59.9773804" lon="17.7390481">
        <ele>24.1703</ele>
        <time>2013-05-07T15:28:45Z</time>
      </trkpt>
      <trkpt lat="59.9772945" lon="17.7390937">
        <ele>23.6896</ele>
        <time>2013-05-07T15:28:46Z</time>
      </trkpt>
      <trkpt lat="59.9772069" lon="17.7391402">
        <ele>23.209</ele>
        <time>2013-05-07T15:28:47Z</time>
      </trkpt>
      <trkpt lat="59.9771204" lon="17.7391843">
        <ele>22.7283</ele>
        <time>2013-05-07T15:28:48Z</time>
      </trkpt>
      <trkpt lat="59.9770322" lon="17.7392222">
        <ele>22.2476</ele>
        <time>2013-05-07T15:28:49Z</time>
      </trkpt>
      <trkpt lat="59.9769431" lon="17.7392574">
        <ele>23.209</ele>
        <time>2013-05-07T15:28:50Z</time>
      </trkpt>
      <trkpt lat="59.9768545" lon="17.7392923">
        <ele>23.209</ele>
        <time>2013-05-07T15:28:51Z</time>
      </trkpt>
      <trkpt lat="59.9767683" lon="17.7393315">
        <ele>22.7283</ele>
        <time>2013-05-07T15:28:52Z</time>
      </trkpt>
      <trkpt lat="59.9766837" lon="17.7393818">
        <ele>22.7283</ele>
        <time>2013-05-07T15:28:53Z</time>
      </trkpt>
      <trkpt lat="59.9766018" lon="17.7394473">
        <ele>22.7283</ele>
        <time>2013-05-07T15:28:54Z</time>
      </trkpt>
      <trkpt lat="59.976523" lon="17.7395241">
        <ele>23.209</ele>
        <time>2013-05-07T15:28:55Z</time>
      </trkpt>
      <trkpt lat="59.9764532" lon="17.7396095">
        <ele>23.6896</ele>
        <time>2013-05-07T15:28:56Z</time>
      </trkpt>
      <trkpt lat="59.9763893" lon="17.7396879">
        <ele>24.1703</ele>
        <time>2013-05-07T15:28:57Z</time>
      </trkpt>
      <trkpt lat="59.9763248" lon="17.7397407">
        <ele>24.651</ele>
        <time>2013-05-07T15:28:58Z</time>
      </trkpt>
      <trkpt lat="59.9762578" lon="17.7397521">
        <ele>25.1317</ele>
        <time>2013-05-07T15:28:59Z</time>
      </trkpt>
      <trkpt lat="59.9761932" lon="17.7397071">
        <ele>26.0929</ele>
        <time>2013-05-07T15:29:00Z</time>
      </trkpt>
      <trkpt lat="59.9761303" lon="17.7396201">
        <ele>26.5736</ele>
        <time>2013-05-07T15:29:01Z</time>
      </trkpt>
      <trkpt lat="59.9760658" lon="17.7395113">
        <ele>26.5736</ele>
        <time>2013-05-07T15:29:02Z</time>
      </trkpt>
      <trkpt lat="59.9760005" lon="17.7393871">
        <ele>26.0929</ele>
        <time>2013-05-07T15:29:03Z</time>
      </trkpt>
      <trkpt lat="59.9759395" lon="17.7392497">
        <ele>28.0155</ele>
        <time>2013-05-07T15:29:04Z</time>
      </trkpt>
      <trkpt lat="59.9758711" lon="17.739114">
        <ele>28.4962</ele>
        <time>2013-05-07T15:29:05Z</time>
      </trkpt>
      <trkpt lat="59.9758057" lon="17.7389761">
        <ele>29.4575</ele>
        <time>2013-05-07T15:29:06Z</time>
      </trkpt>
      <trkpt lat="59.9757344" lon="17.738844">
        <ele>29.9381</ele>
        <time>2013-05-07T15:29:07Z</time>
      </trkpt>
      <trkpt lat="59.9756612" lon="17.7387188">
        <ele>29.4575</ele>
        <time>2013-05-07T15:29:08Z</time>
      </trkpt>
      <trkpt lat="59.9755892" lon="17.7385989">
        <ele>28.9769</ele>
        <time>2013-05-07T15:29:09Z</time>
      </trkpt>
      <trkpt lat="59.9755186" lon="17.7384763">
        <ele>28.9769</ele>
        <time>2013-05-07T15:29:10Z</time>
      </trkpt>
      <trkpt lat="59.9754491" lon="17.7383549">
        <ele>28.4962</ele>
        <time>2013-05-07T15:29:11Z</time>
      </trkpt>
      <trkpt lat="59.975381" lon="17.7382344">
        <ele>28.4962</ele>
        <time>2013-05-07T15:29:12Z</time>
      </trkpt>
      <trkpt lat="59.9753141" lon="17.7381158">
        <ele>28.0155</ele>
        <time>2013-05-07T15:29:13Z</time>
      </trkpt>
      <trkpt lat="59.9752487" lon="17.7379996">
        <ele>28.0155</ele>
        <time>2013-05-07T15:29:14Z</time>
      </trkpt>
      <trkpt lat="59.9751841" lon="17.7378858">
        <ele>27.5349</ele>
        <time>2013-05-07T15:29:15Z</time>
      </trkpt>
      <trkpt lat="59.9751204" lon="17.7377732">
        <ele>27.5349</ele>
        <time>2013-05-07T15:29:16Z</time>
      </trkpt>
      <trkpt lat="59.9750578" lon="17.7376585">
        <ele>27.0543</ele>
        <time>2013-05-07T15:29:17Z</time>
      </trkpt>
      <trkpt lat="59.9749972" lon="17.7375417">
        <ele>26.5736</ele>
        <time>2013-05-07T15:29:18Z</time>
      </trkpt>
      <trkpt lat="59.9749381" lon="17.7374246">
        <ele>26.5736</ele>
        <time>2013-05-07T15:29:19Z</time>
      </trkpt>
      <trkpt lat="59.9748827" lon="17.7373061">
        <ele>26.0929</ele>
        <time>2013-05-07T15:29:20Z</time>
      </trkpt>
      <trkpt lat="59.9748302" lon="17.7371834">
        <ele>25.6123</ele>
        <time>2013-05-07T15:29:21Z</time>
      </trkpt>
      <trkpt lat="59.9747795" lon="17.7370585">
        <ele>25.6123</ele>
        <time>2013-05-07T15:29:22Z</time>
      </trkpt>
      <trkpt lat="59.9747308" lon="17.73693">
        <ele>25.6123</ele>
        <time>2013-05-07T15:29:23Z</time>
      </trkpt>
      <trkpt lat="59.9746859" lon="17.7367965">
        <ele>25.1317</ele>
        <time>2013-05-07T15:29:24Z</time>
      </trkpt>
      <trkpt lat="59.9746448" lon="17.7366599">
        <ele>25.1317</ele>
        <time>2013-05-07T15:29:25Z</time>
      </trkpt>
      <trkpt lat="59.974606" lon="17.7365228">
        <ele>25.1317</ele>
        <time>2013-05-07T15:29:26Z</time>
      </trkpt>
      <trkpt lat="59.9745699" lon="17.7363856">
        <ele>25.1317</ele>
        <time>2013-05-07T15:29:27Z</time>
      </trkpt>
      <trkpt lat="59.9745361" lon="17.7362477">
        <ele>25.1317</ele>
        <time>2013-05-07T15:29:28Z</time>
      </trkpt>
      <trkpt lat="59.974504" lon="17.7361111">
        <ele>25.1317</ele>
        <time>2013-05-07T15:29:29Z</time>
      </trkpt>
      <trkpt lat="59.9744739" lon="17.7359744">
        <ele>25.6123</ele>
        <time>2013-05-07T15:29:30Z</time>
      </trkpt>
      <trkpt lat="59.9744459" lon="17.7358354">
        <ele>25.6123</ele>
        <time>2013-05-07T15:29:31Z</time>
      </trkpt>
      <trkpt lat="59.9744207" lon="17.735695">
        <ele>25.6123</ele>
        <time>2013-05-07T15:29:32Z</time>
      </trkpt>
      <trkpt lat="59.9743995" lon="17.7355525">
        <ele>25.6123</ele>
        <time>2013-05-07T15:29:33Z</time>
      </trkpt>
      <trkpt lat="59.9743815" lon="17.7354082">
        <ele>25.6123</ele>
        <time>2013-05-07T15:29:34Z</time>
      </trkpt>
      <trkpt lat="59.9743647" lon="17.735263">
        <ele>25.6123</ele>
        <time>2013-05-07T15:29:35Z</time>
      </trkpt>
      <trkpt lat="59.9743486" lon="17.7351178">
        <ele>25.6123</ele>
        <time>2013-05-07T15:29:36Z</time>
      </trkpt>
      <trkpt lat="59.974335" lon="17.7349714">
        <ele>26.0929</ele>
        <time>2013-05-07T15:29:37Z</time>
      </trkpt>
      <trkpt lat="59.9743238" lon="17.7348247">
        <ele>26.0929</ele>
        <time>2013-05-07T15:29:38Z</time>
      </trkpt>
      <trkpt lat="59.9743154" lon="17.7346772">
        <ele>26.5736</ele>
        <time>2013-05-07T15:29:39Z</time>
      </trkpt>
      <trkpt lat="59.9743095" lon="17.7345297">
        <ele>26.5736</ele>
        <time>2013-05-07T15:29:40Z</time>
      </trkpt>
      <trkpt lat="59.9743067" lon="17.734383">
        <ele>27.0543</ele>
        <time>2013-05-07T15:29:41Z</time>
      </trkpt>
      <trkpt lat="59.9743091" lon="17.73424">
        <ele>27.0543</ele>
        <time>2013-05-07T15:29:42Z</time>
      </trkpt>
      <trkpt lat="59.9743139" lon="17.7341007">
        <ele>27.0543</ele>
        <time>2013-05-07T15:29:43Z</time>
      </trkpt>
      <trkpt lat="59.97432" lon="17.7339633">
        <ele>27.0543</ele>
        <time>2013-05-07T15:29:44Z</time>
      </trkpt>
      <trkpt lat="59.9743263" lon="17.7338261">
        <ele>27.0543</ele>
        <time>2013-05-07T15:29:45Z</time>
      </trkpt>
      <trkpt lat="59.974332" lon="17.7336898">
        <ele>27.5349</ele>
        <time>2013-05-07T15:29:46Z</time>
      </trkpt>
      <trkpt lat="59.9743366" lon="17.7335562">
        <ele>27.5349</ele>
        <time>2013-05-07T15:29:47Z</time>
      </trkpt>
      <trkpt lat="59.9743413" lon="17.7334251">
        <ele>27.5349</ele>
        <time>2013-05-07T15:29:48Z</time>
      </trkpt>
      <trkpt lat="59.9743463" lon="17.7332941">
        <ele>27.5349</ele>
        <time>2013-05-07T15:29:49Z</time>
      </trkpt>
      <trkpt lat="59.9743506" lon="17.7331644">
        <ele>27.5349</ele>
        <time>2013-05-07T15:29:50Z</time>
      </trkpt>
      <trkpt lat="59.9743554" lon="17.7330361">
        <ele>27.5349</ele>
        <time>2013-05-07T15:29:51Z</time>
      </trkpt>
      <trkpt lat="59.9743599" lon="17.7329068">
        <ele>27.5349</ele>
        <time>2013-05-07T15:29:52Z</time>
      </trkpt>
      <trkpt lat="59.9743621" lon="17.7327771">
        <ele>27.0543</ele>
        <time>2013-05-07T15:29:53Z</time>
      </trkpt>
      <trkpt lat="59.9743624" lon="17.7326491">
        <ele>27.0543</ele>
        <time>2013-05-07T15:29:54Z</time>
      </trkpt>
      <trkpt lat="59.9743605" lon="17.7325252">
        <ele>27.5349</ele>
        <time>2013-05-07T15:29:55Z</time>
      </trkpt>
      <trkpt lat="59.9743573" lon="17.7324025">
        <ele>27.5349</ele>
        <time>2013-05-07T15:29:56Z</time>
      </trkpt>
      <trkpt lat="59.9743541" lon="17.7322814">
        <ele>27.5349</ele>
        <time>2013-05-07T15:29:57Z</time>
      </trkpt>
      <trkpt lat="59.974352" lon="17.7321602">
        <ele>27.0543</ele>
        <time>2013-05-07T15:29:58Z</time>
      </trkpt>
      <trkpt lat="59.9743487" lon="17.7320384">
        <ele>27.0543</ele>
        <time>2013-05-07T15:29:59Z</time>
      </trkpt>
      <trkpt lat="59.974345" lon="17.7319181">
        <ele>27.0543</ele>
        <time>2013-05-07T15:30:00Z</time>
      </trkpt>
      <trkpt lat="59.9743425" lon="17.7317996">
        <ele>27.0543</ele>
        <time>2013-05-07T15:30:01Z</time>
      </trkpt>
      <trkpt lat="59.9743417" lon="17.7316809">
        <ele>27.0543</ele>
        <time>2013-05-07T15:30:02Z</time>
      </trkpt>
      <trkpt lat="59.9743411" lon="17.7315613">
        <ele>26.5736</ele>
        <time>2013-05-07T15:30:03Z</time>
      </trkpt>
      <trkpt lat="59.9743417" lon="17.7314411">
        <ele>26.5736</ele>
        <time>2013-05-07T15:30:04Z</time>
      </trkpt>
      <trkpt lat="59.9743444" lon="17.7313218">
        <ele>26.5736</ele>
        <time>2013-05-07T15:30:05Z</time>
      </trkpt>
      <trkpt lat="59.9743481" lon="17.7312023">
        <ele>26.5736</ele>
        <time>2013-05-07T15:30:06Z</time>
      </trkpt>
      <trkpt lat="59.9743517" lon="17.7310813">
        <ele>26.0929</ele>
        <time>2013-05-07T15:30:07Z</time>
      </trkpt>
      <trkpt lat="59.9743615" lon="17.7308329">
        <ele>26.0929</ele>
        <time>2013-05-07T15:30:09Z</time>
      </trkpt>
      <trkpt lat="59.974371" lon="17.7307072">
        <ele>25.6123</ele>
        <time>2013-05-07T15:30:10Z</time>
      </trkpt>
      <trkpt lat="59.9743821" lon="17.7305811">
        <ele>25.6123</ele>
        <time>2013-05-07T15:30:11Z</time>
      </trkpt>
      <trkpt lat="59.974393" lon="17.7304547">
        <ele>25.6123</ele>
        <time>2013-05-07T15:30:12Z</time>
      </trkpt>
      <trkpt lat="59.9744029" lon="17.7303275">
        <ele>25.6123</ele>
        <time>2013-05-07T15:30:13Z</time>
      </trkpt>
      <trkpt lat="59.9744128" lon="17.7302011">
        <ele>25.6123</ele>
        <time>2013-05-07T15:30:14Z</time>
      </trkpt>
      <trkpt lat="59.9744232" lon="17.7300768">
        <ele>25.6123</ele>
        <time>2013-05-07T15:30:15Z</time>
      </trkpt>
      <trkpt lat="59.9744338" lon="17.7299543">
        <ele>25.6123</ele>
        <time>2013-05-07T15:30:16Z</time>
      </trkpt>
      <trkpt lat="59.9744434" lon="17.729832">
        <ele>25.6123</ele>
        <time>2013-05-07T15:30:17Z</time>
      </trkpt>
      <trkpt lat="59.9744509" lon="17.7297088">
        <ele>25.6123</ele>
        <time>2013-05-07T15:30:18Z</time>
      </trkpt>
      <trkpt lat="59.9744559" lon="17.7295842">
        <ele>25.1317</ele>
        <time>2013-05-07T15:30:19Z</time>
      </trkpt>
      <trkpt lat="59.9744595" lon="17.7294594">
        <ele>25.1317</ele>
        <time>2013-05-07T15:30:20Z</time>
      </trkpt>
      <trkpt lat="59.9744606" lon="17.7293332">
        <ele>25.1317</ele>
        <time>2013-05-07T15:30:21Z</time>
      </trkpt>
      <trkpt lat="59.9744594" lon="17.729205">
        <ele>25.1317</ele>
        <time>2013-05-07T15:30:22Z</time>
      </trkpt>
      <trkpt lat="59.9744575" lon="17.729075">
        <ele>24.651</ele>
        <time>2013-05-07T15:30:23Z</time>
      </trkpt>
      <trkpt lat="59.9744553" lon="17.7289424">
        <ele>24.651</ele>
        <time>2013-05-07T15:30:24Z</time>
      </trkpt>
      <trkpt lat="59.9744521" lon="17.7288074">
        <ele>24.1703</ele>
        <time>2013-05-07T15:30:25Z</time>
      </trkpt>
      <trkpt lat="59.9744479" lon="17.7286693">
        <ele>24.1703</ele>
        <time>2013-05-07T15:30:26Z</time>
      </trkpt>
      <trkpt lat="59.9744437" lon="17.7285295">
        <ele>24.1703</ele>
        <time>2013-05-07T15:30:27Z</time>
      </trkpt>
      <trkpt lat="59.9744396" lon="17.7283884">
        <ele>24.1703</ele>
        <time>2013-05-07T15:30:28Z</time>
      </trkpt>
      <trkpt lat="59.9744356" lon="17.7282461">
        <ele>24.1703</ele>
        <time>2013-05-07T15:30:29Z</time>
      </trkpt>
      <trkpt lat="59.9744334" lon="17.7281029">
        <ele>24.1703</ele>
        <time>2013-05-07T15:30:30Z</time>
      </trkpt>
      <trkpt lat="59.9744312" lon="17.7279592">
        <ele>24.1703</ele>
        <time>2013-05-07T15:30:31Z</time>
      </trkpt>
      <trkpt lat="59.9744289" lon="17.7278216">
        <ele>24.1703</ele>
        <time>2013-05-07T15:30:32Z</time>
      </trkpt>
      <trkpt lat="59.9744284" lon="17.7276934">
        <ele>24.1703</ele>
        <time>2013-05-07T15:30:33Z</time>
      </trkpt>
      <trkpt lat="59.9744278" lon="17.7275652">
        <ele>24.1703</ele>
        <time>2013-05-07T15:30:34Z</time>
      </trkpt>
      <trkpt lat="59.9744263" lon="17.7274375">
        <ele>24.1703</ele>
        <time>2013-05-07T15:30:35Z</time>
      </trkpt>
      <trkpt lat="59.974424" lon="17.7273147">
        <ele>24.651</ele>
        <time>2013-05-07T15:30:36Z</time>
      </trkpt>
      <trkpt lat="59.9744212" lon="17.7271949">
        <ele>24.651</ele>
        <time>2013-05-07T15:30:37Z</time>
      </trkpt>
      <trkpt lat="59.9744189" lon="17.7270773">
        <ele>24.651</ele>
        <time>2013-05-07T15:30:38Z</time>
      </trkpt>
      <trkpt lat="59.9744165" lon="17.7269629">
        <ele>25.1317</ele>
        <time>2013-05-07T15:30:39Z</time>
      </trkpt>
      <trkpt lat="59.9744148" lon="17.7268528">
        <ele>25.1317</ele>
        <time>2013-05-07T15:30:40Z</time>
      </trkpt>
      <trkpt lat="59.9744132" lon="17.7267453">
        <ele>25.1317</ele>
        <time>2013-05-07T15:30:41Z</time>
      </trkpt>
      <trkpt lat="59.9744113" lon="17.7266422">
        <ele>25.1317</ele>
        <time>2013-05-07T15:30:42Z</time>
      </trkpt>
      <trkpt lat="59.9744093" lon="17.726544">
        <ele>25.1317</ele>
        <time>2013-05-07T15:30:43Z</time>
      </trkpt>
      <trkpt lat="59.9744056" lon="17.7264445">
        <ele>25.1317</ele>
        <time>2013-05-07T15:30:44Z</time>
      </trkpt>
      <trkpt lat="59.9744004" lon="17.7263425">
        <ele>25.1317</ele>
        <time>2013-05-07T15:30:45Z</time>
      </trkpt>
      <trkpt lat="59.9743967" lon="17.7262376">
        <ele>25.1317</ele>
        <time>2013-05-07T15:30:46Z</time>
      </trkpt>
      <trkpt lat="59.9743931" lon="17.72613">
        <ele>25.1317</ele>
        <time>2013-05-07T15:30:47Z</time>
      </trkpt>
      <trkpt lat="59.9743878" lon="17.7260191">
        <ele>25.1317</ele>
        <time>2013-05-07T15:30:48Z</time>
      </trkpt>
      <trkpt lat="59.9743802" lon="17.7259072">
        <ele>25.1317</ele>
        <time>2013-05-07T15:30:49Z</time>
      </trkpt>
      <trkpt lat="59.9743715" lon="17.7257983">
        <ele>25.1317</ele>
        <time>2013-05-07T15:30:50Z</time>
      </trkpt>
      <trkpt lat="59.9743634" lon="17.72569">
        <ele>25.1317</ele>
        <time>2013-05-07T15:30:51Z</time>
      </trkpt>
      <trkpt lat="59.9743546" lon="17.7255788">
        <ele>25.1317</ele>
        <time>2013-05-07T15:30:52Z</time>
      </trkpt>
      <trkpt lat="59.9743443" lon="17.7254653">
        <ele>25.1317</ele>
        <time>2013-05-07T15:30:53Z</time>
      </trkpt>
      <trkpt lat="59.9743316" lon="17.7253494">
        <ele>25.1317</ele>
        <time>2013-05-07T15:30:54Z</time>
      </trkpt>
      <trkpt lat="59.9743174" lon="17.7252338">
        <ele>25.1317</ele>
        <time>2013-05-07T15:30:55Z</time>
      </trkpt>
      <trkpt lat="59.9743024" lon="17.7251178">
        <ele>25.1317</ele>
        <time>2013-05-07T15:30:56Z</time>
      </trkpt>
      <trkpt lat="59.9742868" lon="17.7250004">
        <ele>25.1317</ele>
        <time>2013-05-07T15:30:57Z</time>
      </trkpt>
      <trkpt lat="59.9742697" lon="17.7248812">
        <ele>25.1317</ele>
        <time>2013-05-07T15:30:58Z</time>
      </trkpt>
      <trkpt lat="59.9742486" lon="17.7247413">
        <ele>24.651</ele>
        <time>2013-05-07T15:30:59Z</time>
      </trkpt>
      <trkpt lat="59.9742298" lon="17.7246064">
        <ele>24.651</ele>
        <time>2013-05-07T15:31:00Z</time>
      </trkpt>
      <trkpt lat="59.9742121" lon="17.7244733">
        <ele>24.1703</ele>
        <time>2013-05-07T15:31:01Z</time>
      </trkpt>
      <trkpt lat="59.9741942" lon="17.7243411">
        <ele>24.1703</ele>
        <time>2013-05-07T15:31:02Z</time>
      </trkpt>
      <trkpt lat="59.9741755" lon="17.7242101">
        <ele>24.1703</ele>
        <time>2013-05-07T15:31:03Z</time>
      </trkpt>
      <trkpt lat="59.9741564" lon="17.7240787">
        <ele>23.6896</ele>
        <time>2013-05-07T15:31:04Z</time>
      </trkpt>
      <trkpt lat="59.9741373" lon="17.7239534">
        <ele>24.1703</ele>
        <time>2013-05-07T15:31:05Z</time>
      </trkpt>
      <trkpt lat="59.9741182" lon="17.723829">
        <ele>24.1703</ele>
        <time>2013-05-07T15:31:06Z</time>
      </trkpt>
      <trkpt lat="59.9740993" lon="17.723705">
        <ele>24.651</ele>
        <time>2013-05-07T15:31:07Z</time>
      </trkpt>
      <trkpt lat="59.9740808" lon="17.72358">
        <ele>24.651</ele>
        <time>2013-05-07T15:31:08Z</time>
      </trkpt>
      <trkpt lat="59.9740625" lon="17.723454">
        <ele>24.651</ele>
        <time>2013-05-07T15:31:09Z</time>
      </trkpt>
      <trkpt lat="59.974043" lon="17.7233292">
        <ele>25.1317</ele>
        <time>2013-05-07T15:31:10Z</time>
      </trkpt>
      <trkpt lat="59.9740213" lon="17.7232075">
        <ele>25.1317</ele>
        <time>2013-05-07T15:31:11Z</time>
      </trkpt>
      <trkpt lat="59.9739978" lon="17.7230883">
        <ele>25.1317</ele>
        <time>2013-05-07T15:31:12Z</time>
      </trkpt>
      <trkpt lat="59.9739726" lon="17.7229715">
        <ele>25.1317</ele>
        <time>2013-05-07T15:31:13Z</time>
      </trkpt>
      <trkpt lat="59.9739471" lon="17.7228577">
        <ele>25.1317</ele>
        <time>2013-05-07T15:31:14Z</time>
      </trkpt>
      <trkpt lat="59.9739207" lon="17.7227436">
        <ele>24.651</ele>
        <time>2013-05-07T15:31:15Z</time>
      </trkpt>
      <trkpt lat="59.9738937" lon="17.722632">
        <ele>24.651</ele>
        <time>2013-05-07T15:31:16Z</time>
      </trkpt>
      <trkpt lat="59.9738658" lon="17.7225229">
        <ele>24.651</ele>
        <time>2013-05-07T15:31:17Z</time>
      </trkpt>
      <trkpt lat="59.9738373" lon="17.7224155">
        <ele>24.1703</ele>
        <time>2013-05-07T15:31:18Z</time>
      </trkpt>
      <trkpt lat="59.9738067" lon="17.7223106">
        <ele>24.1703</ele>
        <time>2013-05-07T15:31:19Z</time>
      </trkpt>
      <trkpt lat="59.9737744" lon="17.7222056">
        <ele>24.1703</ele>
        <time>2013-05-07T15:31:20Z</time>
      </trkpt>
      <trkpt lat="59.9737405" lon="17.7221016">
        <ele>23.6896</ele>
        <time>2013-05-07T15:31:21Z</time>
      </trkpt>
      <trkpt lat="59.9737047" lon="17.7220008">
        <ele>23.6896</ele>
        <time>2013-05-07T15:31:22Z</time>
      </trkpt>
      <trkpt lat="59.973667" lon="17.7219005">
        <ele>24.1703</ele>
        <time>2013-05-07T15:31:23Z</time>
      </trkpt>
      <trkpt lat="59.9736295" lon="17.7218027">
        <ele>24.1703</ele>
        <time>2013-05-07T15:31:24Z</time>
      </trkpt>
      <trkpt lat="59.9735912" lon="17.7217069">
        <ele>24.651</ele>
        <time>2013-05-07T15:31:25Z</time>
      </trkpt>
      <trkpt lat="59.9735519" lon="17.721614">
        <ele>24.651</ele>
        <time>2013-05-07T15:31:26Z</time>
      </trkpt>
      <trkpt lat="59.9735115" lon="17.7215238">
        <ele>24.651</ele>
        <time>2013-05-07T15:31:27Z</time>
      </trkpt>
      <trkpt lat="59.9734696" lon="17.7214359">
        <ele>25.1317</ele>
        <time>2013-05-07T15:31:28Z</time>
      </trkpt>
      <trkpt lat="59.9734269" lon="17.7213479">
        <ele>25.1317</ele>
        <time>2013-05-07T15:31:29Z</time>
      </trkpt>
      <trkpt lat="59.973383" lon="17.7212603">
        <ele>25.1317</ele>
        <time>2013-05-07T15:31:30Z</time>
      </trkpt>
      <trkpt lat="59.9733379" lon="17.7211743">
        <ele>25.6123</ele>
        <time>2013-05-07T15:31:31Z</time>
      </trkpt>
      <trkpt lat="59.9732928" lon="17.7210914">
        <ele>25.6123</ele>
        <time>2013-05-07T15:31:32Z</time>
      </trkpt>
      <trkpt lat="59.9732476" lon="17.7210119">
        <ele>25.6123</ele>
        <time>2013-05-07T15:31:33Z</time>
      </trkpt>
      <trkpt lat="59.9732018" lon="17.7209349">
        <ele>26.0929</ele>
        <time>2013-05-07T15:31:34Z</time>
      </trkpt>
      <trkpt lat="59.9731554" lon="17.7208609">
        <ele>26.0929</ele>
        <time>2013-05-07T15:31:35Z</time>
      </trkpt>
      <trkpt lat="59.9731073" lon="17.7207879">
        <ele>26.0929</ele>
        <time>2013-05-07T15:31:36Z</time>
      </trkpt>
      <trkpt lat="59.9730571" lon="17.7207163">
        <ele>26.0929</ele>
        <time>2013-05-07T15:31:37Z</time>
      </trkpt>
      <trkpt lat="59.9730052" lon="17.7206468">
        <ele>26.5736</ele>
        <time>2013-05-07T15:31:38Z</time>
      </trkpt>
      <trkpt lat="59.9729519" lon="17.7205789">
        <ele>26.5736</ele>
        <time>2013-05-07T15:31:39Z</time>
      </trkpt>
      <trkpt lat="59.9728975" lon="17.7205111">
        <ele>26.5736</ele>
        <time>2013-05-07T15:31:40Z</time>
      </trkpt>
      <trkpt lat="59.9728427" lon="17.7204458">
        <ele>26.5736</ele>
        <time>2013-05-07T15:31:41Z</time>
      </trkpt>
      <trkpt lat="59.9727868" lon="17.7203828">
        <ele>27.0543</ele>
        <time>2013-05-07T15:31:42Z</time>
      </trkpt>
      <trkpt lat="59.9727296" lon="17.7203232">
        <ele>27.0543</ele>
        <time>2013-05-07T15:31:43Z</time>
      </trkpt>
      <trkpt lat="59.9726711" lon="17.7202688">
        <ele>27.0543</ele>
        <time>2013-05-07T15:31:44Z</time>
      </trkpt>
      <trkpt lat="59.972612" lon="17.7202163">
        <ele>27.0543</ele>
        <time>2013-05-07T15:31:45Z</time>
      </trkpt>
      <trkpt lat="59.9725531" lon="17.7201626">
        <ele>27.0543</ele>
        <time>2013-05-07T15:31:46Z</time>
      </trkpt>
      <trkpt lat="59.9724935" lon="17.7201082">
        <ele>27.0543</ele>
        <time>2013-05-07T15:31:47Z</time>
      </trkpt>
      <trkpt lat="59.9724331" lon="17.7200533">
        <ele>27.0543</ele>
        <time>2013-05-07T15:31:48Z</time>
      </trkpt>
      <trkpt lat="59.972373" lon="17.7199973">
        <ele>27.5349</ele>
        <time>2013-05-07T15:31:49Z</time>
      </trkpt>
      <trkpt lat="59.9723126" lon="17.7199446">
        <ele>27.5349</ele>
        <time>2013-05-07T15:31:50Z</time>
      </trkpt>
      <trkpt lat="59.9722509" lon="17.7198941">
        <ele>27.5349</ele>
        <time>2013-05-07T15:31:51Z</time>
      </trkpt>
      <trkpt lat="59.9721926" lon="17.719844">
        <ele>27.0543</ele>
        <time>2013-05-07T15:31:52Z</time>
      </trkpt>
      <trkpt lat="59.972135" lon="17.7197932">
        <ele>27.0543</ele>
        <time>2013-05-07T15:31:53Z</time>
      </trkpt>
      <trkpt lat="59.9720776" lon="17.7197415">
        <ele>27.0543</ele>
        <time>2013-05-07T15:31:54Z</time>
      </trkpt>
      <trkpt lat="59.9720206" lon="17.7196896">
        <ele>27.0543</ele>
        <time>2013-05-07T15:31:55Z</time>
      </trkpt>
      <trkpt lat="59.9719636" lon="17.7196397">
        <ele>27.0543</ele>
        <time>2013-05-07T15:31:56Z</time>
      </trkpt>
      <trkpt lat="59.9719065" lon="17.7195915">
        <ele>27.0543</ele>
        <time>2013-05-07T15:31:57Z</time>
      </trkpt>
      <trkpt lat="59.971849" lon="17.7195413">
        <ele>27.0543</ele>
        <time>2013-05-07T15:31:58Z</time>
      </trkpt>
      <trkpt lat="59.9717922" lon="17.7194869">
        <ele>27.0543</ele>
        <time>2013-05-07T15:31:59Z</time>
      </trkpt>
      <trkpt lat="59.9717347" lon="17.7194332">
        <ele>27.0543</ele>
        <time>2013-05-07T15:32:00Z</time>
      </trkpt>
      <trkpt lat="59.9716754" lon="17.7193838">
        <ele>27.0543</ele>
        <time>2013-05-07T15:32:01Z</time>
      </trkpt>
      <trkpt lat="59.9716155" lon="17.7193328">
        <ele>27.0543</ele>
        <time>2013-05-07T15:32:02Z</time>
      </trkpt>
      <trkpt lat="59.971556" lon="17.7192798">
        <ele>27.0543</ele>
        <time>2013-05-07T15:32:03Z</time>
      </trkpt>
      <trkpt lat="59.9714979" lon="17.7192281">
        <ele>27.0543</ele>
        <time>2013-05-07T15:32:04Z</time>
      </trkpt>
      <trkpt lat="59.9714398" lon="17.7191757">
        <ele>27.0543</ele>
        <time>2013-05-07T15:32:05Z</time>
      </trkpt>
      <trkpt lat="59.9713808" lon="17.7191228">
        <ele>27.0543</ele>
        <time>2013-05-07T15:32:06Z</time>
      </trkpt>
      <trkpt lat="59.9713212" lon="17.7190702">
        <ele>27.0543</ele>
        <time>2013-05-07T15:32:07Z</time>
      </trkpt>
      <trkpt lat="59.9712621" lon="17.7190181">
        <ele>27.5349</ele>
        <time>2013-05-07T15:32:08Z</time>
      </trkpt>
      <trkpt lat="59.9712042" lon="17.718967">
        <ele>27.5349</ele>
        <time>2013-05-07T15:32:09Z</time>
      </trkpt>
      <trkpt lat="59.9711465" lon="17.7189168">
        <ele>27.5349</ele>
        <time>2013-05-07T15:32:10Z</time>
      </trkpt>
      <trkpt lat="59.9710885" lon="17.718866">
        <ele>27.5349</ele>
        <time>2013-05-07T15:32:11Z</time>
      </trkpt>
      <trkpt lat="59.9710298" lon="17.7188145">
        <ele>27.5349</ele>
        <time>2013-05-07T15:32:12Z</time>
      </trkpt>
      <trkpt lat="59.9709707" lon="17.7187624">
        <ele>27.5349</ele>
        <time>2013-05-07T15:32:13Z</time>
      </trkpt>
      <trkpt lat="59.9709117" lon="17.7187093">
        <ele>27.5349</ele>
        <time>2013-05-07T15:32:14Z</time>
      </trkpt>
      <trkpt lat="59.9708523" lon="17.7186549">
        <ele>27.5349</ele>
        <time>2013-05-07T15:32:15Z</time>
      </trkpt>
      <trkpt lat="59.9707913" lon="17.7185996">
        <ele>28.0155</ele>
        <time>2013-05-07T15:32:16Z</time>
      </trkpt>
      <trkpt lat="59.9707292" lon="17.7185431">
        <ele>28.0155</ele>
        <time>2013-05-07T15:32:17Z</time>
      </trkpt>
      <trkpt lat="59.9706672" lon="17.7184852">
        <ele>28.0155</ele>
        <time>2013-05-07T15:32:18Z</time>
      </trkpt>
      <trkpt lat="59.9706053" lon="17.7184283">
        <ele>28.0155</ele>
        <time>2013-05-07T15:32:19Z</time>
      </trkpt>
      <trkpt lat="59.9705427" lon="17.7183722">
        <ele>28.0155</ele>
        <time>2013-05-07T15:32:20Z</time>
      </trkpt>
      <trkpt lat="59.970479" lon="17.7183148">
        <ele>28.4962</ele>
        <time>2013-05-07T15:32:21Z</time>
      </trkpt>
      <trkpt lat="59.9704142" lon="17.7182571">
        <ele>28.4962</ele>
        <time>2013-05-07T15:32:22Z</time>
      </trkpt>
      <trkpt lat="59.970349" lon="17.7181996">
        <ele>28.4962</ele>
        <time>2013-05-07T15:32:23Z</time>
      </trkpt>
      <trkpt lat="59.9702833" lon="17.7181414">
        <ele>28.9769</ele>
        <time>2013-05-07T15:32:24Z</time>
      </trkpt>
      <trkpt lat="59.9702175" lon="17.7180828">
        <ele>28.9769</ele>
        <time>2013-05-07T15:32:25Z</time>
      </trkpt>
      <trkpt lat="59.9701525" lon="17.7180242">
        <ele>28.9769</ele>
        <time>2013-05-07T15:32:26Z</time>
      </trkpt>
      <trkpt lat="59.970087" lon="17.717966">
        <ele>29.4575</ele>
        <time>2013-05-07T15:32:27Z</time>
      </trkpt>
      <trkpt lat="59.9700222" lon="17.717907">
        <ele>29.4575</ele>
        <time>2013-05-07T15:32:28Z</time>
      </trkpt>
      <trkpt lat="59.9699579" lon="17.7178484">
        <ele>29.9381</ele>
        <time>2013-05-07T15:32:29Z</time>
      </trkpt>
      <trkpt lat="59.9698936" lon="17.717793">
        <ele>29.9381</ele>
        <time>2013-05-07T15:32:30Z</time>
      </trkpt>
      <trkpt lat="59.9698299" lon="17.7177384">
        <ele>30.4188</ele>
        <time>2013-05-07T15:32:31Z</time>
      </trkpt>
      <trkpt lat="59.9697668" lon="17.7176863">
        <ele>30.4188</ele>
        <time>2013-05-07T15:32:32Z</time>
      </trkpt>
      <trkpt lat="59.9697037" lon="17.7176371">
        <ele>30.4188</ele>
        <time>2013-05-07T15:32:33Z</time>
      </trkpt>
      <trkpt lat="59.9696408" lon="17.7175905">
        <ele>30.8995</ele>
        <time>2013-05-07T15:32:34Z</time>
      </trkpt>
      <trkpt lat="59.9695786" lon="17.7175478">
        <ele>30.8995</ele>
        <time>2013-05-07T15:32:35Z</time>
      </trkpt>
      <trkpt lat="59.9695175" lon="17.7175096">
        <ele>30.8995</ele>
        <time>2013-05-07T15:32:36Z</time>
      </trkpt>
      <trkpt lat="59.9694575" lon="17.7174704">
        <ele>30.8995</ele>
        <time>2013-05-07T15:32:37Z</time>
      </trkpt>
      <trkpt lat="59.9693974" lon="17.7174332">
        <ele>30.8995</ele>
        <time>2013-05-07T15:32:38Z</time>
      </trkpt>
      <trkpt lat="59.9693374" lon="17.7173974">
        <ele>30.8995</ele>
        <time>2013-05-07T15:32:39Z</time>
      </trkpt>
      <trkpt lat="59.9692777" lon="17.7173648">
        <ele>30.4188</ele>
        <time>2013-05-07T15:32:40Z</time>
      </trkpt>
      <trkpt lat="59.9692192" lon="17.7173345">
        <ele>30.4188</ele>
        <time>2013-05-07T15:32:41Z</time>
      </trkpt>
      <trkpt lat="59.9691603" lon="17.7173066">
        <ele>30.4188</ele>
        <time>2013-05-07T15:32:42Z</time>
      </trkpt>
      <trkpt lat="59.9691002" lon="17.7172813">
        <ele>30.4188</ele>
        <time>2013-05-07T15:32:43Z</time>
      </trkpt>
      <trkpt lat="59.96904" lon="17.717256">
        <ele>30.4188</ele>
        <time>2013-05-07T15:32:44Z</time>
      </trkpt>
      <trkpt lat="59.9689799" lon="17.7172296">
        <ele>30.4188</ele>
        <time>2013-05-07T15:32:45Z</time>
      </trkpt>
      <trkpt lat="59.9689191" lon="17.7172007">
        <ele>30.4188</ele>
        <time>2013-05-07T15:32:46Z</time>
      </trkpt>
      <trkpt lat="59.9688582" lon="17.7171724">
        <ele>30.4188</ele>
        <time>2013-05-07T15:32:47Z</time>
      </trkpt>
      <trkpt lat="59.9687976" lon="17.7171472">
        <ele>30.4188</ele>
        <time>2013-05-07T15:32:48Z</time>
      </trkpt>
      <trkpt lat="59.9687369" lon="17.7171239">
        <ele>30.4188</ele>
        <time>2013-05-07T15:32:49Z</time>
      </trkpt>
      <trkpt lat="59.9686758" lon="17.7170965">
        <ele>29.9381</ele>
        <time>2013-05-07T15:32:50Z</time>
      </trkpt>
      <trkpt lat="59.9686132" lon="17.7170664">
        <ele>29.9381</ele>
        <time>2013-05-07T15:32:51Z</time>
      </trkpt>
      <trkpt lat="59.9685493" lon="17.7170348">
        <ele>29.9381</ele>
        <time>2013-05-07T15:32:52Z</time>
      </trkpt>
      <trkpt lat="59.9684842" lon="17.7170002">
        <ele>29.4575</ele>
        <time>2013-05-07T15:32:53Z</time>
      </trkpt>
      <trkpt lat="59.968417" lon="17.7169606">
        <ele>29.4575</ele>
        <time>2013-05-07T15:32:54Z</time>
      </trkpt>
      <trkpt lat="59.9683477" lon="17.7169137">
        <ele>28.9769</ele>
        <time>2013-05-07T15:32:55Z</time>
      </trkpt>
      <trkpt lat="59.9682766" lon="17.7168577">
        <ele>28.9769</ele>
        <time>2013-05-07T15:32:56Z</time>
      </trkpt>
      <trkpt lat="59.9682058" lon="17.7167882">
        <ele>28.4962</ele>
        <time>2013-05-07T15:32:57Z</time>
      </trkpt>
      <trkpt lat="59.9681361" lon="17.7167086">
        <ele>28.0155</ele>
        <time>2013-05-07T15:32:58Z</time>
      </trkpt>
      <trkpt lat="59.9680652" lon="17.7166152">
        <ele>28.0155</ele>
        <time>2013-05-07T15:32:59Z</time>
      </trkpt>
      <trkpt lat="59.9679973" lon="17.7165084">
        <ele>28.0155</ele>
        <time>2013-05-07T15:33:00Z</time>
      </trkpt>
      <trkpt lat="59.9679304" lon="17.7163908">
        <ele>27.5349</ele>
        <time>2013-05-07T15:33:01Z</time>
      </trkpt>
      <trkpt lat="59.9678641" lon="17.7162618">
        <ele>27.0543</ele>
        <time>2013-05-07T15:33:02Z</time>
      </trkpt>
      <trkpt lat="59.9678002" lon="17.7161195">
        <ele>26.5736</ele>
        <time>2013-05-07T15:33:03Z</time>
      </trkpt>
      <trkpt lat="59.9677403" lon="17.7159636">
        <ele>26.0929</ele>
        <time>2013-05-07T15:33:04Z</time>
      </trkpt>
      <trkpt lat="59.9676849" lon="17.7157941">
        <ele>25.6123</ele>
        <time>2013-05-07T15:33:05Z</time>
      </trkpt>
      <trkpt lat="59.9676356" lon="17.715609">
        <ele>25.1317</ele>
        <time>2013-05-07T15:33:06Z</time>
      </trkpt>
      <trkpt lat="59.9675886" lon="17.7154212">
        <ele>24.651</ele>
        <time>2013-05-07T15:33:07Z</time>
      </trkpt>
      <trkpt lat="59.9675596" lon="17.7152281">
        <ele>24.1703</ele>
        <time>2013-05-07T15:33:08Z</time>
      </trkpt>
      <trkpt lat="59.9675289" lon="17.7150326">
        <ele>23.6896</ele>
        <time>2013-05-07T15:33:09Z</time>
      </trkpt>
      <trkpt lat="59.9675008" lon="17.7148342">
        <ele>23.6896</ele>
        <time>2013-05-07T15:33:10Z</time>
      </trkpt>
      <trkpt lat="59.9674767" lon="17.7146438">
        <ele>24.1703</ele>
        <time>2013-05-07T15:33:11Z</time>
      </trkpt>
      <trkpt lat="59.9674531" lon="17.7144598">
        <ele>24.1703</ele>
        <time>2013-05-07T15:33:12Z</time>
      </trkpt>
      <trkpt lat="59.9674231" lon="17.7142853">
        <ele>24.651</ele>
        <time>2013-05-07T15:33:13Z</time>
      </trkpt>
      <trkpt lat="59.9673974" lon="17.7141146">
        <ele>25.6123</ele>
        <time>2013-05-07T15:33:14Z</time>
      </trkpt>
      <trkpt lat="59.9673754" lon="17.7139558">
        <ele>26.0929</ele>
        <time>2013-05-07T15:33:15Z</time>
      </trkpt>
      <trkpt lat="59.9673547" lon="17.7138035">
        <ele>26.0929</ele>
        <time>2013-05-07T15:33:16Z</time>
      </trkpt>
      <trkpt lat="59.9673326" lon="17.7136569">
        <ele>26.5736</ele>
        <time>2013-05-07T15:33:17Z</time>
      </trkpt>
      <trkpt lat="59.9673109" lon="17.7135179">
        <ele>26.5736</ele>
        <time>2013-05-07T15:33:18Z</time>
      </trkpt>
      <trkpt lat="59.9672895" lon="17.7133854">
        <ele>27.0543</ele>
        <time>2013-05-07T15:33:19Z</time>
      </trkpt>
      <trkpt lat="59.9672698" lon="17.7132685">
        <ele>27.0543</ele>
        <time>2013-05-07T15:33:20Z</time>
      </trkpt>
      <trkpt lat="59.9672463" lon="17.7131498">
        <ele>27.0543</ele>
        <time>2013-05-07T15:33:21Z</time>
      </trkpt>
      <trkpt lat="59.9672231" lon="17.7130371">
        <ele>27.5349</ele>
        <time>2013-05-07T15:33:22Z</time>
      </trkpt>
      <trkpt lat="59.967198" lon="17.7129243">
        <ele>27.5349</ele>
        <time>2013-05-07T15:33:23Z</time>
      </trkpt>
      <trkpt lat="59.9671714" lon="17.7128168">
        <ele>27.5349</ele>
        <time>2013-05-07T15:33:24Z</time>
      </trkpt>
      <trkpt lat="59.9671415" lon="17.7127088">
        <ele>28.0155</ele>
        <time>2013-05-07T15:33:25Z</time>
      </trkpt>
      <trkpt lat="59.9671098" lon="17.712603">
        <ele>28.0155</ele>
        <time>2013-05-07T15:33:26Z</time>
      </trkpt>
      <trkpt lat="59.9670771" lon="17.712496">
        <ele>28.4962</ele>
        <time>2013-05-07T15:33:27Z</time>
      </trkpt>
      <trkpt lat="59.9670434" lon="17.7123915">
        <ele>28.4962</ele>
        <time>2013-05-07T15:33:28Z</time>
      </trkpt>
      <trkpt lat="59.9670072" lon="17.7122888">
        <ele>28.9769</ele>
        <time>2013-05-07T15:33:29Z</time>
      </trkpt>
      <trkpt lat="59.9669663" lon="17.7121836">
        <ele>28.9769</ele>
        <time>2013-05-07T15:33:30Z</time>
      </trkpt>
      <trkpt lat="59.9669228" lon="17.7120741">
        <ele>29.4575</ele>
        <time>2013-05-07T15:33:31Z</time>
      </trkpt>
      <trkpt lat="59.9668815" lon="17.7119665">
        <ele>29.4575</ele>
        <time>2013-05-07T15:33:32Z</time>
      </trkpt>
      <trkpt lat="59.9668419" lon="17.7118604">
        <ele>29.4575</ele>
        <time>2013-05-07T15:33:33Z</time>
      </trkpt>
      <trkpt lat="59.9668023" lon="17.7117573">
        <ele>29.9381</ele>
        <time>2013-05-07T15:33:34Z</time>
      </trkpt>
      <trkpt lat="59.9667634" lon="17.7116526">
        <ele>29.9381</ele>
        <time>2013-05-07T15:33:35Z</time>
      </trkpt>
      <trkpt lat="59.966725" lon="17.7115437">
        <ele>29.9381</ele>
        <time>2013-05-07T15:33:36Z</time>
      </trkpt>
      <trkpt lat="59.9666872" lon="17.7114356">
        <ele>29.9381</ele>
        <time>2013-05-07T15:33:37Z</time>
      </trkpt>
      <trkpt lat="59.9666508" lon="17.7113259">
        <ele>29.9381</ele>
        <time>2013-05-07T15:33:38Z</time>
      </trkpt>
      <trkpt lat="59.9666162" lon="17.7112154">
        <ele>29.9381</ele>
        <time>2013-05-07T15:33:39Z</time>
      </trkpt>
      <trkpt lat="59.9665795" lon="17.7110996">
        <ele>30.4188</ele>
        <time>2013-05-07T15:33:40Z</time>
      </trkpt>
      <trkpt lat="59.9665458" lon="17.7109815">
        <ele>30.8995</ele>
        <time>2013-05-07T15:33:41Z</time>
      </trkpt>
      <trkpt lat="59.9665121" lon="17.7108633">
        <ele>30.8995</ele>
        <time>2013-05-07T15:33:42Z</time>
      </trkpt>
      <trkpt lat="59.9664769" lon="17.7107446">
        <ele>31.3801</ele>
        <time>2013-05-07T15:33:43Z</time>
      </trkpt>
      <trkpt lat="59.9664401" lon="17.7106207">
        <ele>31.8607</ele>
        <time>2013-05-07T15:33:44Z</time>
      </trkpt>
      <trkpt lat="59.9664069" lon="17.7104955">
        <ele>31.3801</ele>
        <time>2013-05-07T15:33:45Z</time>
      </trkpt>
      <trkpt lat="59.9663733" lon="17.7103681">
        <ele>31.8607</ele>
        <time>2013-05-07T15:33:46Z</time>
      </trkpt>
      <trkpt lat="59.9663381" lon="17.7102417">
        <ele>32.3416</ele>
        <time>2013-05-07T15:33:47Z</time>
      </trkpt>
      <trkpt lat="59.9663021" lon="17.7101147">
        <ele>32.3416</ele>
        <time>2013-05-07T15:33:48Z</time>
      </trkpt>
      <trkpt lat="59.9662681" lon="17.7099908">
        <ele>32.3416</ele>
        <time>2013-05-07T15:33:49Z</time>
      </trkpt>
      <trkpt lat="59.9662335" lon="17.7098685">
        <ele>31.8607</ele>
        <time>2013-05-07T15:33:50Z</time>
      </trkpt>
      <trkpt lat="59.9661993" lon="17.7097464">
        <ele>31.8607</ele>
        <time>2013-05-07T15:33:51Z</time>
      </trkpt>
      <trkpt lat="59.966166" lon="17.7096235">
        <ele>31.3801</ele>
        <time>2013-05-07T15:33:52Z</time>
      </trkpt>
      <trkpt lat="59.9661324" lon="17.709502">
        <ele>31.3801</ele>
        <time>2013-05-07T15:33:53Z</time>
      </trkpt>
      <trkpt lat="59.966097" lon="17.7093781">
        <ele>30.8995</ele>
        <time>2013-05-07T15:33:54Z</time>
      </trkpt>
      <trkpt lat="59.9660609" lon="17.7092539">
        <ele>30.8995</ele>
        <time>2013-05-07T15:33:55Z</time>
      </trkpt>
      <trkpt lat="59.9660255" lon="17.7091304">
        <ele>30.4188</ele>
        <time>2013-05-07T15:33:56Z</time>
      </trkpt>
      <trkpt lat="59.9659893" lon="17.7090063">
        <ele>29.9381</ele>
        <time>2013-05-07T15:33:57Z</time>
      </trkpt>
      <trkpt lat="59.9659506" lon="17.7088818">
        <ele>29.9381</ele>
        <time>2013-05-07T15:33:58Z</time>
      </trkpt>
      <trkpt lat="59.9659101" lon="17.7087574">
        <ele>29.9381</ele>
        <time>2013-05-07T15:33:59Z</time>
      </trkpt>
      <trkpt lat="59.9658677" lon="17.7086374">
        <ele>29.9381</ele>
        <time>2013-05-07T15:34:00Z</time>
      </trkpt>
      <trkpt lat="59.9658227" lon="17.7085206">
        <ele>30.4188</ele>
        <time>2013-05-07T15:34:01Z</time>
      </trkpt>
      <trkpt lat="59.9657755" lon="17.7084084">
        <ele>30.8995</ele>
        <time>2013-05-07T15:34:02Z</time>
      </trkpt>
      <trkpt lat="59.9657252" lon="17.7083017">
        <ele>30.8995</ele>
        <time>2013-05-07T15:34:03Z</time>
      </trkpt>
      <trkpt lat="59.9656713" lon="17.7082031">
        <ele>31.3801</ele>
        <time>2013-05-07T15:34:04Z</time>
      </trkpt>
      <trkpt lat="59.9656148" lon="17.7081142">
        <ele>31.3801</ele>
        <time>2013-05-07T15:34:05Z</time>
      </trkpt>
      <trkpt lat="59.9655555" lon="17.7080354">
        <ele>31.3801</ele>
        <time>2013-05-07T15:34:06Z</time>
      </trkpt>
      <trkpt lat="59.9654937" lon="17.7079687">
        <ele>31.3801</ele>
        <time>2013-05-07T15:34:07Z</time>
      </trkpt>
      <trkpt lat="59.9654304" lon="17.7079094">
        <ele>31.3801</ele>
        <time>2013-05-07T15:34:08Z</time>
      </trkpt>
      <trkpt lat="59.9653663" lon="17.7078536">
        <ele>31.3801</ele>
        <time>2013-05-07T15:34:09Z</time>
      </trkpt>
      <trkpt lat="59.9653022" lon="17.707799">
        <ele>31.3801</ele>
        <time>2013-05-07T15:34:10Z</time>
      </trkpt>
      <trkpt lat="59.9652381" lon="17.7077448">
        <ele>31.3801</ele>
        <time>2013-05-07T15:34:11Z</time>
      </trkpt>
      <trkpt lat="59.9651735" lon="17.7076936">
        <ele>30.8995</ele>
        <time>2013-05-07T15:34:12Z</time>
      </trkpt>
      <trkpt lat="59.9651078" lon="17.7076454">
        <ele>30.8995</ele>
        <time>2013-05-07T15:34:13Z</time>
      </trkpt>
      <trkpt lat="59.9650446" lon="17.7076016">
        <ele>30.8995</ele>
        <time>2013-05-07T15:34:14Z</time>
      </trkpt>
      <trkpt lat="59.9649809" lon="17.7075583">
        <ele>30.8995</ele>
        <time>2013-05-07T15:34:15Z</time>
      </trkpt>
      <trkpt lat="59.9649167" lon="17.7075153">
        <ele>30.4188</ele>
        <time>2013-05-07T15:34:16Z</time>
      </trkpt>
      <trkpt lat="59.9648523" lon="17.7074718">
        <ele>30.4188</ele>
        <time>2013-05-07T15:34:17Z</time>
      </trkpt>
      <trkpt lat="59.9647886" lon="17.7074269">
        <ele>30.4188</ele>
        <time>2013-05-07T15:34:18Z</time>
      </trkpt>
      <trkpt lat="59.9647251" lon="17.7073836">
        <ele>30.4188</ele>
        <time>2013-05-07T15:34:19Z</time>
      </trkpt>
      <trkpt lat="59.9646612" lon="17.7073455">
        <ele>30.4188</ele>
        <time>2013-05-07T15:34:20Z</time>
      </trkpt>
      <trkpt lat="59.9645965" lon="17.7073131">
        <ele>29.9381</ele>
        <time>2013-05-07T15:34:21Z</time>
      </trkpt>
      <trkpt lat="59.9645322" lon="17.7072764">
        <ele>29.9381</ele>
        <time>2013-05-07T15:34:22Z</time>
      </trkpt>
      <trkpt lat="59.9644665" lon="17.7072453">
        <ele>29.9381</ele>
        <time>2013-05-07T15:34:23Z</time>
      </trkpt>
      <trkpt lat="59.9643991" lon="17.7072171">
        <ele>29.9381</ele>
        <time>2013-05-07T15:34:24Z</time>
      </trkpt>
      <trkpt lat="59.9643297" lon="17.707192">
        <ele>29.9381</ele>
        <time>2013-05-07T15:34:25Z</time>
      </trkpt>
      <trkpt lat="59.9642594" lon="17.7071699">
        <ele>29.9381</ele>
        <time>2013-05-07T15:34:26Z</time>
      </trkpt>
      <trkpt lat="59.9641894" lon="17.7071506">
        <ele>29.9381</ele>
        <time>2013-05-07T15:34:27Z</time>
      </trkpt>
      <trkpt lat="59.9641199" lon="17.7071336">
        <ele>29.9381</ele>
        <time>2013-05-07T15:34:28Z</time>
      </trkpt>
      <trkpt lat="59.9640511" lon="17.7071196">
        <ele>29.9381</ele>
        <time>2013-05-07T15:34:29Z</time>
      </trkpt>
      <trkpt lat="59.9639822" lon="17.7071091">
        <ele>29.9381</ele>
        <time>2013-05-07T15:34:30Z</time>
      </trkpt>
      <trkpt lat="59.9639136" lon="17.7071">
        <ele>29.9381</ele>
        <time>2013-05-07T15:34:31Z</time>
      </trkpt>
      <trkpt lat="59.963845" lon="17.7070912">
        <ele>30.4188</ele>
        <time>2013-05-07T15:34:32Z</time>
      </trkpt>
      <trkpt lat="59.9637756" lon="17.7070811">
        <ele>30.4188</ele>
        <time>2013-05-07T15:34:33Z</time>
      </trkpt>
      <trkpt lat="59.9637064" lon="17.7070745">
        <ele>30.8995</ele>
        <time>2013-05-07T15:34:34Z</time>
      </trkpt>
      <trkpt lat="59.9636365" lon="17.7070714">
        <ele>30.8995</ele>
        <time>2013-05-07T15:34:35Z</time>
      </trkpt>
      <trkpt lat="59.963566" lon="17.7070698">
        <ele>31.3801</ele>
        <time>2013-05-07T15:34:36Z</time>
      </trkpt>
      <trkpt lat="59.9634953" lon="17.7070698">
        <ele>31.8607</ele>
        <time>2013-05-07T15:34:37Z</time>
      </trkpt>
      <trkpt lat="59.9634253" lon="17.7070679">
        <ele>31.8607</ele>
        <time>2013-05-07T15:34:38Z</time>
      </trkpt>
      <trkpt lat="59.963356" lon="17.7070652">
        <ele>32.3416</ele>
        <time>2013-05-07T15:34:39Z</time>
      </trkpt>
      <trkpt lat="59.963288" lon="17.7070662">
        <ele>32.8223</ele>
        <time>2013-05-07T15:34:40Z</time>
      </trkpt>
      <trkpt lat="59.9632223" lon="17.7070681">
        <ele>32.8223</ele>
        <time>2013-05-07T15:34:41Z</time>
      </trkpt>
      <trkpt lat="59.9631571" lon="17.7070673">
        <ele>32.8223</ele>
        <time>2013-05-07T15:34:42Z</time>
      </trkpt>
      <trkpt lat="59.9630921" lon="17.7070642">
        <ele>32.8223</ele>
        <time>2013-05-07T15:34:43Z</time>
      </trkpt>
      <trkpt lat="59.963027" lon="17.707063">
        <ele>33.3029</ele>
        <time>2013-05-07T15:34:44Z</time>
      </trkpt>
      <trkpt lat="59.9629594" lon="17.7070693">
        <ele>33.7834</ele>
        <time>2013-05-07T15:34:45Z</time>
      </trkpt>
      <trkpt lat="59.9628917" lon="17.7070753">
        <ele>34.2642</ele>
        <time>2013-05-07T15:34:46Z</time>
      </trkpt>
      <trkpt lat="59.9628239" lon="17.7070806">
        <ele>34.2642</ele>
        <time>2013-05-07T15:34:47Z</time>
      </trkpt>
      <trkpt lat="59.9627559" lon="17.70708">
        <ele>34.7449</ele>
        <time>2013-05-07T15:34:48Z</time>
      </trkpt>
      <trkpt lat="59.9626872" lon="17.707072">
        <ele>34.7449</ele>
        <time>2013-05-07T15:34:49Z</time>
      </trkpt>
      <trkpt lat="59.9626232" lon="17.7070532">
        <ele>34.7449</ele>
        <time>2013-05-07T15:34:50Z</time>
      </trkpt>
      <trkpt lat="59.9625608" lon="17.7070347">
        <ele>34.7449</ele>
        <time>2013-05-07T15:34:51Z</time>
      </trkpt>
      <trkpt lat="59.9624979" lon="17.7070132">
        <ele>34.2642</ele>
        <time>2013-05-07T15:34:52Z</time>
      </trkpt>
      <trkpt lat="59.9624348" lon="17.7069909">
        <ele>34.2642</ele>
        <time>2013-05-07T15:34:53Z</time>
      </trkpt>
      <trkpt lat="59.9623711" lon="17.7069664">
        <ele>33.7834</ele>
        <time>2013-05-07T15:34:54Z</time>
      </trkpt>
      <trkpt lat="59.962307" lon="17.7069378">
        <ele>33.7834</ele>
        <time>2013-05-07T15:34:55Z</time>
      </trkpt>
      <trkpt lat="59.9622435" lon="17.7069057">
        <ele>33.3029</ele>
        <time>2013-05-07T15:34:56Z</time>
      </trkpt>
      <trkpt lat="59.9621785" lon="17.7068705">
        <ele>33.3029</ele>
        <time>2013-05-07T15:34:57Z</time>
      </trkpt>
      <trkpt lat="59.9621142" lon="17.7068316">
        <ele>33.3029</ele>
        <time>2013-05-07T15:34:58Z</time>
      </trkpt>
      <trkpt lat="59.9620496" lon="17.7067913">
        <ele>33.3029</ele>
        <time>2013-05-07T15:34:59Z</time>
      </trkpt>
      <trkpt lat="59.9619848" lon="17.7067486">
        <ele>32.8223</ele>
        <time>2013-05-07T15:35:00Z</time>
      </trkpt>
      <trkpt lat="59.9619192" lon="17.7067025">
        <ele>32.8223</ele>
        <time>2013-05-07T15:35:01Z</time>
      </trkpt>
      <trkpt lat="59.961854" lon="17.7066517">
        <ele>32.8223</ele>
        <time>2013-05-07T15:35:02Z</time>
      </trkpt>
      <trkpt lat="59.9617904" lon="17.7065929">
        <ele>32.8223</ele>
        <time>2013-05-07T15:35:03Z</time>
      </trkpt>
      <trkpt lat="59.9617274" lon="17.7065249">
        <ele>32.8223</ele>
        <time>2013-05-07T15:35:04Z</time>
      </trkpt>
      <trkpt lat="59.9616646" lon="17.7064515">
        <ele>32.8223</ele>
        <time>2013-05-07T15:35:05Z</time>
      </trkpt>
      <trkpt lat="59.9616029" lon="17.7063704">
        <ele>32.8223</ele>
        <time>2013-05-07T15:35:06Z</time>
      </trkpt>
      <trkpt lat="59.9615423" lon="17.706283">
        <ele>32.8223</ele>
        <time>2013-05-07T15:35:07Z</time>
      </trkpt>
      <trkpt lat="59.9614833" lon="17.706188">
        <ele>33.3029</ele>
        <time>2013-05-07T15:35:08Z</time>
      </trkpt>
      <trkpt lat="59.9614279" lon="17.7060856">
        <ele>33.3029</ele>
        <time>2013-05-07T15:35:09Z</time>
      </trkpt>
      <trkpt lat="59.9613714" lon="17.7059826">
        <ele>33.3029</ele>
        <time>2013-05-07T15:35:10Z</time>
      </trkpt>
      <trkpt lat="59.9613158" lon="17.7058768">
        <ele>32.8223</ele>
        <time>2013-05-07T15:35:11Z</time>
      </trkpt>
      <trkpt lat="59.96126" lon="17.7057717">
        <ele>32.8223</ele>
        <time>2013-05-07T15:35:12Z</time>
      </trkpt>
      <trkpt lat="59.9612031" lon="17.7056722">
        <ele>32.8223</ele>
        <time>2013-05-07T15:35:13Z</time>
      </trkpt>
      <trkpt lat="59.9611464" lon="17.7055739">
        <ele>32.8223</ele>
        <time>2013-05-07T15:35:14Z</time>
      </trkpt>
      <trkpt lat="59.9610902" lon="17.7054765">
        <ele>33.3029</ele>
        <time>2013-05-07T15:35:15Z</time>
      </trkpt>
      <trkpt lat="59.9610358" lon="17.7053822">
        <ele>32.8223</ele>
        <time>2013-05-07T15:35:16Z</time>
      </trkpt>
      <trkpt lat="59.9609792" lon="17.7052905">
        <ele>32.8223</ele>
        <time>2013-05-07T15:35:17Z</time>
      </trkpt>
      <trkpt lat="59.9609223" lon="17.7051998">
        <ele>32.8223</ele>
        <time>2013-05-07T15:35:18Z</time>
      </trkpt>
      <trkpt lat="59.9608668" lon="17.7051118">
        <ele>32.8223</ele>
        <time>2013-05-07T15:35:19Z</time>
      </trkpt>
      <trkpt lat="59.9608078" lon="17.7050325">
        <ele>32.8223</ele>
        <time>2013-05-07T15:35:20Z</time>
      </trkpt>
      <trkpt lat="59.960746" lon="17.7049559">
        <ele>32.3416</ele>
        <time>2013-05-07T15:35:21Z</time>
      </trkpt>
      <trkpt lat="59.9606833" lon="17.7048806">
        <ele>31.8607</ele>
        <time>2013-05-07T15:35:22Z</time>
      </trkpt>
      <trkpt lat="59.9606234" lon="17.7048068">
        <ele>31.3801</ele>
        <time>2013-05-07T15:35:23Z</time>
      </trkpt>
      <trkpt lat="59.9605643" lon="17.7047357">
        <ele>30.8995</ele>
        <time>2013-05-07T15:35:24Z</time>
      </trkpt>
      <trkpt lat="59.9605047" lon="17.7046668">
        <ele>30.4188</ele>
        <time>2013-05-07T15:35:25Z</time>
      </trkpt>
      <trkpt lat="59.9604447" lon="17.7045982">
        <ele>30.8995</ele>
        <time>2013-05-07T15:35:26Z</time>
      </trkpt>
      <trkpt lat="59.9603844" lon="17.7045278">
        <ele>30.8995</ele>
        <time>2013-05-07T15:35:27Z</time>
      </trkpt>
      <trkpt lat="59.9603229" lon="17.7044561">
        <ele>31.3801</ele>
        <time>2013-05-07T15:35:28Z</time>
      </trkpt>
      <trkpt lat="59.9602603" lon="17.704385">
        <ele>30.8995</ele>
        <time>2013-05-07T15:35:29Z</time>
      </trkpt>
      <trkpt lat="59.9601984" lon="17.7043138">
        <ele>31.3801</ele>
        <time>2013-05-07T15:35:30Z</time>
      </trkpt>
      <trkpt lat="59.9601406" lon="17.7042318">
        <ele>31.8607</ele>
        <time>2013-05-07T15:35:31Z</time>
      </trkpt>
      <trkpt lat="59.9600862" lon="17.7041411">
        <ele>32.3416</ele>
        <time>2013-05-07T15:35:32Z</time>
      </trkpt>
      <trkpt lat="59.9600339" lon="17.7040437">
        <ele>32.3416</ele>
        <time>2013-05-07T15:35:33Z</time>
      </trkpt>
      <trkpt lat="59.9599805" lon="17.7039338">
        <ele>32.8223</ele>
        <time>2013-05-07T15:35:34Z</time>
      </trkpt>
      <trkpt lat="59.9599359" lon="17.7038214">
        <ele>33.3029</ele>
        <time>2013-05-07T15:35:35Z</time>
      </trkpt>
      <trkpt lat="59.9599003" lon="17.7037024">
        <ele>33.3029</ele>
        <time>2013-05-07T15:35:36Z</time>
      </trkpt>
      <trkpt lat="59.9598676" lon="17.7035822">
        <ele>33.3029</ele>
        <time>2013-05-07T15:35:37Z</time>
      </trkpt>
      <trkpt lat="59.9598338" lon="17.703464">
        <ele>33.3029</ele>
        <time>2013-05-07T15:35:38Z</time>
      </trkpt>
      <trkpt lat="59.9598002" lon="17.7033417">
        <ele>33.3029</ele>
        <time>2013-05-07T15:35:39Z</time>
      </trkpt>
      <trkpt lat="59.9597674" lon="17.7032247">
        <ele>33.3029</ele>
        <time>2013-05-07T15:35:40Z</time>
      </trkpt>
      <trkpt lat="59.959737" lon="17.7031191">
        <ele>33.3029</ele>
        <time>2013-05-07T15:35:41Z</time>
      </trkpt>
      <trkpt lat="59.9597058" lon="17.7030059">
        <ele>33.3029</ele>
        <time>2013-05-07T15:35:42Z</time>
      </trkpt>
      <trkpt lat="59.9596713" lon="17.7028947">
        <ele>33.3029</ele>
        <time>2013-05-07T15:35:43Z</time>
      </trkpt>
      <trkpt lat="59.9596385" lon="17.7027932">
        <ele>33.3029</ele>
        <time>2013-05-07T15:35:44Z</time>
      </trkpt>
      <trkpt lat="59.9596045" lon="17.7026917">
        <ele>33.7834</ele>
        <time>2013-05-07T15:35:45Z</time>
      </trkpt>
      <trkpt lat="59.9595686" lon="17.7025751">
        <ele>34.2642</ele>
        <time>2013-05-07T15:35:46Z</time>
      </trkpt>
      <trkpt lat="59.95953" lon="17.7024466">
        <ele>34.7449</ele>
        <time>2013-05-07T15:35:47Z</time>
      </trkpt>
      <trkpt lat="59.9594934" lon="17.7023187">
        <ele>34.7449</ele>
        <time>2013-05-07T15:35:48Z</time>
      </trkpt>
      <trkpt lat="59.9594584" lon="17.7021879">
        <ele>34.7449</ele>
        <time>2013-05-07T15:35:49Z</time>
      </trkpt>
      <trkpt lat="59.9594211" lon="17.7020528">
        <ele>34.7449</ele>
        <time>2013-05-07T15:35:50Z</time>
      </trkpt>
      <trkpt lat="59.9593822" lon="17.7019109">
        <ele>34.7449</ele>
        <time>2013-05-07T15:35:51Z</time>
      </trkpt>
      <trkpt lat="59.9593456" lon="17.7017731">
        <ele>35.2255</ele>
        <time>2013-05-07T15:35:52Z</time>
      </trkpt>
      <trkpt lat="59.9593113" lon="17.7016406">
        <ele>35.7061</ele>
        <time>2013-05-07T15:35:53Z</time>
      </trkpt>
      <trkpt lat="59.9592829" lon="17.7015093">
        <ele>35.7061</ele>
        <time>2013-05-07T15:35:54Z</time>
      </trkpt>
      <trkpt lat="59.9592613" lon="17.7013754">
        <ele>35.2255</ele>
        <time>2013-05-07T15:35:55Z</time>
      </trkpt>
      <trkpt lat="59.9592397" lon="17.7012451">
        <ele>34.7449</ele>
        <time>2013-05-07T15:35:56Z</time>
      </trkpt>
      <trkpt lat="59.9592196" lon="17.7011134">
        <ele>34.2642</ele>
        <time>2013-05-07T15:35:57Z</time>
      </trkpt>
      <trkpt lat="59.9592004" lon="17.7009777">
        <ele>34.2642</ele>
        <time>2013-05-07T15:35:58Z</time>
      </trkpt>
      <trkpt lat="59.9591828" lon="17.7008381">
        <ele>33.7834</ele>
        <time>2013-05-07T15:35:59Z</time>
      </trkpt>
      <trkpt lat="59.959166" lon="17.7006963">
        <ele>33.7834</ele>
        <time>2013-05-07T15:36:00Z</time>
      </trkpt>
      <trkpt lat="59.9591496" lon="17.7005538">
        <ele>33.3029</ele>
        <time>2013-05-07T15:36:01Z</time>
      </trkpt>
      <trkpt lat="59.9591344" lon="17.7004111">
        <ele>32.8223</ele>
        <time>2013-05-07T15:36:02Z</time>
      </trkpt>
      <trkpt lat="59.9591199" lon="17.7002653">
        <ele>32.3416</ele>
        <time>2013-05-07T15:36:03Z</time>
      </trkpt>
      <trkpt lat="59.9591082" lon="17.7001214">
        <ele>32.3416</ele>
        <time>2013-05-07T15:36:04Z</time>
      </trkpt>
      <trkpt lat="59.9590984" lon="17.6999792">
        <ele>31.8607</ele>
        <time>2013-05-07T15:36:05Z</time>
      </trkpt>
      <trkpt lat="59.9590875" lon="17.6998364">
        <ele>31.8607</ele>
        <time>2013-05-07T15:36:06Z</time>
      </trkpt>
      <trkpt lat="59.9590778" lon="17.6996958">
        <ele>31.3801</ele>
        <time>2013-05-07T15:36:07Z</time>
      </trkpt>
      <trkpt lat="59.9590681" lon="17.6995566">
        <ele>31.3801</ele>
        <time>2013-05-07T15:36:08Z</time>
      </trkpt>
      <trkpt lat="59.9590577" lon="17.6994186">
        <ele>31.3801</ele>
        <time>2013-05-07T15:36:09Z</time>
      </trkpt>
      <trkpt lat="59.9590508" lon="17.6992832">
        <ele>31.3801</ele>
        <time>2013-05-07T15:36:10Z</time>
      </trkpt>
      <trkpt lat="59.9590481" lon="17.6991547">
        <ele>30.8995</ele>
        <time>2013-05-07T15:36:11Z</time>
      </trkpt>
      <trkpt lat="59.959046" lon="17.6990282">
        <ele>30.8995</ele>
        <time>2013-05-07T15:36:12Z</time>
      </trkpt>
      <trkpt lat="59.9590453" lon="17.6989029">
        <ele>30.8995</ele>
        <time>2013-05-07T15:36:13Z</time>
      </trkpt>
      <trkpt lat="59.9590464" lon="17.6987771">
        <ele>31.3801</ele>
        <time>2013-05-07T15:36:14Z</time>
      </trkpt>
      <trkpt lat="59.9590456" lon="17.6986512">
        <ele>31.3801</ele>
        <time>2013-05-07T15:36:15Z</time>
      </trkpt>
      <trkpt lat="59.959046" lon="17.6985279">
        <ele>31.8607</ele>
        <time>2013-05-07T15:36:16Z</time>
      </trkpt>
      <trkpt lat="59.9590498" lon="17.6984123">
        <ele>31.8607</ele>
        <time>2013-05-07T15:36:17Z</time>
      </trkpt>
      <trkpt lat="59.9590469" lon="17.6982886">
        <ele>32.3416</ele>
        <time>2013-05-07T15:36:18Z</time>
      </trkpt>
      <trkpt lat="59.9590402" lon="17.6981578">
        <ele>32.3416</ele>
        <time>2013-05-07T15:36:19Z</time>
      </trkpt>
      <trkpt lat="59.9590314" lon="17.6980288">
        <ele>32.3416</ele>
        <time>2013-05-07T15:36:20Z</time>
      </trkpt>
      <trkpt lat="59.9590199" lon="17.6978983">
        <ele>32.3416</ele>
        <time>2013-05-07T15:36:21Z</time>
      </trkpt>
      <trkpt lat="59.9590083" lon="17.6977658">
        <ele>31.8607</ele>
        <time>2013-05-07T15:36:22Z</time>
      </trkpt>
      <trkpt lat="59.9589923" lon="17.6976289">
        <ele>31.8607</ele>
        <time>2013-05-07T15:36:23Z</time>
      </trkpt>
      <trkpt lat="59.9589721" lon="17.6974809">
        <ele>31.8607</ele>
        <time>2013-05-07T15:36:24Z</time>
      </trkpt>
      <trkpt lat="59.9589476" lon="17.6973359">
        <ele>31.3801</ele>
        <time>2013-05-07T15:36:25Z</time>
      </trkpt>
      <trkpt lat="59.9589186" lon="17.6971795">
        <ele>30.8995</ele>
        <time>2013-05-07T15:36:26Z</time>
      </trkpt>
      <trkpt lat="59.9588875" lon="17.697023">
        <ele>30.8995</ele>
        <time>2013-05-07T15:36:27Z</time>
      </trkpt>
      <trkpt lat="59.9588554" lon="17.6968759">
        <ele>30.4188</ele>
        <time>2013-05-07T15:36:28Z</time>
      </trkpt>
      <trkpt lat="59.9588208" lon="17.6967385">
        <ele>30.4188</ele>
        <time>2013-05-07T15:36:29Z</time>
      </trkpt>
      <trkpt lat="59.9587854" lon="17.6966048">
        <ele>29.9381</ele>
        <time>2013-05-07T15:36:30Z</time>
      </trkpt>
      <trkpt lat="59.958747" lon="17.6964764">
        <ele>29.9381</ele>
        <time>2013-05-07T15:36:31Z</time>
      </trkpt>
      <trkpt lat="59.9587062" lon="17.6963543">
        <ele>29.4575</ele>
        <time>2013-05-07T15:36:32Z</time>
      </trkpt>
      <trkpt lat="59.9586646" lon="17.696237">
        <ele>29.4575</ele>
        <time>2013-05-07T15:36:33Z</time>
      </trkpt>
      <trkpt lat="59.9586221" lon="17.6961236">
        <ele>29.4575</ele>
        <time>2013-05-07T15:36:34Z</time>
      </trkpt>
      <trkpt lat="59.9585793" lon="17.6960124">
        <ele>28.9769</ele>
        <time>2013-05-07T15:36:35Z</time>
      </trkpt>
      <trkpt lat="59.9585363" lon="17.6959011">
        <ele>28.9769</ele>
        <time>2013-05-07T15:36:36Z</time>
      </trkpt>
      <trkpt lat="59.9584923" lon="17.6957916">
        <ele>28.9769</ele>
        <time>2013-05-07T15:36:37Z</time>
      </trkpt>
      <trkpt lat="59.9584468" lon="17.6956835">
        <ele>28.9769</ele>
        <time>2013-05-07T15:36:38Z</time>
      </trkpt>
      <trkpt lat="59.9584028" lon="17.6955766">
        <ele>28.9769</ele>
        <time>2013-05-07T15:36:39Z</time>
      </trkpt>
      <trkpt lat="59.9583615" lon="17.6954701">
        <ele>28.9769</ele>
        <time>2013-05-07T15:36:40Z</time>
      </trkpt>
      <trkpt lat="59.9583176" lon="17.6953561">
        <ele>28.9769</ele>
        <time>2013-05-07T15:36:41Z</time>
      </trkpt>
      <trkpt lat="59.9582745" lon="17.695243">
        <ele>29.4575</ele>
        <time>2013-05-07T15:36:42Z</time>
      </trkpt>
      <trkpt lat="59.9582336" lon="17.6951355">
        <ele>29.4575</ele>
        <time>2013-05-07T15:36:43Z</time>
      </trkpt>
      <trkpt lat="59.958194" lon="17.6950282">
        <ele>29.4575</ele>
        <time>2013-05-07T15:36:44Z</time>
      </trkpt>
      <trkpt lat="59.9581549" lon="17.6949177">
        <ele>28.9769</ele>
        <time>2013-05-07T15:36:45Z</time>
      </trkpt>
      <trkpt lat="59.9581155" lon="17.694807">
        <ele>29.4575</ele>
        <time>2013-05-07T15:36:46Z</time>
      </trkpt>
      <trkpt lat="59.9580763" lon="17.6946973">
        <ele>29.4575</ele>
        <time>2013-05-07T15:36:47Z</time>
      </trkpt>
      <trkpt lat="59.9580373" lon="17.694588">
        <ele>29.4575</ele>
        <time>2013-05-07T15:36:48Z</time>
      </trkpt>
      <trkpt lat="59.9579998" lon="17.694477">
        <ele>28.9769</ele>
        <time>2013-05-07T15:36:49Z</time>
      </trkpt>
      <trkpt lat="59.957962" lon="17.6943636">
        <ele>28.9769</ele>
        <time>2013-05-07T15:36:50Z</time>
      </trkpt>
      <trkpt lat="59.9579231" lon="17.6942523">
        <ele>28.9769</ele>
        <time>2013-05-07T15:36:51Z</time>
      </trkpt>
      <trkpt lat="59.9578841" lon="17.694137">
        <ele>28.9769</ele>
        <time>2013-05-07T15:36:52Z</time>
      </trkpt>
      <trkpt lat="59.9578464" lon="17.6940226">
        <ele>28.9769</ele>
        <time>2013-05-07T15:36:53Z</time>
      </trkpt>
      <trkpt lat="59.9578091" lon="17.6939112">
        <ele>28.4962</ele>
        <time>2013-05-07T15:36:54Z</time>
      </trkpt>
      <trkpt lat="59.9577705" lon="17.6937988">
        <ele>28.4962</ele>
        <time>2013-05-07T15:36:55Z</time>
      </trkpt>
      <trkpt lat="59.9577314" lon="17.6936841">
        <ele>28.4962</ele>
        <time>2013-05-07T15:36:56Z</time>
      </trkpt>
      <trkpt lat="59.9576929" lon="17.6935688">
        <ele>28.0155</ele>
        <time>2013-05-07T15:36:57Z</time>
      </trkpt>
      <trkpt lat="59.9576539" lon="17.6934541">
        <ele>28.0155</ele>
        <time>2013-05-07T15:36:58Z</time>
      </trkpt>
      <trkpt lat="59.9576151" lon="17.6933405">
        <ele>28.0155</ele>
        <time>2013-05-07T15:36:59Z</time>
      </trkpt>
      <trkpt lat="59.957576" lon="17.6932286">
        <ele>27.5349</ele>
        <time>2013-05-07T15:37:00Z</time>
      </trkpt>
      <trkpt lat="59.9575395" lon="17.6931188">
        <ele>27.0543</ele>
        <time>2013-05-07T15:37:01Z</time>
      </trkpt>
      <trkpt lat="59.9575009" lon="17.693009">
        <ele>27.0543</ele>
        <time>2013-05-07T15:37:02Z</time>
      </trkpt>
      <trkpt lat="59.957462" lon="17.6928996">
        <ele>27.0543</ele>
        <time>2013-05-07T15:37:03Z</time>
      </trkpt>
      <trkpt lat="59.9574235" lon="17.6927909">
        <ele>27.0543</ele>
        <time>2013-05-07T15:37:04Z</time>
      </trkpt>
      <trkpt lat="59.9573853" lon="17.6926827">
        <ele>26.5736</ele>
        <time>2013-05-07T15:37:05Z</time>
      </trkpt>
      <trkpt lat="59.9573488" lon="17.6925764">
        <ele>26.5736</ele>
        <time>2013-05-07T15:37:06Z</time>
      </trkpt>
      <trkpt lat="59.9573137" lon="17.6924732">
        <ele>26.0929</ele>
        <time>2013-05-07T15:37:07Z</time>
      </trkpt>
      <trkpt lat="59.9572764" lon="17.6923606">
        <ele>25.6123</ele>
        <time>2013-05-07T15:37:08Z</time>
      </trkpt>
      <trkpt lat="59.9572409" lon="17.6922516">
        <ele>25.6123</ele>
        <time>2013-05-07T15:37:09Z</time>
      </trkpt>
      <trkpt lat="59.9572017" lon="17.6921387">
        <ele>26.5736</ele>
        <time>2013-05-07T15:37:10Z</time>
      </trkpt>
      <trkpt lat="59.9571667" lon="17.692028">
        <ele>26.0929</ele>
        <time>2013-05-07T15:37:11Z</time>
      </trkpt>
      <trkpt lat="59.9571342" lon="17.6919216">
        <ele>25.6123</ele>
        <time>2013-05-07T15:37:12Z</time>
      </trkpt>
      <trkpt lat="59.9570993" lon="17.6918133">
        <ele>25.6123</ele>
        <time>2013-05-07T15:37:13Z</time>
      </trkpt>
      <trkpt lat="59.9570569" lon="17.6916998">
        <ele>26.5736</ele>
        <time>2013-05-07T15:37:14Z</time>
      </trkpt>
      <trkpt lat="59.9570149" lon="17.6915881">
        <ele>27.0543</ele>
        <time>2013-05-07T15:37:15Z</time>
      </trkpt>
      <trkpt lat="59.9569746" lon="17.6914799">
        <ele>27.5349</ele>
        <time>2013-05-07T15:37:16Z</time>
      </trkpt>
      <trkpt lat="59.9569365" lon="17.6913786">
        <ele>28.0155</ele>
        <time>2013-05-07T15:37:17Z</time>
      </trkpt>
      <trkpt lat="59.9568989" lon="17.6912828">
        <ele>28.4962</ele>
        <time>2013-05-07T15:37:18Z</time>
      </trkpt>
      <trkpt lat="59.9568614" lon="17.6911876">
        <ele>28.9769</ele>
        <time>2013-05-07T15:37:19Z</time>
      </trkpt>
      <trkpt lat="59.9568258" lon="17.691094">
        <ele>28.9769</ele>
        <time>2013-05-07T15:37:20Z</time>
      </trkpt>
      <trkpt lat="59.9567932" lon="17.6910001">
        <ele>29.4575</ele>
        <time>2013-05-07T15:37:21Z</time>
      </trkpt>
      <trkpt lat="59.9567642" lon="17.6909018">
        <ele>29.9381</ele>
        <time>2013-05-07T15:37:22Z</time>
      </trkpt>
      <trkpt lat="59.9567343" lon="17.6908011">
        <ele>30.4188</ele>
        <time>2013-05-07T15:37:23Z</time>
      </trkpt>
      <trkpt lat="59.9567025" lon="17.6906982">
        <ele>31.8607</ele>
        <time>2013-05-07T15:37:24Z</time>
      </trkpt>
      <trkpt lat="59.9566692" lon="17.6905997">
        <ele>32.3416</ele>
        <time>2013-05-07T15:37:25Z</time>
      </trkpt>
      <trkpt lat="59.9566404" lon="17.6905109">
        <ele>32.3416</ele>
        <time>2013-05-07T15:37:26Z</time>
      </trkpt>
      <trkpt lat="59.9566138" lon="17.6904219">
        <ele>32.8223</ele>
        <time>2013-05-07T15:37:27Z</time>
      </trkpt>
      <trkpt lat="59.9565839" lon="17.6903325">
        <ele>32.8223</ele>
        <time>2013-05-07T15:37:28Z</time>
      </trkpt>
      <trkpt lat="59.9565559" lon="17.6902475">
        <ele>32.8223</ele>
        <time>2013-05-07T15:37:29Z</time>
      </trkpt>
      <trkpt lat="59.9565233" lon="17.6901454">
        <ele>32.8223</ele>
        <time>2013-05-07T15:37:30Z</time>
      </trkpt>
      <trkpt lat="59.9564938" lon="17.6900337">
        <ele>32.8223</ele>
        <time>2013-05-07T15:37:31Z</time>
      </trkpt>
      <trkpt lat="59.9564682" lon="17.689934">
        <ele>32.3416</ele>
        <time>2013-05-07T15:37:32Z</time>
      </trkpt>
      <trkpt lat="59.9564428" lon="17.689831">
        <ele>31.8607</ele>
        <time>2013-05-07T15:37:33Z</time>
      </trkpt>
      <trkpt lat="59.9564177" lon="17.6897257">
        <ele>32.3416</ele>
        <time>2013-05-07T15:37:34Z</time>
      </trkpt>
      <trkpt lat="59.9563918" lon="17.6896186">
        <ele>32.8223</ele>
        <time>2013-05-07T15:37:35Z</time>
      </trkpt>
      <trkpt lat="59.9563612" lon="17.6895015">
        <ele>33.7834</ele>
        <time>2013-05-07T15:37:36Z</time>
      </trkpt>
      <trkpt lat="59.9563368" lon="17.6893911">
        <ele>33.3029</ele>
        <time>2013-05-07T15:37:37Z</time>
      </trkpt>
      <trkpt lat="59.9563161" lon="17.6892886">
        <ele>33.3029</ele>
        <time>2013-05-07T15:37:38Z</time>
      </trkpt>
      <trkpt lat="59.9562919" lon="17.6891902">
        <ele>33.3029</ele>
        <time>2013-05-07T15:37:39Z</time>
      </trkpt>
      <trkpt lat="59.9562655" lon="17.6890921">
        <ele>33.3029</ele>
        <time>2013-05-07T15:37:40Z</time>
      </trkpt>
      <trkpt lat="59.9562384" lon="17.6889928">
        <ele>32.8223</ele>
        <time>2013-05-07T15:37:41Z</time>
      </trkpt>
      <trkpt lat="59.956208" lon="17.6888927">
        <ele>32.8223</ele>
        <time>2013-05-07T15:37:42Z</time>
      </trkpt>
      <trkpt lat="59.9561714" lon="17.6888047">
        <ele>32.8223</ele>
        <time>2013-05-07T15:37:43Z</time>
      </trkpt>
      <trkpt lat="59.9561203" lon="17.6887173">
        <ele>33.3029</ele>
        <time>2013-05-07T15:37:44Z</time>
      </trkpt>
      <trkpt lat="59.9560766" lon="17.6886395">
        <ele>33.3029</ele>
        <time>2013-05-07T15:37:45Z</time>
      </trkpt>
      <trkpt lat="59.9560385" lon="17.6885437">
        <ele>32.3416</ele>
        <time>2013-05-07T15:37:46Z</time>
      </trkpt>
      <trkpt lat="59.9560115" lon="17.6884293">
        <ele>31.8607</ele>
        <time>2013-05-07T15:37:47Z</time>
      </trkpt>
      <trkpt lat="59.9559907" lon="17.6883084">
        <ele>31.3801</ele>
        <time>2013-05-07T15:37:48Z</time>
      </trkpt>
      <trkpt lat="59.9559715" lon="17.6881866">
        <ele>31.3801</ele>
        <time>2013-05-07T15:37:49Z</time>
      </trkpt>
      <trkpt lat="59.9559535" lon="17.6880652">
        <ele>30.8995</ele>
        <time>2013-05-07T15:37:50Z</time>
      </trkpt>
      <trkpt lat="59.9559347" lon="17.6879429">
        <ele>30.4188</ele>
        <time>2013-05-07T15:37:51Z</time>
      </trkpt>
      <trkpt lat="59.9559155" lon="17.6878205">
        <ele>29.9381</ele>
        <time>2013-05-07T15:37:52Z</time>
      </trkpt>
      <trkpt lat="59.955897" lon="17.6876973">
        <ele>29.9381</ele>
        <time>2013-05-07T15:37:53Z</time>
      </trkpt>
      <trkpt lat="59.9558785" lon="17.6875725">
        <ele>29.4575</ele>
        <time>2013-05-07T15:37:54Z</time>
      </trkpt>
      <trkpt lat="59.9558616" lon="17.6874547">
        <ele>29.4575</ele>
        <time>2013-05-07T15:37:55Z</time>
      </trkpt>
      <trkpt lat="59.9558365" lon="17.6873314">
        <ele>30.4188</ele>
        <time>2013-05-07T15:37:56Z</time>
      </trkpt>
      <trkpt lat="59.9558169" lon="17.6872078">
        <ele>30.8995</ele>
        <time>2013-05-07T15:37:57Z</time>
      </trkpt>
      <trkpt lat="59.9557987" lon="17.6870876">
        <ele>30.8995</ele>
        <time>2013-05-07T15:37:58Z</time>
      </trkpt>
      <trkpt lat="59.9557834" lon="17.686972">
        <ele>30.4188</ele>
        <time>2013-05-07T15:37:59Z</time>
      </trkpt>
      <trkpt lat="59.9557623" lon="17.6868512">
        <ele>30.4188</ele>
        <time>2013-05-07T15:38:00Z</time>
      </trkpt>
      <trkpt lat="59.9557437" lon="17.6867346">
        <ele>30.4188</ele>
        <time>2013-05-07T15:38:01Z</time>
      </trkpt>
      <trkpt lat="59.9557275" lon="17.6866214">
        <ele>29.9381</ele>
        <time>2013-05-07T15:38:02Z</time>
      </trkpt>
      <trkpt lat="59.9557097" lon="17.6865039">
        <ele>29.9381</ele>
        <time>2013-05-07T15:38:03Z</time>
      </trkpt>
      <trkpt lat="59.955693" lon="17.6863882">
        <ele>29.4575</ele>
        <time>2013-05-07T15:38:04Z</time>
      </trkpt>
      <trkpt lat="59.9556764" lon="17.6862717">
        <ele>29.4575</ele>
        <time>2013-05-07T15:38:05Z</time>
      </trkpt>
      <trkpt lat="59.9556619" lon="17.6861594">
        <ele>28.9769</ele>
        <time>2013-05-07T15:38:06Z</time>
      </trkpt>
      <trkpt lat="59.9556453" lon="17.686032">
        <ele>28.4962</ele>
        <time>2013-05-07T15:38:07Z</time>
      </trkpt>
      <trkpt lat="59.9556273" lon="17.6859003">
        <ele>28.0155</ele>
        <time>2013-05-07T15:38:08Z</time>
      </trkpt>
      <trkpt lat="59.955611" lon="17.6857834">
        <ele>28.0155</ele>
        <time>2013-05-07T15:38:09Z</time>
      </trkpt>
      <trkpt lat="59.9555949" lon="17.6856672">
        <ele>27.5349</ele>
        <time>2013-05-07T15:38:10Z</time>
      </trkpt>
      <trkpt lat="59.9555783" lon="17.6855465">
        <ele>27.5349</ele>
        <time>2013-05-07T15:38:11Z</time>
      </trkpt>
      <trkpt lat="59.9555618" lon="17.6854251">
        <ele>27.5349</ele>
        <time>2013-05-07T15:38:12Z</time>
      </trkpt>
      <trkpt lat="59.9555447" lon="17.6853031">
        <ele>27.5349</ele>
        <time>2013-05-07T15:38:13Z</time>
      </trkpt>
      <trkpt lat="59.9555273" lon="17.6851845">
        <ele>27.5349</ele>
        <time>2013-05-07T15:38:14Z</time>
      </trkpt>
      <trkpt lat="59.9555092" lon="17.6850628">
        <ele>27.0543</ele>
        <time>2013-05-07T15:38:15Z</time>
      </trkpt>
      <trkpt lat="59.9554897" lon="17.684945">
        <ele>27.5349</ele>
        <time>2013-05-07T15:38:16Z</time>
      </trkpt>
      <trkpt lat="59.9554697" lon="17.6848269">
        <ele>28.0155</ele>
        <time>2013-05-07T15:38:17Z</time>
      </trkpt>
      <trkpt lat="59.9554504" lon="17.6847098">
        <ele>28.0155</ele>
        <time>2013-05-07T15:38:18Z</time>
      </trkpt>
      <trkpt lat="59.9554313" lon="17.684593">
        <ele>28.0155</ele>
        <time>2013-05-07T15:38:19Z</time>
      </trkpt>
      <trkpt lat="59.9554115" lon="17.6844748">
        <ele>28.0155</ele>
        <time>2013-05-07T15:38:20Z</time>
      </trkpt>
      <trkpt lat="59.9553885" lon="17.6843545">
        <ele>28.4962</ele>
        <time>2013-05-07T15:38:21Z</time>
      </trkpt>
      <trkpt lat="59.9553641" lon="17.6842298">
        <ele>28.9769</ele>
        <time>2013-05-07T15:38:22Z</time>
      </trkpt>
      <trkpt lat="59.9553443" lon="17.6841092">
        <ele>28.9769</ele>
        <time>2013-05-07T15:38:23Z</time>
      </trkpt>
      <trkpt lat="59.955324" lon="17.6839879">
        <ele>28.9769</ele>
        <time>2013-05-07T15:38:24Z</time>
      </trkpt>
      <trkpt lat="59.9553013" lon="17.6838666">
        <ele>28.4962</ele>
        <time>2013-05-07T15:38:25Z</time>
      </trkpt>
      <trkpt lat="59.9552766" lon="17.6837479">
        <ele>28.4962</ele>
        <time>2013-05-07T15:38:26Z</time>
      </trkpt>
      <trkpt lat="59.9552514" lon="17.6836308">
        <ele>28.0155</ele>
        <time>2013-05-07T15:38:27Z</time>
      </trkpt>
      <trkpt lat="59.9552277" lon="17.6835135">
        <ele>27.5349</ele>
        <time>2013-05-07T15:38:28Z</time>
      </trkpt>
      <trkpt lat="59.9552035" lon="17.6833957">
        <ele>27.5349</ele>
        <time>2013-05-07T15:38:29Z</time>
      </trkpt>
      <trkpt lat="59.9551759" lon="17.6832782">
        <ele>27.5349</ele>
        <time>2013-05-07T15:38:30Z</time>
      </trkpt>
      <trkpt lat="59.9551469" lon="17.6831642">
        <ele>27.5349</ele>
        <time>2013-05-07T15:38:31Z</time>
      </trkpt>
      <trkpt lat="59.9551147" lon="17.6830428">
        <ele>27.5349</ele>
        <time>2013-05-07T15:38:32Z</time>
      </trkpt>
      <trkpt lat="59.9550806" lon="17.6829143">
        <ele>28.4962</ele>
        <time>2013-05-07T15:38:33Z</time>
      </trkpt>
      <trkpt lat="59.9550499" lon="17.6828011">
        <ele>28.0155</ele>
        <time>2013-05-07T15:38:34Z</time>
      </trkpt>
      <trkpt lat="59.9550162" lon="17.6826835">
        <ele>28.0155</ele>
        <time>2013-05-07T15:38:35Z</time>
      </trkpt>
      <trkpt lat="59.954982" lon="17.6825647">
        <ele>28.0155</ele>
        <time>2013-05-07T15:38:36Z</time>
      </trkpt>
      <trkpt lat="59.9549475" lon="17.6824492">
        <ele>28.0155</ele>
        <time>2013-05-07T15:38:37Z</time>
      </trkpt>
      <trkpt lat="59.9549183" lon="17.6823478">
        <ele>27.0543</ele>
        <time>2013-05-07T15:38:38Z</time>
      </trkpt>
      <trkpt lat="59.9548869" lon="17.6822375">
        <ele>27.0543</ele>
        <time>2013-05-07T15:38:39Z</time>
      </trkpt>
      <trkpt lat="59.9548468" lon="17.6821282">
        <ele>26.5736</ele>
        <time>2013-05-07T15:38:40Z</time>
      </trkpt>
      <trkpt lat="59.9548009" lon="17.6820173">
        <ele>26.0929</ele>
        <time>2013-05-07T15:38:41Z</time>
      </trkpt>
      <trkpt lat="59.9547472" lon="17.6819317">
        <ele>26.0929</ele>
        <time>2013-05-07T15:38:42Z</time>
      </trkpt>
      <trkpt lat="59.9546881" lon="17.6818561">
        <ele>26.0929</ele>
        <time>2013-05-07T15:38:43Z</time>
      </trkpt>
      <trkpt lat="59.9546347" lon="17.6817656">
        <ele>26.0929</ele>
        <time>2013-05-07T15:38:44Z</time>
      </trkpt>
      <trkpt lat="59.9545933" lon="17.6816614">
        <ele>25.6123</ele>
        <time>2013-05-07T15:38:45Z</time>
      </trkpt>
      <trkpt lat="59.9545565" lon="17.6815532">
        <ele>25.6123</ele>
        <time>2013-05-07T15:38:46Z</time>
      </trkpt>
      <trkpt lat="59.9545181" lon="17.6814432">
        <ele>25.6123</ele>
        <time>2013-05-07T15:38:47Z</time>
      </trkpt>
      <trkpt lat="59.9544799" lon="17.6813321">
        <ele>25.6123</ele>
        <time>2013-05-07T15:38:48Z</time>
      </trkpt>
      <trkpt lat="59.9544436" lon="17.6812187">
        <ele>25.1317</ele>
        <time>2013-05-07T15:38:49Z</time>
      </trkpt>
      <trkpt lat="59.9544083" lon="17.6811051">
        <ele>25.1317</ele>
        <time>2013-05-07T15:38:50Z</time>
      </trkpt>
      <trkpt lat="59.9543749" lon="17.6809932">
        <ele>25.1317</ele>
        <time>2013-05-07T15:38:51Z</time>
      </trkpt>
      <trkpt lat="59.9543416" lon="17.6808811">
        <ele>25.6123</ele>
        <time>2013-05-07T15:38:52Z</time>
      </trkpt>
      <trkpt lat="59.9543074" lon="17.6807722">
        <ele>25.6123</ele>
        <time>2013-05-07T15:38:53Z</time>
      </trkpt>
      <trkpt lat="59.9542721" lon="17.6806667">
        <ele>26.0929</ele>
        <time>2013-05-07T15:38:54Z</time>
      </trkpt>
      <trkpt lat="59.9542364" lon="17.6805611">
        <ele>26.0929</ele>
        <time>2013-05-07T15:38:55Z</time>
      </trkpt>
      <trkpt lat="59.9542009" lon="17.6804549">
        <ele>26.0929</ele>
        <time>2013-05-07T15:38:56Z</time>
      </trkpt>
      <trkpt lat="59.9541643" lon="17.6803486">
        <ele>26.0929</ele>
        <time>2013-05-07T15:38:57Z</time>
      </trkpt>
      <trkpt lat="59.9541265" lon="17.680241">
        <ele>26.5736</ele>
        <time>2013-05-07T15:38:58Z</time>
      </trkpt>
      <trkpt lat="59.9540888" lon="17.6801321">
        <ele>26.5736</ele>
        <time>2013-05-07T15:38:59Z</time>
      </trkpt>
      <trkpt lat="59.9540519" lon="17.6800246">
        <ele>26.5736</ele>
        <time>2013-05-07T15:39:00Z</time>
      </trkpt>
      <trkpt lat="59.9540155" lon="17.679919">
        <ele>26.5736</ele>
        <time>2013-05-07T15:39:01Z</time>
      </trkpt>
      <trkpt lat="59.9539793" lon="17.6798146">
        <ele>27.0543</ele>
        <time>2013-05-07T15:39:02Z</time>
      </trkpt>
      <trkpt lat="59.9539457" lon="17.6797117">
        <ele>27.0543</ele>
        <time>2013-05-07T15:39:03Z</time>
      </trkpt>
      <trkpt lat="59.9539132" lon="17.6796091">
        <ele>26.5736</ele>
        <time>2013-05-07T15:39:04Z</time>
      </trkpt>
      <trkpt lat="59.9538815" lon="17.6795086">
        <ele>26.5736</ele>
        <time>2013-05-07T15:39:05Z</time>
      </trkpt>
      <trkpt lat="59.9538504" lon="17.6794097">
        <ele>26.5736</ele>
        <time>2013-05-07T15:39:06Z</time>
      </trkpt>
      <trkpt lat="59.9538194" lon="17.6793107">
        <ele>26.5736</ele>
        <time>2013-05-07T15:39:07Z</time>
      </trkpt>
      <trkpt lat="59.9537878" lon="17.6792128">
        <ele>26.0929</ele>
        <time>2013-05-07T15:39:08Z</time>
      </trkpt>
      <trkpt lat="59.9537551" lon="17.679114">
        <ele>26.5736</ele>
        <time>2013-05-07T15:39:09Z</time>
      </trkpt>
      <trkpt lat="59.9537225" lon="17.6790191">
        <ele>26.0929</ele>
        <time>2013-05-07T15:39:10Z</time>
      </trkpt>
      <trkpt lat="59.9536889" lon="17.6789241">
        <ele>26.0929</ele>
        <time>2013-05-07T15:39:11Z</time>
      </trkpt>
      <trkpt lat="59.9536567" lon="17.6788316">
        <ele>26.5736</ele>
        <time>2013-05-07T15:39:12Z</time>
      </trkpt>
      <trkpt lat="59.9536244" lon="17.6787379">
        <ele>26.0929</ele>
        <time>2013-05-07T15:39:13Z</time>
      </trkpt>
      <trkpt lat="59.9535934" lon="17.6786461">
        <ele>26.0929</ele>
        <time>2013-05-07T15:39:14Z</time>
      </trkpt>
      <trkpt lat="59.9535617" lon="17.6785504">
        <ele>26.0929</ele>
        <time>2013-05-07T15:39:15Z</time>
      </trkpt>
      <trkpt lat="59.9535301" lon="17.678457">
        <ele>26.0929</ele>
        <time>2013-05-07T15:39:16Z</time>
      </trkpt>
      <trkpt lat="59.9534986" lon="17.6783636">
        <ele>26.0929</ele>
        <time>2013-05-07T15:39:17Z</time>
      </trkpt>
      <trkpt lat="59.953466" lon="17.6782662">
        <ele>25.6123</ele>
        <time>2013-05-07T15:39:18Z</time>
      </trkpt>
      <trkpt lat="59.9534346" lon="17.6781733">
        <ele>25.6123</ele>
        <time>2013-05-07T15:39:19Z</time>
      </trkpt>
      <trkpt lat="59.953396" lon="17.6780711">
        <ele>24.651</ele>
        <time>2013-05-07T15:39:20Z</time>
      </trkpt>
      <trkpt lat="59.9533552" lon="17.6779642">
        <ele>24.651</ele>
        <time>2013-05-07T15:39:21Z</time>
      </trkpt>
      <trkpt lat="59.9533189" lon="17.677855">
        <ele>25.1317</ele>
        <time>2013-05-07T15:39:22Z</time>
      </trkpt>
      <trkpt lat="59.9532807" lon="17.6777451">
        <ele>25.6123</ele>
        <time>2013-05-07T15:39:23Z</time>
      </trkpt>
      <trkpt lat="59.9532505" lon="17.6776514">
        <ele>26.0929</ele>
        <time>2013-05-07T15:39:24Z</time>
      </trkpt>
      <trkpt lat="59.9532179" lon="17.677552">
        <ele>26.0929</ele>
        <time>2013-05-07T15:39:25Z</time>
      </trkpt>
      <trkpt lat="59.9531835" lon="17.6774535">
        <ele>26.5736</ele>
        <time>2013-05-07T15:39:26Z</time>
      </trkpt>
      <trkpt lat="59.9531495" lon="17.6773568">
        <ele>26.5736</ele>
        <time>2013-05-07T15:39:27Z</time>
      </trkpt>
      <trkpt lat="59.9531151" lon="17.677262">
        <ele>26.5736</ele>
        <time>2013-05-07T15:39:28Z</time>
      </trkpt>
      <trkpt lat="59.9530797" lon="17.6771618">
        <ele>26.0929</ele>
        <time>2013-05-07T15:39:29Z</time>
      </trkpt>
      <trkpt lat="59.9530464" lon="17.6770615">
        <ele>26.0929</ele>
        <time>2013-05-07T15:39:30Z</time>
      </trkpt>
      <trkpt lat="59.9530121" lon="17.6769688">
        <ele>25.6123</ele>
        <time>2013-05-07T15:39:31Z</time>
      </trkpt>
      <trkpt lat="59.9529799" lon="17.6768797">
        <ele>25.6123</ele>
        <time>2013-05-07T15:39:32Z</time>
      </trkpt>
      <trkpt lat="59.952948" lon="17.6767927">
        <ele>25.6123</ele>
        <time>2013-05-07T15:39:33Z</time>
      </trkpt>
      <trkpt lat="59.9529144" lon="17.676707">
        <ele>25.6123</ele>
        <time>2013-05-07T15:39:34Z</time>
      </trkpt>
      <trkpt lat="59.9528807" lon="17.6766233">
        <ele>25.6123</ele>
        <time>2013-05-07T15:39:35Z</time>
      </trkpt>
      <trkpt lat="59.9528464" lon="17.676542">
        <ele>25.6123</ele>
        <time>2013-05-07T15:39:36Z</time>
      </trkpt>
      <trkpt lat="59.9528129" lon="17.6764616">
        <ele>25.6123</ele>
        <time>2013-05-07T15:39:37Z</time>
      </trkpt>
      <trkpt lat="59.9527821" lon="17.6763818">
        <ele>25.6123</ele>
        <time>2013-05-07T15:39:38Z</time>
      </trkpt>
      <trkpt lat="59.9527533" lon="17.676298">
        <ele>25.6123</ele>
        <time>2013-05-07T15:39:39Z</time>
      </trkpt>
      <trkpt lat="59.9527246" lon="17.6762108">
        <ele>25.6123</ele>
        <time>2013-05-07T15:39:40Z</time>
      </trkpt>
      <trkpt lat="59.9526945" lon="17.6761209">
        <ele>25.6123</ele>
        <time>2013-05-07T15:39:41Z</time>
      </trkpt>
      <trkpt lat="59.952664" lon="17.6760332">
        <ele>25.6123</ele>
        <time>2013-05-07T15:39:42Z</time>
      </trkpt>
      <trkpt lat="59.9526346" lon="17.6759514">
        <ele>26.0929</ele>
        <time>2013-05-07T15:39:43Z</time>
      </trkpt>
      <trkpt lat="59.9526049" lon="17.6758722">
        <ele>26.0929</ele>
        <time>2013-05-07T15:39:44Z</time>
      </trkpt>
      <trkpt lat="59.9525752" lon="17.6757948">
        <ele>26.5736</ele>
        <time>2013-05-07T15:39:45Z</time>
      </trkpt>
      <trkpt lat="59.9525458" lon="17.6757212">
        <ele>26.5736</ele>
        <time>2013-05-07T15:39:46Z</time>
      </trkpt>
      <trkpt lat="59.9525166" lon="17.6756526">
        <ele>26.5736</ele>
        <time>2013-05-07T15:39:47Z</time>
      </trkpt>
      <trkpt lat="59.9524887" lon="17.6755878">
        <ele>27.0543</ele>
        <time>2013-05-07T15:39:48Z</time>
      </trkpt>
      <trkpt lat="59.9524622" lon="17.6755278">
        <ele>26.5736</ele>
        <time>2013-05-07T15:39:49Z</time>
      </trkpt>
      <trkpt lat="59.9524374" lon="17.6754671">
        <ele>26.5736</ele>
        <time>2013-05-07T15:39:50Z</time>
      </trkpt>
      <trkpt lat="59.9524155" lon="17.6754009">
        <ele>26.5736</ele>
        <time>2013-05-07T15:39:51Z</time>
      </trkpt>
      <trkpt lat="59.9523952" lon="17.6753336">
        <ele>27.0543</ele>
        <time>2013-05-07T15:39:52Z</time>
      </trkpt>
      <trkpt lat="59.9523725" lon="17.6752688">
        <ele>27.0543</ele>
        <time>2013-05-07T15:39:53Z</time>
      </trkpt>
      <trkpt lat="59.9523514" lon="17.6752029">
        <ele>27.0543</ele>
        <time>2013-05-07T15:39:54Z</time>
      </trkpt>
      <trkpt lat="59.952332" lon="17.6751326">
        <ele>27.0543</ele>
        <time>2013-05-07T15:39:55Z</time>
      </trkpt>
      <trkpt lat="59.9523114" lon="17.6750543">
        <ele>27.5349</ele>
        <time>2013-05-07T15:39:56Z</time>
      </trkpt>
      <trkpt lat="59.9522927" lon="17.6749683">
        <ele>27.0543</ele>
        <time>2013-05-07T15:39:57Z</time>
      </trkpt>
      <trkpt lat="59.9522766" lon="17.6748828">
        <ele>26.5736</ele>
        <time>2013-05-07T15:39:58Z</time>
      </trkpt>
      <trkpt lat="59.9522618" lon="17.6747911">
        <ele>26.0929</ele>
        <time>2013-05-07T15:39:59Z</time>
      </trkpt>
      <trkpt lat="59.9522461" lon="17.6746884">
        <ele>25.6123</ele>
        <time>2013-05-07T15:40:00Z</time>
      </trkpt>
      <trkpt lat="59.9522296" lon="17.6745715">
        <ele>25.1317</ele>
        <time>2013-05-07T15:40:01Z</time>
      </trkpt>
      <trkpt lat="59.9522071" lon="17.6744508">
        <ele>24.651</ele>
        <time>2013-05-07T15:40:02Z</time>
      </trkpt>
      <trkpt lat="59.9521845" lon="17.674335">
        <ele>25.1317</ele>
        <time>2013-05-07T15:40:03Z</time>
      </trkpt>
      <trkpt lat="59.9521581" lon="17.6742222">
        <ele>25.1317</ele>
        <time>2013-05-07T15:40:04Z</time>
      </trkpt>
      <trkpt lat="59.9521322" lon="17.6741095">
        <ele>24.651</ele>
        <time>2013-05-07T15:40:05Z</time>
      </trkpt>
      <trkpt lat="59.952109" lon="17.6739921">
        <ele>24.651</ele>
        <time>2013-05-07T15:40:06Z</time>
      </trkpt>
      <trkpt lat="59.9520876" lon="17.6738735">
        <ele>24.651</ele>
        <time>2013-05-07T15:40:07Z</time>
      </trkpt>
      <trkpt lat="59.9520655" lon="17.6737504">
        <ele>24.1703</ele>
        <time>2013-05-07T15:40:08Z</time>
      </trkpt>
      <trkpt lat="59.9520424" lon="17.673624">
        <ele>24.1703</ele>
        <time>2013-05-07T15:40:09Z</time>
      </trkpt>
      <trkpt lat="59.9520187" lon="17.6734941">
        <ele>23.6896</ele>
        <time>2013-05-07T15:40:10Z</time>
      </trkpt>
      <trkpt lat="59.9519962" lon="17.6733631">
        <ele>23.6896</ele>
        <time>2013-05-07T15:40:11Z</time>
      </trkpt>
      <trkpt lat="59.9519751" lon="17.6732323">
        <ele>23.6896</ele>
        <time>2013-05-07T15:40:12Z</time>
      </trkpt>
      <trkpt lat="59.951953" lon="17.673097">
        <ele>23.209</ele>
        <time>2013-05-07T15:40:13Z</time>
      </trkpt>
      <trkpt lat="59.9519322" lon="17.6729575">
        <ele>23.209</ele>
        <time>2013-05-07T15:40:14Z</time>
      </trkpt>
      <trkpt lat="59.9519129" lon="17.672817">
        <ele>22.7283</ele>
        <time>2013-05-07T15:40:15Z</time>
      </trkpt>
      <trkpt lat="59.9518939" lon="17.6726764">
        <ele>22.7283</ele>
        <time>2013-05-07T15:40:16Z</time>
      </trkpt>
      <trkpt lat="59.9518768" lon="17.6725344">
        <ele>22.2476</ele>
        <time>2013-05-07T15:40:17Z</time>
      </trkpt>
      <trkpt lat="59.9518608" lon="17.6723916">
        <ele>22.2476</ele>
        <time>2013-05-07T15:40:18Z</time>
      </trkpt>
      <trkpt lat="59.9518447" lon="17.672249">
        <ele>21.767</ele>
        <time>2013-05-07T15:40:19Z</time>
      </trkpt>
      <trkpt lat="59.9518282" lon="17.6721057">
        <ele>21.2864</ele>
        <time>2013-05-07T15:40:20Z</time>
      </trkpt>
      <trkpt lat="59.9518165" lon="17.6719664">
        <ele>21.2864</ele>
        <time>2013-05-07T15:40:21Z</time>
      </trkpt>
      <trkpt lat="59.9518101" lon="17.6718271">
        <ele>20.8057</ele>
        <time>2013-05-07T15:40:22Z</time>
      </trkpt>
      <trkpt lat="59.9518068" lon="17.6716938">
        <ele>20.8057</ele>
        <time>2013-05-07T15:40:23Z</time>
      </trkpt>
      <trkpt lat="59.9518047" lon="17.6715582">
        <ele>20.8057</ele>
        <time>2013-05-07T15:40:24Z</time>
      </trkpt>
      <trkpt lat="59.9517981" lon="17.671415">
        <ele>21.2864</ele>
        <time>2013-05-07T15:40:25Z</time>
      </trkpt>
      <trkpt lat="59.951784" lon="17.6712837">
        <ele>21.2864</ele>
        <time>2013-05-07T15:40:26Z</time>
      </trkpt>
      <trkpt lat="59.9517603" lon="17.6711465">
        <ele>20.8057</ele>
        <time>2013-05-07T15:40:27Z</time>
      </trkpt>
      <trkpt lat="59.9517374" lon="17.6710099">
        <ele>21.2864</ele>
        <time>2013-05-07T15:40:28Z</time>
      </trkpt>
      <trkpt lat="59.9517236" lon="17.670852">
        <ele>21.2864</ele>
        <time>2013-05-07T15:40:29Z</time>
      </trkpt>
      <trkpt lat="59.9517264" lon="17.6706912">
        <ele>20.8057</ele>
        <time>2013-05-07T15:40:30Z</time>
      </trkpt>
      <trkpt lat="59.9517379" lon="17.6705315">
        <ele>20.325</ele>
        <time>2013-05-07T15:40:31Z</time>
      </trkpt>
      <trkpt lat="59.9517488" lon="17.6703747">
        <ele>20.325</ele>
        <time>2013-05-07T15:40:32Z</time>
      </trkpt>
      <trkpt lat="59.9517566" lon="17.670218">
        <ele>20.325</ele>
        <time>2013-05-07T15:40:33Z</time>
      </trkpt>
      <trkpt lat="59.9517658" lon="17.6700646">
        <ele>20.325</ele>
        <time>2013-05-07T15:40:34Z</time>
      </trkpt>
      <trkpt lat="59.9517736" lon="17.6699159">
        <ele>20.8057</ele>
        <time>2013-05-07T15:40:35Z</time>
      </trkpt>
      <trkpt lat="59.9517795" lon="17.6697701">
        <ele>20.8057</ele>
        <time>2013-05-07T15:40:36Z</time>
      </trkpt>
      <trkpt lat="59.9517852" lon="17.669628">
        <ele>20.8057</ele>
        <time>2013-05-07T15:40:37Z</time>
      </trkpt>
      <trkpt lat="59.9517924" lon="17.6694899">
        <ele>21.2864</ele>
        <time>2013-05-07T15:40:38Z</time>
      </trkpt>
      <trkpt lat="59.9517982" lon="17.6693587">
        <ele>21.2864</ele>
        <time>2013-05-07T15:40:39Z</time>
      </trkpt>
      <trkpt lat="59.9518031" lon="17.6692308">
        <ele>20.8057</ele>
        <time>2013-05-07T15:40:40Z</time>
      </trkpt>
      <trkpt lat="59.9518082" lon="17.669105">
        <ele>20.325</ele>
        <time>2013-05-07T15:40:41Z</time>
      </trkpt>
      <trkpt lat="59.9518127" lon="17.6689827">
        <ele>20.325</ele>
        <time>2013-05-07T15:40:42Z</time>
      </trkpt>
      <trkpt lat="59.9518137" lon="17.6688594">
        <ele>20.325</ele>
        <time>2013-05-07T15:40:43Z</time>
      </trkpt>
      <trkpt lat="59.9518063" lon="17.6687346">
        <ele>19.8444</ele>
        <time>2013-05-07T15:40:44Z</time>
      </trkpt>
      <trkpt lat="59.9517892" lon="17.6686134">
        <ele>19.8444</ele>
        <time>2013-05-07T15:40:45Z</time>
      </trkpt>
      <trkpt lat="59.9517652" lon="17.6684947">
        <ele>19.3638</ele>
        <time>2013-05-07T15:40:46Z</time>
      </trkpt>
      <trkpt lat="59.9517367" lon="17.6683751">
        <ele>19.3638</ele>
        <time>2013-05-07T15:40:47Z</time>
      </trkpt>
      <trkpt lat="59.9517041" lon="17.6682528">
        <ele>19.3638</ele>
        <time>2013-05-07T15:40:48Z</time>
      </trkpt>
      <trkpt lat="59.9516649" lon="17.668146">
        <ele>19.3638</ele>
        <time>2013-05-07T15:40:49Z</time>
      </trkpt>
      <trkpt lat="59.9516167" lon="17.6680653">
        <ele>19.3638</ele>
        <time>2013-05-07T15:40:50Z</time>
      </trkpt>
      <trkpt lat="59.9515583" lon="17.6680171">
        <ele>19.3638</ele>
        <time>2013-05-07T15:40:51Z</time>
      </trkpt>
      <trkpt lat="59.951494" lon="17.6679932">
        <ele>19.3638</ele>
        <time>2013-05-07T15:40:52Z</time>
      </trkpt>
      <trkpt lat="59.9514271" lon="17.6679999">
        <ele>19.8444</ele>
        <time>2013-05-07T15:40:53Z</time>
      </trkpt>
      <trkpt lat="59.9513623" lon="17.6680114">
        <ele>19.3638</ele>
        <time>2013-05-07T15:40:54Z</time>
      </trkpt>
      <trkpt lat="59.9512966" lon="17.6680238">
        <ele>18.8831</ele>
        <time>2013-05-07T15:40:55Z</time>
      </trkpt>
      <trkpt lat="59.9512333" lon="17.6680433">
        <ele>18.8831</ele>
        <time>2013-05-07T15:40:56Z</time>
      </trkpt>
      <trkpt lat="59.9511707" lon="17.6680687">
        <ele>18.4023</ele>
        <time>2013-05-07T15:40:57Z</time>
      </trkpt>
      <trkpt lat="59.9511105" lon="17.6680899">
        <ele>19.3638</ele>
        <time>2013-05-07T15:40:58Z</time>
      </trkpt>
      <trkpt lat="59.9510504" lon="17.6681109">
        <ele>19.8444</ele>
        <time>2013-05-07T15:40:59Z</time>
      </trkpt>
      <trkpt lat="59.9509915" lon="17.6681331">
        <ele>19.8444</ele>
        <time>2013-05-07T15:41:00Z</time>
      </trkpt>
      <trkpt lat="59.9509329" lon="17.6681533">
        <ele>20.325</ele>
        <time>2013-05-07T15:41:01Z</time>
      </trkpt>
      <trkpt lat="59.9508743" lon="17.6681733">
        <ele>20.325</ele>
        <time>2013-05-07T15:41:02Z</time>
      </trkpt>
      <trkpt lat="59.9508164" lon="17.6681922">
        <ele>20.8057</ele>
        <time>2013-05-07T15:41:03Z</time>
      </trkpt>
      <trkpt lat="59.950758" lon="17.6682087">
        <ele>20.8057</ele>
        <time>2013-05-07T15:41:04Z</time>
      </trkpt>
      <trkpt lat="59.9506995" lon="17.6682263">
        <ele>20.8057</ele>
        <time>2013-05-07T15:41:05Z</time>
      </trkpt>
      <trkpt lat="59.9506396" lon="17.668241">
        <ele>21.2864</ele>
        <time>2013-05-07T15:41:06Z</time>
      </trkpt>
      <trkpt lat="59.95058" lon="17.6682495">
        <ele>21.2864</ele>
        <time>2013-05-07T15:41:07Z</time>
      </trkpt>
      <trkpt lat="59.9505206" lon="17.6682534">
        <ele>21.2864</ele>
        <time>2013-05-07T15:41:08Z</time>
      </trkpt>
      <trkpt lat="59.9504621" lon="17.6682553">
        <ele>21.2864</ele>
        <time>2013-05-07T15:41:09Z</time>
      </trkpt>
      <trkpt lat="59.9504037" lon="17.6682553">
        <ele>21.2864</ele>
        <time>2013-05-07T15:41:10Z</time>
      </trkpt>
      <trkpt lat="59.950346" lon="17.6682536">
        <ele>21.2864</ele>
        <time>2013-05-07T15:41:11Z</time>
      </trkpt>
      <trkpt lat="59.9502878" lon="17.6682502">
        <ele>21.767</ele>
        <time>2013-05-07T15:41:12Z</time>
      </trkpt>
      <trkpt lat="59.9502299" lon="17.6682443">
        <ele>21.767</ele>
        <time>2013-05-07T15:41:13Z</time>
      </trkpt>
      <trkpt lat="59.950173" lon="17.6682394">
        <ele>21.767</ele>
        <time>2013-05-07T15:41:14Z</time>
      </trkpt>
      <trkpt lat="59.9501176" lon="17.668219">
        <ele>21.767</ele>
        <time>2013-05-07T15:41:15Z</time>
      </trkpt>
      <trkpt lat="59.950061" lon="17.6681971">
        <ele>21.767</ele>
        <time>2013-05-07T15:41:16Z</time>
      </trkpt>
      <trkpt lat="59.9500038" lon="17.6681752">
        <ele>21.2864</ele>
        <time>2013-05-07T15:41:17Z</time>
      </trkpt>
      <trkpt lat="59.9499467" lon="17.6681526">
        <ele>21.2864</ele>
        <time>2013-05-07T15:41:18Z</time>
      </trkpt>
      <trkpt lat="59.9498897" lon="17.6681254">
        <ele>21.2864</ele>
        <time>2013-05-07T15:41:19Z</time>
      </trkpt>
      <trkpt lat="59.9498326" lon="17.6680961">
        <ele>20.8057</ele>
        <time>2013-05-07T15:41:20Z</time>
      </trkpt>
      <trkpt lat="59.9497748" lon="17.6680673">
        <ele>20.8057</ele>
        <time>2013-05-07T15:41:21Z</time>
      </trkpt>
      <trkpt lat="59.9497171" lon="17.6680376">
        <ele>20.325</ele>
        <time>2013-05-07T15:41:22Z</time>
      </trkpt>
      <trkpt lat="59.9496592" lon="17.6680071">
        <ele>20.325</ele>
        <time>2013-05-07T15:41:23Z</time>
      </trkpt>
      <trkpt lat="59.9496017" lon="17.6679772">
        <ele>20.325</ele>
        <time>2013-05-07T15:41:24Z</time>
      </trkpt>
      <trkpt lat="59.9495452" lon="17.6679461">
        <ele>20.325</ele>
        <time>2013-05-07T15:41:25Z</time>
      </trkpt>
      <trkpt lat="59.9494889" lon="17.6679135">
        <ele>20.325</ele>
        <time>2013-05-07T15:41:26Z</time>
      </trkpt>
      <trkpt lat="59.9494329" lon="17.6678794">
        <ele>20.325</ele>
        <time>2013-05-07T15:41:27Z</time>
      </trkpt>
      <trkpt lat="59.9493769" lon="17.6678461">
        <ele>20.8057</ele>
        <time>2013-05-07T15:41:28Z</time>
      </trkpt>
      <trkpt lat="59.9493194" lon="17.6678133">
        <ele>20.8057</ele>
        <time>2013-05-07T15:41:29Z</time>
      </trkpt>
      <trkpt lat="59.9492612" lon="17.6677788">
        <ele>20.325</ele>
        <time>2013-05-07T15:41:30Z</time>
      </trkpt>
      <trkpt lat="59.9492018" lon="17.667746">
        <ele>20.325</ele>
        <time>2013-05-07T15:41:31Z</time>
      </trkpt>
      <trkpt lat="59.9491412" lon="17.6677131">
        <ele>20.325</ele>
        <time>2013-05-07T15:41:32Z</time>
      </trkpt>
      <trkpt lat="59.9490805" lon="17.6676786">
        <ele>20.325</ele>
        <time>2013-05-07T15:41:33Z</time>
      </trkpt>
      <trkpt lat="59.9490209" lon="17.6676418">
        <ele>20.325</ele>
        <time>2013-05-07T15:41:34Z</time>
      </trkpt>
      <trkpt lat="59.9489615" lon="17.6676106">
        <ele>20.325</ele>
        <time>2013-05-07T15:41:35Z</time>
      </trkpt>
      <trkpt lat="59.9489029" lon="17.6675763">
        <ele>20.325</ele>
        <time>2013-05-07T15:41:36Z</time>
      </trkpt>
      <trkpt lat="59.9488439" lon="17.6675424">
        <ele>20.325</ele>
        <time>2013-05-07T15:41:37Z</time>
      </trkpt>
      <trkpt lat="59.9487849" lon="17.667507">
        <ele>20.325</ele>
        <time>2013-05-07T15:41:38Z</time>
      </trkpt>
      <trkpt lat="59.9487252" lon="17.6674715">
        <ele>20.325</ele>
        <time>2013-05-07T15:41:39Z</time>
      </trkpt>
      <trkpt lat="59.9486642" lon="17.6674364">
        <ele>20.325</ele>
        <time>2013-05-07T15:41:40Z</time>
      </trkpt>
      <trkpt lat="59.9486023" lon="17.6674027">
        <ele>20.325</ele>
        <time>2013-05-07T15:41:41Z</time>
      </trkpt>
      <trkpt lat="59.9485402" lon="17.6673679">
        <ele>20.325</ele>
        <time>2013-05-07T15:41:42Z</time>
      </trkpt>
      <trkpt lat="59.9484782" lon="17.6673324">
        <ele>20.8057</ele>
        <time>2013-05-07T15:41:43Z</time>
      </trkpt>
      <trkpt lat="59.9484165" lon="17.6672985">
        <ele>20.8057</ele>
        <time>2013-05-07T15:41:44Z</time>
      </trkpt>
      <trkpt lat="59.9483554" lon="17.6672628">
        <ele>20.8057</ele>
        <time>2013-05-07T15:41:45Z</time>
      </trkpt>
      <trkpt lat="59.9482948" lon="17.6672259">
        <ele>20.8057</ele>
        <time>2013-05-07T15:41:46Z</time>
      </trkpt>
      <trkpt lat="59.9482344" lon="17.6671919">
        <ele>20.8057</ele>
        <time>2013-05-07T15:41:47Z</time>
      </trkpt>
      <trkpt lat="59.9481738" lon="17.6671604">
        <ele>21.2864</ele>
        <time>2013-05-07T15:41:48Z</time>
      </trkpt>
      <trkpt lat="59.948114" lon="17.6671276">
        <ele>21.2864</ele>
        <time>2013-05-07T15:41:49Z</time>
      </trkpt>
      <trkpt lat="59.9480553" lon="17.6670925">
        <ele>21.2864</ele>
        <time>2013-05-07T15:41:50Z</time>
      </trkpt>
      <trkpt lat="59.9479964" lon="17.6670593">
        <ele>21.2864</ele>
        <time>2013-05-07T15:41:51Z</time>
      </trkpt>
      <trkpt lat="59.9479371" lon="17.6670271">
        <ele>21.2864</ele>
        <time>2013-05-07T15:41:52Z</time>
      </trkpt>
      <trkpt lat="59.9478777" lon="17.6669954">
        <ele>21.2864</ele>
        <time>2013-05-07T15:41:53Z</time>
      </trkpt>
      <trkpt lat="59.9478185" lon="17.6669635">
        <ele>21.2864</ele>
        <time>2013-05-07T15:41:54Z</time>
      </trkpt>
      <trkpt lat="59.9477591" lon="17.666932">
        <ele>21.2864</ele>
        <time>2013-05-07T15:41:55Z</time>
      </trkpt>
      <trkpt lat="59.9476996" lon="17.6669023">
        <ele>21.2864</ele>
        <time>2013-05-07T15:41:56Z</time>
      </trkpt>
      <trkpt lat="59.9476405" lon="17.6668731">
        <ele>21.767</ele>
        <time>2013-05-07T15:41:57Z</time>
      </trkpt>
      <trkpt lat="59.9475812" lon="17.6668438">
        <ele>21.767</ele>
        <time>2013-05-07T15:41:58Z</time>
      </trkpt>
      <trkpt lat="59.9475217" lon="17.6668149">
        <ele>21.767</ele>
        <time>2013-05-07T15:41:59Z</time>
      </trkpt>
      <trkpt lat="59.9474627" lon="17.6667871">
        <ele>22.2476</ele>
        <time>2013-05-07T15:42:00Z</time>
      </trkpt>
      <trkpt lat="59.9474037" lon="17.6667602">
        <ele>22.2476</ele>
        <time>2013-05-07T15:42:01Z</time>
      </trkpt>
      <trkpt lat="59.947345" lon="17.6667324">
        <ele>22.7283</ele>
        <time>2013-05-07T15:42:02Z</time>
      </trkpt>
      <trkpt lat="59.9472865" lon="17.6667035">
        <ele>22.7283</ele>
        <time>2013-05-07T15:42:03Z</time>
      </trkpt>
      <trkpt lat="59.9472282" lon="17.6666742">
        <ele>22.7283</ele>
        <time>2013-05-07T15:42:04Z</time>
      </trkpt>
      <trkpt lat="59.9471686" lon="17.6666464">
        <ele>22.7283</ele>
        <time>2013-05-07T15:42:05Z</time>
      </trkpt>
      <trkpt lat="59.9471086" lon="17.6666224">
        <ele>23.209</ele>
        <time>2013-05-07T15:42:06Z</time>
      </trkpt>
      <trkpt lat="59.9470495" lon="17.666598">
        <ele>23.209</ele>
        <time>2013-05-07T15:42:07Z</time>
      </trkpt>
      <trkpt lat="59.9469914" lon="17.6665708">
        <ele>23.209</ele>
        <time>2013-05-07T15:42:08Z</time>
      </trkpt>
      <trkpt lat="59.9469344" lon="17.6665435">
        <ele>23.209</ele>
        <time>2013-05-07T15:42:09Z</time>
      </trkpt>
      <trkpt lat="59.9468773" lon="17.6665199">
        <ele>23.209</ele>
        <time>2013-05-07T15:42:10Z</time>
      </trkpt>
      <trkpt lat="59.946821" lon="17.6664989">
        <ele>23.209</ele>
        <time>2013-05-07T15:42:11Z</time>
      </trkpt>
      <trkpt lat="59.9467656" lon="17.6664781">
        <ele>23.209</ele>
        <time>2013-05-07T15:42:12Z</time>
      </trkpt>
      <trkpt lat="59.9467105" lon="17.6664629">
        <ele>23.6896</ele>
        <time>2013-05-07T15:42:13Z</time>
      </trkpt>
      <trkpt lat="59.9466552" lon="17.6664568">
        <ele>23.6896</ele>
        <time>2013-05-07T15:42:14Z</time>
      </trkpt>
      <trkpt lat="59.9466009" lon="17.6664542">
        <ele>23.6896</ele>
        <time>2013-05-07T15:42:15Z</time>
      </trkpt>
      <trkpt lat="59.946547" lon="17.6664517">
        <ele>23.6896</ele>
        <time>2013-05-07T15:42:16Z</time>
      </trkpt>
      <trkpt lat="59.9464939" lon="17.6664427">
        <ele>23.6896</ele>
        <time>2013-05-07T15:42:17Z</time>
      </trkpt>
      <trkpt lat="59.9464409" lon="17.6664269">
        <ele>23.6896</ele>
        <time>2013-05-07T15:42:18Z</time>
      </trkpt>
      <trkpt lat="59.9463885" lon="17.6664041">
        <ele>23.6896</ele>
        <time>2013-05-07T15:42:19Z</time>
      </trkpt>
      <trkpt lat="59.9463368" lon="17.6663751">
        <ele>24.1703</ele>
        <time>2013-05-07T15:42:20Z</time>
      </trkpt>
      <trkpt lat="59.9462864" lon="17.6663382">
        <ele>24.1703</ele>
        <time>2013-05-07T15:42:21Z</time>
      </trkpt>
      <trkpt lat="59.9462368" lon="17.6662976">
        <ele>24.1703</ele>
        <time>2013-05-07T15:42:22Z</time>
      </trkpt>
      <trkpt lat="59.9461862" lon="17.66626">
        <ele>24.651</ele>
        <time>2013-05-07T15:42:23Z</time>
      </trkpt>
      <trkpt lat="59.9461334" lon="17.6662289">
        <ele>24.651</ele>
        <time>2013-05-07T15:42:24Z</time>
      </trkpt>
      <trkpt lat="59.9460787" lon="17.6662049">
        <ele>24.651</ele>
        <time>2013-05-07T15:42:25Z</time>
      </trkpt>
      <trkpt lat="59.9460238" lon="17.6661837">
        <ele>24.651</ele>
        <time>2013-05-07T15:42:26Z</time>
      </trkpt>
      <trkpt lat="59.9459695" lon="17.6661616">
        <ele>24.651</ele>
        <time>2013-05-07T15:42:27Z</time>
      </trkpt>
      <trkpt lat="59.9459158" lon="17.6661397">
        <ele>24.651</ele>
        <time>2013-05-07T15:42:28Z</time>
      </trkpt>
      <trkpt lat="59.9458615" lon="17.666119">
        <ele>24.651</ele>
        <time>2013-05-07T15:42:29Z</time>
      </trkpt>
      <trkpt lat="59.9458067" lon="17.6660999">
        <ele>25.1317</ele>
        <time>2013-05-07T15:42:30Z</time>
      </trkpt>
      <trkpt lat="59.9457518" lon="17.6660785">
        <ele>25.1317</ele>
        <time>2013-05-07T15:42:31Z</time>
      </trkpt>
      <trkpt lat="59.9456969" lon="17.6660548">
        <ele>25.6123</ele>
        <time>2013-05-07T15:42:32Z</time>
      </trkpt>
      <trkpt lat="59.9456415" lon="17.6660321">
        <ele>25.6123</ele>
        <time>2013-05-07T15:42:33Z</time>
      </trkpt>
      <trkpt lat="59.9455855" lon="17.6660108">
        <ele>26.0929</ele>
        <time>2013-05-07T15:42:34Z</time>
      </trkpt>
      <trkpt lat="59.9455296" lon="17.6659881">
        <ele>26.0929</ele>
        <time>2013-05-07T15:42:35Z</time>
      </trkpt>
      <trkpt lat="59.9454726" lon="17.6659659">
        <ele>26.0929</ele>
        <time>2013-05-07T15:42:36Z</time>
      </trkpt>
      <trkpt lat="59.9454156" lon="17.6659441">
        <ele>26.0929</ele>
        <time>2013-05-07T15:42:37Z</time>
      </trkpt>
      <trkpt lat="59.9453583" lon="17.6659243">
        <ele>26.0929</ele>
        <time>2013-05-07T15:42:38Z</time>
      </trkpt>
      <trkpt lat="59.9453006" lon="17.6659051">
        <ele>26.0929</ele>
        <time>2013-05-07T15:42:39Z</time>
      </trkpt>
      <trkpt lat="59.9452425" lon="17.6658842">
        <ele>26.0929</ele>
        <time>2013-05-07T15:42:40Z</time>
      </trkpt>
      <trkpt lat="59.9451836" lon="17.6658606">
        <ele>26.0929</ele>
        <time>2013-05-07T15:42:41Z</time>
      </trkpt>
      <trkpt lat="59.945124" lon="17.6658356">
        <ele>26.0929</ele>
        <time>2013-05-07T15:42:42Z</time>
      </trkpt>
      <trkpt lat="59.9450635" lon="17.6658123">
        <ele>26.0929</ele>
        <time>2013-05-07T15:42:43Z</time>
      </trkpt>
      <trkpt lat="59.9450026" lon="17.6657902">
        <ele>26.0929</ele>
        <time>2013-05-07T15:42:44Z</time>
      </trkpt>
      <trkpt lat="59.9449415" lon="17.6657673">
        <ele>26.0929</ele>
        <time>2013-05-07T15:42:45Z</time>
      </trkpt>
      <trkpt lat="59.9448804" lon="17.6657435">
        <ele>26.0929</ele>
        <time>2013-05-07T15:42:46Z</time>
      </trkpt>
      <trkpt lat="59.9448183" lon="17.6657197">
        <ele>26.0929</ele>
        <time>2013-05-07T15:42:47Z</time>
      </trkpt>
      <trkpt lat="59.9447551" lon="17.6656964">
        <ele>26.0929</ele>
        <time>2013-05-07T15:42:48Z</time>
      </trkpt>
      <trkpt lat="59.9446915" lon="17.6656729">
        <ele>26.0929</ele>
        <time>2013-05-07T15:42:49Z</time>
      </trkpt>
      <trkpt lat="59.9446286" lon="17.6656473">
        <ele>26.0929</ele>
        <time>2013-05-07T15:42:50Z</time>
      </trkpt>
      <trkpt lat="59.9445655" lon="17.6656261">
        <ele>26.0929</ele>
        <time>2013-05-07T15:42:51Z</time>
      </trkpt>
      <trkpt lat="59.9445034" lon="17.6656043">
        <ele>26.0929</ele>
        <time>2013-05-07T15:42:52Z</time>
      </trkpt>
      <trkpt lat="59.9444424" lon="17.6655824">
        <ele>26.0929</ele>
        <time>2013-05-07T15:42:53Z</time>
      </trkpt>
      <trkpt lat="59.9443827" lon="17.6655576">
        <ele>26.0929</ele>
        <time>2013-05-07T15:42:54Z</time>
      </trkpt>
      <trkpt lat="59.9443237" lon="17.6655313">
        <ele>26.5736</ele>
        <time>2013-05-07T15:42:55Z</time>
      </trkpt>
      <trkpt lat="59.9442645" lon="17.6655066">
        <ele>26.5736</ele>
        <time>2013-05-07T15:42:56Z</time>
      </trkpt>
      <trkpt lat="59.9442052" lon="17.6654805">
        <ele>26.5736</ele>
        <time>2013-05-07T15:42:57Z</time>
      </trkpt>
      <trkpt lat="59.944146" lon="17.6654535">
        <ele>26.5736</ele>
        <time>2013-05-07T15:42:58Z</time>
      </trkpt>
      <trkpt lat="59.9440867" lon="17.6654282">
        <ele>26.5736</ele>
        <time>2013-05-07T15:42:59Z</time>
      </trkpt>
      <trkpt lat="59.9440278" lon="17.6654032">
        <ele>26.5736</ele>
        <time>2013-05-07T15:43:00Z</time>
      </trkpt>
      <trkpt lat="59.9439699" lon="17.6653743">
        <ele>26.5736</ele>
        <time>2013-05-07T15:43:01Z</time>
      </trkpt>
      <trkpt lat="59.9439124" lon="17.665342">
        <ele>26.5736</ele>
        <time>2013-05-07T15:43:02Z</time>
      </trkpt>
      <trkpt lat="59.9438562" lon="17.6653077">
        <ele>26.5736</ele>
        <time>2013-05-07T15:43:03Z</time>
      </trkpt>
      <trkpt lat="59.9438005" lon="17.6652747">
        <ele>26.5736</ele>
        <time>2013-05-07T15:43:04Z</time>
      </trkpt>
      <trkpt lat="59.9437451" lon="17.665242">
        <ele>27.0543</ele>
        <time>2013-05-07T15:43:05Z</time>
      </trkpt>
      <trkpt lat="59.9436901" lon="17.6652077">
        <ele>27.0543</ele>
        <time>2013-05-07T15:43:06Z</time>
      </trkpt>
      <trkpt lat="59.9436351" lon="17.6651732">
        <ele>27.0543</ele>
        <time>2013-05-07T15:43:07Z</time>
      </trkpt>
      <trkpt lat="59.9435803" lon="17.6651395">
        <ele>27.0543</ele>
        <time>2013-05-07T15:43:08Z</time>
      </trkpt>
      <trkpt lat="59.9435261" lon="17.6651048">
        <ele>27.0543</ele>
        <time>2013-05-07T15:43:09Z</time>
      </trkpt>
      <trkpt lat="59.9434722" lon="17.6650686">
        <ele>27.5349</ele>
        <time>2013-05-07T15:43:10Z</time>
      </trkpt>
      <trkpt lat="59.9434186" lon="17.6650313">
        <ele>27.5349</ele>
        <time>2013-05-07T15:43:11Z</time>
      </trkpt>
      <trkpt lat="59.9433658" lon="17.6649919">
        <ele>27.5349</ele>
        <time>2013-05-07T15:43:12Z</time>
      </trkpt>
      <trkpt lat="59.9433136" lon="17.664951">
        <ele>28.0155</ele>
        <time>2013-05-07T15:43:13Z</time>
      </trkpt>
      <trkpt lat="59.9432622" lon="17.6649095">
        <ele>28.0155</ele>
        <time>2013-05-07T15:43:14Z</time>
      </trkpt>
      <trkpt lat="59.9432111" lon="17.6648665">
        <ele>28.0155</ele>
        <time>2013-05-07T15:43:15Z</time>
      </trkpt>
      <trkpt lat="59.94316" lon="17.6648233">
        <ele>28.4962</ele>
        <time>2013-05-07T15:43:16Z</time>
      </trkpt>
      <trkpt lat="59.9431089" lon="17.6647795">
        <ele>28.4962</ele>
        <time>2013-05-07T15:43:17Z</time>
      </trkpt>
      <trkpt lat="59.9430561" lon="17.6647325">
        <ele>28.9769</ele>
        <time>2013-05-07T15:43:18Z</time>
      </trkpt>
      <trkpt lat="59.9430028" lon="17.6646862">
        <ele>29.4575</ele>
        <time>2013-05-07T15:43:19Z</time>
      </trkpt>
      <trkpt lat="59.9429497" lon="17.6646382">
        <ele>29.9381</ele>
        <time>2013-05-07T15:43:20Z</time>
      </trkpt>
      <trkpt lat="59.9428975" lon="17.6645893">
        <ele>30.4188</ele>
        <time>2013-05-07T15:43:21Z</time>
      </trkpt>
      <trkpt lat="59.9428494" lon="17.6645418">
        <ele>30.4188</ele>
        <time>2013-05-07T15:43:22Z</time>
      </trkpt>
      <trkpt lat="59.9428014" lon="17.6644903">
        <ele>30.4188</ele>
        <time>2013-05-07T15:43:23Z</time>
      </trkpt>
      <trkpt lat="59.9427515" lon="17.6644402">
        <ele>30.4188</ele>
        <time>2013-05-07T15:43:24Z</time>
      </trkpt>
      <trkpt lat="59.9427013" lon="17.6643889">
        <ele>30.8995</ele>
        <time>2013-05-07T15:43:25Z</time>
      </trkpt>
      <trkpt lat="59.9426522" lon="17.664335">
        <ele>30.8995</ele>
        <time>2013-05-07T15:43:26Z</time>
      </trkpt>
      <trkpt lat="59.9426044" lon="17.6642789">
        <ele>30.8995</ele>
        <time>2013-05-07T15:43:27Z</time>
      </trkpt>
      <trkpt lat="59.9425569" lon="17.6642211">
        <ele>31.3801</ele>
        <time>2013-05-07T15:43:28Z</time>
      </trkpt>
      <trkpt lat="59.9425092" lon="17.6641646">
        <ele>31.3801</ele>
        <time>2013-05-07T15:43:29Z</time>
      </trkpt>
      <trkpt lat="59.942462" lon="17.6641087">
        <ele>31.3801</ele>
        <time>2013-05-07T15:43:30Z</time>
      </trkpt>
      <trkpt lat="59.9424153" lon="17.6640507">
        <ele>31.8607</ele>
        <time>2013-05-07T15:43:31Z</time>
      </trkpt>
      <trkpt lat="59.942368" lon="17.6639907">
        <ele>31.8607</ele>
        <time>2013-05-07T15:43:32Z</time>
      </trkpt>
      <trkpt lat="59.9423215" lon="17.6639314">
        <ele>31.8607</ele>
        <time>2013-05-07T15:43:33Z</time>
      </trkpt>
      <trkpt lat="59.9422748" lon="17.6638695">
        <ele>31.8607</ele>
        <time>2013-05-07T15:43:34Z</time>
      </trkpt>
      <trkpt lat="59.9422276" lon="17.6638036">
        <ele>31.8607</ele>
        <time>2013-05-07T15:43:35Z</time>
      </trkpt>
      <trkpt lat="59.9421786" lon="17.6637347">
        <ele>31.8607</ele>
        <time>2013-05-07T15:43:36Z</time>
      </trkpt>
      <trkpt lat="59.9421302" lon="17.6636626">
        <ele>31.8607</ele>
        <time>2013-05-07T15:43:37Z</time>
      </trkpt>
      <trkpt lat="59.9420834" lon="17.6635886">
        <ele>31.8607</ele>
        <time>2013-05-07T15:43:38Z</time>
      </trkpt>
      <trkpt lat="59.942036" lon="17.6635109">
        <ele>32.3416</ele>
        <time>2013-05-07T15:43:39Z</time>
      </trkpt>
      <trkpt lat="59.9419876" lon="17.663434">
        <ele>32.3416</ele>
        <time>2013-05-07T15:43:40Z</time>
      </trkpt>
      <trkpt lat="59.9419393" lon="17.663359">
        <ele>32.8223</ele>
        <time>2013-05-07T15:43:41Z</time>
      </trkpt>
      <trkpt lat="59.9418912" lon="17.6632838">
        <ele>32.8223</ele>
        <time>2013-05-07T15:43:42Z</time>
      </trkpt>
      <trkpt lat="59.9418445" lon="17.6632069">
        <ele>32.8223</ele>
        <time>2013-05-07T15:43:43Z</time>
      </trkpt>
      <trkpt lat="59.9417972" lon="17.6631253">
        <ele>32.8223</ele>
        <time>2013-05-07T15:43:44Z</time>
      </trkpt>
      <trkpt lat="59.9417507" lon="17.6630395">
        <ele>32.8223</ele>
        <time>2013-05-07T15:43:45Z</time>
      </trkpt>
      <trkpt lat="59.9417047" lon="17.6629547">
        <ele>32.8223</ele>
        <time>2013-05-07T15:43:46Z</time>
      </trkpt>
      <trkpt lat="59.9416585" lon="17.6628691">
        <ele>33.3029</ele>
        <time>2013-05-07T15:43:47Z</time>
      </trkpt>
      <trkpt lat="59.9416115" lon="17.6627863">
        <ele>33.3029</ele>
        <time>2013-05-07T15:43:48Z</time>
      </trkpt>
      <trkpt lat="59.9415632" lon="17.6627047">
        <ele>33.3029</ele>
        <time>2013-05-07T15:43:49Z</time>
      </trkpt>
      <trkpt lat="59.9415139" lon="17.6626261">
        <ele>32.8223</ele>
        <time>2013-05-07T15:43:50Z</time>
      </trkpt>
      <trkpt lat="59.9414643" lon="17.6625515">
        <ele>32.8223</ele>
        <time>2013-05-07T15:43:51Z</time>
      </trkpt>
      <trkpt lat="59.9414128" lon="17.6624799">
        <ele>32.3416</ele>
        <time>2013-05-07T15:43:52Z</time>
      </trkpt>
      <trkpt lat="59.9413586" lon="17.6624158">
        <ele>32.3416</ele>
        <time>2013-05-07T15:43:53Z</time>
      </trkpt>
      <trkpt lat="59.9413025" lon="17.6623573">
        <ele>32.3416</ele>
        <time>2013-05-07T15:43:54Z</time>
      </trkpt>
      <trkpt lat="59.9412437" lon="17.6623053">
        <ele>31.8607</ele>
        <time>2013-05-07T15:43:55Z</time>
      </trkpt>
      <trkpt lat="59.941184" lon="17.662258">
        <ele>31.8607</ele>
        <time>2013-05-07T15:43:56Z</time>
      </trkpt>
      <trkpt lat="59.9411223" lon="17.6622167">
        <ele>31.3801</ele>
        <time>2013-05-07T15:43:57Z</time>
      </trkpt>
      <trkpt lat="59.9410581" lon="17.6621805">
        <ele>31.3801</ele>
        <time>2013-05-07T15:43:58Z</time>
      </trkpt>
      <trkpt lat="59.9409927" lon="17.6621502">
        <ele>31.3801</ele>
        <time>2013-05-07T15:43:59Z</time>
      </trkpt>
      <trkpt lat="59.9409249" lon="17.6621258">
        <ele>31.3801</ele>
        <time>2013-05-07T15:44:00Z</time>
      </trkpt>
      <trkpt lat="59.9408573" lon="17.6621113">
        <ele>31.3801</ele>
        <time>2013-05-07T15:44:01Z</time>
      </trkpt>
      <trkpt lat="59.9407888" lon="17.6621009">
        <ele>31.3801</ele>
        <time>2013-05-07T15:44:02Z</time>
      </trkpt>
      <trkpt lat="59.9407198" lon="17.6620849">
        <ele>31.3801</ele>
        <time>2013-05-07T15:44:03Z</time>
      </trkpt>
      <trkpt lat="59.94065" lon="17.6620548">
        <ele>30.8995</ele>
        <time>2013-05-07T15:44:04Z</time>
      </trkpt>
      <trkpt lat="59.9405822" lon="17.6620014">
        <ele>30.8995</ele>
        <time>2013-05-07T15:44:05Z</time>
      </trkpt>
      <trkpt lat="59.9405203" lon="17.6619205">
        <ele>30.8995</ele>
        <time>2013-05-07T15:44:06Z</time>
      </trkpt>
      <trkpt lat="59.940467" lon="17.6618107">
        <ele>30.8995</ele>
        <time>2013-05-07T15:44:07Z</time>
      </trkpt>
      <trkpt lat="59.9404273" lon="17.6616756">
        <ele>30.4188</ele>
        <time>2013-05-07T15:44:08Z</time>
      </trkpt>
      <trkpt lat="59.940403" lon="17.6615233">
        <ele>29.9381</ele>
        <time>2013-05-07T15:44:09Z</time>
      </trkpt>
      <trkpt lat="59.9403902" lon="17.6613658">
        <ele>29.9381</ele>
        <time>2013-05-07T15:44:10Z</time>
      </trkpt>
      <trkpt lat="59.9404019" lon="17.6611672">
        <ele>29.9381</ele>
        <time>2013-05-07T15:44:11Z</time>
      </trkpt>
      <trkpt lat="59.9404048" lon="17.660999">
        <ele>29.4575</ele>
        <time>2013-05-07T15:44:12Z</time>
      </trkpt>
      <trkpt lat="59.9404223" lon="17.6608473">
        <ele>29.4575</ele>
        <time>2013-05-07T15:44:13Z</time>
      </trkpt>
      <trkpt lat="59.9404531" lon="17.6607021">
        <ele>29.9381</ele>
        <time>2013-05-07T15:44:14Z</time>
      </trkpt>
      <trkpt lat="59.9404881" lon="17.6605615">
        <ele>29.9381</ele>
        <time>2013-05-07T15:44:15Z</time>
      </trkpt>
      <trkpt lat="59.9405127" lon="17.6604221">
        <ele>29.9381</ele>
        <time>2013-05-07T15:44:16Z</time>
      </trkpt>
      <trkpt lat="59.9405259" lon="17.6602899">
        <ele>29.9381</ele>
        <time>2013-05-07T15:44:17Z</time>
      </trkpt>
      <trkpt lat="59.9405131" lon="17.6601527">
        <ele>29.9381</ele>
        <time>2013-05-07T15:44:18Z</time>
      </trkpt>
      <trkpt lat="59.9404886" lon="17.660008">
        <ele>29.9381</ele>
        <time>2013-05-07T15:44:19Z</time>
      </trkpt>
      <trkpt lat="59.9404573" lon="17.6599297">
        <ele>29.4575</ele>
        <time>2013-05-07T15:44:20Z</time>
      </trkpt>
      <trkpt lat="59.9404395" lon="17.6598758">
        <ele>29.4575</ele>
        <time>2013-05-07T15:44:21Z</time>
      </trkpt>
      <trkpt lat="59.9403594" lon="17.6597129">
        <ele>29.4575</ele>
        <time>2013-05-07T15:44:22Z</time>
      </trkpt>
      <trkpt lat="59.9403381" lon="17.6595962">
        <ele>28.4962</ele>
        <time>2013-05-07T15:44:23Z</time>
      </trkpt>
      <trkpt lat="59.9403131" lon="17.6594757">
        <ele>28.4962</ele>
        <time>2013-05-07T15:44:24Z</time>
      </trkpt>
      <trkpt lat="59.9402894" lon="17.6593444">
        <ele>27.5349</ele>
        <time>2013-05-07T15:44:25Z</time>
      </trkpt>
      <trkpt lat="59.9402659" lon="17.659211">
        <ele>26.5736</ele>
        <time>2013-05-07T15:44:26Z</time>
      </trkpt>
      <trkpt lat="59.9402427" lon="17.659072">
        <ele>26.0929</ele>
        <time>2013-05-07T15:44:27Z</time>
      </trkpt>
      <trkpt lat="59.9402189" lon="17.6589308">
        <ele>25.6123</ele>
        <time>2013-05-07T15:44:28Z</time>
      </trkpt>
      <trkpt lat="59.9401926" lon="17.6587932">
        <ele>25.1317</ele>
        <time>2013-05-07T15:44:29Z</time>
      </trkpt>
      <trkpt lat="59.9401654" lon="17.6586591">
        <ele>24.651</ele>
        <time>2013-05-07T15:44:30Z</time>
      </trkpt>
      <trkpt lat="59.9401374" lon="17.6585256">
        <ele>24.1703</ele>
        <time>2013-05-07T15:44:31Z</time>
      </trkpt>
      <trkpt lat="59.9401092" lon="17.658396">
        <ele>24.1703</ele>
        <time>2013-05-07T15:44:32Z</time>
      </trkpt>
      <trkpt lat="59.9400801" lon="17.658266">
        <ele>23.6896</ele>
        <time>2013-05-07T15:44:33Z</time>
      </trkpt>
      <trkpt lat="59.9400521" lon="17.6581361">
        <ele>23.6896</ele>
        <time>2013-05-07T15:44:34Z</time>
      </trkpt>
      <trkpt lat="59.9400247" lon="17.6580055">
        <ele>23.6896</ele>
        <time>2013-05-07T15:44:35Z</time>
      </trkpt>
      <trkpt lat="59.9399988" lon="17.6578789">
        <ele>23.6896</ele>
        <time>2013-05-07T15:44:36Z</time>
      </trkpt>
      <trkpt lat="59.9399724" lon="17.6577506">
        <ele>24.1703</ele>
        <time>2013-05-07T15:44:37Z</time>
      </trkpt>
      <trkpt lat="59.9399455" lon="17.6576278">
        <ele>23.6896</ele>
        <time>2013-05-07T15:44:38Z</time>
      </trkpt>
      <trkpt lat="59.9399206" lon="17.6575044">
        <ele>23.6896</ele>
        <time>2013-05-07T15:44:39Z</time>
      </trkpt>
      <trkpt lat="59.9398977" lon="17.6573803">
        <ele>23.6896</ele>
        <time>2013-05-07T15:44:40Z</time>
      </trkpt>
      <trkpt lat="59.9398753" lon="17.657255">
        <ele>24.1703</ele>
        <time>2013-05-07T15:44:41Z</time>
      </trkpt>
      <trkpt lat="59.939849" lon="17.6571296">
        <ele>24.1703</ele>
        <time>2013-05-07T15:44:42Z</time>
      </trkpt>
      <trkpt lat="59.9398222" lon="17.6570042">
        <ele>24.1703</ele>
        <time>2013-05-07T15:44:43Z</time>
      </trkpt>
      <trkpt lat="59.9397952" lon="17.6568797">
        <ele>24.1703</ele>
        <time>2013-05-07T15:44:44Z</time>
      </trkpt>
      <trkpt lat="59.9397672" lon="17.6567572">
        <ele>24.651</ele>
        <time>2013-05-07T15:44:45Z</time>
      </trkpt>
      <trkpt lat="59.9397399" lon="17.6566367">
        <ele>24.651</ele>
        <time>2013-05-07T15:44:46Z</time>
      </trkpt>
      <trkpt lat="59.939716" lon="17.6565152">
        <ele>25.1317</ele>
        <time>2013-05-07T15:44:47Z</time>
      </trkpt>
      <trkpt lat="59.9396964" lon="17.6563929">
        <ele>25.6123</ele>
        <time>2013-05-07T15:44:48Z</time>
      </trkpt>
      <trkpt lat="59.9396771" lon="17.6562738">
        <ele>26.0929</ele>
        <time>2013-05-07T15:44:49Z</time>
      </trkpt>
      <trkpt lat="59.9396563" lon="17.6561603">
        <ele>26.0929</ele>
        <time>2013-05-07T15:44:50Z</time>
      </trkpt>
      <trkpt lat="59.9396347" lon="17.6560515">
        <ele>26.0929</ele>
        <time>2013-05-07T15:44:51Z</time>
      </trkpt>
      <trkpt lat="59.9396139" lon="17.6559453">
        <ele>26.0929</ele>
        <time>2013-05-07T15:44:52Z</time>
      </trkpt>
      <trkpt lat="59.9395938" lon="17.6558396">
        <ele>26.0929</ele>
        <time>2013-05-07T15:44:53Z</time>
      </trkpt>
      <trkpt lat="59.939574" lon="17.6557316">
        <ele>26.0929</ele>
        <time>2013-05-07T15:44:54Z</time>
      </trkpt>
      <trkpt lat="59.9395545" lon="17.6556226">
        <ele>26.0929</ele>
        <time>2013-05-07T15:44:55Z</time>
      </trkpt>
      <trkpt lat="59.9395341" lon="17.6555133">
        <ele>25.6123</ele>
        <time>2013-05-07T15:44:56Z</time>
      </trkpt>
      <trkpt lat="59.9395127" lon="17.6554013">
        <ele>26.0929</ele>
        <time>2013-05-07T15:44:57Z</time>
      </trkpt>
      <trkpt lat="59.9394908" lon="17.6552907">
        <ele>26.0929</ele>
        <time>2013-05-07T15:44:58Z</time>
      </trkpt>
      <trkpt lat="59.9394683" lon="17.6551806">
        <ele>26.5736</ele>
        <time>2013-05-07T15:44:59Z</time>
      </trkpt>
      <trkpt lat="59.9394451" lon="17.6550689">
        <ele>26.5736</ele>
        <time>2013-05-07T15:45:00Z</time>
      </trkpt>
      <trkpt lat="59.9394233" lon="17.6549578">
        <ele>26.5736</ele>
        <time>2013-05-07T15:45:01Z</time>
      </trkpt>
      <trkpt lat="59.9394013" lon="17.6548482">
        <ele>26.5736</ele>
        <time>2013-05-07T15:45:02Z</time>
      </trkpt>
      <trkpt lat="59.9393798" lon="17.6547399">
        <ele>26.0929</ele>
        <time>2013-05-07T15:45:03Z</time>
      </trkpt>
      <trkpt lat="59.9393589" lon="17.6546336">
        <ele>26.0929</ele>
        <time>2013-05-07T15:45:04Z</time>
      </trkpt>
      <trkpt lat="59.9393363" lon="17.6545274">
        <ele>26.0929</ele>
        <time>2013-05-07T15:45:05Z</time>
      </trkpt>
      <trkpt lat="59.9393141" lon="17.6544187">
        <ele>25.6123</ele>
        <time>2013-05-07T15:45:06Z</time>
      </trkpt>
      <trkpt lat="59.9392933" lon="17.6543084">
        <ele>25.6123</ele>
        <time>2013-05-07T15:45:07Z</time>
      </trkpt>
      <trkpt lat="59.9392714" lon="17.6541967">
        <ele>25.6123</ele>
        <time>2013-05-07T15:45:08Z</time>
      </trkpt>
      <trkpt lat="59.9392481" lon="17.6540862">
        <ele>25.6123</ele>
        <time>2013-05-07T15:45:09Z</time>
      </trkpt>
      <trkpt lat="59.9392238" lon="17.6539778">
        <ele>25.6123</ele>
        <time>2013-05-07T15:45:10Z</time>
      </trkpt>
      <trkpt lat="59.9391996" lon="17.6538693">
        <ele>25.1317</ele>
        <time>2013-05-07T15:45:11Z</time>
      </trkpt>
      <trkpt lat="59.9391755" lon="17.6537573">
        <ele>25.6123</ele>
        <time>2013-05-07T15:45:12Z</time>
      </trkpt>
      <trkpt lat="59.9391507" lon="17.6536423">
        <ele>25.6123</ele>
        <time>2013-05-07T15:45:13Z</time>
      </trkpt>
      <trkpt lat="59.9391265" lon="17.6535276">
        <ele>25.6123</ele>
        <time>2013-05-07T15:45:14Z</time>
      </trkpt>
      <trkpt lat="59.9391023" lon="17.6534162">
        <ele>25.1317</ele>
        <time>2013-05-07T15:45:15Z</time>
      </trkpt>
      <trkpt lat="59.9390769" lon="17.6533045">
        <ele>25.1317</ele>
        <time>2013-05-07T15:45:16Z</time>
      </trkpt>
      <trkpt lat="59.9390509" lon="17.6531914">
        <ele>24.651</ele>
        <time>2013-05-07T15:45:17Z</time>
      </trkpt>
      <trkpt lat="59.939024" lon="17.6530785">
        <ele>24.651</ele>
        <time>2013-05-07T15:45:18Z</time>
      </trkpt>
      <trkpt lat="59.9389959" lon="17.6529653">
        <ele>24.651</ele>
        <time>2013-05-07T15:45:19Z</time>
      </trkpt>
      <trkpt lat="59.9389672" lon="17.6528529">
        <ele>24.651</ele>
        <time>2013-05-07T15:45:20Z</time>
      </trkpt>
      <trkpt lat="59.938938" lon="17.652742">
        <ele>24.651</ele>
        <time>2013-05-07T15:45:21Z</time>
      </trkpt>
      <trkpt lat="59.938909" lon="17.6526306">
        <ele>24.1703</ele>
        <time>2013-05-07T15:45:22Z</time>
      </trkpt>
      <trkpt lat="59.9388799" lon="17.6525196">
        <ele>24.1703</ele>
        <time>2013-05-07T15:45:23Z</time>
      </trkpt>
      <trkpt lat="59.9388497" lon="17.6524068">
        <ele>24.1703</ele>
        <time>2013-05-07T15:45:24Z</time>
      </trkpt>
      <trkpt lat="59.9388192" lon="17.6522923">
        <ele>24.1703</ele>
        <time>2013-05-07T15:45:25Z</time>
      </trkpt>
      <trkpt lat="59.9387882" lon="17.652177">
        <ele>23.6896</ele>
        <time>2013-05-07T15:45:26Z</time>
      </trkpt>
      <trkpt lat="59.9387551" lon="17.6520597">
        <ele>23.6896</ele>
        <time>2013-05-07T15:45:27Z</time>
      </trkpt>
      <trkpt lat="59.9387213" lon="17.6519421">
        <ele>23.6896</ele>
        <time>2013-05-07T15:45:28Z</time>
      </trkpt>
      <trkpt lat="59.9386876" lon="17.6518257">
        <ele>23.209</ele>
        <time>2013-05-07T15:45:29Z</time>
      </trkpt>
      <trkpt lat="59.9386536" lon="17.6517095">
        <ele>23.209</ele>
        <time>2013-05-07T15:45:30Z</time>
      </trkpt>
      <trkpt lat="59.9386197" lon="17.6515941">
        <ele>22.7283</ele>
        <time>2013-05-07T15:45:31Z</time>
      </trkpt>
      <trkpt lat="59.9385856" lon="17.6514804">
        <ele>22.7283</ele>
        <time>2013-05-07T15:45:32Z</time>
      </trkpt>
      <trkpt lat="59.9385509" lon="17.6513672">
        <ele>22.7283</ele>
        <time>2013-05-07T15:45:33Z</time>
      </trkpt>
      <trkpt lat="59.9385148" lon="17.6512553">
        <ele>22.2476</ele>
        <time>2013-05-07T15:45:34Z</time>
      </trkpt>
      <trkpt lat="59.938476" lon="17.651145">
        <ele>22.2476</ele>
        <time>2013-05-07T15:45:35Z</time>
      </trkpt>
      <trkpt lat="59.9384327" lon="17.6510371">
        <ele>22.2476</ele>
        <time>2013-05-07T15:45:36Z</time>
      </trkpt>
      <trkpt lat="59.9383855" lon="17.6509332">
        <ele>22.2476</ele>
        <time>2013-05-07T15:45:37Z</time>
      </trkpt>
      <trkpt lat="59.938337" lon="17.650835">
        <ele>22.2476</ele>
        <time>2013-05-07T15:45:38Z</time>
      </trkpt>
      <trkpt lat="59.9382898" lon="17.6507394">
        <ele>21.767</ele>
        <time>2013-05-07T15:45:39Z</time>
      </trkpt>
      <trkpt lat="59.9382464" lon="17.6506335">
        <ele>21.767</ele>
        <time>2013-05-07T15:45:40Z</time>
      </trkpt>
      <trkpt lat="59.9382063" lon="17.6505276">
        <ele>21.767</ele>
        <time>2013-05-07T15:45:41Z</time>
      </trkpt>
      <trkpt lat="59.9381681" lon="17.6504182">
        <ele>21.767</ele>
        <time>2013-05-07T15:45:42Z</time>
      </trkpt>
      <trkpt lat="59.9381305" lon="17.6503083">
        <ele>22.2476</ele>
        <time>2013-05-07T15:45:43Z</time>
      </trkpt>
      <trkpt lat="59.9380925" lon="17.6501974">
        <ele>22.2476</ele>
        <time>2013-05-07T15:45:44Z</time>
      </trkpt>
      <trkpt lat="59.9380533" lon="17.6500898">
        <ele>22.7283</ele>
        <time>2013-05-07T15:45:45Z</time>
      </trkpt>
      <trkpt lat="59.9380126" lon="17.6499891">
        <ele>22.7283</ele>
        <time>2013-05-07T15:45:46Z</time>
      </trkpt>
      <trkpt lat="59.9379713" lon="17.6498924">
        <ele>22.7283</ele>
        <time>2013-05-07T15:45:47Z</time>
      </trkpt>
      <trkpt lat="59.9379304" lon="17.649797">
        <ele>22.7283</ele>
        <time>2013-05-07T15:45:48Z</time>
      </trkpt>
      <trkpt lat="59.9378914" lon="17.6497029">
        <ele>22.7283</ele>
        <time>2013-05-07T15:45:49Z</time>
      </trkpt>
      <trkpt lat="59.9378527" lon="17.6496084">
        <ele>23.209</ele>
        <time>2013-05-07T15:45:50Z</time>
      </trkpt>
      <trkpt lat="59.937817" lon="17.6495111">
        <ele>23.6896</ele>
        <time>2013-05-07T15:45:51Z</time>
      </trkpt>
      <trkpt lat="59.9377848" lon="17.6494081">
        <ele>24.1703</ele>
        <time>2013-05-07T15:45:52Z</time>
      </trkpt>
      <trkpt lat="59.9377491" lon="17.6493092">
        <ele>24.1703</ele>
        <time>2013-05-07T15:45:53Z</time>
      </trkpt>
      <trkpt lat="59.9377102" lon="17.6492196">
        <ele>24.651</ele>
        <time>2013-05-07T15:45:54Z</time>
      </trkpt>
      <trkpt lat="59.9376709" lon="17.6491355">
        <ele>24.651</ele>
        <time>2013-05-07T15:45:55Z</time>
      </trkpt>
      <trkpt lat="59.9376323" lon="17.6490541">
        <ele>24.651</ele>
        <time>2013-05-07T15:45:56Z</time>
      </trkpt>
      <trkpt lat="59.9375994" lon="17.6489674">
        <ele>25.1317</ele>
        <time>2013-05-07T15:45:57Z</time>
      </trkpt>
      <trkpt lat="59.9375752" lon="17.6488745">
        <ele>25.6123</ele>
        <time>2013-05-07T15:45:58Z</time>
      </trkpt>
      <trkpt lat="59.9375533" lon="17.6487829">
        <ele>26.0929</ele>
        <time>2013-05-07T15:45:59Z</time>
      </trkpt>
      <trkpt lat="59.9375272" lon="17.6486959">
        <ele>26.0929</ele>
        <time>2013-05-07T15:46:00Z</time>
      </trkpt>
      <trkpt lat="59.9374942" lon="17.6486177">
        <ele>26.5736</ele>
        <time>2013-05-07T15:46:01Z</time>
      </trkpt>
      <trkpt lat="59.9374569" lon="17.6485457">
        <ele>26.5736</ele>
        <time>2013-05-07T15:46:02Z</time>
      </trkpt>
      <trkpt lat="59.9374203" lon="17.6484663">
        <ele>26.5736</ele>
        <time>2013-05-07T15:46:03Z</time>
      </trkpt>
      <trkpt lat="59.9373835" lon="17.6483788">
        <ele>26.5736</ele>
        <time>2013-05-07T15:46:04Z</time>
      </trkpt>
      <trkpt lat="59.9373351" lon="17.6482844">
        <ele>27.0543</ele>
        <time>2013-05-07T15:46:05Z</time>
      </trkpt>
      <trkpt lat="59.9372796" lon="17.6481953">
        <ele>27.0543</ele>
        <time>2013-05-07T15:46:06Z</time>
      </trkpt>
      <trkpt lat="59.9372242" lon="17.6481296">
        <ele>27.5349</ele>
        <time>2013-05-07T15:46:07Z</time>
      </trkpt>
      <trkpt lat="59.9371644" lon="17.648036">
        <ele>27.5349</ele>
        <time>2013-05-07T15:46:08Z</time>
      </trkpt>
      <trkpt lat="59.937112" lon="17.6479618">
        <ele>27.5349</ele>
        <time>2013-05-07T15:46:09Z</time>
      </trkpt>
      <trkpt lat="59.937059" lon="17.6479029">
        <ele>28.0155</ele>
        <time>2013-05-07T15:46:10Z</time>
      </trkpt>
      <trkpt lat="59.937003" lon="17.6478355">
        <ele>28.4962</ele>
        <time>2013-05-07T15:46:11Z</time>
      </trkpt>
      <trkpt lat="59.9369591" lon="17.6477608">
        <ele>29.9381</ele>
        <time>2013-05-07T15:46:12Z</time>
      </trkpt>
      <trkpt lat="59.9369144" lon="17.6476832">
        <ele>30.4188</ele>
        <time>2013-05-07T15:46:13Z</time>
      </trkpt>
      <trkpt lat="59.9368654" lon="17.6476073">
        <ele>30.4188</ele>
        <time>2013-05-07T15:46:14Z</time>
      </trkpt>
      <trkpt lat="59.9368163" lon="17.6475377">
        <ele>30.8995</ele>
        <time>2013-05-07T15:46:15Z</time>
      </trkpt>
      <trkpt lat="59.9367663" lon="17.6474602">
        <ele>30.4188</ele>
        <time>2013-05-07T15:46:16Z</time>
      </trkpt>
      <trkpt lat="59.9367147" lon="17.647392">
        <ele>30.4188</ele>
        <time>2013-05-07T15:46:17Z</time>
      </trkpt>
      <trkpt lat="59.9366607" lon="17.6473133">
        <ele>29.9381</ele>
        <time>2013-05-07T15:46:18Z</time>
      </trkpt>
      <trkpt lat="59.9366063" lon="17.6472242">
        <ele>29.9381</ele>
        <time>2013-05-07T15:46:19Z</time>
      </trkpt>
      <trkpt lat="59.9365497" lon="17.6471401">
        <ele>29.9381</ele>
        <time>2013-05-07T15:46:20Z</time>
      </trkpt>
      <trkpt lat="59.9364879" lon="17.6470548">
        <ele>29.9381</ele>
        <time>2013-05-07T15:46:21Z</time>
      </trkpt>
      <trkpt lat="59.9364278" lon="17.6469765">
        <ele>29.9381</ele>
        <time>2013-05-07T15:46:22Z</time>
      </trkpt>
      <trkpt lat="59.9363676" lon="17.6468971">
        <ele>30.8995</ele>
        <time>2013-05-07T15:46:23Z</time>
      </trkpt>
      <trkpt lat="59.9363101" lon="17.6468239">
        <ele>31.3801</ele>
        <time>2013-05-07T15:46:24Z</time>
      </trkpt>
      <trkpt lat="59.9362546" lon="17.6467518">
        <ele>32.3416</ele>
        <time>2013-05-07T15:46:25Z</time>
      </trkpt>
      <trkpt lat="59.9361991" lon="17.646674">
        <ele>32.3416</ele>
        <time>2013-05-07T15:46:26Z</time>
      </trkpt>
      <trkpt lat="59.9361396" lon="17.6466049">
        <ele>32.8223</ele>
        <time>2013-05-07T15:46:27Z</time>
      </trkpt>
      <trkpt lat="59.9360811" lon="17.6465379">
        <ele>33.7834</ele>
        <time>2013-05-07T15:46:28Z</time>
      </trkpt>
      <trkpt lat="59.936027" lon="17.6464648">
        <ele>33.7834</ele>
        <time>2013-05-07T15:46:29Z</time>
      </trkpt>
      <trkpt lat="59.9359718" lon="17.6463973">
        <ele>34.2642</ele>
        <time>2013-05-07T15:46:30Z</time>
      </trkpt>
      <trkpt lat="59.9359169" lon="17.6463286">
        <ele>34.7449</ele>
        <time>2013-05-07T15:46:31Z</time>
      </trkpt>
      <trkpt lat="59.9358609" lon="17.6462638">
        <ele>34.7449</ele>
        <time>2013-05-07T15:46:32Z</time>
      </trkpt>
      <trkpt lat="59.9358036" lon="17.6461973">
        <ele>34.7449</ele>
        <time>2013-05-07T15:46:33Z</time>
      </trkpt>
      <trkpt lat="59.9357528" lon="17.6461258">
        <ele>33.7834</ele>
        <time>2013-05-07T15:46:34Z</time>
      </trkpt>
      <trkpt lat="59.9356953" lon="17.6460553">
        <ele>33.3029</ele>
        <time>2013-05-07T15:46:35Z</time>
      </trkpt>
      <trkpt lat="59.935633" lon="17.6459825">
        <ele>32.8223</ele>
        <time>2013-05-07T15:46:36Z</time>
      </trkpt>
      <trkpt lat="59.9355703" lon="17.6459118">
        <ele>32.8223</ele>
        <time>2013-05-07T15:46:37Z</time>
      </trkpt>
      <trkpt lat="59.9355076" lon="17.645846">
        <ele>32.8223</ele>
        <time>2013-05-07T15:46:38Z</time>
      </trkpt>
      <trkpt lat="59.9354449" lon="17.6457866">
        <ele>32.8223</ele>
        <time>2013-05-07T15:46:39Z</time>
      </trkpt>
      <trkpt lat="59.935385" lon="17.6457259">
        <ele>32.8223</ele>
        <time>2013-05-07T15:46:40Z</time>
      </trkpt>
      <trkpt lat="59.9353252" lon="17.6456654">
        <ele>32.8223</ele>
        <time>2013-05-07T15:46:41Z</time>
      </trkpt>
      <trkpt lat="59.9352694" lon="17.6455954">
        <ele>32.8223</ele>
        <time>2013-05-07T15:46:42Z</time>
      </trkpt>
      <trkpt lat="59.9352086" lon="17.6455267">
        <ele>33.3029</ele>
        <time>2013-05-07T15:46:43Z</time>
      </trkpt>
      <trkpt lat="59.9351512" lon="17.6454603">
        <ele>33.3029</ele>
        <time>2013-05-07T15:46:44Z</time>
      </trkpt>
      <trkpt lat="59.9350937" lon="17.6453935">
        <ele>32.8223</ele>
        <time>2013-05-07T15:46:45Z</time>
      </trkpt>
      <trkpt lat="59.935033" lon="17.6453282">
        <ele>32.8223</ele>
        <time>2013-05-07T15:46:46Z</time>
      </trkpt>
      <trkpt lat="59.9349709" lon="17.6452661">
        <ele>32.8223</ele>
        <time>2013-05-07T15:46:47Z</time>
      </trkpt>
      <trkpt lat="59.9349092" lon="17.6452009">
        <ele>31.3801</ele>
        <time>2013-05-07T15:46:48Z</time>
      </trkpt>
      <trkpt lat="59.9348503" lon="17.6451355">
        <ele>31.8607</ele>
        <time>2013-05-07T15:46:49Z</time>
      </trkpt>
      <trkpt lat="59.9347945" lon="17.6450672">
        <ele>31.8607</ele>
        <time>2013-05-07T15:46:50Z</time>
      </trkpt>
      <trkpt lat="59.9347391" lon="17.6449965">
        <ele>31.3801</ele>
        <time>2013-05-07T15:46:51Z</time>
      </trkpt>
      <trkpt lat="59.9346815" lon="17.6449224">
        <ele>31.3801</ele>
        <time>2013-05-07T15:46:52Z</time>
      </trkpt>
      <trkpt lat="59.934622" lon="17.6448464">
        <ele>31.3801</ele>
        <time>2013-05-07T15:46:53Z</time>
      </trkpt>
      <trkpt lat="59.9345636" lon="17.6447698">
        <ele>31.3801</ele>
        <time>2013-05-07T15:46:54Z</time>
      </trkpt>
      <trkpt lat="59.9345036" lon="17.6446889">
        <ele>31.3801</ele>
        <time>2013-05-07T15:46:55Z</time>
      </trkpt>
      <trkpt lat="59.9344459" lon="17.6445963">
        <ele>30.8995</ele>
        <time>2013-05-07T15:46:56Z</time>
      </trkpt>
      <trkpt lat="59.934388" lon="17.6444954">
        <ele>30.8995</ele>
        <time>2013-05-07T15:46:57Z</time>
      </trkpt>
      <trkpt lat="59.934323" lon="17.6443953">
        <ele>30.4188</ele>
        <time>2013-05-07T15:46:58Z</time>
      </trkpt>
      <trkpt lat="59.9342524" lon="17.6442995">
        <ele>30.8995</ele>
        <time>2013-05-07T15:46:59Z</time>
      </trkpt>
      <trkpt lat="59.9341821" lon="17.6442021">
        <ele>30.8995</ele>
        <time>2013-05-07T15:47:00Z</time>
      </trkpt>
      <trkpt lat="59.9341116" lon="17.6441083">
        <ele>30.8995</ele>
        <time>2013-05-07T15:47:01Z</time>
      </trkpt>
      <trkpt lat="59.934041" lon="17.6440159">
        <ele>31.3801</ele>
        <time>2013-05-07T15:47:02Z</time>
      </trkpt>
      <trkpt lat="59.933969" lon="17.643926">
        <ele>31.3801</ele>
        <time>2013-05-07T15:47:03Z</time>
      </trkpt>
      <trkpt lat="59.9338963" lon="17.6438398">
        <ele>31.3801</ele>
        <time>2013-05-07T15:47:04Z</time>
      </trkpt>
      <trkpt lat="59.9338174" lon="17.6437637">
        <ele>31.8607</ele>
        <time>2013-05-07T15:47:05Z</time>
      </trkpt>
      <trkpt lat="59.9337361" lon="17.6436942">
        <ele>31.8607</ele>
        <time>2013-05-07T15:47:06Z</time>
      </trkpt>
      <trkpt lat="59.9336589" lon="17.643622">
        <ele>30.8995</ele>
        <time>2013-05-07T15:47:07Z</time>
      </trkpt>
      <trkpt lat="59.9335803" lon="17.6435365">
        <ele>30.8995</ele>
        <time>2013-05-07T15:47:08Z</time>
      </trkpt>
      <trkpt lat="59.9335048" lon="17.6434391">
        <ele>30.4188</ele>
        <time>2013-05-07T15:47:09Z</time>
      </trkpt>
      <trkpt lat="59.9334297" lon="17.6433344">
        <ele>29.9381</ele>
        <time>2013-05-07T15:47:10Z</time>
      </trkpt>
      <trkpt lat="59.9333523" lon="17.643223">
        <ele>28.9769</ele>
        <time>2013-05-07T15:47:11Z</time>
      </trkpt>
      <trkpt lat="59.9332719" lon="17.6431058">
        <ele>28.4962</ele>
        <time>2013-05-07T15:47:12Z</time>
      </trkpt>
      <trkpt lat="59.9331918" lon="17.6429837">
        <ele>28.0155</ele>
        <time>2013-05-07T15:47:13Z</time>
      </trkpt>
      <trkpt lat="59.9330869" lon="17.6428794">
        <ele>27.5349</ele>
        <time>2013-05-07T15:47:14Z</time>
      </trkpt>
      <trkpt lat="59.9329984" lon="17.6427859">
        <ele>27.5349</ele>
        <time>2013-05-07T15:47:15Z</time>
      </trkpt>
      <trkpt lat="59.9329186" lon="17.6426848">
        <ele>27.0543</ele>
        <time>2013-05-07T15:47:16Z</time>
      </trkpt>
      <trkpt lat="59.9328404" lon="17.6425715">
        <ele>27.0543</ele>
        <time>2013-05-07T15:47:17Z</time>
      </trkpt>
      <trkpt lat="59.9327695" lon="17.6424451">
        <ele>26.5736</ele>
        <time>2013-05-07T15:47:18Z</time>
      </trkpt>
      <trkpt lat="59.9327038" lon="17.6423175">
        <ele>26.5736</ele>
        <time>2013-05-07T15:47:19Z</time>
      </trkpt>
      <trkpt lat="59.9326337" lon="17.6422052">
        <ele>26.0929</ele>
        <time>2013-05-07T15:47:20Z</time>
      </trkpt>
      <trkpt lat="59.932558" lon="17.6421093">
        <ele>26.0929</ele>
        <time>2013-05-07T15:47:21Z</time>
      </trkpt>
      <trkpt lat="59.9324803" lon="17.6420221">
        <ele>25.6123</ele>
        <time>2013-05-07T15:47:22Z</time>
      </trkpt>
      <trkpt lat="59.9324032" lon="17.6419426">
        <ele>25.6123</ele>
        <time>2013-05-07T15:47:23Z</time>
      </trkpt>
      <trkpt lat="59.9323264" lon="17.6418686">
        <ele>25.6123</ele>
        <time>2013-05-07T15:47:24Z</time>
      </trkpt>
      <trkpt lat="59.9322492" lon="17.6417996">
        <ele>25.6123</ele>
        <time>2013-05-07T15:47:25Z</time>
      </trkpt>
      <trkpt lat="59.932173" lon="17.6417306">
        <ele>25.6123</ele>
        <time>2013-05-07T15:47:26Z</time>
      </trkpt>
      <trkpt lat="59.9320992" lon="17.6416596">
        <ele>25.6123</ele>
        <time>2013-05-07T15:47:27Z</time>
      </trkpt>
      <trkpt lat="59.9320277" lon="17.6415924">
        <ele>26.0929</ele>
        <time>2013-05-07T15:47:28Z</time>
      </trkpt>
      <trkpt lat="59.9319584" lon="17.6415328">
        <ele>26.0929</ele>
        <time>2013-05-07T15:47:29Z</time>
      </trkpt>
      <trkpt lat="59.9318886" lon="17.641481">
        <ele>25.6123</ele>
        <time>2013-05-07T15:47:30Z</time>
      </trkpt>
      <trkpt lat="59.9318158" lon="17.6414338">
        <ele>25.6123</ele>
        <time>2013-05-07T15:47:31Z</time>
      </trkpt>
      <trkpt lat="59.931741" lon="17.641387">
        <ele>25.1317</ele>
        <time>2013-05-07T15:47:32Z</time>
      </trkpt>
      <trkpt lat="59.931666" lon="17.6413363">
        <ele>25.1317</ele>
        <time>2013-05-07T15:47:33Z</time>
      </trkpt>
      <trkpt lat="59.9315925" lon="17.6412817">
        <ele>25.1317</ele>
        <time>2013-05-07T15:47:34Z</time>
      </trkpt>
      <trkpt lat="59.93152" lon="17.641228">
        <ele>25.1317</ele>
        <time>2013-05-07T15:47:35Z</time>
      </trkpt>
      <trkpt lat="59.9314473" lon="17.6411715">
        <ele>24.651</ele>
        <time>2013-05-07T15:47:36Z</time>
      </trkpt>
      <trkpt lat="59.9313763" lon="17.6411189">
        <ele>24.1703</ele>
        <time>2013-05-07T15:47:37Z</time>
      </trkpt>
      <trkpt lat="59.9313051" lon="17.641064">
        <ele>24.1703</ele>
        <time>2013-05-07T15:47:38Z</time>
      </trkpt>
      <trkpt lat="59.9312328" lon="17.6410085">
        <ele>23.209</ele>
        <time>2013-05-07T15:47:39Z</time>
      </trkpt>
      <trkpt lat="59.9311578" lon="17.6409552">
        <ele>22.7283</ele>
        <time>2013-05-07T15:47:40Z</time>
      </trkpt>
      <trkpt lat="59.9310828" lon="17.6409038">
        <ele>22.2476</ele>
        <time>2013-05-07T15:47:41Z</time>
      </trkpt>
      <trkpt lat="59.9310015" lon="17.6408474">
        <ele>21.767</ele>
        <time>2013-05-07T15:47:42Z</time>
      </trkpt>
      <trkpt lat="59.9309189" lon="17.6407971">
        <ele>21.2864</ele>
        <time>2013-05-07T15:47:43Z</time>
      </trkpt>
      <trkpt lat="59.9308356" lon="17.6407614">
        <ele>21.2864</ele>
        <time>2013-05-07T15:47:44Z</time>
      </trkpt>
      <trkpt lat="59.9307537" lon="17.6407438">
        <ele>21.2864</ele>
        <time>2013-05-07T15:47:45Z</time>
      </trkpt>
      <trkpt lat="59.9306749" lon="17.6407413">
        <ele>20.8057</ele>
        <time>2013-05-07T15:47:46Z</time>
      </trkpt>
      <trkpt lat="59.9305962" lon="17.6407509">
        <ele>20.8057</ele>
        <time>2013-05-07T15:47:47Z</time>
      </trkpt>
      <trkpt lat="59.9305165" lon="17.640768">
        <ele>20.325</ele>
        <time>2013-05-07T15:47:48Z</time>
      </trkpt>
      <trkpt lat="59.9304348" lon="17.6407817">
        <ele>20.325</ele>
        <time>2013-05-07T15:47:49Z</time>
      </trkpt>
      <trkpt lat="59.9303513" lon="17.6407864">
        <ele>19.8444</ele>
        <time>2013-05-07T15:47:50Z</time>
      </trkpt>
      <trkpt lat="59.9302669" lon="17.6407847">
        <ele>19.8444</ele>
        <time>2013-05-07T15:47:51Z</time>
      </trkpt>
      <trkpt lat="59.9301825" lon="17.6407812">
        <ele>19.8444</ele>
        <time>2013-05-07T15:47:52Z</time>
      </trkpt>
      <trkpt lat="59.9300974" lon="17.6407792">
        <ele>19.8444</ele>
        <time>2013-05-07T15:47:53Z</time>
      </trkpt>
      <trkpt lat="59.9300116" lon="17.640779">
        <ele>19.8444</ele>
        <time>2013-05-07T15:47:54Z</time>
      </trkpt>
      <trkpt lat="59.9298421" lon="17.6407822">
        <ele>19.8444</ele>
        <time>2013-05-07T15:47:56Z</time>
      </trkpt>
      <trkpt lat="59.9297608" lon="17.640788">
        <ele>19.8444</ele>
        <time>2013-05-07T15:47:57Z</time>
      </trkpt>
      <trkpt lat="59.9296812" lon="17.6407999">
        <ele>19.8444</ele>
        <time>2013-05-07T15:47:58Z</time>
      </trkpt>
      <trkpt lat="59.9296017" lon="17.6408175">
        <ele>19.3638</ele>
        <time>2013-05-07T15:47:59Z</time>
      </trkpt>
      <trkpt lat="59.9295213" lon="17.6408359">
        <ele>19.3638</ele>
        <time>2013-05-07T15:48:00Z</time>
      </trkpt>
      <trkpt lat="59.9294402" lon="17.6408516">
        <ele>19.3638</ele>
        <time>2013-05-07T15:48:01Z</time>
      </trkpt>
      <trkpt lat="59.9293587" lon="17.6408625">
        <ele>19.3638</ele>
        <time>2013-05-07T15:48:02Z</time>
      </trkpt>
      <trkpt lat="59.9292763" lon="17.6408721">
        <ele>19.3638</ele>
        <time>2013-05-07T15:48:03Z</time>
      </trkpt>
      <trkpt lat="59.9291938" lon="17.640878">
        <ele>19.3638</ele>
        <time>2013-05-07T15:48:04Z</time>
      </trkpt>
      <trkpt lat="59.9291123" lon="17.6408818">
        <ele>19.3638</ele>
        <time>2013-05-07T15:48:05Z</time>
      </trkpt>
      <trkpt lat="59.9290325" lon="17.6408874">
        <ele>19.3638</ele>
        <time>2013-05-07T15:48:06Z</time>
      </trkpt>
      <trkpt lat="59.9289537" lon="17.6408946">
        <ele>18.8831</ele>
        <time>2013-05-07T15:48:07Z</time>
      </trkpt>
      <trkpt lat="59.9288755" lon="17.6409027">
        <ele>18.8831</ele>
        <time>2013-05-07T15:48:08Z</time>
      </trkpt>
      <trkpt lat="59.9287982" lon="17.6409141">
        <ele>18.8831</ele>
        <time>2013-05-07T15:48:09Z</time>
      </trkpt>
      <trkpt lat="59.9287216" lon="17.6409299">
        <ele>18.8831</ele>
        <time>2013-05-07T15:48:10Z</time>
      </trkpt>
      <trkpt lat="59.9286459" lon="17.6409459">
        <ele>18.8831</ele>
        <time>2013-05-07T15:48:11Z</time>
      </trkpt>
      <trkpt lat="59.9285718" lon="17.6409593">
        <ele>18.8831</ele>
        <time>2013-05-07T15:48:12Z</time>
      </trkpt>
      <trkpt lat="59.9284983" lon="17.6409721">
        <ele>18.8831</ele>
        <time>2013-05-07T15:48:13Z</time>
      </trkpt>
      <trkpt lat="59.9284242" lon="17.6409837">
        <ele>18.8831</ele>
        <time>2013-05-07T15:48:14Z</time>
      </trkpt>
      <trkpt lat="59.9283493" lon="17.6409931">
        <ele>18.8831</ele>
        <time>2013-05-07T15:48:15Z</time>
      </trkpt>
      <trkpt lat="59.9282742" lon="17.6410048">
        <ele>18.8831</ele>
        <time>2013-05-07T15:48:16Z</time>
      </trkpt>
      <trkpt lat="59.9282" lon="17.6410174">
        <ele>19.3638</ele>
        <time>2013-05-07T15:48:17Z</time>
      </trkpt>
      <trkpt lat="59.928125" lon="17.6410298">
        <ele>19.3638</ele>
        <time>2013-05-07T15:48:18Z</time>
      </trkpt>
      <trkpt lat="59.9280489" lon="17.6410391">
        <ele>19.3638</ele>
        <time>2013-05-07T15:48:19Z</time>
      </trkpt>
      <trkpt lat="59.9279725" lon="17.6410451">
        <ele>19.3638</ele>
        <time>2013-05-07T15:48:20Z</time>
      </trkpt>
      <trkpt lat="59.9278964" lon="17.6410521">
        <ele>19.3638</ele>
        <time>2013-05-07T15:48:21Z</time>
      </trkpt>
      <trkpt lat="59.9278209" lon="17.6410604">
        <ele>19.3638</ele>
        <time>2013-05-07T15:48:22Z</time>
      </trkpt>
      <trkpt lat="59.9277459" lon="17.6410702">
        <ele>19.3638</ele>
        <time>2013-05-07T15:48:23Z</time>
      </trkpt>
      <trkpt lat="59.9276716" lon="17.6410814">
        <ele>19.3638</ele>
        <time>2013-05-07T15:48:24Z</time>
      </trkpt>
      <trkpt lat="59.9275975" lon="17.6410918">
        <ele>19.3638</ele>
        <time>2013-05-07T15:48:25Z</time>
      </trkpt>
      <trkpt lat="59.927524" lon="17.6410997">
        <ele>19.3638</ele>
        <time>2013-05-07T15:48:26Z</time>
      </trkpt>
      <trkpt lat="59.9274506" lon="17.641107">
        <ele>19.3638</ele>
        <time>2013-05-07T15:48:27Z</time>
      </trkpt>
      <trkpt lat="59.9273775" lon="17.6411153">
        <ele>19.3638</ele>
        <time>2013-05-07T15:48:28Z</time>
      </trkpt>
      <trkpt lat="59.9273041" lon="17.641124">
        <ele>19.3638</ele>
        <time>2013-05-07T15:48:29Z</time>
      </trkpt>
      <trkpt lat="59.9272312" lon="17.6411298">
        <ele>19.3638</ele>
        <time>2013-05-07T15:48:30Z</time>
      </trkpt>
      <trkpt lat="59.9271585" lon="17.6411344">
        <ele>19.3638</ele>
        <time>2013-05-07T15:48:31Z</time>
      </trkpt>
      <trkpt lat="59.9270858" lon="17.6411418">
        <ele>19.3638</ele>
        <time>2013-05-07T15:48:32Z</time>
      </trkpt>
      <trkpt lat="59.9270128" lon="17.6411484">
        <ele>19.3638</ele>
        <time>2013-05-07T15:48:33Z</time>
      </trkpt>
      <trkpt lat="59.9269393" lon="17.6411539">
        <ele>19.3638</ele>
        <time>2013-05-07T15:48:34Z</time>
      </trkpt>
      <trkpt lat="59.9268656" lon="17.6411619">
        <ele>19.3638</ele>
        <time>2013-05-07T15:48:35Z</time>
      </trkpt>
      <trkpt lat="59.926792" lon="17.6411715">
        <ele>19.3638</ele>
        <time>2013-05-07T15:48:36Z</time>
      </trkpt>
      <trkpt lat="59.9267182" lon="17.6411789">
        <ele>19.3638</ele>
        <time>2013-05-07T15:48:37Z</time>
      </trkpt>
      <trkpt lat="59.9266445" lon="17.6411857">
        <ele>19.3638</ele>
        <time>2013-05-07T15:48:38Z</time>
      </trkpt>
      <trkpt lat="59.9265702" lon="17.6411945">
        <ele>18.8831</ele>
        <time>2013-05-07T15:48:39Z</time>
      </trkpt>
      <trkpt lat="59.9264952" lon="17.6412044">
        <ele>18.8831</ele>
        <time>2013-05-07T15:48:40Z</time>
      </trkpt>
      <trkpt lat="59.9264195" lon="17.6412146">
        <ele>18.8831</ele>
        <time>2013-05-07T15:48:41Z</time>
      </trkpt>
      <trkpt lat="59.9263435" lon="17.6412239">
        <ele>18.8831</ele>
        <time>2013-05-07T15:48:42Z</time>
      </trkpt>
      <trkpt lat="59.9262677" lon="17.6412339">
        <ele>18.8831</ele>
        <time>2013-05-07T15:48:43Z</time>
      </trkpt>
      <trkpt lat="59.9261917" lon="17.6412454">
        <ele>18.8831</ele>
        <time>2013-05-07T15:48:44Z</time>
      </trkpt>
      <trkpt lat="59.9261154" lon="17.6412567">
        <ele>18.8831</ele>
        <time>2013-05-07T15:48:45Z</time>
      </trkpt>
      <trkpt lat="59.926039" lon="17.6412665">
        <ele>18.8831</ele>
        <time>2013-05-07T15:48:46Z</time>
      </trkpt>
      <trkpt lat="59.9259629" lon="17.6412768">
        <ele>18.8831</ele>
        <time>2013-05-07T15:48:47Z</time>
      </trkpt>
      <trkpt lat="59.9258873" lon="17.6412893">
        <ele>18.8831</ele>
        <time>2013-05-07T15:48:48Z</time>
      </trkpt>
      <trkpt lat="59.9258125" lon="17.6413018">
        <ele>18.8831</ele>
        <time>2013-05-07T15:48:49Z</time>
      </trkpt>
      <trkpt lat="59.9257379" lon="17.641313">
        <ele>18.8831</ele>
        <time>2013-05-07T15:48:50Z</time>
      </trkpt>
      <trkpt lat="59.925664" lon="17.6413235">
        <ele>18.8831</ele>
        <time>2013-05-07T15:48:51Z</time>
      </trkpt>
      <trkpt lat="59.9255914" lon="17.6413328">
        <ele>18.8831</ele>
        <time>2013-05-07T15:48:52Z</time>
      </trkpt>
      <trkpt lat="59.9255193" lon="17.6413412">
        <ele>18.8831</ele>
        <time>2013-05-07T15:48:53Z</time>
      </trkpt>
      <trkpt lat="59.9254473" lon="17.6413492">
        <ele>19.3638</ele>
        <time>2013-05-07T15:48:54Z</time>
      </trkpt>
      <trkpt lat="59.9253753" lon="17.6413555">
        <ele>19.3638</ele>
        <time>2013-05-07T15:48:55Z</time>
      </trkpt>
      <trkpt lat="59.9253037" lon="17.6413596">
        <ele>19.3638</ele>
        <time>2013-05-07T15:48:56Z</time>
      </trkpt>
      <trkpt lat="59.9252328" lon="17.6413607">
        <ele>19.3638</ele>
        <time>2013-05-07T15:48:57Z</time>
      </trkpt>
      <trkpt lat="59.9251625" lon="17.6413609">
        <ele>19.3638</ele>
        <time>2013-05-07T15:48:58Z</time>
      </trkpt>
      <trkpt lat="59.9250918" lon="17.6413628">
        <ele>19.3638</ele>
        <time>2013-05-07T15:48:59Z</time>
      </trkpt>
      <trkpt lat="59.9250209" lon="17.6413664">
        <ele>19.3638</ele>
        <time>2013-05-07T15:49:00Z</time>
      </trkpt>
      <trkpt lat="59.9249507" lon="17.6413704">
        <ele>19.3638</ele>
        <time>2013-05-07T15:49:01Z</time>
      </trkpt>
      <trkpt lat="59.9248817" lon="17.6413748">
        <ele>19.8444</ele>
        <time>2013-05-07T15:49:02Z</time>
      </trkpt>
      <trkpt lat="59.9248134" lon="17.6413825">
        <ele>19.8444</ele>
        <time>2013-05-07T15:49:03Z</time>
      </trkpt>
      <trkpt lat="59.9247455" lon="17.6413961">
        <ele>19.8444</ele>
        <time>2013-05-07T15:49:04Z</time>
      </trkpt>
      <trkpt lat="59.9246771" lon="17.6414129">
        <ele>19.8444</ele>
        <time>2013-05-07T15:49:05Z</time>
      </trkpt>
      <trkpt lat="59.9246081" lon="17.6414287">
        <ele>19.8444</ele>
        <time>2013-05-07T15:49:06Z</time>
      </trkpt>
      <trkpt lat="59.9245383" lon="17.6414464">
        <ele>20.325</ele>
        <time>2013-05-07T15:49:07Z</time>
      </trkpt>
      <trkpt lat="59.9244677" lon="17.6414634">
        <ele>20.325</ele>
        <time>2013-05-07T15:49:08Z</time>
      </trkpt>
      <trkpt lat="59.9243957" lon="17.6414741">
        <ele>20.325</ele>
        <time>2013-05-07T15:49:09Z</time>
      </trkpt>
      <trkpt lat="59.9243228" lon="17.6414819">
        <ele>20.325</ele>
        <time>2013-05-07T15:49:10Z</time>
      </trkpt>
      <trkpt lat="59.9242503" lon="17.6414878">
        <ele>20.8057</ele>
        <time>2013-05-07T15:49:11Z</time>
      </trkpt>
      <trkpt lat="59.9241778" lon="17.6414917">
        <ele>20.8057</ele>
        <time>2013-05-07T15:49:12Z</time>
      </trkpt>
      <trkpt lat="59.9241057" lon="17.6414948">
        <ele>20.8057</ele>
        <time>2013-05-07T15:49:13Z</time>
      </trkpt>
      <trkpt lat="59.9240332" lon="17.6415011">
        <ele>20.8057</ele>
        <time>2013-05-07T15:49:14Z</time>
      </trkpt>
      <trkpt lat="59.92396" lon="17.641511">
        <ele>21.2864</ele>
        <time>2013-05-07T15:49:15Z</time>
      </trkpt>
      <trkpt lat="59.9238872" lon="17.6415205">
        <ele>21.2864</ele>
        <time>2013-05-07T15:49:16Z</time>
      </trkpt>
      <trkpt lat="59.9238157" lon="17.6415311">
        <ele>21.767</ele>
        <time>2013-05-07T15:49:17Z</time>
      </trkpt>
      <trkpt lat="59.9237457" lon="17.6415438">
        <ele>22.2476</ele>
        <time>2013-05-07T15:49:18Z</time>
      </trkpt>
      <trkpt lat="59.9236746" lon="17.6415555">
        <ele>22.2476</ele>
        <time>2013-05-07T15:49:19Z</time>
      </trkpt>
      <trkpt lat="59.9236027" lon="17.6415673">
        <ele>22.7283</ele>
        <time>2013-05-07T15:49:20Z</time>
      </trkpt>
      <trkpt lat="59.9235313" lon="17.6415789">
        <ele>23.209</ele>
        <time>2013-05-07T15:49:21Z</time>
      </trkpt>
      <trkpt lat="59.9234608" lon="17.6415899">
        <ele>23.209</ele>
        <time>2013-05-07T15:49:22Z</time>
      </trkpt>
      <trkpt lat="59.9233908" lon="17.6416022">
        <ele>23.6896</ele>
        <time>2013-05-07T15:49:23Z</time>
      </trkpt>
      <trkpt lat="59.9233211" lon="17.6416142">
        <ele>24.1703</ele>
        <time>2013-05-07T15:49:24Z</time>
      </trkpt>
      <trkpt lat="59.923252" lon="17.641625">
        <ele>24.1703</ele>
        <time>2013-05-07T15:49:25Z</time>
      </trkpt>
      <trkpt lat="59.9231827" lon="17.6416362">
        <ele>24.651</ele>
        <time>2013-05-07T15:49:26Z</time>
      </trkpt>
      <trkpt lat="59.9231134" lon="17.6416472">
        <ele>24.651</ele>
        <time>2013-05-07T15:49:27Z</time>
      </trkpt>
      <trkpt lat="59.9230467" lon="17.6416587">
        <ele>25.1317</ele>
        <time>2013-05-07T15:49:28Z</time>
      </trkpt>
      <trkpt lat="59.922976" lon="17.6416694">
        <ele>25.1317</ele>
        <time>2013-05-07T15:49:29Z</time>
      </trkpt>
      <trkpt lat="59.9229046" lon="17.6416784">
        <ele>25.6123</ele>
        <time>2013-05-07T15:49:30Z</time>
      </trkpt>
      <trkpt lat="59.922833" lon="17.6416872">
        <ele>26.0929</ele>
        <time>2013-05-07T15:49:31Z</time>
      </trkpt>
      <trkpt lat="59.922758" lon="17.6417001">
        <ele>26.0929</ele>
        <time>2013-05-07T15:49:32Z</time>
      </trkpt>
      <trkpt lat="59.9226863" lon="17.6417097">
        <ele>26.0929</ele>
        <time>2013-05-07T15:49:33Z</time>
      </trkpt>
      <trkpt lat="59.9226164" lon="17.6417183">
        <ele>26.5736</ele>
        <time>2013-05-07T15:49:34Z</time>
      </trkpt>
      <trkpt lat="59.9225481" lon="17.6417282">
        <ele>26.5736</ele>
        <time>2013-05-07T15:49:35Z</time>
      </trkpt>
      <trkpt lat="59.9224824" lon="17.6417332">
        <ele>27.0543</ele>
        <time>2013-05-07T15:49:36Z</time>
      </trkpt>
      <trkpt lat="59.9224165" lon="17.6417393">
        <ele>27.0543</ele>
        <time>2013-05-07T15:49:37Z</time>
      </trkpt>
      <trkpt lat="59.9223497" lon="17.6417436">
        <ele>27.0543</ele>
        <time>2013-05-07T15:49:38Z</time>
      </trkpt>
      <trkpt lat="59.9222827" lon="17.6417503">
        <ele>27.0543</ele>
        <time>2013-05-07T15:49:39Z</time>
      </trkpt>
      <trkpt lat="59.9222159" lon="17.6417569">
        <ele>27.0543</ele>
        <time>2013-05-07T15:49:40Z</time>
      </trkpt>
      <trkpt lat="59.9221493" lon="17.6417597">
        <ele>27.0543</ele>
        <time>2013-05-07T15:49:41Z</time>
      </trkpt>
      <trkpt lat="59.9220834" lon="17.6417607">
        <ele>27.0543</ele>
        <time>2013-05-07T15:49:42Z</time>
      </trkpt>
      <trkpt lat="59.9220177" lon="17.6417647">
        <ele>27.0543</ele>
        <time>2013-05-07T15:49:43Z</time>
      </trkpt>
      <trkpt lat="59.9219525" lon="17.6417722">
        <ele>27.0543</ele>
        <time>2013-05-07T15:49:44Z</time>
      </trkpt>
      <trkpt lat="59.9218874" lon="17.6417802">
        <ele>27.0543</ele>
        <time>2013-05-07T15:49:45Z</time>
      </trkpt>
      <trkpt lat="59.9218219" lon="17.6417897">
        <ele>27.5349</ele>
        <time>2013-05-07T15:49:46Z</time>
      </trkpt>
      <trkpt lat="59.9217561" lon="17.6418009">
        <ele>27.5349</ele>
        <time>2013-05-07T15:49:47Z</time>
      </trkpt>
      <trkpt lat="59.9216908" lon="17.6418155">
        <ele>28.0155</ele>
        <time>2013-05-07T15:49:48Z</time>
      </trkpt>
      <trkpt lat="59.9216256" lon="17.6418356">
        <ele>28.0155</ele>
        <time>2013-05-07T15:49:49Z</time>
      </trkpt>
      <trkpt lat="59.9215661" lon="17.6418431">
        <ele>28.0155</ele>
        <time>2013-05-07T15:49:50Z</time>
      </trkpt>
      <trkpt lat="59.9215022" lon="17.6418497">
        <ele>28.0155</ele>
        <time>2013-05-07T15:49:51Z</time>
      </trkpt>
      <trkpt lat="59.9214371" lon="17.6418602">
        <ele>28.0155</ele>
        <time>2013-05-07T15:49:52Z</time>
      </trkpt>
      <trkpt lat="59.9213718" lon="17.6418667">
        <ele>28.4962</ele>
        <time>2013-05-07T15:49:53Z</time>
      </trkpt>
      <trkpt lat="59.9213042" lon="17.6418717">
        <ele>28.0155</ele>
        <time>2013-05-07T15:49:54Z</time>
      </trkpt>
      <trkpt lat="59.9212338" lon="17.6418765">
        <ele>27.5349</ele>
        <time>2013-05-07T15:49:55Z</time>
      </trkpt>
      <trkpt lat="59.9211603" lon="17.641881">
        <ele>27.5349</ele>
        <time>2013-05-07T15:49:56Z</time>
      </trkpt>
      <trkpt lat="59.9210847" lon="17.6418881">
        <ele>27.0543</ele>
        <time>2013-05-07T15:49:57Z</time>
      </trkpt>
      <trkpt lat="59.9210091" lon="17.6418955">
        <ele>27.5349</ele>
        <time>2013-05-07T15:49:58Z</time>
      </trkpt>
      <trkpt lat="59.9209335" lon="17.6419">
        <ele>27.5349</ele>
        <time>2013-05-07T15:49:59Z</time>
      </trkpt>
      <trkpt lat="59.9208589" lon="17.6418985">
        <ele>28.0155</ele>
        <time>2013-05-07T15:50:00Z</time>
      </trkpt>
      <trkpt lat="59.9207838" lon="17.6418932">
        <ele>28.0155</ele>
        <time>2013-05-07T15:50:01Z</time>
      </trkpt>
      <trkpt lat="59.920707" lon="17.6418901">
        <ele>27.0543</ele>
        <time>2013-05-07T15:50:02Z</time>
      </trkpt>
      <trkpt lat="59.9206319" lon="17.6418845">
        <ele>26.5736</ele>
        <time>2013-05-07T15:50:03Z</time>
      </trkpt>
      <trkpt lat="59.9205565" lon="17.6418814">
        <ele>26.5736</ele>
        <time>2013-05-07T15:50:04Z</time>
      </trkpt>
      <trkpt lat="59.9204823" lon="17.6418808">
        <ele>26.5736</ele>
        <time>2013-05-07T15:50:05Z</time>
      </trkpt>
      <trkpt lat="59.9204091" lon="17.6418841">
        <ele>26.5736</ele>
        <time>2013-05-07T15:50:06Z</time>
      </trkpt>
      <trkpt lat="59.920336" lon="17.6418883">
        <ele>27.0543</ele>
        <time>2013-05-07T15:50:07Z</time>
      </trkpt>
      <trkpt lat="59.9202635" lon="17.6418927">
        <ele>27.0543</ele>
        <time>2013-05-07T15:50:08Z</time>
      </trkpt>
      <trkpt lat="59.9201932" lon="17.641897">
        <ele>27.0543</ele>
        <time>2013-05-07T15:50:09Z</time>
      </trkpt>
      <trkpt lat="59.9201238" lon="17.641902">
        <ele>27.0543</ele>
        <time>2013-05-07T15:50:10Z</time>
      </trkpt>
      <trkpt lat="59.9200544" lon="17.6419059">
        <ele>26.5736</ele>
        <time>2013-05-07T15:50:11Z</time>
      </trkpt>
      <trkpt lat="59.9199838" lon="17.6419156">
        <ele>26.5736</ele>
        <time>2013-05-07T15:50:12Z</time>
      </trkpt>
      <trkpt lat="59.919913" lon="17.6419301">
        <ele>26.5736</ele>
        <time>2013-05-07T15:50:13Z</time>
      </trkpt>
      <trkpt lat="59.9198432" lon="17.6419462">
        <ele>26.5736</ele>
        <time>2013-05-07T15:50:14Z</time>
      </trkpt>
      <trkpt lat="59.9197748" lon="17.6419633">
        <ele>26.5736</ele>
        <time>2013-05-07T15:50:15Z</time>
      </trkpt>
      <trkpt lat="59.9197068" lon="17.6419812">
        <ele>26.5736</ele>
        <time>2013-05-07T15:50:16Z</time>
      </trkpt>
      <trkpt lat="59.9196384" lon="17.6419963">
        <ele>26.0929</ele>
        <time>2013-05-07T15:50:17Z</time>
      </trkpt>
      <trkpt lat="59.9195701" lon="17.6420067">
        <ele>26.0929</ele>
        <time>2013-05-07T15:50:18Z</time>
      </trkpt>
      <trkpt lat="59.9195022" lon="17.6420124">
        <ele>26.0929</ele>
        <time>2013-05-07T15:50:19Z</time>
      </trkpt>
      <trkpt lat="59.9194344" lon="17.6420192">
        <ele>26.0929</ele>
        <time>2013-05-07T15:50:20Z</time>
      </trkpt>
      <trkpt lat="59.9193675" lon="17.642029">
        <ele>26.5736</ele>
        <time>2013-05-07T15:50:21Z</time>
      </trkpt>
      <trkpt lat="59.9193013" lon="17.642039">
        <ele>26.5736</ele>
        <time>2013-05-07T15:50:22Z</time>
      </trkpt>
      <trkpt lat="59.9192355" lon="17.6420467">
        <ele>26.5736</ele>
        <time>2013-05-07T15:50:23Z</time>
      </trkpt>
      <trkpt lat="59.91917" lon="17.6420555">
        <ele>26.5736</ele>
        <time>2013-05-07T15:50:24Z</time>
      </trkpt>
      <trkpt lat="59.9191049" lon="17.6420652">
        <ele>26.5736</ele>
        <time>2013-05-07T15:50:25Z</time>
      </trkpt>
      <trkpt lat="59.919041" lon="17.6420734">
        <ele>26.5736</ele>
        <time>2013-05-07T15:50:26Z</time>
      </trkpt>
      <trkpt lat="59.9189776" lon="17.642083">
        <ele>26.5736</ele>
        <time>2013-05-07T15:50:27Z</time>
      </trkpt>
      <trkpt lat="59.9189143" lon="17.6420958">
        <ele>26.5736</ele>
        <time>2013-05-07T15:50:28Z</time>
      </trkpt>
      <trkpt lat="59.9188509" lon="17.6421069">
        <ele>26.5736</ele>
        <time>2013-05-07T15:50:29Z</time>
      </trkpt>
      <trkpt lat="59.9187877" lon="17.6421162">
        <ele>26.5736</ele>
        <time>2013-05-07T15:50:30Z</time>
      </trkpt>
      <trkpt lat="59.9187243" lon="17.6421259">
        <ele>26.5736</ele>
        <time>2013-05-07T15:50:31Z</time>
      </trkpt>
      <trkpt lat="59.918661" lon="17.642134">
        <ele>26.5736</ele>
        <time>2013-05-07T15:50:32Z</time>
      </trkpt>
      <trkpt lat="59.9185975" lon="17.6421416">
        <ele>26.5736</ele>
        <time>2013-05-07T15:50:33Z</time>
      </trkpt>
      <trkpt lat="59.9185335" lon="17.6421492">
        <ele>26.5736</ele>
        <time>2013-05-07T15:50:34Z</time>
      </trkpt>
      <trkpt lat="59.9184688" lon="17.6421579">
        <ele>26.5736</ele>
        <time>2013-05-07T15:50:35Z</time>
      </trkpt>
      <trkpt lat="59.9184034" lon="17.6421667">
        <ele>26.5736</ele>
        <time>2013-05-07T15:50:36Z</time>
      </trkpt>
      <trkpt lat="59.9183368" lon="17.642174">
        <ele>26.5736</ele>
        <time>2013-05-07T15:50:37Z</time>
      </trkpt>
      <trkpt lat="59.9182687" lon="17.6421802">
        <ele>26.5736</ele>
        <time>2013-05-07T15:50:38Z</time>
      </trkpt>
      <trkpt lat="59.9181995" lon="17.6421834">
        <ele>26.0929</ele>
        <time>2013-05-07T15:50:39Z</time>
      </trkpt>
      <trkpt lat="59.91813" lon="17.6421855">
        <ele>25.6123</ele>
        <time>2013-05-07T15:50:40Z</time>
      </trkpt>
      <trkpt lat="59.9180576" lon="17.6421923">
        <ele>25.1317</ele>
        <time>2013-05-07T15:50:41Z</time>
      </trkpt>
      <trkpt lat="59.917985" lon="17.6422006">
        <ele>25.1317</ele>
        <time>2013-05-07T15:50:42Z</time>
      </trkpt>
      <trkpt lat="59.917912" lon="17.6422089">
        <ele>24.651</ele>
        <time>2013-05-07T15:50:43Z</time>
      </trkpt>
      <trkpt lat="59.9178383" lon="17.6422169">
        <ele>24.651</ele>
        <time>2013-05-07T15:50:44Z</time>
      </trkpt>
      <trkpt lat="59.9177636" lon="17.6422236">
        <ele>24.1703</ele>
        <time>2013-05-07T15:50:45Z</time>
      </trkpt>
      <trkpt lat="59.9176881" lon="17.6422298">
        <ele>24.1703</ele>
        <time>2013-05-07T15:50:46Z</time>
      </trkpt>
      <trkpt lat="59.9176116" lon="17.6422332">
        <ele>24.1703</ele>
        <time>2013-05-07T15:50:47Z</time>
      </trkpt>
      <trkpt lat="59.9175358" lon="17.6422311">
        <ele>24.1703</ele>
        <time>2013-05-07T15:50:48Z</time>
      </trkpt>
      <trkpt lat="59.9174603" lon="17.6422314">
        <ele>24.1703</ele>
        <time>2013-05-07T15:50:49Z</time>
      </trkpt>
      <trkpt lat="59.9173846" lon="17.6422353">
        <ele>24.1703</ele>
        <time>2013-05-07T15:50:50Z</time>
      </trkpt>
      <trkpt lat="59.9173087" lon="17.6422397">
        <ele>24.1703</ele>
        <time>2013-05-07T15:50:51Z</time>
      </trkpt>
      <trkpt lat="59.9172328" lon="17.6422389">
        <ele>24.1703</ele>
        <time>2013-05-07T15:50:52Z</time>
      </trkpt>
      <trkpt lat="59.9171577" lon="17.6422377">
        <ele>24.1703</ele>
        <time>2013-05-07T15:50:53Z</time>
      </trkpt>
      <trkpt lat="59.9170846" lon="17.6422527">
        <ele>24.1703</ele>
        <time>2013-05-07T15:50:54Z</time>
      </trkpt>
      <trkpt lat="59.9170135" lon="17.6422816">
        <ele>24.651</ele>
        <time>2013-05-07T15:50:55Z</time>
      </trkpt>
      <trkpt lat="59.9169435" lon="17.6423065">
        <ele>24.651</ele>
        <time>2013-05-07T15:50:56Z</time>
      </trkpt>
      <trkpt lat="59.9168742" lon="17.642321">
        <ele>24.651</ele>
        <time>2013-05-07T15:50:57Z</time>
      </trkpt>
      <trkpt lat="59.9168063" lon="17.6423303">
        <ele>25.1317</ele>
        <time>2013-05-07T15:50:58Z</time>
      </trkpt>
      <trkpt lat="59.9167394" lon="17.6423389">
        <ele>25.1317</ele>
        <time>2013-05-07T15:50:59Z</time>
      </trkpt>
      <trkpt lat="59.9166737" lon="17.6423495">
        <ele>25.6123</ele>
        <time>2013-05-07T15:51:00Z</time>
      </trkpt>
      <trkpt lat="59.9166094" lon="17.642362">
        <ele>25.6123</ele>
        <time>2013-05-07T15:51:01Z</time>
      </trkpt>
      <trkpt lat="59.9165462" lon="17.6423726">
        <ele>25.6123</ele>
        <time>2013-05-07T15:51:02Z</time>
      </trkpt>
      <trkpt lat="59.9164842" lon="17.6423818">
        <ele>25.6123</ele>
        <time>2013-05-07T15:51:03Z</time>
      </trkpt>
      <trkpt lat="59.9164226" lon="17.6423933">
        <ele>26.0929</ele>
        <time>2013-05-07T15:51:04Z</time>
      </trkpt>
      <trkpt lat="59.9163615" lon="17.6424081">
        <ele>26.0929</ele>
        <time>2013-05-07T15:51:05Z</time>
      </trkpt>
      <trkpt lat="59.9162997" lon="17.64242">
        <ele>26.0929</ele>
        <time>2013-05-07T15:51:06Z</time>
      </trkpt>
      <trkpt lat="59.9162367" lon="17.6424252">
        <ele>26.0929</ele>
        <time>2013-05-07T15:51:07Z</time>
      </trkpt>
      <trkpt lat="59.9161736" lon="17.6424274">
        <ele>26.0929</ele>
        <time>2013-05-07T15:51:08Z</time>
      </trkpt>
      <trkpt lat="59.9161107" lon="17.6424293">
        <ele>26.0929</ele>
        <time>2013-05-07T15:51:09Z</time>
      </trkpt>
      <trkpt lat="59.9160472" lon="17.642429">
        <ele>26.0929</ele>
        <time>2013-05-07T15:51:10Z</time>
      </trkpt>
      <trkpt lat="59.9159829" lon="17.6424284">
        <ele>26.0929</ele>
        <time>2013-05-07T15:51:11Z</time>
      </trkpt>
      <trkpt lat="59.9159181" lon="17.6424294">
        <ele>25.6123</ele>
        <time>2013-05-07T15:51:12Z</time>
      </trkpt>
      <trkpt lat="59.9158518" lon="17.6424308">
        <ele>25.6123</ele>
        <time>2013-05-07T15:51:13Z</time>
      </trkpt>
      <trkpt lat="59.915784" lon="17.6424311">
        <ele>25.6123</ele>
        <time>2013-05-07T15:51:14Z</time>
      </trkpt>
      <trkpt lat="59.9157155" lon="17.6424322">
        <ele>25.6123</ele>
        <time>2013-05-07T15:51:15Z</time>
      </trkpt>
      <trkpt lat="59.9156468" lon="17.6424376">
        <ele>25.6123</ele>
        <time>2013-05-07T15:51:16Z</time>
      </trkpt>
      <trkpt lat="59.9155781" lon="17.6424465">
        <ele>25.6123</ele>
        <time>2013-05-07T15:51:17Z</time>
      </trkpt>
      <trkpt lat="59.9155088" lon="17.6424593">
        <ele>25.6123</ele>
        <time>2013-05-07T15:51:18Z</time>
      </trkpt>
      <trkpt lat="59.91544" lon="17.6424748">
        <ele>26.0929</ele>
        <time>2013-05-07T15:51:19Z</time>
      </trkpt>
      <trkpt lat="59.9153724" lon="17.6424916">
        <ele>26.0929</ele>
        <time>2013-05-07T15:51:20Z</time>
      </trkpt>
      <trkpt lat="59.9153047" lon="17.6425191">
        <ele>26.0929</ele>
        <time>2013-05-07T15:51:21Z</time>
      </trkpt>
      <trkpt lat="59.9152372" lon="17.6425588">
        <ele>26.0929</ele>
        <time>2013-05-07T15:51:22Z</time>
      </trkpt>
      <trkpt lat="59.9151738" lon="17.6426028">
        <ele>26.0929</ele>
        <time>2013-05-07T15:51:23Z</time>
      </trkpt>
      <trkpt lat="59.9151152" lon="17.6426418">
        <ele>26.5736</ele>
        <time>2013-05-07T15:51:24Z</time>
      </trkpt>
      <trkpt lat="59.9150541" lon="17.6426689">
        <ele>27.0543</ele>
        <time>2013-05-07T15:51:25Z</time>
      </trkpt>
      <trkpt lat="59.9149886" lon="17.6426847">
        <ele>27.0543</ele>
        <time>2013-05-07T15:51:26Z</time>
      </trkpt>
      <trkpt lat="59.91492" lon="17.6426953">
        <ele>27.0543</ele>
        <time>2013-05-07T15:51:27Z</time>
      </trkpt>
      <trkpt lat="59.9148499" lon="17.6427057">
        <ele>27.0543</ele>
        <time>2013-05-07T15:51:28Z</time>
      </trkpt>
      <trkpt lat="59.9147783" lon="17.6427176">
        <ele>27.0543</ele>
        <time>2013-05-07T15:51:29Z</time>
      </trkpt>
      <trkpt lat="59.914705" lon="17.642732">
        <ele>27.0543</ele>
        <time>2013-05-07T15:51:30Z</time>
      </trkpt>
      <trkpt lat="59.9146327" lon="17.6427475">
        <ele>27.0543</ele>
        <time>2013-05-07T15:51:31Z</time>
      </trkpt>
      <trkpt lat="59.9145638" lon="17.6427618">
        <ele>27.0543</ele>
        <time>2013-05-07T15:51:32Z</time>
      </trkpt>
      <trkpt lat="59.9144972" lon="17.6427729">
        <ele>27.0543</ele>
        <time>2013-05-07T15:51:33Z</time>
      </trkpt>
      <trkpt lat="59.9144324" lon="17.6427843">
        <ele>27.0543</ele>
        <time>2013-05-07T15:51:34Z</time>
      </trkpt>
      <trkpt lat="59.9143687" lon="17.6428159">
        <ele>27.0543</ele>
        <time>2013-05-07T15:51:35Z</time>
      </trkpt>
      <trkpt lat="59.9143065" lon="17.6428345">
        <ele>27.0543</ele>
        <time>2013-05-07T15:51:36Z</time>
      </trkpt>
      <trkpt lat="59.9142475" lon="17.6428408">
        <ele>26.5736</ele>
        <time>2013-05-07T15:51:37Z</time>
      </trkpt>
      <trkpt lat="59.9141885" lon="17.6428506">
        <ele>26.5736</ele>
        <time>2013-05-07T15:51:38Z</time>
      </trkpt>
      <trkpt lat="59.914131" lon="17.6428603">
        <ele>26.0929</ele>
        <time>2013-05-07T15:51:39Z</time>
      </trkpt>
      <trkpt lat="59.9140755" lon="17.6428735">
        <ele>26.0929</ele>
        <time>2013-05-07T15:51:40Z</time>
      </trkpt>
      <trkpt lat="59.91402" lon="17.6428882">
        <ele>25.6123</ele>
        <time>2013-05-07T15:51:41Z</time>
      </trkpt>
      <trkpt lat="59.913965" lon="17.6428975">
        <ele>25.6123</ele>
        <time>2013-05-07T15:51:42Z</time>
      </trkpt>
      <trkpt lat="59.9139096" lon="17.6429017">
        <ele>25.6123</ele>
        <time>2013-05-07T15:51:43Z</time>
      </trkpt>
      <trkpt lat="59.9138534" lon="17.6429103">
        <ele>25.6123</ele>
        <time>2013-05-07T15:51:44Z</time>
      </trkpt>
      <trkpt lat="59.9137975" lon="17.6429226">
        <ele>25.1317</ele>
        <time>2013-05-07T15:51:45Z</time>
      </trkpt>
      <trkpt lat="59.9137424" lon="17.642933">
        <ele>25.1317</ele>
        <time>2013-05-07T15:51:46Z</time>
      </trkpt>
      <trkpt lat="59.913689" lon="17.6429474">
        <ele>25.1317</ele>
        <time>2013-05-07T15:51:47Z</time>
      </trkpt>
      <trkpt lat="59.9136363" lon="17.6429616">
        <ele>25.1317</ele>
        <time>2013-05-07T15:51:48Z</time>
      </trkpt>
      <trkpt lat="59.913583" lon="17.6429718">
        <ele>25.1317</ele>
        <time>2013-05-07T15:51:49Z</time>
      </trkpt>
      <trkpt lat="59.9135295" lon="17.6429836">
        <ele>24.651</ele>
        <time>2013-05-07T15:51:50Z</time>
      </trkpt>
      <trkpt lat="59.9134756" lon="17.6429977">
        <ele>24.651</ele>
        <time>2013-05-07T15:51:51Z</time>
      </trkpt>
      <trkpt lat="59.9134208" lon="17.6430048">
        <ele>24.651</ele>
        <time>2013-05-07T15:51:52Z</time>
      </trkpt>
      <trkpt lat="59.9133664" lon="17.6430169">
        <ele>24.651</ele>
        <time>2013-05-07T15:51:53Z</time>
      </trkpt>
      <trkpt lat="59.9133113" lon="17.6430331">
        <ele>24.1703</ele>
        <time>2013-05-07T15:51:54Z</time>
      </trkpt>
      <trkpt lat="59.9132556" lon="17.6430511">
        <ele>24.1703</ele>
        <time>2013-05-07T15:51:55Z</time>
      </trkpt>
      <trkpt lat="59.9131996" lon="17.6430669">
        <ele>23.6896</ele>
        <time>2013-05-07T15:51:56Z</time>
      </trkpt>
      <trkpt lat="59.9131434" lon="17.6430786">
        <ele>23.6896</ele>
        <time>2013-05-07T15:51:57Z</time>
      </trkpt>
      <trkpt lat="59.9130882" lon="17.6430889">
        <ele>23.6896</ele>
        <time>2013-05-07T15:51:58Z</time>
      </trkpt>
      <trkpt lat="59.9130322" lon="17.6430983">
        <ele>23.6896</ele>
        <time>2013-05-07T15:51:59Z</time>
      </trkpt>
      <trkpt lat="59.9129777" lon="17.6431059">
        <ele>24.1703</ele>
        <time>2013-05-07T15:52:00Z</time>
      </trkpt>
      <trkpt lat="59.9129235" lon="17.6431142">
        <ele>24.1703</ele>
        <time>2013-05-07T15:52:01Z</time>
      </trkpt>
      <trkpt lat="59.9128701" lon="17.6431208">
        <ele>23.6896</ele>
        <time>2013-05-07T15:52:02Z</time>
      </trkpt>
      <trkpt lat="59.9128157" lon="17.6431277">
        <ele>23.6896</ele>
        <time>2013-05-07T15:52:03Z</time>
      </trkpt>
      <trkpt lat="59.9127598" lon="17.6431308">
        <ele>23.209</ele>
        <time>2013-05-07T15:52:04Z</time>
      </trkpt>
      <trkpt lat="59.9127037" lon="17.6431153">
        <ele>22.7283</ele>
        <time>2013-05-07T15:52:05Z</time>
      </trkpt>
      <trkpt lat="59.9126443" lon="17.6430936">
        <ele>22.2476</ele>
        <time>2013-05-07T15:52:06Z</time>
      </trkpt>
      <trkpt lat="59.9125804" lon="17.6430617">
        <ele>21.767</ele>
        <time>2013-05-07T15:52:07Z</time>
      </trkpt>
      <trkpt lat="59.9125135" lon="17.6430344">
        <ele>21.2864</ele>
        <time>2013-05-07T15:52:08Z</time>
      </trkpt>
      <trkpt lat="59.9124453" lon="17.6430281">
        <ele>21.2864</ele>
        <time>2013-05-07T15:52:09Z</time>
      </trkpt>
      <trkpt lat="59.9123773" lon="17.6430366">
        <ele>20.8057</ele>
        <time>2013-05-07T15:52:10Z</time>
      </trkpt>
      <trkpt lat="59.9123107" lon="17.6430512">
        <ele>20.8057</ele>
        <time>2013-05-07T15:52:11Z</time>
      </trkpt>
      <trkpt lat="59.9122465" lon="17.6430659">
        <ele>20.325</ele>
        <time>2013-05-07T15:52:12Z</time>
      </trkpt>
      <trkpt lat="59.9121839" lon="17.6430807">
        <ele>20.8057</ele>
        <time>2013-05-07T15:52:13Z</time>
      </trkpt>
      <trkpt lat="59.9121236" lon="17.6430986">
        <ele>20.8057</ele>
        <time>2013-05-07T15:52:14Z</time>
      </trkpt>
      <trkpt lat="59.9120656" lon="17.6431164">
        <ele>20.8057</ele>
        <time>2013-05-07T15:52:15Z</time>
      </trkpt>
      <trkpt lat="59.9120113" lon="17.6431355">
        <ele>20.8057</ele>
        <time>2013-05-07T15:52:16Z</time>
      </trkpt>
      <trkpt lat="59.9119605" lon="17.6431561">
        <ele>19.8444</ele>
        <time>2013-05-07T15:52:17Z</time>
      </trkpt>
      <trkpt lat="59.9119116" lon="17.643171">
        <ele>19.8444</ele>
        <time>2013-05-07T15:52:18Z</time>
      </trkpt>
      <trkpt lat="59.9118631" lon="17.6431841">
        <ele>19.8444</ele>
        <time>2013-05-07T15:52:19Z</time>
      </trkpt>
      <trkpt lat="59.911815" lon="17.6431925">
        <ele>19.8444</ele>
        <time>2013-05-07T15:52:20Z</time>
      </trkpt>
      <trkpt lat="59.9117663" lon="17.6431987">
        <ele>19.8444</ele>
        <time>2013-05-07T15:52:21Z</time>
      </trkpt>
      <trkpt lat="59.9117149" lon="17.6432071">
        <ele>19.8444</ele>
        <time>2013-05-07T15:52:22Z</time>
      </trkpt>
      <trkpt lat="59.9116626" lon="17.6432159">
        <ele>19.8444</ele>
        <time>2013-05-07T15:52:23Z</time>
      </trkpt>
      <trkpt lat="59.9116111" lon="17.6432235">
        <ele>19.8444</ele>
        <time>2013-05-07T15:52:24Z</time>
      </trkpt>
      <trkpt lat="59.911559" lon="17.6432311">
        <ele>19.8444</ele>
        <time>2013-05-07T15:52:25Z</time>
      </trkpt>
      <trkpt lat="59.9115072" lon="17.6432402">
        <ele>19.3638</ele>
        <time>2013-05-07T15:52:26Z</time>
      </trkpt>
      <trkpt lat="59.9114558" lon="17.64325">
        <ele>19.3638</ele>
        <time>2013-05-07T15:52:27Z</time>
      </trkpt>
      <trkpt lat="59.9114046" lon="17.6432609">
        <ele>19.3638</ele>
        <time>2013-05-07T15:52:28Z</time>
      </trkpt>
      <trkpt lat="59.9113534" lon="17.6432732">
        <ele>19.3638</ele>
        <time>2013-05-07T15:52:29Z</time>
      </trkpt>
      <trkpt lat="59.9113015" lon="17.6432903">
        <ele>19.3638</ele>
        <time>2013-05-07T15:52:30Z</time>
      </trkpt>
      <trkpt lat="59.9112498" lon="17.64331">
        <ele>18.8831</ele>
        <time>2013-05-07T15:52:31Z</time>
      </trkpt>
      <trkpt lat="59.9111985" lon="17.6433264">
        <ele>18.8831</ele>
        <time>2013-05-07T15:52:32Z</time>
      </trkpt>
      <trkpt lat="59.9111482" lon="17.6433365">
        <ele>18.4023</ele>
        <time>2013-05-07T15:52:33Z</time>
      </trkpt>
      <trkpt lat="59.9110985" lon="17.6433462">
        <ele>18.4023</ele>
        <time>2013-05-07T15:52:34Z</time>
      </trkpt>
      <trkpt lat="59.9110493" lon="17.643355">
        <ele>18.4023</ele>
        <time>2013-05-07T15:52:35Z</time>
      </trkpt>
      <trkpt lat="59.9109979" lon="17.6433634">
        <ele>17.9218</ele>
        <time>2013-05-07T15:52:36Z</time>
      </trkpt>
      <trkpt lat="59.9109434" lon="17.6433713">
        <ele>17.9218</ele>
        <time>2013-05-07T15:52:37Z</time>
      </trkpt>
      <trkpt lat="59.9108864" lon="17.643378">
        <ele>17.9218</ele>
        <time>2013-05-07T15:52:38Z</time>
      </trkpt>
      <trkpt lat="59.9108272" lon="17.6433874">
        <ele>17.9218</ele>
        <time>2013-05-07T15:52:39Z</time>
      </trkpt>
      <trkpt lat="59.9107671" lon="17.6433992">
        <ele>17.9218</ele>
        <time>2013-05-07T15:52:40Z</time>
      </trkpt>
      <trkpt lat="59.9107065" lon="17.643412">
        <ele>17.9218</ele>
        <time>2013-05-07T15:52:41Z</time>
      </trkpt>
      <trkpt lat="59.9106462" lon="17.6434256">
        <ele>18.4023</ele>
        <time>2013-05-07T15:52:42Z</time>
      </trkpt>
      <trkpt lat="59.9105852" lon="17.6434456">
        <ele>18.4023</ele>
        <time>2013-05-07T15:52:43Z</time>
      </trkpt>
      <trkpt lat="59.9105235" lon="17.6434767">
        <ele>17.9218</ele>
        <time>2013-05-07T15:52:44Z</time>
      </trkpt>
      <trkpt lat="59.9104636" lon="17.643509">
        <ele>18.4023</ele>
        <time>2013-05-07T15:52:45Z</time>
      </trkpt>
      <trkpt lat="59.9104048" lon="17.6435364">
        <ele>18.4023</ele>
        <time>2013-05-07T15:52:46Z</time>
      </trkpt>
      <trkpt lat="59.9103448" lon="17.6435573">
        <ele>18.8831</ele>
        <time>2013-05-07T15:52:47Z</time>
      </trkpt>
      <trkpt lat="59.9102828" lon="17.643572">
        <ele>19.3638</ele>
        <time>2013-05-07T15:52:48Z</time>
      </trkpt>
      <trkpt lat="59.9102189" lon="17.643581">
        <ele>19.3638</ele>
        <time>2013-05-07T15:52:49Z</time>
      </trkpt>
      <trkpt lat="59.9101537" lon="17.6435865">
        <ele>19.3638</ele>
        <time>2013-05-07T15:52:50Z</time>
      </trkpt>
      <trkpt lat="59.9100875" lon="17.643585">
        <ele>19.3638</ele>
        <time>2013-05-07T15:52:51Z</time>
      </trkpt>
      <trkpt lat="59.9100205" lon="17.6435676">
        <ele>19.3638</ele>
        <time>2013-05-07T15:52:52Z</time>
      </trkpt>
      <trkpt lat="59.909948" lon="17.6435419">
        <ele>18.8831</ele>
        <time>2013-05-07T15:52:53Z</time>
      </trkpt>
      <trkpt lat="59.9098729" lon="17.6435124">
        <ele>18.8831</ele>
        <time>2013-05-07T15:52:54Z</time>
      </trkpt>
      <trkpt lat="59.9097978" lon="17.6434925">
        <ele>18.8831</ele>
        <time>2013-05-07T15:52:55Z</time>
      </trkpt>
      <trkpt lat="59.9097227" lon="17.6434914">
        <ele>18.8831</ele>
        <time>2013-05-07T15:52:56Z</time>
      </trkpt>
      <trkpt lat="59.9096479" lon="17.6435048">
        <ele>19.3638</ele>
        <time>2013-05-07T15:52:57Z</time>
      </trkpt>
      <trkpt lat="59.9095725" lon="17.6435266">
        <ele>19.3638</ele>
        <time>2013-05-07T15:52:58Z</time>
      </trkpt>
      <trkpt lat="59.9094979" lon="17.6435462">
        <ele>19.8444</ele>
        <time>2013-05-07T15:52:59Z</time>
      </trkpt>
      <trkpt lat="59.9094239" lon="17.643563">
        <ele>19.8444</ele>
        <time>2013-05-07T15:53:00Z</time>
      </trkpt>
      <trkpt lat="59.9093508" lon="17.643581">
        <ele>20.325</ele>
        <time>2013-05-07T15:53:01Z</time>
      </trkpt>
      <trkpt lat="59.9092776" lon="17.6435963">
        <ele>20.325</ele>
        <time>2013-05-07T15:53:02Z</time>
      </trkpt>
      <trkpt lat="59.9092045" lon="17.6436093">
        <ele>20.325</ele>
        <time>2013-05-07T15:53:03Z</time>
      </trkpt>
      <trkpt lat="59.9091316" lon="17.6436219">
        <ele>20.8057</ele>
        <time>2013-05-07T15:53:04Z</time>
      </trkpt>
      <trkpt lat="59.9090607" lon="17.6436342">
        <ele>21.2864</ele>
        <time>2013-05-07T15:53:05Z</time>
      </trkpt>
      <trkpt lat="59.9089913" lon="17.6436432">
        <ele>21.2864</ele>
        <time>2013-05-07T15:53:06Z</time>
      </trkpt>
      <trkpt lat="59.9089224" lon="17.6436488">
        <ele>21.2864</ele>
        <time>2013-05-07T15:53:07Z</time>
      </trkpt>
      <trkpt lat="59.908854" lon="17.6436546">
        <ele>21.2864</ele>
        <time>2013-05-07T15:53:08Z</time>
      </trkpt>
      <trkpt lat="59.9087856" lon="17.6436628">
        <ele>21.767</ele>
        <time>2013-05-07T15:53:09Z</time>
      </trkpt>
      <trkpt lat="59.9087181" lon="17.6436706">
        <ele>21.767</ele>
        <time>2013-05-07T15:53:10Z</time>
      </trkpt>
      <trkpt lat="59.9086514" lon="17.6436764">
        <ele>22.2476</ele>
        <time>2013-05-07T15:53:11Z</time>
      </trkpt>
      <trkpt lat="59.9085868" lon="17.643681">
        <ele>22.2476</ele>
        <time>2013-05-07T15:53:12Z</time>
      </trkpt>
      <trkpt lat="59.9085261" lon="17.6436862">
        <ele>22.2476</ele>
        <time>2013-05-07T15:53:13Z</time>
      </trkpt>
      <trkpt lat="59.908468" lon="17.643695">
        <ele>22.2476</ele>
        <time>2013-05-07T15:53:14Z</time>
      </trkpt>
      <trkpt lat="59.9084104" lon="17.6436987">
        <ele>22.2476</ele>
        <time>2013-05-07T15:53:15Z</time>
      </trkpt>
      <trkpt lat="59.9083516" lon="17.6437083">
        <ele>22.2476</ele>
        <time>2013-05-07T15:53:16Z</time>
      </trkpt>
      <trkpt lat="59.9083005" lon="17.6437306">
        <ele>22.2476</ele>
        <time>2013-05-07T15:53:17Z</time>
      </trkpt>
      <trkpt lat="59.9082539" lon="17.6437679">
        <ele>22.2476</ele>
        <time>2013-05-07T15:53:18Z</time>
      </trkpt>
      <trkpt lat="59.9082059" lon="17.6437908">
        <ele>22.2476</ele>
        <time>2013-05-07T15:53:19Z</time>
      </trkpt>
      <trkpt lat="59.9081567" lon="17.6437975">
        <ele>21.767</ele>
        <time>2013-05-07T15:53:20Z</time>
      </trkpt>
      <trkpt lat="59.908105" lon="17.6437937">
        <ele>22.2476</ele>
        <time>2013-05-07T15:53:21Z</time>
      </trkpt>
      <trkpt lat="59.90805" lon="17.6437904">
        <ele>22.2476</ele>
        <time>2013-05-07T15:53:22Z</time>
      </trkpt>
      <trkpt lat="59.9079941" lon="17.643787">
        <ele>22.2476</ele>
        <time>2013-05-07T15:53:23Z</time>
      </trkpt>
      <trkpt lat="59.9079367" lon="17.6437839">
        <ele>22.2476</ele>
        <time>2013-05-07T15:53:24Z</time>
      </trkpt>
      <trkpt lat="59.9078781" lon="17.6437816">
        <ele>22.2476</ele>
        <time>2013-05-07T15:53:25Z</time>
      </trkpt>
      <trkpt lat="59.9078194" lon="17.6437778">
        <ele>22.2476</ele>
        <time>2013-05-07T15:53:26Z</time>
      </trkpt>
      <trkpt lat="59.9077604" lon="17.6437696">
        <ele>22.2476</ele>
        <time>2013-05-07T15:53:27Z</time>
      </trkpt>
      <trkpt lat="59.9077004" lon="17.6437611">
        <ele>22.2476</ele>
        <time>2013-05-07T15:53:28Z</time>
      </trkpt>
      <trkpt lat="59.9076393" lon="17.6437535">
        <ele>22.2476</ele>
        <time>2013-05-07T15:53:29Z</time>
      </trkpt>
      <trkpt lat="59.907579" lon="17.6437388">
        <ele>22.2476</ele>
        <time>2013-05-07T15:53:30Z</time>
      </trkpt>
      <trkpt lat="59.9075174" lon="17.643725">
        <ele>22.2476</ele>
        <time>2013-05-07T15:53:31Z</time>
      </trkpt>
      <trkpt lat="59.9074548" lon="17.6437121">
        <ele>22.2476</ele>
        <time>2013-05-07T15:53:32Z</time>
      </trkpt>
      <trkpt lat="59.9073918" lon="17.6436985">
        <ele>22.2476</ele>
        <time>2013-05-07T15:53:33Z</time>
      </trkpt>
      <trkpt lat="59.9073286" lon="17.6436819">
        <ele>22.2476</ele>
        <time>2013-05-07T15:53:34Z</time>
      </trkpt>
      <trkpt lat="59.9072647" lon="17.6436645">
        <ele>22.2476</ele>
        <time>2013-05-07T15:53:35Z</time>
      </trkpt>
      <trkpt lat="59.9072004" lon="17.6436488">
        <ele>22.7283</ele>
        <time>2013-05-07T15:53:36Z</time>
      </trkpt>
      <trkpt lat="59.9071352" lon="17.6436327">
        <ele>22.2476</ele>
        <time>2013-05-07T15:53:37Z</time>
      </trkpt>
      <trkpt lat="59.9070689" lon="17.6436147">
        <ele>22.2476</ele>
        <time>2013-05-07T15:53:38Z</time>
      </trkpt>
      <trkpt lat="59.9070017" lon="17.6435946">
        <ele>22.2476</ele>
        <time>2013-05-07T15:53:39Z</time>
      </trkpt>
      <trkpt lat="59.9069343" lon="17.6435746">
        <ele>22.7283</ele>
        <time>2013-05-07T15:53:40Z</time>
      </trkpt>
      <trkpt lat="59.9068668" lon="17.6435544">
        <ele>22.7283</ele>
        <time>2013-05-07T15:53:41Z</time>
      </trkpt>
      <trkpt lat="59.9068006" lon="17.6435343">
        <ele>23.209</ele>
        <time>2013-05-07T15:53:42Z</time>
      </trkpt>
      <trkpt lat="59.9067358" lon="17.6435136">
        <ele>23.209</ele>
        <time>2013-05-07T15:53:43Z</time>
      </trkpt>
      <trkpt lat="59.9066726" lon="17.643493">
        <ele>23.209</ele>
        <time>2013-05-07T15:53:44Z</time>
      </trkpt>
      <trkpt lat="59.9066132" lon="17.6434692">
        <ele>24.1703</ele>
        <time>2013-05-07T15:53:45Z</time>
      </trkpt>
      <trkpt lat="59.9065519" lon="17.6434606">
        <ele>24.1703</ele>
        <time>2013-05-07T15:53:46Z</time>
      </trkpt>
      <trkpt lat="59.9064887" lon="17.6434725">
        <ele>24.651</ele>
        <time>2013-05-07T15:53:47Z</time>
      </trkpt>
      <trkpt lat="59.9064251" lon="17.6434862">
        <ele>24.651</ele>
        <time>2013-05-07T15:53:48Z</time>
      </trkpt>
      <trkpt lat="59.9063618" lon="17.6434922">
        <ele>24.651</ele>
        <time>2013-05-07T15:53:49Z</time>
      </trkpt>
      <trkpt lat="59.9062992" lon="17.6434777">
        <ele>25.6123</ele>
        <time>2013-05-07T15:53:50Z</time>
      </trkpt>
      <trkpt lat="59.9062411" lon="17.6434497">
        <ele>26.5736</ele>
        <time>2013-05-07T15:53:51Z</time>
      </trkpt>
      <trkpt lat="59.906181" lon="17.6434265">
        <ele>26.5736</ele>
        <time>2013-05-07T15:53:52Z</time>
      </trkpt>
      <trkpt lat="59.9061241" lon="17.6433998">
        <ele>27.5349</ele>
        <time>2013-05-07T15:53:53Z</time>
      </trkpt>
      <trkpt lat="59.9060687" lon="17.6433763">
        <ele>27.5349</ele>
        <time>2013-05-07T15:53:54Z</time>
      </trkpt>
      <trkpt lat="59.9060142" lon="17.6433536">
        <ele>27.5349</ele>
        <time>2013-05-07T15:53:55Z</time>
      </trkpt>
      <trkpt lat="59.9059625" lon="17.6433365">
        <ele>27.5349</ele>
        <time>2013-05-07T15:53:56Z</time>
      </trkpt>
      <trkpt lat="59.9059147" lon="17.6433343">
        <ele>26.5736</ele>
        <time>2013-05-07T15:53:57Z</time>
      </trkpt>
      <trkpt lat="59.9058726" lon="17.6433655">
        <ele>26.5736</ele>
        <time>2013-05-07T15:53:58Z</time>
      </trkpt>
      <trkpt lat="59.9058452" lon="17.6434328">
        <ele>26.0929</ele>
        <time>2013-05-07T15:53:59Z</time>
      </trkpt>
      <trkpt lat="59.9058278" lon="17.6435274">
        <ele>26.0929</ele>
        <time>2013-05-07T15:54:00Z</time>
      </trkpt>
      <trkpt lat="59.9058314" lon="17.6436353">
        <ele>26.0929</ele>
        <time>2013-05-07T15:54:01Z</time>
      </trkpt>
      <trkpt lat="59.905854" lon="17.6437399">
        <ele>26.0929</ele>
        <time>2013-05-07T15:54:02Z</time>
      </trkpt>
      <trkpt lat="59.9058863" lon="17.6438406">
        <ele>26.0929</ele>
        <time>2013-05-07T15:54:03Z</time>
      </trkpt>
      <trkpt lat="59.9059224" lon="17.6439458">
        <ele>26.0929</ele>
        <time>2013-05-07T15:54:04Z</time>
      </trkpt>
      <trkpt lat="59.9059583" lon="17.6440525">
        <ele>26.5736</ele>
        <time>2013-05-07T15:54:05Z</time>
      </trkpt>
      <trkpt lat="59.9059925" lon="17.644162">
        <ele>26.0929</ele>
        <time>2013-05-07T15:54:06Z</time>
      </trkpt>
      <trkpt lat="59.9060242" lon="17.6442729">
        <ele>25.6123</ele>
        <time>2013-05-07T15:54:07Z</time>
      </trkpt>
      <trkpt lat="59.9060534" lon="17.6443874">
        <ele>25.1317</ele>
        <time>2013-05-07T15:54:08Z</time>
      </trkpt>
      <trkpt lat="59.9060788" lon="17.644506">
        <ele>24.651</ele>
        <time>2013-05-07T15:54:09Z</time>
      </trkpt>
      <trkpt lat="59.9061009" lon="17.6446272">
        <ele>24.1703</ele>
        <time>2013-05-07T15:54:10Z</time>
      </trkpt>
      <trkpt lat="59.9061193" lon="17.6447537">
        <ele>24.1703</ele>
        <time>2013-05-07T15:54:11Z</time>
      </trkpt>
      <trkpt lat="59.9061308" lon="17.6448839">
        <ele>24.1703</ele>
        <time>2013-05-07T15:54:12Z</time>
      </trkpt>
      <trkpt lat="59.9061332" lon="17.645015">
        <ele>24.1703</ele>
        <time>2013-05-07T15:54:13Z</time>
      </trkpt>
      <trkpt lat="59.9061307" lon="17.6451449">
        <ele>24.1703</ele>
        <time>2013-05-07T15:54:14Z</time>
      </trkpt>
      <trkpt lat="59.9061245" lon="17.6452736">
        <ele>24.651</ele>
        <time>2013-05-07T15:54:15Z</time>
      </trkpt>
      <trkpt lat="59.9061142" lon="17.6454008">
        <ele>24.651</ele>
        <time>2013-05-07T15:54:16Z</time>
      </trkpt>
      <trkpt lat="59.9061032" lon="17.6455231">
        <ele>24.651</ele>
        <time>2013-05-07T15:54:17Z</time>
      </trkpt>
      <trkpt lat="59.9060899" lon="17.6456467">
        <ele>24.651</ele>
        <time>2013-05-07T15:54:18Z</time>
      </trkpt>
      <trkpt lat="59.9060749" lon="17.645768">
        <ele>25.1317</ele>
        <time>2013-05-07T15:54:19Z</time>
      </trkpt>
      <trkpt lat="59.9060593" lon="17.645901">
        <ele>25.6123</ele>
        <time>2013-05-07T15:54:20Z</time>
      </trkpt>
      <trkpt lat="59.9060413" lon="17.6460406">
        <ele>25.6123</ele>
        <time>2013-05-07T15:54:21Z</time>
      </trkpt>
      <trkpt lat="59.90602" lon="17.6461535">
        <ele>25.6123</ele>
        <time>2013-05-07T15:54:22Z</time>
      </trkpt>
      <trkpt lat="59.9060065" lon="17.6462767">
        <ele>26.0929</ele>
        <time>2013-05-07T15:54:23Z</time>
      </trkpt>
      <trkpt lat="59.9059929" lon="17.6464015">
        <ele>26.0929</ele>
        <time>2013-05-07T15:54:24Z</time>
      </trkpt>
      <trkpt lat="59.9059724" lon="17.6465433">
        <ele>26.0929</ele>
        <time>2013-05-07T15:54:25Z</time>
      </trkpt>
      <trkpt lat="59.9059464" lon="17.6466927">
        <ele>26.0929</ele>
        <time>2013-05-07T15:54:26Z</time>
      </trkpt>
      <trkpt lat="59.905934" lon="17.6468217">
        <ele>26.0929</ele>
        <time>2013-05-07T15:54:27Z</time>
      </trkpt>
      <trkpt lat="59.9059235" lon="17.6469486">
        <ele>26.0929</ele>
        <time>2013-05-07T15:54:28Z</time>
      </trkpt>
      <trkpt lat="59.9059132" lon="17.647092">
        <ele>25.6123</ele>
        <time>2013-05-07T15:54:29Z</time>
      </trkpt>
      <trkpt lat="59.9059066" lon="17.6472303">
        <ele>25.6123</ele>
        <time>2013-05-07T15:54:30Z</time>
      </trkpt>
      <trkpt lat="59.9059049" lon="17.6473657">
        <ele>25.6123</ele>
        <time>2013-05-07T15:54:31Z</time>
      </trkpt>
      <trkpt lat="59.9059081" lon="17.6475006">
        <ele>25.1317</ele>
        <time>2013-05-07T15:54:32Z</time>
      </trkpt>
      <trkpt lat="59.9059174" lon="17.6476368">
        <ele>25.1317</ele>
        <time>2013-05-07T15:54:33Z</time>
      </trkpt>
      <trkpt lat="59.905932" lon="17.647773">
        <ele>25.1317</ele>
        <time>2013-05-07T15:54:34Z</time>
      </trkpt>
      <trkpt lat="59.9059517" lon="17.6479101">
        <ele>24.651</ele>
        <time>2013-05-07T15:54:35Z</time>
      </trkpt>
      <trkpt lat="59.905977" lon="17.6480464">
        <ele>24.651</ele>
        <time>2013-05-07T15:54:36Z</time>
      </trkpt>
      <trkpt lat="59.9060073" lon="17.6481812">
        <ele>24.651</ele>
        <time>2013-05-07T15:54:37Z</time>
      </trkpt>
      <trkpt lat="59.9060427" lon="17.648313">
        <ele>24.1703</ele>
        <time>2013-05-07T15:54:38Z</time>
      </trkpt>
      <trkpt lat="59.9060837" lon="17.6484402">
        <ele>24.1703</ele>
        <time>2013-05-07T15:54:39Z</time>
      </trkpt>
      <trkpt lat="59.9061287" lon="17.6485648">
        <ele>23.6896</ele>
        <time>2013-05-07T15:54:40Z</time>
      </trkpt>
      <trkpt lat="59.9061757" lon="17.6486891">
        <ele>23.6896</ele>
        <time>2013-05-07T15:54:41Z</time>
      </trkpt>
      <trkpt lat="59.906224" lon="17.6488134">
        <ele>23.209</ele>
        <time>2013-05-07T15:54:42Z</time>
      </trkpt>
      <trkpt lat="59.9062742" lon="17.6489377">
        <ele>23.209</ele>
        <time>2013-05-07T15:54:43Z</time>
      </trkpt>
      <trkpt lat="59.9063244" lon="17.6490656">
        <ele>23.209</ele>
        <time>2013-05-07T15:54:44Z</time>
      </trkpt>
      <trkpt lat="59.9063722" lon="17.6491982">
        <ele>23.209</ele>
        <time>2013-05-07T15:54:45Z</time>
      </trkpt>
      <trkpt lat="59.9064169" lon="17.6493367">
        <ele>23.209</ele>
        <time>2013-05-07T15:54:46Z</time>
      </trkpt>
      <trkpt lat="59.9064581" lon="17.6494775">
        <ele>23.209</ele>
        <time>2013-05-07T15:54:47Z</time>
      </trkpt>
      <trkpt lat="59.906497" lon="17.6496189">
        <ele>23.209</ele>
        <time>2013-05-07T15:54:48Z</time>
      </trkpt>
      <trkpt lat="59.9065347" lon="17.649764">
        <ele>23.209</ele>
        <time>2013-05-07T15:54:49Z</time>
      </trkpt>
      <trkpt lat="59.9065711" lon="17.6499119">
        <ele>23.209</ele>
        <time>2013-05-07T15:54:50Z</time>
      </trkpt>
      <trkpt lat="59.9066059" lon="17.6500621">
        <ele>23.209</ele>
        <time>2013-05-07T15:54:51Z</time>
      </trkpt>
      <trkpt lat="59.9066409" lon="17.6502139">
        <ele>23.209</ele>
        <time>2013-05-07T15:54:52Z</time>
      </trkpt>
      <trkpt lat="59.9066767" lon="17.6503674">
        <ele>23.6896</ele>
        <time>2013-05-07T15:54:53Z</time>
      </trkpt>
      <trkpt lat="59.9067136" lon="17.6505264">
        <ele>23.6896</ele>
        <time>2013-05-07T15:54:54Z</time>
      </trkpt>
      <trkpt lat="59.9067523" lon="17.6506907">
        <ele>23.6896</ele>
        <time>2013-05-07T15:54:55Z</time>
      </trkpt>
      <trkpt lat="59.9067909" lon="17.6508544">
        <ele>23.6896</ele>
        <time>2013-05-07T15:54:56Z</time>
      </trkpt>
      <trkpt lat="59.9068291" lon="17.651014">
        <ele>23.6896</ele>
        <time>2013-05-07T15:54:57Z</time>
      </trkpt>
      <trkpt lat="59.9068659" lon="17.6511736">
        <ele>23.6896</ele>
        <time>2013-05-07T15:54:58Z</time>
      </trkpt>
      <trkpt lat="59.9069019" lon="17.6513333">
        <ele>23.6896</ele>
        <time>2013-05-07T15:54:59Z</time>
      </trkpt>
      <trkpt lat="59.9069385" lon="17.6514945">
        <ele>24.1703</ele>
        <time>2013-05-07T15:55:00Z</time>
      </trkpt>
      <trkpt lat="59.9069726" lon="17.6516578">
        <ele>24.651</ele>
        <time>2013-05-07T15:55:01Z</time>
      </trkpt>
      <trkpt lat="59.9070037" lon="17.6518225">
        <ele>24.651</ele>
        <time>2013-05-07T15:55:02Z</time>
      </trkpt>
      <trkpt lat="59.90703" lon="17.6519891">
        <ele>25.1317</ele>
        <time>2013-05-07T15:55:03Z</time>
      </trkpt>
      <trkpt lat="59.9070511" lon="17.6521572">
        <ele>25.1317</ele>
        <time>2013-05-07T15:55:04Z</time>
      </trkpt>
      <trkpt lat="59.907068" lon="17.652326">
        <ele>25.1317</ele>
        <time>2013-05-07T15:55:05Z</time>
      </trkpt>
      <trkpt lat="59.9070794" lon="17.6524945">
        <ele>25.6123</ele>
        <time>2013-05-07T15:55:06Z</time>
      </trkpt>
      <trkpt lat="59.9070856" lon="17.6526638">
        <ele>25.6123</ele>
        <time>2013-05-07T15:55:07Z</time>
      </trkpt>
      <trkpt lat="59.907088" lon="17.6528345">
        <ele>25.6123</ele>
        <time>2013-05-07T15:55:08Z</time>
      </trkpt>
      <trkpt lat="59.9070863" lon="17.6530051">
        <ele>26.0929</ele>
        <time>2013-05-07T15:55:09Z</time>
      </trkpt>
      <trkpt lat="59.9070814" lon="17.6531754">
        <ele>26.0929</ele>
        <time>2013-05-07T15:55:10Z</time>
      </trkpt>
      <trkpt lat="59.9070751" lon="17.653346">
        <ele>26.0929</ele>
        <time>2013-05-07T15:55:11Z</time>
      </trkpt>
      <trkpt lat="59.9070697" lon="17.653517">
        <ele>26.0929</ele>
        <time>2013-05-07T15:55:12Z</time>
      </trkpt>
      <trkpt lat="59.9070652" lon="17.6536887">
        <ele>26.5736</ele>
        <time>2013-05-07T15:55:13Z</time>
      </trkpt>
      <trkpt lat="59.90706" lon="17.6538618">
        <ele>26.5736</ele>
        <time>2013-05-07T15:55:14Z</time>
      </trkpt>
      <trkpt lat="59.9070549" lon="17.6540361">
        <ele>26.5736</ele>
        <time>2013-05-07T15:55:15Z</time>
      </trkpt>
      <trkpt lat="59.9070502" lon="17.6542145">
        <ele>26.0929</ele>
        <time>2013-05-07T15:55:16Z</time>
      </trkpt>
      <trkpt lat="59.9070447" lon="17.654394">
        <ele>26.5736</ele>
        <time>2013-05-07T15:55:17Z</time>
      </trkpt>
      <trkpt lat="59.9070384" lon="17.6545725">
        <ele>26.5736</ele>
        <time>2013-05-07T15:55:18Z</time>
      </trkpt>
      <trkpt lat="59.9070327" lon="17.6547493">
        <ele>26.5736</ele>
        <time>2013-05-07T15:55:19Z</time>
      </trkpt>
      <trkpt lat="59.9070296" lon="17.6549244">
        <ele>26.5736</ele>
        <time>2013-05-07T15:55:20Z</time>
      </trkpt>
      <trkpt lat="59.9070285" lon="17.655101">
        <ele>26.5736</ele>
        <time>2013-05-07T15:55:21Z</time>
      </trkpt>
      <trkpt lat="59.9070289" lon="17.6552792">
        <ele>27.0543</ele>
        <time>2013-05-07T15:55:22Z</time>
      </trkpt>
      <trkpt lat="59.9070296" lon="17.6554583">
        <ele>27.0543</ele>
        <time>2013-05-07T15:55:23Z</time>
      </trkpt>
      <trkpt lat="59.9070294" lon="17.655632">
        <ele>27.0543</ele>
        <time>2013-05-07T15:55:24Z</time>
      </trkpt>
      <trkpt lat="59.9070286" lon="17.6558041">
        <ele>26.5736</ele>
        <time>2013-05-07T15:55:25Z</time>
      </trkpt>
      <trkpt lat="59.9070276" lon="17.6559734">
        <ele>27.0543</ele>
        <time>2013-05-07T15:55:26Z</time>
      </trkpt>
      <trkpt lat="59.9070278" lon="17.6561379">
        <ele>27.0543</ele>
        <time>2013-05-07T15:55:27Z</time>
      </trkpt>
      <trkpt lat="59.9070309" lon="17.6562962">
        <ele>27.5349</ele>
        <time>2013-05-07T15:55:28Z</time>
      </trkpt>
      <trkpt lat="59.9070373" lon="17.6564503">
        <ele>27.5349</ele>
        <time>2013-05-07T15:55:29Z</time>
      </trkpt>
      <trkpt lat="59.9070461" lon="17.6566023">
        <ele>27.5349</ele>
        <time>2013-05-07T15:55:30Z</time>
      </trkpt>
      <trkpt lat="59.9070575" lon="17.6567538">
        <ele>27.5349</ele>
        <time>2013-05-07T15:55:31Z</time>
      </trkpt>
      <trkpt lat="59.9070714" lon="17.6569057">
        <ele>27.5349</ele>
        <time>2013-05-07T15:55:32Z</time>
      </trkpt>
      <trkpt lat="59.9070876" lon="17.6570589">
        <ele>27.5349</ele>
        <time>2013-05-07T15:55:33Z</time>
      </trkpt>
      <trkpt lat="59.9071077" lon="17.6572125">
        <ele>27.5349</ele>
        <time>2013-05-07T15:55:34Z</time>
      </trkpt>
      <trkpt lat="59.9071311" lon="17.6573651">
        <ele>27.5349</ele>
        <time>2013-05-07T15:55:35Z</time>
      </trkpt>
      <trkpt lat="59.9071571" lon="17.6575174">
        <ele>27.5349</ele>
        <time>2013-05-07T15:55:36Z</time>
      </trkpt>
      <trkpt lat="59.9071832" lon="17.6576698">
        <ele>27.5349</ele>
        <time>2013-05-07T15:55:37Z</time>
      </trkpt>
      <trkpt lat="59.9072079" lon="17.6578232">
        <ele>27.0543</ele>
        <time>2013-05-07T15:55:38Z</time>
      </trkpt>
      <trkpt lat="59.9072329" lon="17.6579775">
        <ele>27.0543</ele>
        <time>2013-05-07T15:55:39Z</time>
      </trkpt>
      <trkpt lat="59.9072563" lon="17.6581317">
        <ele>27.0543</ele>
        <time>2013-05-07T15:55:40Z</time>
      </trkpt>
      <trkpt lat="59.9072773" lon="17.6582866">
        <ele>27.0543</ele>
        <time>2013-05-07T15:55:41Z</time>
      </trkpt>
      <trkpt lat="59.9072967" lon="17.6584401">
        <ele>26.5736</ele>
        <time>2013-05-07T15:55:42Z</time>
      </trkpt>
      <trkpt lat="59.9073098" lon="17.6585927">
        <ele>26.5736</ele>
        <time>2013-05-07T15:55:43Z</time>
      </trkpt>
      <trkpt lat="59.907321" lon="17.6587414">
        <ele>26.0929</ele>
        <time>2013-05-07T15:55:44Z</time>
      </trkpt>
      <trkpt lat="59.9073316" lon="17.6588864">
        <ele>25.6123</ele>
        <time>2013-05-07T15:55:45Z</time>
      </trkpt>
      <trkpt lat="59.907344" lon="17.6590286">
        <ele>25.6123</ele>
        <time>2013-05-07T15:55:46Z</time>
      </trkpt>
      <trkpt lat="59.907358" lon="17.6591727">
        <ele>26.0929</ele>
        <time>2013-05-07T15:55:47Z</time>
      </trkpt>
      <trkpt lat="59.9073705" lon="17.6593197">
        <ele>25.6123</ele>
        <time>2013-05-07T15:55:48Z</time>
      </trkpt>
      <trkpt lat="59.9073823" lon="17.6594673">
        <ele>25.6123</ele>
        <time>2013-05-07T15:55:49Z</time>
      </trkpt>
      <trkpt lat="59.9073983" lon="17.6596213">
        <ele>26.0929</ele>
        <time>2013-05-07T15:55:50Z</time>
      </trkpt>
      <trkpt lat="59.9074213" lon="17.6597729">
        <ele>28.0155</ele>
        <time>2013-05-07T15:55:51Z</time>
      </trkpt>
      <trkpt lat="59.9074415" lon="17.6599237">
        <ele>28.9769</ele>
        <time>2013-05-07T15:55:52Z</time>
      </trkpt>
      <trkpt lat="59.9074625" lon="17.6600719">
        <ele>29.4575</ele>
        <time>2013-05-07T15:55:53Z</time>
      </trkpt>
      <trkpt lat="59.9074885" lon="17.6602165">
        <ele>29.9381</ele>
        <time>2013-05-07T15:55:54Z</time>
      </trkpt>
      <trkpt lat="59.9075152" lon="17.6603586">
        <ele>30.4188</ele>
        <time>2013-05-07T15:55:55Z</time>
      </trkpt>
      <trkpt lat="59.9075419" lon="17.6604987">
        <ele>30.4188</ele>
        <time>2013-05-07T15:55:56Z</time>
      </trkpt>
      <trkpt lat="59.9075657" lon="17.6606385">
        <ele>30.4188</ele>
        <time>2013-05-07T15:55:57Z</time>
      </trkpt>
      <trkpt lat="59.9075859" lon="17.6607691">
        <ele>29.9381</ele>
        <time>2013-05-07T15:55:58Z</time>
      </trkpt>
      <trkpt lat="59.9076038" lon="17.6609015">
        <ele>29.4575</ele>
        <time>2013-05-07T15:55:59Z</time>
      </trkpt>
      <trkpt lat="59.9076227" lon="17.6610328">
        <ele>29.4575</ele>
        <time>2013-05-07T15:56:00Z</time>
      </trkpt>
      <trkpt lat="59.9076397" lon="17.6611567">
        <ele>31.8607</ele>
        <time>2013-05-07T15:56:01Z</time>
      </trkpt>
      <trkpt lat="59.9076548" lon="17.6612985">
        <ele>31.8607</ele>
        <time>2013-05-07T15:56:02Z</time>
      </trkpt>
      <trkpt lat="59.9076678" lon="17.6614454">
        <ele>31.8607</ele>
        <time>2013-05-07T15:56:03Z</time>
      </trkpt>
      <trkpt lat="59.9076796" lon="17.6615907">
        <ele>31.3801</ele>
        <time>2013-05-07T15:56:04Z</time>
      </trkpt>
      <trkpt lat="59.9076906" lon="17.6617374">
        <ele>30.8995</ele>
        <time>2013-05-07T15:56:05Z</time>
      </trkpt>
      <trkpt lat="59.907703" lon="17.6618859">
        <ele>30.8995</ele>
        <time>2013-05-07T15:56:06Z</time>
      </trkpt>
      <trkpt lat="59.9077164" lon="17.6620362">
        <ele>30.4188</ele>
        <time>2013-05-07T15:56:07Z</time>
      </trkpt>
      <trkpt lat="59.9077313" lon="17.6621832">
        <ele>29.9381</ele>
        <time>2013-05-07T15:56:08Z</time>
      </trkpt>
      <trkpt lat="59.9077475" lon="17.6623265">
        <ele>29.9381</ele>
        <time>2013-05-07T15:56:09Z</time>
      </trkpt>
      <trkpt lat="59.9077639" lon="17.6624636">
        <ele>29.4575</ele>
        <time>2013-05-07T15:56:10Z</time>
      </trkpt>
      <trkpt lat="59.9077818" lon="17.6626017">
        <ele>29.4575</ele>
        <time>2013-05-07T15:56:11Z</time>
      </trkpt>
      <trkpt lat="59.9078015" lon="17.6627369">
        <ele>29.4575</ele>
        <time>2013-05-07T15:56:12Z</time>
      </trkpt>
      <trkpt lat="59.9078198" lon="17.6628707">
        <ele>28.9769</ele>
        <time>2013-05-07T15:56:13Z</time>
      </trkpt>
      <trkpt lat="59.9078372" lon="17.6630069">
        <ele>28.9769</ele>
        <time>2013-05-07T15:56:14Z</time>
      </trkpt>
      <trkpt lat="59.9078528" lon="17.6631441">
        <ele>28.4962</ele>
        <time>2013-05-07T15:56:15Z</time>
      </trkpt>
      <trkpt lat="59.9078683" lon="17.6632778">
        <ele>28.0155</ele>
        <time>2013-05-07T15:56:16Z</time>
      </trkpt>
      <trkpt lat="59.9078841" lon="17.6634094">
        <ele>28.0155</ele>
        <time>2013-05-07T15:56:17Z</time>
      </trkpt>
      <trkpt lat="59.9078983" lon="17.6635439">
        <ele>27.5349</ele>
        <time>2013-05-07T15:56:18Z</time>
      </trkpt>
      <trkpt lat="59.9079108" lon="17.6636791">
        <ele>27.5349</ele>
        <time>2013-05-07T15:56:19Z</time>
      </trkpt>
      <trkpt lat="59.9079224" lon="17.663815">
        <ele>26.5736</ele>
        <time>2013-05-07T15:56:20Z</time>
      </trkpt>
      <trkpt lat="59.907935" lon="17.6639527">
        <ele>26.5736</ele>
        <time>2013-05-07T15:56:21Z</time>
      </trkpt>
      <trkpt lat="59.9079464" lon="17.6640937">
        <ele>26.0929</ele>
        <time>2013-05-07T15:56:22Z</time>
      </trkpt>
      <trkpt lat="59.9079545" lon="17.6642366">
        <ele>26.0929</ele>
        <time>2013-05-07T15:56:23Z</time>
      </trkpt>
      <trkpt lat="59.9079578" lon="17.6643781">
        <ele>25.6123</ele>
        <time>2013-05-07T15:56:24Z</time>
      </trkpt>
      <trkpt lat="59.9079561" lon="17.6645117">
        <ele>26.0929</ele>
        <time>2013-05-07T15:56:25Z</time>
      </trkpt>
      <trkpt lat="59.9079494" lon="17.6646329">
        <ele>25.6123</ele>
        <time>2013-05-07T15:56:26Z</time>
      </trkpt>
      <trkpt lat="59.9079403" lon="17.664735">
        <ele>25.6123</ele>
        <time>2013-05-07T15:56:27Z</time>
      </trkpt>
      <trkpt lat="59.9079423" lon="17.6648439">
        <ele>26.5736</ele>
        <time>2013-05-07T15:56:28Z</time>
      </trkpt>
      <trkpt lat="59.9079369" lon="17.6649645">
        <ele>26.0929</ele>
        <time>2013-05-07T15:56:29Z</time>
      </trkpt>
      <trkpt lat="59.9079273" lon="17.6650663">
        <ele>26.5736</ele>
        <time>2013-05-07T15:56:30Z</time>
      </trkpt>
      <trkpt lat="59.9079157" lon="17.6651624">
        <ele>26.0929</ele>
        <time>2013-05-07T15:56:31Z</time>
      </trkpt>
      <trkpt lat="59.9078957" lon="17.6652782">
        <ele>26.0929</ele>
        <time>2013-05-07T15:56:32Z</time>
      </trkpt>
      <trkpt lat="59.9078799" lon="17.6653871">
        <ele>27.0543</ele>
        <time>2013-05-07T15:56:33Z</time>
      </trkpt>
      <trkpt lat="59.9078667" lon="17.6655001">
        <ele>27.5349</ele>
        <time>2013-05-07T15:56:34Z</time>
      </trkpt>
      <trkpt lat="59.9078559" lon="17.6655773">
        <ele>28.0155</ele>
        <time>2013-05-07T15:56:35Z</time>
      </trkpt>
      <trkpt lat="59.9078362" lon="17.6656789">
        <ele>27.5349</ele>
        <time>2013-05-07T15:56:36Z</time>
      </trkpt>
      <trkpt lat="59.9078224" lon="17.6657793">
        <ele>28.0155</ele>
        <time>2013-05-07T15:56:37Z</time>
      </trkpt>
      <trkpt lat="59.9078031" lon="17.6658843">
        <ele>28.0155</ele>
        <time>2013-05-07T15:56:38Z</time>
      </trkpt>
      <trkpt lat="59.9077919" lon="17.6659757">
        <ele>28.9769</ele>
        <time>2013-05-07T15:56:39Z</time>
      </trkpt>
      <trkpt lat="59.9077848" lon="17.6660678">
        <ele>29.9381</ele>
        <time>2013-05-07T15:56:40Z</time>
      </trkpt>
      <trkpt lat="59.9077784" lon="17.6661734">
        <ele>30.8995</ele>
        <time>2013-05-07T15:56:41Z</time>
      </trkpt>
      <trkpt lat="59.9077623" lon="17.6662915">
        <ele>30.8995</ele>
        <time>2013-05-07T15:56:42Z</time>
      </trkpt>
      <trkpt lat="59.907749" lon="17.6664164">
        <ele>31.8607</ele>
        <time>2013-05-07T15:56:43Z</time>
      </trkpt>
      <trkpt lat="59.9077357" lon="17.6665392">
        <ele>32.3416</ele>
        <time>2013-05-07T15:56:44Z</time>
      </trkpt>
      <trkpt lat="59.9077175" lon="17.6666682">
        <ele>31.3801</ele>
        <time>2013-05-07T15:56:45Z</time>
      </trkpt>
      <trkpt lat="59.9077153" lon="17.6667842">
        <ele>31.3801</ele>
        <time>2013-05-07T15:56:46Z</time>
      </trkpt>
      <trkpt lat="59.9077054" lon="17.6669094">
        <ele>29.4575</ele>
        <time>2013-05-07T15:56:47Z</time>
      </trkpt>
      <trkpt lat="59.9076786" lon="17.6670967">
        <ele>29.9381</ele>
        <time>2013-05-07T15:56:48Z</time>
      </trkpt>
      <trkpt lat="59.9076502" lon="17.6672981">
        <ele>28.9769</ele>
        <time>2013-05-07T15:56:49Z</time>
      </trkpt>
      <trkpt lat="59.9076144" lon="17.6674741">
        <ele>28.9769</ele>
        <time>2013-05-07T15:56:50Z</time>
      </trkpt>
      <trkpt lat="59.9075832" lon="17.6677565">
        <ele>25.1317</ele>
        <time>2013-05-07T15:56:51Z</time>
      </trkpt>
      <trkpt lat="59.9075205" lon="17.667899">
        <ele>22.2476</ele>
        <time>2013-05-07T15:56:52Z</time>
      </trkpt>
      <trkpt lat="59.9074429" lon="17.6679675">
        <ele>21.767</ele>
        <time>2013-05-07T15:56:53Z</time>
      </trkpt>
      <trkpt lat="59.9073593" lon="17.6680357">
        <ele>23.209</ele>
        <time>2013-05-07T15:56:54Z</time>
      </trkpt>
      <trkpt lat="59.9072813" lon="17.6680829">
        <ele>25.1317</ele>
        <time>2013-05-07T15:56:55Z</time>
      </trkpt>
      <trkpt lat="59.9072086" lon="17.6681092">
        <ele>26.5736</ele>
        <time>2013-05-07T15:56:56Z</time>
      </trkpt>
      <trkpt lat="59.9071338" lon="17.6681448">
        <ele>27.5349</ele>
        <time>2013-05-07T15:56:57Z</time>
      </trkpt>
      <trkpt lat="59.9070584" lon="17.6681906">
        <ele>28.9769</ele>
        <time>2013-05-07T15:56:58Z</time>
      </trkpt>
      <trkpt lat="59.9069881" lon="17.6682221">
        <ele>29.9381</ele>
        <time>2013-05-07T15:56:59Z</time>
      </trkpt>
      <trkpt lat="59.9069161" lon="17.6682424">
        <ele>30.4188</ele>
        <time>2013-05-07T15:57:00Z</time>
      </trkpt>
      <trkpt lat="59.9068466" lon="17.6682687">
        <ele>30.4188</ele>
        <time>2013-05-07T15:57:01Z</time>
      </trkpt>
      <trkpt lat="59.9067779" lon="17.6683035">
        <ele>30.8995</ele>
        <time>2013-05-07T15:57:02Z</time>
      </trkpt>
      <trkpt lat="59.9067099" lon="17.6683351">
        <ele>30.8995</ele>
        <time>2013-05-07T15:57:03Z</time>
      </trkpt>
      <trkpt lat="59.9066406" lon="17.6683652">
        <ele>30.8995</ele>
        <time>2013-05-07T15:57:04Z</time>
      </trkpt>
      <trkpt lat="59.9065736" lon="17.6683947">
        <ele>31.8607</ele>
        <time>2013-05-07T15:57:05Z</time>
      </trkpt>
      <trkpt lat="59.9065043" lon="17.6684144">
        <ele>31.3801</ele>
        <time>2013-05-07T15:57:06Z</time>
      </trkpt>
      <trkpt lat="59.9064453" lon="17.6684155">
        <ele>31.8607</ele>
        <time>2013-05-07T15:57:07Z</time>
      </trkpt>
      <trkpt lat="59.9063825" lon="17.6684098">
        <ele>31.8607</ele>
        <time>2013-05-07T15:57:08Z</time>
      </trkpt>
      <trkpt lat="59.9063173" lon="17.6683916">
        <ele>31.8607</ele>
        <time>2013-05-07T15:57:09Z</time>
      </trkpt>
      <trkpt lat="59.9062473" lon="17.6683655">
        <ele>31.8607</ele>
        <time>2013-05-07T15:57:10Z</time>
      </trkpt>
      <trkpt lat="59.9061732" lon="17.6683358">
        <ele>31.8607</ele>
        <time>2013-05-07T15:57:11Z</time>
      </trkpt>
      <trkpt lat="59.9060975" lon="17.6683108">
        <ele>30.8995</ele>
        <time>2013-05-07T15:57:12Z</time>
      </trkpt>
      <trkpt lat="59.9060184" lon="17.6682849">
        <ele>29.9381</ele>
        <time>2013-05-07T15:57:13Z</time>
      </trkpt>
      <trkpt lat="59.9059402" lon="17.6682564">
        <ele>29.4575</ele>
        <time>2013-05-07T15:57:14Z</time>
      </trkpt>
      <trkpt lat="59.90586" lon="17.6682225">
        <ele>28.9769</ele>
        <time>2013-05-07T15:57:15Z</time>
      </trkpt>
      <trkpt lat="59.9057768" lon="17.6681837">
        <ele>28.9769</ele>
        <time>2013-05-07T15:57:16Z</time>
      </trkpt>
      <trkpt lat="59.905691" lon="17.6681481">
        <ele>28.9769</ele>
        <time>2013-05-07T15:57:17Z</time>
      </trkpt>
      <trkpt lat="59.9056071" lon="17.6681109">
        <ele>29.4575</ele>
        <time>2013-05-07T15:57:18Z</time>
      </trkpt>
      <trkpt lat="59.9055242" lon="17.6680677">
        <ele>28.4962</ele>
        <time>2013-05-07T15:57:19Z</time>
      </trkpt>
      <trkpt lat="59.9054399" lon="17.668026">
        <ele>28.4962</ele>
        <time>2013-05-07T15:57:20Z</time>
      </trkpt>
      <trkpt lat="59.9053574" lon="17.6679815">
        <ele>28.0155</ele>
        <time>2013-05-07T15:57:21Z</time>
      </trkpt>
      <trkpt lat="59.9052795" lon="17.6679389">
        <ele>27.0543</ele>
        <time>2013-05-07T15:57:22Z</time>
      </trkpt>
      <trkpt lat="59.9052021" lon="17.6678927">
        <ele>26.0929</ele>
        <time>2013-05-07T15:57:23Z</time>
      </trkpt>
      <trkpt lat="59.9051268" lon="17.6678428">
        <ele>25.6123</ele>
        <time>2013-05-07T15:57:24Z</time>
      </trkpt>
      <trkpt lat="59.9050554" lon="17.6677983">
        <ele>26.5736</ele>
        <time>2013-05-07T15:57:25Z</time>
      </trkpt>
      <trkpt lat="59.9049839" lon="17.6677556">
        <ele>26.0929</ele>
        <time>2013-05-07T15:57:26Z</time>
      </trkpt>
      <trkpt lat="59.9049083" lon="17.667728">
        <ele>26.0929</ele>
        <time>2013-05-07T15:57:27Z</time>
      </trkpt>
      <trkpt lat="59.90483" lon="17.6677104">
        <ele>25.6123</ele>
        <time>2013-05-07T15:57:28Z</time>
      </trkpt>
      <trkpt lat="59.9047565" lon="17.6676989">
        <ele>25.6123</ele>
        <time>2013-05-07T15:57:29Z</time>
      </trkpt>
      <trkpt lat="59.9046895" lon="17.6677069">
        <ele>26.0929</ele>
        <time>2013-05-07T15:57:30Z</time>
      </trkpt>
      <trkpt lat="59.9046159" lon="17.6677312">
        <ele>26.0929</ele>
        <time>2013-05-07T15:57:31Z</time>
      </trkpt>
      <trkpt lat="59.9045488" lon="17.6677368">
        <ele>26.5736</ele>
        <time>2013-05-07T15:57:32Z</time>
      </trkpt>
      <trkpt lat="59.9044745" lon="17.6677441">
        <ele>26.5736</ele>
        <time>2013-05-07T15:57:33Z</time>
      </trkpt>
      <trkpt lat="59.9043944" lon="17.6677622">
        <ele>26.0929</ele>
        <time>2013-05-07T15:57:34Z</time>
      </trkpt>
      <trkpt lat="59.904323" lon="17.6677938">
        <ele>27.5349</ele>
        <time>2013-05-07T15:57:35Z</time>
      </trkpt>
      <trkpt lat="59.9042529" lon="17.6678311">
        <ele>28.4962</ele>
        <time>2013-05-07T15:57:36Z</time>
      </trkpt>
      <trkpt lat="59.9041815" lon="17.6678818">
        <ele>28.4962</ele>
        <time>2013-05-07T15:57:37Z</time>
      </trkpt>
      <trkpt lat="59.9041244" lon="17.6679264">
        <ele>28.9769</ele>
        <time>2013-05-07T15:57:38Z</time>
      </trkpt>
      <trkpt lat="59.9040695" lon="17.668031">
        <ele>30.4188</ele>
        <time>2013-05-07T15:57:39Z</time>
      </trkpt>
      <trkpt lat="59.9039972" lon="17.6681013">
        <ele>30.8995</ele>
        <time>2013-05-07T15:57:40Z</time>
      </trkpt>
      <trkpt lat="59.9039447" lon="17.6681808">
        <ele>30.8995</ele>
        <time>2013-05-07T15:57:41Z</time>
      </trkpt>
      <trkpt lat="59.9038907" lon="17.6682435">
        <ele>30.8995</ele>
        <time>2013-05-07T15:57:42Z</time>
      </trkpt>
      <trkpt lat="59.9038434" lon="17.6683279">
        <ele>30.8995</ele>
        <time>2013-05-07T15:57:43Z</time>
      </trkpt>
      <trkpt lat="59.9037944" lon="17.6684143">
        <ele>30.4188</ele>
        <time>2013-05-07T15:57:44Z</time>
      </trkpt>
      <trkpt lat="59.9037507" lon="17.6685077">
        <ele>30.8995</ele>
        <time>2013-05-07T15:57:45Z</time>
      </trkpt>
      <trkpt lat="59.9037097" lon="17.6685968">
        <ele>31.3801</ele>
        <time>2013-05-07T15:57:46Z</time>
      </trkpt>
      <trkpt lat="59.9036718" lon="17.6686956">
        <ele>30.8995</ele>
        <time>2013-05-07T15:57:47Z</time>
      </trkpt>
      <trkpt lat="59.903635" lon="17.6688277">
        <ele>31.3801</ele>
        <time>2013-05-07T15:57:48Z</time>
      </trkpt>
      <trkpt lat="59.9035975" lon="17.6689609">
        <ele>30.4188</ele>
        <time>2013-05-07T15:57:49Z</time>
      </trkpt>
      <trkpt lat="59.9035532" lon="17.66911">
        <ele>29.9381</ele>
        <time>2013-05-07T15:57:50Z</time>
      </trkpt>
      <trkpt lat="59.9035136" lon="17.6692447">
        <ele>29.4575</ele>
        <time>2013-05-07T15:57:51Z</time>
      </trkpt>
      <trkpt lat="59.9034776" lon="17.6693763">
        <ele>28.9769</ele>
        <time>2013-05-07T15:57:52Z</time>
      </trkpt>
      <trkpt lat="59.9034449" lon="17.6695067">
        <ele>28.9769</ele>
        <time>2013-05-07T15:57:53Z</time>
      </trkpt>
      <trkpt lat="59.9034031" lon="17.6696213">
        <ele>28.9769</ele>
        <time>2013-05-07T15:57:54Z</time>
      </trkpt>
      <trkpt lat="59.9033556" lon="17.669715">
        <ele>28.9769</ele>
        <time>2013-05-07T15:57:55Z</time>
      </trkpt>
      <trkpt lat="59.9032933" lon="17.6697933">
        <ele>28.9769</ele>
        <time>2013-05-07T15:57:56Z</time>
      </trkpt>
      <trkpt lat="59.9032164" lon="17.6698286">
        <ele>28.9769</ele>
        <time>2013-05-07T15:57:57Z</time>
      </trkpt>
      <trkpt lat="59.903142" lon="17.6698197">
        <ele>29.9381</ele>
        <time>2013-05-07T15:57:58Z</time>
      </trkpt>
      <trkpt lat="59.90307" lon="17.6697876">
        <ele>28.9769</ele>
        <time>2013-05-07T15:57:59Z</time>
      </trkpt>
      <trkpt lat="59.9030058" lon="17.6697341">
        <ele>28.9769</ele>
        <time>2013-05-07T15:58:00Z</time>
      </trkpt>
      <trkpt lat="59.9029455" lon="17.6696961">
        <ele>28.4962</ele>
        <time>2013-05-07T15:58:01Z</time>
      </trkpt>
      <trkpt lat="59.9028799" lon="17.6696855">
        <ele>28.9769</ele>
        <time>2013-05-07T15:58:02Z</time>
      </trkpt>
      <trkpt lat="59.9028136" lon="17.669698">
        <ele>29.4575</ele>
        <time>2013-05-07T15:58:03Z</time>
      </trkpt>
      <trkpt lat="59.9027487" lon="17.6697201">
        <ele>29.4575</ele>
        <time>2013-05-07T15:58:04Z</time>
      </trkpt>
      <trkpt lat="59.9026791" lon="17.6697647">
        <ele>30.8995</ele>
        <time>2013-05-07T15:58:05Z</time>
      </trkpt>
      <trkpt lat="59.9026093" lon="17.6698016">
        <ele>30.4188</ele>
        <time>2013-05-07T15:58:06Z</time>
      </trkpt>
      <trkpt lat="59.9025387" lon="17.6698396">
        <ele>29.9381</ele>
        <time>2013-05-07T15:58:07Z</time>
      </trkpt>
      <trkpt lat="59.9024633" lon="17.6698734">
        <ele>29.9381</ele>
        <time>2013-05-07T15:58:08Z</time>
      </trkpt>
      <trkpt lat="59.9023856" lon="17.6698927">
        <ele>30.4188</ele>
        <time>2013-05-07T15:58:09Z</time>
      </trkpt>
      <trkpt lat="59.9023089" lon="17.6698932">
        <ele>30.4188</ele>
        <time>2013-05-07T15:58:10Z</time>
      </trkpt>
      <trkpt lat="59.9022341" lon="17.6698802">
        <ele>30.8995</ele>
        <time>2013-05-07T15:58:11Z</time>
      </trkpt>
      <trkpt lat="59.9021611" lon="17.6698538">
        <ele>30.8995</ele>
        <time>2013-05-07T15:58:12Z</time>
      </trkpt>
      <trkpt lat="59.9020938" lon="17.6698094">
        <ele>31.8607</ele>
        <time>2013-05-07T15:58:13Z</time>
      </trkpt>
      <trkpt lat="59.9020271" lon="17.6697649">
        <ele>32.8223</ele>
        <time>2013-05-07T15:58:14Z</time>
      </trkpt>
      <trkpt lat="59.9019617" lon="17.669722">
        <ele>33.7834</ele>
        <time>2013-05-07T15:58:15Z</time>
      </trkpt>
      <trkpt lat="59.9019033" lon="17.6696668">
        <ele>33.7834</ele>
        <time>2013-05-07T15:58:16Z</time>
      </trkpt>
      <trkpt lat="59.9018426" lon="17.669621">
        <ele>33.3029</ele>
        <time>2013-05-07T15:58:17Z</time>
      </trkpt>
      <trkpt lat="59.9017795" lon="17.669572">
        <ele>33.3029</ele>
        <time>2013-05-07T15:58:18Z</time>
      </trkpt>
      <trkpt lat="59.901718" lon="17.6695208">
        <ele>32.8223</ele>
        <time>2013-05-07T15:58:19Z</time>
      </trkpt>
      <trkpt lat="59.9016558" lon="17.6694768">
        <ele>31.8607</ele>
        <time>2013-05-07T15:58:20Z</time>
      </trkpt>
      <trkpt lat="59.90159" lon="17.6694526">
        <ele>31.3801</ele>
        <time>2013-05-07T15:58:21Z</time>
      </trkpt>
      <trkpt lat="59.9015246" lon="17.6694302">
        <ele>30.8995</ele>
        <time>2013-05-07T15:58:22Z</time>
      </trkpt>
      <trkpt lat="59.9014545" lon="17.6694165">
        <ele>29.4575</ele>
        <time>2013-05-07T15:58:23Z</time>
      </trkpt>
      <trkpt lat="59.901378" lon="17.6694188">
        <ele>29.9381</ele>
        <time>2013-05-07T15:58:24Z</time>
      </trkpt>
      <trkpt lat="59.9013128" lon="17.6694095">
        <ele>29.9381</ele>
        <time>2013-05-07T15:58:25Z</time>
      </trkpt>
      <trkpt lat="59.9012438" lon="17.6694109">
        <ele>28.9769</ele>
        <time>2013-05-07T15:58:26Z</time>
      </trkpt>
      <trkpt lat="59.9011701" lon="17.6694162">
        <ele>26.5736</ele>
        <time>2013-05-07T15:58:27Z</time>
      </trkpt>
      <trkpt lat="59.9011143" lon="17.6693994">
        <ele>24.1703</ele>
        <time>2013-05-07T15:58:28Z</time>
      </trkpt>
      <trkpt lat="59.9010567" lon="17.6693901">
        <ele>23.209</ele>
        <time>2013-05-07T15:58:29Z</time>
      </trkpt>
      <trkpt lat="59.901002" lon="17.6693997">
        <ele>24.1703</ele>
        <time>2013-05-07T15:58:30Z</time>
      </trkpt>
      <trkpt lat="59.9009456" lon="17.6694174">
        <ele>24.1703</ele>
        <time>2013-05-07T15:58:31Z</time>
      </trkpt>
      <trkpt lat="59.9008793" lon="17.6694456">
        <ele>24.651</ele>
        <time>2013-05-07T15:58:32Z</time>
      </trkpt>
      <trkpt lat="59.9008045" lon="17.669496">
        <ele>27.0543</ele>
        <time>2013-05-07T15:58:33Z</time>
      </trkpt>
      <trkpt lat="59.9007238" lon="17.6695585">
        <ele>29.9381</ele>
        <time>2013-05-07T15:58:34Z</time>
      </trkpt>
      <trkpt lat="59.9006475" lon="17.6695965">
        <ele>31.8607</ele>
        <time>2013-05-07T15:58:35Z</time>
      </trkpt>
      <trkpt lat="59.9005679" lon="17.6696302">
        <ele>32.3416</ele>
        <time>2013-05-07T15:58:36Z</time>
      </trkpt>
      <trkpt lat="59.9004784" lon="17.6696605">
        <ele>33.3029</ele>
        <time>2013-05-07T15:58:37Z</time>
      </trkpt>
      <trkpt lat="59.9003907" lon="17.669687">
        <ele>33.3029</ele>
        <time>2013-05-07T15:58:38Z</time>
      </trkpt>
      <trkpt lat="59.9003047" lon="17.6697052">
        <ele>34.2642</ele>
        <time>2013-05-07T15:58:39Z</time>
      </trkpt>
      <trkpt lat="59.9002234" lon="17.6697264">
        <ele>34.7449</ele>
        <time>2013-05-07T15:58:40Z</time>
      </trkpt>
      <trkpt lat="59.9001468" lon="17.6697513">
        <ele>35.2255</ele>
        <time>2013-05-07T15:58:41Z</time>
      </trkpt>
      <trkpt lat="59.9000753" lon="17.6697774">
        <ele>35.7061</ele>
        <time>2013-05-07T15:58:42Z</time>
      </trkpt>
      <trkpt lat="59.900009" lon="17.6698084">
        <ele>35.7061</ele>
        <time>2013-05-07T15:58:43Z</time>
      </trkpt>
      <trkpt lat="59.8999464" lon="17.6698362">
        <ele>35.2255</ele>
        <time>2013-05-07T15:58:44Z</time>
      </trkpt>
      <trkpt lat="59.8998826" lon="17.6698633">
        <ele>34.7449</ele>
        <time>2013-05-07T15:58:45Z</time>
      </trkpt>
      <trkpt lat="59.8998209" lon="17.669888">
        <ele>34.2642</ele>
        <time>2013-05-07T15:58:46Z</time>
      </trkpt>
      <trkpt lat="59.8997603" lon="17.6699175">
        <ele>33.7834</ele>
        <time>2013-05-07T15:58:47Z</time>
      </trkpt>
      <trkpt lat="59.8996982" lon="17.6699477">
        <ele>33.7834</ele>
        <time>2013-05-07T15:58:48Z</time>
      </trkpt>
      <trkpt lat="59.8996358" lon="17.6699808">
        <ele>33.7834</ele>
        <time>2013-05-07T15:58:49Z</time>
      </trkpt>
      <trkpt lat="59.8995733" lon="17.6700109">
        <ele>33.7834</ele>
        <time>2013-05-07T15:58:50Z</time>
      </trkpt>
      <trkpt lat="59.8995095" lon="17.6700446">
        <ele>33.7834</ele>
        <time>2013-05-07T15:58:51Z</time>
      </trkpt>
      <trkpt lat="59.89945" lon="17.6700905">
        <ele>33.7834</ele>
        <time>2013-05-07T15:58:52Z</time>
      </trkpt>
      <trkpt lat="59.899397" lon="17.6701502">
        <ele>32.8223</ele>
        <time>2013-05-07T15:58:53Z</time>
      </trkpt>
      <trkpt lat="59.899352" lon="17.6702338">
        <ele>31.3801</ele>
        <time>2013-05-07T15:58:54Z</time>
      </trkpt>
      <trkpt lat="59.8993211" lon="17.6703194">
        <ele>31.3801</ele>
        <time>2013-05-07T15:58:55Z</time>
      </trkpt>
      <trkpt lat="59.8993015" lon="17.6704583">
        <ele>30.8995</ele>
        <time>2013-05-07T15:58:56Z</time>
      </trkpt>
      <trkpt lat="59.8993051" lon="17.6705955">
        <ele>31.3801</ele>
        <time>2013-05-07T15:58:57Z</time>
      </trkpt>
      <trkpt lat="59.8992883" lon="17.670693">
        <ele>30.8995</ele>
        <time>2013-05-07T15:58:58Z</time>
      </trkpt>
      <trkpt lat="59.8992779" lon="17.6708123">
        <ele>29.9381</ele>
        <time>2013-05-07T15:58:59Z</time>
      </trkpt>
      <trkpt lat="59.8992723" lon="17.67089">
        <ele>30.8995</ele>
        <time>2013-05-07T15:59:00Z</time>
      </trkpt>
      <trkpt lat="59.8992692" lon="17.6710251">
        <ele>29.9381</ele>
        <time>2013-05-07T15:59:01Z</time>
      </trkpt>
      <trkpt lat="59.899263" lon="17.6711348">
        <ele>30.4188</ele>
        <time>2013-05-07T15:59:02Z</time>
      </trkpt>
      <trkpt lat="59.8992527" lon="17.6712628">
        <ele>28.9769</ele>
        <time>2013-05-07T15:59:03Z</time>
      </trkpt>
      <trkpt lat="59.8992572" lon="17.6713924">
        <ele>28.4962</ele>
        <time>2013-05-07T15:59:04Z</time>
      </trkpt>
      <trkpt lat="59.89925" lon="17.6715274">
        <ele>27.0543</ele>
        <time>2013-05-07T15:59:05Z</time>
      </trkpt>
      <trkpt lat="59.8992359" lon="17.6716603">
        <ele>27.5349</ele>
        <time>2013-05-07T15:59:06Z</time>
      </trkpt>
      <trkpt lat="59.8992233" lon="17.6718154">
        <ele>28.0155</ele>
        <time>2013-05-07T15:59:07Z</time>
      </trkpt>
      <trkpt lat="59.899194" lon="17.6719585">
        <ele>28.9769</ele>
        <time>2013-05-07T15:59:08Z</time>
      </trkpt>
      <trkpt lat="59.8991677" lon="17.6721074">
        <ele>29.4575</ele>
        <time>2013-05-07T15:59:09Z</time>
      </trkpt>
      <trkpt lat="59.8991476" lon="17.6722585">
        <ele>30.4188</ele>
        <time>2013-05-07T15:59:10Z</time>
      </trkpt>
      <trkpt lat="59.8991257" lon="17.6724265">
        <ele>30.8995</ele>
        <time>2013-05-07T15:59:11Z</time>
      </trkpt>
      <trkpt lat="59.899105" lon="17.6725802">
        <ele>32.3416</ele>
        <time>2013-05-07T15:59:12Z</time>
      </trkpt>
      <trkpt lat="59.8990901" lon="17.6727485">
        <ele>32.3416</ele>
        <time>2013-05-07T15:59:13Z</time>
      </trkpt>
      <trkpt lat="59.8990833" lon="17.672903">
        <ele>32.8223</ele>
        <time>2013-05-07T15:59:14Z</time>
      </trkpt>
      <trkpt lat="59.8990702" lon="17.6731412">
        <ele>31.3801</ele>
        <time>2013-05-07T15:59:15Z</time>
      </trkpt>
      <trkpt lat="59.8990593" lon="17.6733293">
        <ele>31.3801</ele>
        <time>2013-05-07T15:59:16Z</time>
      </trkpt>
      <trkpt lat="59.8990458" lon="17.6735106">
        <ele>30.8995</ele>
        <time>2013-05-07T15:59:17Z</time>
      </trkpt>
      <trkpt lat="59.8990315" lon="17.6736648">
        <ele>30.8995</ele>
        <time>2013-05-07T15:59:18Z</time>
      </trkpt>
      <trkpt lat="59.8990175" lon="17.6738545">
        <ele>29.4575</ele>
        <time>2013-05-07T15:59:19Z</time>
      </trkpt>
      <trkpt lat="59.8990018" lon="17.6740125">
        <ele>28.9769</ele>
        <time>2013-05-07T15:59:20Z</time>
      </trkpt>
      <trkpt lat="59.8989745" lon="17.6741565">
        <ele>28.4962</ele>
        <time>2013-05-07T15:59:21Z</time>
      </trkpt>
      <trkpt lat="59.8989377" lon="17.6742761">
        <ele>28.0155</ele>
        <time>2013-05-07T15:59:22Z</time>
      </trkpt>
      <trkpt lat="59.8988838" lon="17.6743632">
        <ele>28.0155</ele>
        <time>2013-05-07T15:59:23Z</time>
      </trkpt>
      <trkpt lat="59.8988319" lon="17.6744451">
        <ele>26.5736</ele>
        <time>2013-05-07T15:59:24Z</time>
      </trkpt>
      <trkpt lat="59.8987704" lon="17.6745229">
        <ele>26.5736</ele>
        <time>2013-05-07T15:59:25Z</time>
      </trkpt>
      <trkpt lat="59.8987047" lon="17.6746042">
        <ele>26.5736</ele>
        <time>2013-05-07T15:59:26Z</time>
      </trkpt>
      <trkpt lat="59.8986391" lon="17.6746943">
        <ele>26.0929</ele>
        <time>2013-05-07T15:59:27Z</time>
      </trkpt>
      <trkpt lat="59.898574" lon="17.6748083">
        <ele>25.6123</ele>
        <time>2013-05-07T15:59:28Z</time>
      </trkpt>
      <trkpt lat="59.8985166" lon="17.6749435">
        <ele>26.0929</ele>
        <time>2013-05-07T15:59:29Z</time>
      </trkpt>
      <trkpt lat="59.8984745" lon="17.6751027">
        <ele>26.0929</ele>
        <time>2013-05-07T15:59:30Z</time>
      </trkpt>
      <trkpt lat="59.8984441" lon="17.6752682">
        <ele>26.0929</ele>
        <time>2013-05-07T15:59:31Z</time>
      </trkpt>
      <trkpt lat="59.8984234" lon="17.6754372">
        <ele>26.0929</ele>
        <time>2013-05-07T15:59:32Z</time>
      </trkpt>
      <trkpt lat="59.8984058" lon="17.6756114">
        <ele>25.6123</ele>
        <time>2013-05-07T15:59:33Z</time>
      </trkpt>
      <trkpt lat="59.8983926" lon="17.6757901">
        <ele>25.6123</ele>
        <time>2013-05-07T15:59:34Z</time>
      </trkpt>
      <trkpt lat="59.8983838" lon="17.6759679">
        <ele>25.1317</ele>
        <time>2013-05-07T15:59:35Z</time>
      </trkpt>
      <trkpt lat="59.8983748" lon="17.6761463">
        <ele>24.1703</ele>
        <time>2013-05-07T15:59:36Z</time>
      </trkpt>
      <trkpt lat="59.8983658" lon="17.6763304">
        <ele>23.209</ele>
        <time>2013-05-07T15:59:37Z</time>
      </trkpt>
      <trkpt lat="59.8983514" lon="17.6765114">
        <ele>22.2476</ele>
        <time>2013-05-07T15:59:38Z</time>
      </trkpt>
      <trkpt lat="59.8983328" lon="17.6766916">
        <ele>21.2864</ele>
        <time>2013-05-07T15:59:39Z</time>
      </trkpt>
      <trkpt lat="59.8983125" lon="17.6768733">
        <ele>20.325</ele>
        <time>2013-05-07T15:59:40Z</time>
      </trkpt>
      <trkpt lat="59.8982896" lon="17.6770554">
        <ele>19.8444</ele>
        <time>2013-05-07T15:59:41Z</time>
      </trkpt>
      <trkpt lat="59.8982631" lon="17.6772361">
        <ele>19.3638</ele>
        <time>2013-05-07T15:59:42Z</time>
      </trkpt>
      <trkpt lat="59.8982331" lon="17.6774153">
        <ele>18.8831</ele>
        <time>2013-05-07T15:59:43Z</time>
      </trkpt>
      <trkpt lat="59.8982007" lon="17.6775939">
        <ele>18.8831</ele>
        <time>2013-05-07T15:59:44Z</time>
      </trkpt>
      <trkpt lat="59.8981657" lon="17.6777697">
        <ele>18.4023</ele>
        <time>2013-05-07T15:59:45Z</time>
      </trkpt>
      <trkpt lat="59.8981269" lon="17.6779419">
        <ele>18.4023</ele>
        <time>2013-05-07T15:59:46Z</time>
      </trkpt>
      <trkpt lat="59.898083" lon="17.678111">
        <ele>18.4023</ele>
        <time>2013-05-07T15:59:47Z</time>
      </trkpt>
      <trkpt lat="59.8980343" lon="17.6782772">
        <ele>18.4023</ele>
        <time>2013-05-07T15:59:48Z</time>
      </trkpt>
      <trkpt lat="59.897981" lon="17.6784377">
        <ele>18.4023</ele>
        <time>2013-05-07T15:59:49Z</time>
      </trkpt>
      <trkpt lat="59.8979253" lon="17.6785947">
        <ele>18.4023</ele>
        <time>2013-05-07T15:59:50Z</time>
      </trkpt>
      <trkpt lat="59.8978665" lon="17.6787534">
        <ele>18.4023</ele>
        <time>2013-05-07T15:59:51Z</time>
      </trkpt>
      <trkpt lat="59.8978068" lon="17.6789129">
        <ele>18.4023</ele>
        <time>2013-05-07T15:59:52Z</time>
      </trkpt>
      <trkpt lat="59.8977468" lon="17.6790715">
        <ele>18.4023</ele>
        <time>2013-05-07T15:59:53Z</time>
      </trkpt>
      <trkpt lat="59.8976867" lon="17.6792287">
        <ele>18.4023</ele>
        <time>2013-05-07T15:59:54Z</time>
      </trkpt>
      <trkpt lat="59.8976272" lon="17.6793874">
        <ele>18.4023</ele>
        <time>2013-05-07T15:59:55Z</time>
      </trkpt>
      <trkpt lat="59.897567" lon="17.6795459">
        <ele>18.4023</ele>
        <time>2013-05-07T15:59:56Z</time>
      </trkpt>
      <trkpt lat="59.8975053" lon="17.6797044">
        <ele>18.4023</ele>
        <time>2013-05-07T15:59:57Z</time>
      </trkpt>
      <trkpt lat="59.8974438" lon="17.6798643">
        <ele>18.4023</ele>
        <time>2013-05-07T15:59:58Z</time>
      </trkpt>
      <trkpt lat="59.8973828" lon="17.6800256">
        <ele>18.4023</ele>
        <time>2013-05-07T15:59:59Z</time>
      </trkpt>
      <trkpt lat="59.8973215" lon="17.6801892">
        <ele>18.4023</ele>
        <time>2013-05-07T16:00:00Z</time>
      </trkpt>
      <trkpt lat="59.8972599" lon="17.6803533">
        <ele>18.4023</ele>
        <time>2013-05-07T16:00:01Z</time>
      </trkpt>
      <trkpt lat="59.8971972" lon="17.6805167">
        <ele>17.9218</ele>
        <time>2013-05-07T16:00:02Z</time>
      </trkpt>
      <trkpt lat="59.8971325" lon="17.6806796">
        <ele>17.9218</ele>
        <time>2013-05-07T16:00:03Z</time>
      </trkpt>
      <trkpt lat="59.8970666" lon="17.680842">
        <ele>17.4412</ele>
        <time>2013-05-07T16:00:04Z</time>
      </trkpt>
      <trkpt lat="59.8969994" lon="17.6810008">
        <ele>17.4412</ele>
        <time>2013-05-07T16:00:05Z</time>
      </trkpt>
      <trkpt lat="59.8969307" lon="17.6811507">
        <ele>17.4412</ele>
        <time>2013-05-07T16:00:06Z</time>
      </trkpt>
      <trkpt lat="59.8968599" lon="17.6812907">
        <ele>17.4412</ele>
        <time>2013-05-07T16:00:07Z</time>
      </trkpt>
      <trkpt lat="59.8967869" lon="17.6814219">
        <ele>17.9218</ele>
        <time>2013-05-07T16:00:08Z</time>
      </trkpt>
      <trkpt lat="59.8967134" lon="17.6815453">
        <ele>18.4023</ele>
        <time>2013-05-07T16:00:09Z</time>
      </trkpt>
      <trkpt lat="59.8966409" lon="17.6816584">
        <ele>18.8831</ele>
        <time>2013-05-07T16:00:10Z</time>
      </trkpt>
      <trkpt lat="59.8965683" lon="17.681766">
        <ele>18.8831</ele>
        <time>2013-05-07T16:00:11Z</time>
      </trkpt>
      <trkpt lat="59.8964978" lon="17.6818672">
        <ele>18.8831</ele>
        <time>2013-05-07T16:00:12Z</time>
      </trkpt>
      <trkpt lat="59.8964291" lon="17.6819604">
        <ele>19.3638</ele>
        <time>2013-05-07T16:00:13Z</time>
      </trkpt>
      <trkpt lat="59.896358" lon="17.6820511">
        <ele>19.8444</ele>
        <time>2013-05-07T16:00:14Z</time>
      </trkpt>
      <trkpt lat="59.8962825" lon="17.682134">
        <ele>20.325</ele>
        <time>2013-05-07T16:00:15Z</time>
      </trkpt>
      <trkpt lat="59.8961398" lon="17.6822849">
        <ele>21.767</ele>
        <time>2013-05-07T16:00:17Z</time>
      </trkpt>
      <trkpt lat="59.8960734" lon="17.6823572">
        <ele>22.7283</ele>
        <time>2013-05-07T16:00:18Z</time>
      </trkpt>
      <trkpt lat="59.8960088" lon="17.682421">
        <ele>23.209</ele>
        <time>2013-05-07T16:00:19Z</time>
      </trkpt>
      <trkpt lat="59.8959434" lon="17.6824779">
        <ele>23.6896</ele>
        <time>2013-05-07T16:00:20Z</time>
      </trkpt>
      <trkpt lat="59.8958766" lon="17.6825285">
        <ele>24.1703</ele>
        <time>2013-05-07T16:00:21Z</time>
      </trkpt>
      <trkpt lat="59.8958065" lon="17.6825747">
        <ele>24.1703</ele>
        <time>2013-05-07T16:00:22Z</time>
      </trkpt>
      <trkpt lat="59.8957341" lon="17.6826188">
        <ele>24.1703</ele>
        <time>2013-05-07T16:00:23Z</time>
      </trkpt>
      <trkpt lat="59.8956607" lon="17.6826711">
        <ele>25.1317</ele>
        <time>2013-05-07T16:00:24Z</time>
      </trkpt>
      <trkpt lat="59.8955873" lon="17.6827347">
        <ele>25.6123</ele>
        <time>2013-05-07T16:00:25Z</time>
      </trkpt>
      <trkpt lat="59.895514" lon="17.6827914">
        <ele>26.0929</ele>
        <time>2013-05-07T16:00:26Z</time>
      </trkpt>
      <trkpt lat="59.8954407" lon="17.6828581">
        <ele>26.5736</ele>
        <time>2013-05-07T16:00:27Z</time>
      </trkpt>
      <trkpt lat="59.895371" lon="17.6829385">
        <ele>26.5736</ele>
        <time>2013-05-07T16:00:28Z</time>
      </trkpt>
      <trkpt lat="59.8952993" lon="17.6830221">
        <ele>25.6123</ele>
        <time>2013-05-07T16:00:29Z</time>
      </trkpt>
      <trkpt lat="59.8952303" lon="17.6831149">
        <ele>25.1317</ele>
        <time>2013-05-07T16:00:30Z</time>
      </trkpt>
      <trkpt lat="59.8951589" lon="17.6832129">
        <ele>24.651</ele>
        <time>2013-05-07T16:00:31Z</time>
      </trkpt>
      <trkpt lat="59.8950878" lon="17.6833205">
        <ele>24.1703</ele>
        <time>2013-05-07T16:00:32Z</time>
      </trkpt>
      <trkpt lat="59.8950239" lon="17.6834326">
        <ele>23.209</ele>
        <time>2013-05-07T16:00:33Z</time>
      </trkpt>
      <trkpt lat="59.8949717" lon="17.683576">
        <ele>23.6896</ele>
        <time>2013-05-07T16:00:34Z</time>
      </trkpt>
      <trkpt lat="59.894918" lon="17.6837235">
        <ele>23.6896</ele>
        <time>2013-05-07T16:00:35Z</time>
      </trkpt>
      <trkpt lat="59.8948782" lon="17.6838818">
        <ele>23.6896</ele>
        <time>2013-05-07T16:00:36Z</time>
      </trkpt>
      <trkpt lat="59.8948499" lon="17.6840439">
        <ele>23.6896</ele>
        <time>2013-05-07T16:00:37Z</time>
      </trkpt>
      <trkpt lat="59.8948334" lon="17.6841929">
        <ele>23.209</ele>
        <time>2013-05-07T16:00:38Z</time>
      </trkpt>
      <trkpt lat="59.8948164" lon="17.684351">
        <ele>22.7283</ele>
        <time>2013-05-07T16:00:39Z</time>
      </trkpt>
      <trkpt lat="59.8948043" lon="17.6845039">
        <ele>21.767</ele>
        <time>2013-05-07T16:00:40Z</time>
      </trkpt>
      <trkpt lat="59.8947905" lon="17.6846645">
        <ele>20.8057</ele>
        <time>2013-05-07T16:00:41Z</time>
      </trkpt>
      <trkpt lat="59.8947813" lon="17.6848186">
        <ele>20.325</ele>
        <time>2013-05-07T16:00:42Z</time>
      </trkpt>
      <trkpt lat="59.894772" lon="17.6849701">
        <ele>20.8057</ele>
        <time>2013-05-07T16:00:43Z</time>
      </trkpt>
      <trkpt lat="59.8947621" lon="17.6851236">
        <ele>20.325</ele>
        <time>2013-05-07T16:00:44Z</time>
      </trkpt>
      <trkpt lat="59.8947553" lon="17.685274">
        <ele>18.8831</ele>
        <time>2013-05-07T16:00:45Z</time>
      </trkpt>
      <trkpt lat="59.8947497" lon="17.6854222">
        <ele>17.4412</ele>
        <time>2013-05-07T16:00:46Z</time>
      </trkpt>
      <trkpt lat="59.8947447" lon="17.6855759">
        <ele>16.4797</ele>
        <time>2013-05-07T16:00:47Z</time>
      </trkpt>
      <trkpt lat="59.8947372" lon="17.6857269">
        <ele>15.5184</ele>
        <time>2013-05-07T16:00:48Z</time>
      </trkpt>
      <trkpt lat="59.8947276" lon="17.6858827">
        <ele>15.0377</ele>
        <time>2013-05-07T16:00:49Z</time>
      </trkpt>
      <trkpt lat="59.894714" lon="17.6860443">
        <ele>14.557</ele>
        <time>2013-05-07T16:00:50Z</time>
      </trkpt>
      <trkpt lat="59.8946969" lon="17.6862054">
        <ele>14.0764</ele>
        <time>2013-05-07T16:00:51Z</time>
      </trkpt>
      <trkpt lat="59.8946775" lon="17.6863697">
        <ele>13.5958</ele>
        <time>2013-05-07T16:00:52Z</time>
      </trkpt>
      <trkpt lat="59.894653" lon="17.6865365">
        <ele>14.0764</ele>
        <time>2013-05-07T16:00:53Z</time>
      </trkpt>
      <trkpt lat="59.8946271" lon="17.6867008">
        <ele>14.0764</ele>
        <time>2013-05-07T16:00:54Z</time>
      </trkpt>
      <trkpt lat="59.8945992" lon="17.6868632">
        <ele>14.557</ele>
        <time>2013-05-07T16:00:55Z</time>
      </trkpt>
      <trkpt lat="59.8945699" lon="17.6870219">
        <ele>14.557</ele>
        <time>2013-05-07T16:00:56Z</time>
      </trkpt>
      <trkpt lat="59.8945389" lon="17.6871796">
        <ele>15.0377</ele>
        <time>2013-05-07T16:00:57Z</time>
      </trkpt>
      <trkpt lat="59.8945067" lon="17.6873353">
        <ele>15.0377</ele>
        <time>2013-05-07T16:00:58Z</time>
      </trkpt>
      <trkpt lat="59.8944736" lon="17.6874921">
        <ele>15.0377</ele>
        <time>2013-05-07T16:00:59Z</time>
      </trkpt>
      <trkpt lat="59.8944412" lon="17.6876479">
        <ele>14.557</ele>
        <time>2013-05-07T16:01:00Z</time>
      </trkpt>
      <trkpt lat="59.8944081" lon="17.6878018">
        <ele>14.557</ele>
        <time>2013-05-07T16:01:01Z</time>
      </trkpt>
      <trkpt lat="59.8943716" lon="17.6879552">
        <ele>14.557</ele>
        <time>2013-05-07T16:01:02Z</time>
      </trkpt>
      <trkpt lat="59.8943361" lon="17.6881055">
        <ele>14.557</ele>
        <time>2013-05-07T16:01:03Z</time>
      </trkpt>
      <trkpt lat="59.8943047" lon="17.6882543">
        <ele>14.557</ele>
        <time>2013-05-07T16:01:04Z</time>
      </trkpt>
      <trkpt lat="59.8942772" lon="17.6883969">
        <ele>14.557</ele>
        <time>2013-05-07T16:01:05Z</time>
      </trkpt>
      <trkpt lat="59.8942523" lon="17.6885406">
        <ele>15.5184</ele>
        <time>2013-05-07T16:01:06Z</time>
      </trkpt>
      <trkpt lat="59.8942306" lon="17.6886861">
        <ele>15.999</ele>
        <time>2013-05-07T16:01:07Z</time>
      </trkpt>
      <trkpt lat="59.8942098" lon="17.6888352">
        <ele>16.4797</ele>
        <time>2013-05-07T16:01:08Z</time>
      </trkpt>
      <trkpt lat="59.8941894" lon="17.6889878">
        <ele>16.4797</ele>
        <time>2013-05-07T16:01:09Z</time>
      </trkpt>
      <trkpt lat="59.8941697" lon="17.6891401">
        <ele>16.9604</ele>
        <time>2013-05-07T16:01:10Z</time>
      </trkpt>
      <trkpt lat="59.8941519" lon="17.689289">
        <ele>17.4412</ele>
        <time>2013-05-07T16:01:11Z</time>
      </trkpt>
      <trkpt lat="59.8941346" lon="17.6894364">
        <ele>17.9218</ele>
        <time>2013-05-07T16:01:12Z</time>
      </trkpt>
      <trkpt lat="59.8941165" lon="17.6895807">
        <ele>17.9218</ele>
        <time>2013-05-07T16:01:13Z</time>
      </trkpt>
      <trkpt lat="59.8941005" lon="17.6897191">
        <ele>17.9218</ele>
        <time>2013-05-07T16:01:14Z</time>
      </trkpt>
      <trkpt lat="59.8940855" lon="17.6898501">
        <ele>18.4023</ele>
        <time>2013-05-07T16:01:15Z</time>
      </trkpt>
      <trkpt lat="59.8940679" lon="17.6899779">
        <ele>18.4023</ele>
        <time>2013-05-07T16:01:16Z</time>
      </trkpt>
      <trkpt lat="59.894046" lon="17.6901092">
        <ele>18.8831</ele>
        <time>2013-05-07T16:01:17Z</time>
      </trkpt>
      <trkpt lat="59.8940249" lon="17.6902395">
        <ele>18.8831</ele>
        <time>2013-05-07T16:01:18Z</time>
      </trkpt>
      <trkpt lat="59.8939989" lon="17.6903857">
        <ele>19.3638</ele>
        <time>2013-05-07T16:01:19Z</time>
      </trkpt>
      <trkpt lat="59.8939751" lon="17.6905371">
        <ele>19.3638</ele>
        <time>2013-05-07T16:01:20Z</time>
      </trkpt>
      <trkpt lat="59.8939514" lon="17.6906908">
        <ele>18.8831</ele>
        <time>2013-05-07T16:01:21Z</time>
      </trkpt>
      <trkpt lat="59.8939296" lon="17.6908405">
        <ele>18.8831</ele>
        <time>2013-05-07T16:01:22Z</time>
      </trkpt>
      <trkpt lat="59.8939107" lon="17.6909922">
        <ele>18.4023</ele>
        <time>2013-05-07T16:01:23Z</time>
      </trkpt>
      <trkpt lat="59.8938978" lon="17.6911348">
        <ele>17.9218</ele>
        <time>2013-05-07T16:01:24Z</time>
      </trkpt>
      <trkpt lat="59.8938924" lon="17.6912695">
        <ele>17.4412</ele>
        <time>2013-05-07T16:01:25Z</time>
      </trkpt>
      <trkpt lat="59.8939006" lon="17.691456">
        <ele>16.4797</ele>
        <time>2013-05-07T16:01:26Z</time>
      </trkpt>
      <trkpt lat="59.893901" lon="17.6916268">
        <ele>15.999</ele>
        <time>2013-05-07T16:01:27Z</time>
      </trkpt>
      <trkpt lat="59.8939" lon="17.6917886">
        <ele>15.999</ele>
        <time>2013-05-07T16:01:28Z</time>
      </trkpt>
      <trkpt lat="59.8938981" lon="17.6919332">
        <ele>16.4797</ele>
        <time>2013-05-07T16:01:29Z</time>
      </trkpt>
      <trkpt lat="59.8938917" lon="17.6921373">
        <ele>16.4797</ele>
        <time>2013-05-07T16:01:30Z</time>
      </trkpt>
      <trkpt lat="59.8938672" lon="17.6923828">
        <ele>16.9604</ele>
        <time>2013-05-07T16:01:31Z</time>
      </trkpt>
      <trkpt lat="59.8938509" lon="17.6926054">
        <ele>16.9604</ele>
        <time>2013-05-07T16:01:32Z</time>
      </trkpt>
      <trkpt lat="59.8938472" lon="17.6927879">
        <ele>17.4412</ele>
        <time>2013-05-07T16:01:33Z</time>
      </trkpt>
      <trkpt lat="59.8938434" lon="17.692967">
        <ele>17.4412</ele>
        <time>2013-05-07T16:01:34Z</time>
      </trkpt>
      <trkpt lat="59.8938347" lon="17.6931398">
        <ele>17.4412</ele>
        <time>2013-05-07T16:01:35Z</time>
      </trkpt>
      <trkpt lat="59.893825" lon="17.6933068">
        <ele>17.4412</ele>
        <time>2013-05-07T16:01:36Z</time>
      </trkpt>
      <trkpt lat="59.893817" lon="17.6934771">
        <ele>17.4412</ele>
        <time>2013-05-07T16:01:37Z</time>
      </trkpt>
      <trkpt lat="59.8938103" lon="17.6936487">
        <ele>16.9604</ele>
        <time>2013-05-07T16:01:38Z</time>
      </trkpt>
      <trkpt lat="59.8938042" lon="17.6938233">
        <ele>16.9604</ele>
        <time>2013-05-07T16:01:39Z</time>
      </trkpt>
      <trkpt lat="59.893798" lon="17.6939952">
        <ele>16.4797</ele>
        <time>2013-05-07T16:01:40Z</time>
      </trkpt>
      <trkpt lat="59.8937916" lon="17.6941657">
        <ele>15.999</ele>
        <time>2013-05-07T16:01:41Z</time>
      </trkpt>
      <trkpt lat="59.8937856" lon="17.694333">
        <ele>15.999</ele>
        <time>2013-05-07T16:01:42Z</time>
      </trkpt>
      <trkpt lat="59.89378" lon="17.6944986">
        <ele>15.999</ele>
        <time>2013-05-07T16:01:43Z</time>
      </trkpt>
      <trkpt lat="59.8937757" lon="17.6946624">
        <ele>15.999</ele>
        <time>2013-05-07T16:01:44Z</time>
      </trkpt>
      <trkpt lat="59.8937707" lon="17.694826">
        <ele>15.5184</ele>
        <time>2013-05-07T16:01:45Z</time>
      </trkpt>
      <trkpt lat="59.8937658" lon="17.6949883">
        <ele>15.5184</ele>
        <time>2013-05-07T16:01:46Z</time>
      </trkpt>
      <trkpt lat="59.8937593" lon="17.6951504">
        <ele>15.5184</ele>
        <time>2013-05-07T16:01:47Z</time>
      </trkpt>
      <trkpt lat="59.8937539" lon="17.6953142">
        <ele>15.5184</ele>
        <time>2013-05-07T16:01:48Z</time>
      </trkpt>
      <trkpt lat="59.8937483" lon="17.6954779">
        <ele>15.999</ele>
        <time>2013-05-07T16:01:49Z</time>
      </trkpt>
      <trkpt lat="59.8937406" lon="17.6956405">
        <ele>15.999</ele>
        <time>2013-05-07T16:01:50Z</time>
      </trkpt>
      <trkpt lat="59.8937342" lon="17.6957985">
        <ele>16.4797</ele>
        <time>2013-05-07T16:01:51Z</time>
      </trkpt>
      <trkpt lat="59.8937287" lon="17.6959547">
        <ele>16.9604</ele>
        <time>2013-05-07T16:01:52Z</time>
      </trkpt>
      <trkpt lat="59.8937215" lon="17.6961036">
        <ele>16.9604</ele>
        <time>2013-05-07T16:01:53Z</time>
      </trkpt>
      <trkpt lat="59.8937167" lon="17.6962515">
        <ele>16.9604</ele>
        <time>2013-05-07T16:01:54Z</time>
      </trkpt>
      <trkpt lat="59.8937106" lon="17.6963888">
        <ele>17.9218</ele>
        <time>2013-05-07T16:01:55Z</time>
      </trkpt>
      <trkpt lat="59.8937022" lon="17.6965112">
        <ele>19.3638</ele>
        <time>2013-05-07T16:01:56Z</time>
      </trkpt>
      <trkpt lat="59.8937105" lon="17.6966889">
        <ele>19.3638</ele>
        <time>2013-05-07T16:01:57Z</time>
      </trkpt>
      <trkpt lat="59.8937207" lon="17.6968511">
        <ele>19.3638</ele>
        <time>2013-05-07T16:01:58Z</time>
      </trkpt>
      <trkpt lat="59.8937134" lon="17.6970061">
        <ele>18.8831</ele>
        <time>2013-05-07T16:01:59Z</time>
      </trkpt>
      <trkpt lat="59.8937026" lon="17.6971658">
        <ele>18.8831</ele>
        <time>2013-05-07T16:02:00Z</time>
      </trkpt>
      <trkpt lat="59.8936934" lon="17.6973379">
        <ele>18.8831</ele>
        <time>2013-05-07T16:02:01Z</time>
      </trkpt>
      <trkpt lat="59.8936712" lon="17.6974992">
        <ele>18.8831</ele>
        <time>2013-05-07T16:02:02Z</time>
      </trkpt>
      <trkpt lat="59.893641" lon="17.6976571">
        <ele>18.4023</ele>
        <time>2013-05-07T16:02:03Z</time>
      </trkpt>
      <trkpt lat="59.8936025" lon="17.6978081">
        <ele>18.4023</ele>
        <time>2013-05-07T16:02:04Z</time>
      </trkpt>
      <trkpt lat="59.8935587" lon="17.6979543">
        <ele>18.4023</ele>
        <time>2013-05-07T16:02:05Z</time>
      </trkpt>
      <trkpt lat="59.8935096" lon="17.6980959">
        <ele>18.4023</ele>
        <time>2013-05-07T16:02:06Z</time>
      </trkpt>
      <trkpt lat="59.8934562" lon="17.6982319">
        <ele>18.4023</ele>
        <time>2013-05-07T16:02:07Z</time>
      </trkpt>
      <trkpt lat="59.8933964" lon="17.6983579">
        <ele>18.4023</ele>
        <time>2013-05-07T16:02:08Z</time>
      </trkpt>
      <trkpt lat="59.8933298" lon="17.6984722">
        <ele>17.9218</ele>
        <time>2013-05-07T16:02:09Z</time>
      </trkpt>
      <trkpt lat="59.8932598" lon="17.698579">
        <ele>17.9218</ele>
        <time>2013-05-07T16:02:10Z</time>
      </trkpt>
      <trkpt lat="59.893186" lon="17.6986774">
        <ele>17.9218</ele>
        <time>2013-05-07T16:02:11Z</time>
      </trkpt>
      <trkpt lat="59.8931094" lon="17.6987623">
        <ele>17.9218</ele>
        <time>2013-05-07T16:02:12Z</time>
      </trkpt>
      <trkpt lat="59.8930299" lon="17.6988356">
        <ele>17.9218</ele>
        <time>2013-05-07T16:02:13Z</time>
      </trkpt>
      <trkpt lat="59.8929473" lon="17.6988934">
        <ele>17.4412</ele>
        <time>2013-05-07T16:02:14Z</time>
      </trkpt>
      <trkpt lat="59.8928634" lon="17.6989385">
        <ele>17.4412</ele>
        <time>2013-05-07T16:02:15Z</time>
      </trkpt>
      <trkpt lat="59.8927782" lon="17.6989702">
        <ele>17.4412</ele>
        <time>2013-05-07T16:02:16Z</time>
      </trkpt>
      <trkpt lat="59.892693" lon="17.6989885">
        <ele>17.4412</ele>
        <time>2013-05-07T16:02:17Z</time>
      </trkpt>
      <trkpt lat="59.8926092" lon="17.6989904">
        <ele>16.9604</ele>
        <time>2013-05-07T16:02:18Z</time>
      </trkpt>
      <trkpt lat="59.8925271" lon="17.6989743">
        <ele>16.9604</ele>
        <time>2013-05-07T16:02:19Z</time>
      </trkpt>
      <trkpt lat="59.8924455" lon="17.6989473">
        <ele>16.4797</ele>
        <time>2013-05-07T16:02:20Z</time>
      </trkpt>
      <trkpt lat="59.892365" lon="17.6989141">
        <ele>16.4797</ele>
        <time>2013-05-07T16:02:21Z</time>
      </trkpt>
      <trkpt lat="59.8922848" lon="17.6988739">
        <ele>16.4797</ele>
        <time>2013-05-07T16:02:22Z</time>
      </trkpt>
      <trkpt lat="59.8922061" lon="17.6988189">
        <ele>16.4797</ele>
        <time>2013-05-07T16:02:23Z</time>
      </trkpt>
      <trkpt lat="59.8921343" lon="17.6987457">
        <ele>18.8831</ele>
        <time>2013-05-07T16:02:24Z</time>
      </trkpt>
      <trkpt lat="59.8920632" lon="17.6986646">
        <ele>20.325</ele>
        <time>2013-05-07T16:02:25Z</time>
      </trkpt>
      <trkpt lat="59.8919939" lon="17.6985796">
        <ele>21.2864</ele>
        <time>2013-05-07T16:02:26Z</time>
      </trkpt>
      <trkpt lat="59.891926" lon="17.698491">
        <ele>22.7283</ele>
        <time>2013-05-07T16:02:27Z</time>
      </trkpt>
      <trkpt lat="59.8918581" lon="17.6984013">
        <ele>23.209</ele>
        <time>2013-05-07T16:02:28Z</time>
      </trkpt>
      <trkpt lat="59.8917893" lon="17.698314">
        <ele>23.6896</ele>
        <time>2013-05-07T16:02:29Z</time>
      </trkpt>
      <trkpt lat="59.8917202" lon="17.6982277">
        <ele>24.1703</ele>
        <time>2013-05-07T16:02:30Z</time>
      </trkpt>
      <trkpt lat="59.8916509" lon="17.698142">
        <ele>24.651</ele>
        <time>2013-05-07T16:02:31Z</time>
      </trkpt>
      <trkpt lat="59.891581" lon="17.6980566">
        <ele>25.1317</ele>
        <time>2013-05-07T16:02:32Z</time>
      </trkpt>
      <trkpt lat="59.8915109" lon="17.6979705">
        <ele>25.6123</ele>
        <time>2013-05-07T16:02:33Z</time>
      </trkpt>
      <trkpt lat="59.89144" lon="17.6978846">
        <ele>25.6123</ele>
        <time>2013-05-07T16:02:34Z</time>
      </trkpt>
      <trkpt lat="59.891368" lon="17.697802">
        <ele>25.6123</ele>
        <time>2013-05-07T16:02:35Z</time>
      </trkpt>
      <trkpt lat="59.8912945" lon="17.6977275">
        <ele>26.0929</ele>
        <time>2013-05-07T16:02:36Z</time>
      </trkpt>
      <trkpt lat="59.8912178" lon="17.697668">
        <ele>26.0929</ele>
        <time>2013-05-07T16:02:37Z</time>
      </trkpt>
      <trkpt lat="59.8911361" lon="17.697626">
        <ele>26.0929</ele>
        <time>2013-05-07T16:02:38Z</time>
      </trkpt>
      <trkpt lat="59.8910532" lon="17.6976035">
        <ele>26.5736</ele>
        <time>2013-05-07T16:02:39Z</time>
      </trkpt>
      <trkpt lat="59.8909692" lon="17.6976042">
        <ele>26.5736</ele>
        <time>2013-05-07T16:02:40Z</time>
      </trkpt>
      <trkpt lat="59.8908863" lon="17.6976246">
        <ele>26.0929</ele>
        <time>2013-05-07T16:02:41Z</time>
      </trkpt>
      <trkpt lat="59.8908071" lon="17.6976743">
        <ele>25.6123</ele>
        <time>2013-05-07T16:02:42Z</time>
      </trkpt>
      <trkpt lat="59.890734" lon="17.6977465">
        <ele>25.6123</ele>
        <time>2013-05-07T16:02:43Z</time>
      </trkpt>
      <trkpt lat="59.8906673" lon="17.6978346">
        <ele>25.1317</ele>
        <time>2013-05-07T16:02:44Z</time>
      </trkpt>
      <trkpt lat="59.8906087" lon="17.6979354">
        <ele>24.651</ele>
        <time>2013-05-07T16:02:45Z</time>
      </trkpt>
      <trkpt lat="59.8905605" lon="17.6980472">
        <ele>24.1703</ele>
        <time>2013-05-07T16:02:46Z</time>
      </trkpt>
      <trkpt lat="59.8905199" lon="17.6981543">
        <ele>24.1703</ele>
        <time>2013-05-07T16:02:47Z</time>
      </trkpt>
      <trkpt lat="59.8904841" lon="17.6982419">
        <ele>23.6896</ele>
        <time>2013-05-07T16:02:48Z</time>
      </trkpt>
      <trkpt lat="59.8904563" lon="17.6983072">
        <ele>23.6896</ele>
        <time>2013-05-07T16:02:49Z</time>
      </trkpt>
      <trkpt lat="59.8904438" lon="17.6983615">
        <ele>23.209</ele>
        <time>2013-05-07T16:02:50Z</time>
      </trkpt>
      <trkpt lat="59.8904481" lon="17.698407">
        <ele>23.209</ele>
        <time>2013-05-07T16:02:51Z</time>
      </trkpt>
      <trkpt lat="59.8904647" lon="17.6984329">
        <ele>22.7283</ele>
        <time>2013-05-07T16:02:52Z</time>
      </trkpt>
      <trkpt lat="59.8904864" lon="17.6984269">
        <ele>22.2476</ele>
        <time>2013-05-07T16:02:53Z</time>
      </trkpt>
      <trkpt lat="59.8905033" lon="17.6983957">
        <ele>22.2476</ele>
        <time>2013-05-07T16:02:54Z</time>
      </trkpt>
      <trkpt lat="59.8905154" lon="17.6983523">
        <ele>22.2476</ele>
        <time>2013-05-07T16:02:55Z</time>
      </trkpt>
      <trkpt lat="59.8905255" lon="17.6983082">
        <ele>22.2476</ele>
        <time>2013-05-07T16:02:56Z</time>
      </trkpt>
      <trkpt lat="59.8905362" lon="17.6982653">
        <ele>22.2476</ele>
        <time>2013-05-07T16:02:57Z</time>
      </trkpt>
      <trkpt lat="59.8905466" lon="17.6982251">
        <ele>22.7283</ele>
        <time>2013-05-07T16:02:58Z</time>
      </trkpt>
      <trkpt lat="59.8905522" lon="17.6981812">
        <ele>23.209</ele>
        <time>2013-05-07T16:02:59Z</time>
      </trkpt>
      <trkpt lat="59.8903501" lon="17.698438">
        <ele>23.209</ele>
        <time>2013-05-07T16:03:34Z</time>
      </trkpt>
      <trkpt lat="59.8903097" lon="17.698448">
        <ele>22.7283</ele>
        <time>2013-05-07T16:03:35Z</time>
      </trkpt>
      <trkpt lat="59.8902764" lon="17.6984522">
        <ele>22.7283</ele>
        <time>2013-05-07T16:03:36Z</time>
      </trkpt>
      <trkpt lat="59.8902544" lon="17.6984824">
        <ele>22.7283</ele>
        <time>2013-05-07T16:03:37Z</time>
      </trkpt>
      <trkpt lat="59.8902465" lon="17.6985355">
        <ele>22.2476</ele>
        <time>2013-05-07T16:03:38Z</time>
      </trkpt>
      <trkpt lat="59.8902581" lon="17.6985911">
        <ele>22.2476</ele>
        <time>2013-05-07T16:03:39Z</time>
      </trkpt>
      <trkpt lat="59.8902925" lon="17.6986382">
        <ele>23.209</ele>
        <time>2013-05-07T16:03:40Z</time>
      </trkpt>
      <trkpt lat="59.8903346" lon="17.6986878">
        <ele>23.209</ele>
        <time>2013-05-07T16:03:41Z</time>
      </trkpt>
      <trkpt lat="59.8903819" lon="17.6987433">
        <ele>23.209</ele>
        <time>2013-05-07T16:03:42Z</time>
      </trkpt>
      <trkpt lat="59.8904324" lon="17.6988069">
        <ele>23.209</ele>
        <time>2013-05-07T16:03:43Z</time>
      </trkpt>
      <trkpt lat="59.8904822" lon="17.6988843">
        <ele>23.6896</ele>
        <time>2013-05-07T16:03:44Z</time>
      </trkpt>
      <trkpt lat="59.8905295" lon="17.6989728">
        <ele>23.6896</ele>
        <time>2013-05-07T16:03:45Z</time>
      </trkpt>
      <trkpt lat="59.8905777" lon="17.6990659">
        <ele>23.6896</ele>
        <time>2013-05-07T16:03:46Z</time>
      </trkpt>
      <trkpt lat="59.8906293" lon="17.6991573">
        <ele>23.6896</ele>
        <time>2013-05-07T16:03:47Z</time>
      </trkpt>
      <trkpt lat="59.8906827" lon="17.6992511">
        <ele>24.1703</ele>
        <time>2013-05-07T16:03:48Z</time>
      </trkpt>
      <trkpt lat="59.8907402" lon="17.6993431">
        <ele>24.1703</ele>
        <time>2013-05-07T16:03:49Z</time>
      </trkpt>
      <trkpt lat="59.8908027" lon="17.6994224">
        <ele>24.651</ele>
        <time>2013-05-07T16:03:50Z</time>
      </trkpt>
      <trkpt lat="59.8908702" lon="17.6994867">
        <ele>25.1317</ele>
        <time>2013-05-07T16:03:51Z</time>
      </trkpt>
      <trkpt lat="59.8909411" lon="17.6995459">
        <ele>25.6123</ele>
        <time>2013-05-07T16:03:52Z</time>
      </trkpt>
      <trkpt lat="59.8910114" lon="17.6996116">
        <ele>26.0929</ele>
        <time>2013-05-07T16:03:53Z</time>
      </trkpt>
      <trkpt lat="59.891078" lon="17.6996903">
        <ele>26.5736</ele>
        <time>2013-05-07T16:03:54Z</time>
      </trkpt>
      <trkpt lat="59.8911412" lon="17.6997779">
        <ele>26.5736</ele>
        <time>2013-05-07T16:03:55Z</time>
      </trkpt>
      <trkpt lat="59.8912045" lon="17.6998686">
        <ele>27.5349</ele>
        <time>2013-05-07T16:03:56Z</time>
      </trkpt>
      <trkpt lat="59.8912687" lon="17.699957">
        <ele>28.0155</ele>
        <time>2013-05-07T16:03:57Z</time>
      </trkpt>
      <trkpt lat="59.8913333" lon="17.7000431">
        <ele>28.0155</ele>
        <time>2013-05-07T16:03:58Z</time>
      </trkpt>
      <trkpt lat="59.8913972" lon="17.7001292">
        <ele>28.4962</ele>
        <time>2013-05-07T16:03:59Z</time>
      </trkpt>
      <trkpt lat="59.8914616" lon="17.700215">
        <ele>28.9769</ele>
        <time>2013-05-07T16:04:00Z</time>
      </trkpt>
      <trkpt lat="59.8915269" lon="17.7003005">
        <ele>29.4575</ele>
        <time>2013-05-07T16:04:01Z</time>
      </trkpt>
      <trkpt lat="59.8915926" lon="17.700387">
        <ele>29.4575</ele>
        <time>2013-05-07T16:04:02Z</time>
      </trkpt>
      <trkpt lat="59.8916588" lon="17.7004746">
        <ele>29.9381</ele>
        <time>2013-05-07T16:04:03Z</time>
      </trkpt>
      <trkpt lat="59.8917253" lon="17.7005621">
        <ele>30.4188</ele>
        <time>2013-05-07T16:04:04Z</time>
      </trkpt>
      <trkpt lat="59.8917917" lon="17.7006496">
        <ele>30.4188</ele>
        <time>2013-05-07T16:04:05Z</time>
      </trkpt>
      <trkpt lat="59.8918592" lon="17.7007356">
        <ele>30.8995</ele>
        <time>2013-05-07T16:04:06Z</time>
      </trkpt>
      <trkpt lat="59.8919262" lon="17.7008215">
        <ele>30.8995</ele>
        <time>2013-05-07T16:04:07Z</time>
      </trkpt>
      <trkpt lat="59.8919924" lon="17.7009054">
        <ele>31.3801</ele>
        <time>2013-05-07T16:04:08Z</time>
      </trkpt>
      <trkpt lat="59.892058" lon="17.7009898">
        <ele>31.3801</ele>
        <time>2013-05-07T16:04:09Z</time>
      </trkpt>
      <trkpt lat="59.8921216" lon="17.7010752">
        <ele>31.8607</ele>
        <time>2013-05-07T16:04:10Z</time>
      </trkpt>
      <trkpt lat="59.8921834" lon="17.7011609">
        <ele>31.8607</ele>
        <time>2013-05-07T16:04:11Z</time>
      </trkpt>
      <trkpt lat="59.8922433" lon="17.7012464">
        <ele>32.3416</ele>
        <time>2013-05-07T16:04:12Z</time>
      </trkpt>
      <trkpt lat="59.892302" lon="17.7013278">
        <ele>32.3416</ele>
        <time>2013-05-07T16:04:13Z</time>
      </trkpt>
      <trkpt lat="59.8923622" lon="17.7014075">
        <ele>32.3416</ele>
        <time>2013-05-07T16:04:14Z</time>
      </trkpt>
      <trkpt lat="59.8924213" lon="17.7014867">
        <ele>32.3416</ele>
        <time>2013-05-07T16:04:15Z</time>
      </trkpt>
      <trkpt lat="59.892478" lon="17.701572">
        <ele>32.8223</ele>
        <time>2013-05-07T16:04:16Z</time>
      </trkpt>
      <trkpt lat="59.8925328" lon="17.7016634">
        <ele>32.8223</ele>
        <time>2013-05-07T16:04:17Z</time>
      </trkpt>
      <trkpt lat="59.8925884" lon="17.701754">
        <ele>32.8223</ele>
        <time>2013-05-07T16:04:18Z</time>
      </trkpt>
      <trkpt lat="59.8926475" lon="17.7018374">
        <ele>32.8223</ele>
        <time>2013-05-07T16:04:19Z</time>
      </trkpt>
      <trkpt lat="59.8927095" lon="17.7019118">
        <ele>32.8223</ele>
        <time>2013-05-07T16:04:20Z</time>
      </trkpt>
      <trkpt lat="59.8927732" lon="17.7019778">
        <ele>32.8223</ele>
        <time>2013-05-07T16:04:21Z</time>
      </trkpt>
      <trkpt lat="59.8928371" lon="17.7020457">
        <ele>32.8223</ele>
        <time>2013-05-07T16:04:22Z</time>
      </trkpt>
      <trkpt lat="59.8928998" lon="17.7021202">
        <ele>32.8223</ele>
        <time>2013-05-07T16:04:23Z</time>
      </trkpt>
      <trkpt lat="59.8929621" lon="17.7022009">
        <ele>32.8223</ele>
        <time>2013-05-07T16:04:24Z</time>
      </trkpt>
      <trkpt lat="59.8930252" lon="17.702285">
        <ele>32.8223</ele>
        <time>2013-05-07T16:04:25Z</time>
      </trkpt>
      <trkpt lat="59.8930882" lon="17.7023699">
        <ele>33.3029</ele>
        <time>2013-05-07T16:04:26Z</time>
      </trkpt>
      <trkpt lat="59.893151" lon="17.702456">
        <ele>33.3029</ele>
        <time>2013-05-07T16:04:27Z</time>
      </trkpt>
      <trkpt lat="59.8932142" lon="17.7025404">
        <ele>33.3029</ele>
        <time>2013-05-07T16:04:28Z</time>
      </trkpt>
      <trkpt lat="59.8932778" lon="17.7026248">
        <ele>33.3029</ele>
        <time>2013-05-07T16:04:29Z</time>
      </trkpt>
      <trkpt lat="59.8933411" lon="17.7027111">
        <ele>33.7834</ele>
        <time>2013-05-07T16:04:30Z</time>
      </trkpt>
      <trkpt lat="59.8934062" lon="17.7027936">
        <ele>33.7834</ele>
        <time>2013-05-07T16:04:31Z</time>
      </trkpt>
      <trkpt lat="59.8934718" lon="17.7028745">
        <ele>33.7834</ele>
        <time>2013-05-07T16:04:32Z</time>
      </trkpt>
      <trkpt lat="59.893538" lon="17.7029593">
        <ele>34.2642</ele>
        <time>2013-05-07T16:04:33Z</time>
      </trkpt>
      <trkpt lat="59.8936051" lon="17.703045">
        <ele>34.2642</ele>
        <time>2013-05-07T16:04:34Z</time>
      </trkpt>
      <trkpt lat="59.8936726" lon="17.703134">
        <ele>34.2642</ele>
        <time>2013-05-07T16:04:35Z</time>
      </trkpt>
      <trkpt lat="59.893739" lon="17.7032265">
        <ele>34.2642</ele>
        <time>2013-05-07T16:04:36Z</time>
      </trkpt>
      <trkpt lat="59.8938054" lon="17.7033178">
        <ele>34.2642</ele>
        <time>2013-05-07T16:04:37Z</time>
      </trkpt>
      <trkpt lat="59.8938725" lon="17.7034049">
        <ele>34.2642</ele>
        <time>2013-05-07T16:04:38Z</time>
      </trkpt>
      <trkpt lat="59.8939403" lon="17.7034934">
        <ele>33.7834</ele>
        <time>2013-05-07T16:04:39Z</time>
      </trkpt>
      <trkpt lat="59.8940087" lon="17.7035851">
        <ele>33.7834</ele>
        <time>2013-05-07T16:04:40Z</time>
      </trkpt>
      <trkpt lat="59.8940778" lon="17.7036794">
        <ele>33.7834</ele>
        <time>2013-05-07T16:04:41Z</time>
      </trkpt>
      <trkpt lat="59.8941477" lon="17.7037761">
        <ele>33.7834</ele>
        <time>2013-05-07T16:04:42Z</time>
      </trkpt>
      <trkpt lat="59.8942166" lon="17.7038784">
        <ele>33.3029</ele>
        <time>2013-05-07T16:04:43Z</time>
      </trkpt>
      <trkpt lat="59.8942865" lon="17.703983">
        <ele>33.3029</ele>
        <time>2013-05-07T16:04:44Z</time>
      </trkpt>
      <trkpt lat="59.8943583" lon="17.7040866">
        <ele>33.3029</ele>
        <time>2013-05-07T16:04:45Z</time>
      </trkpt>
      <trkpt lat="59.8944313" lon="17.7041886">
        <ele>32.8223</ele>
        <time>2013-05-07T16:04:46Z</time>
      </trkpt>
      <trkpt lat="59.8945056" lon="17.7042901">
        <ele>32.8223</ele>
        <time>2013-05-07T16:04:47Z</time>
      </trkpt>
      <trkpt lat="59.8945821" lon="17.7043911">
        <ele>32.8223</ele>
        <time>2013-05-07T16:04:48Z</time>
      </trkpt>
      <trkpt lat="59.8946587" lon="17.7044921">
        <ele>32.8223</ele>
        <time>2013-05-07T16:04:49Z</time>
      </trkpt>
      <trkpt lat="59.894735" lon="17.7045936">
        <ele>32.3416</ele>
        <time>2013-05-07T16:04:50Z</time>
      </trkpt>
      <trkpt lat="59.8948098" lon="17.704698">
        <ele>32.3416</ele>
        <time>2013-05-07T16:04:51Z</time>
      </trkpt>
      <trkpt lat="59.8948843" lon="17.7048049">
        <ele>32.3416</ele>
        <time>2013-05-07T16:04:52Z</time>
      </trkpt>
      <trkpt lat="59.8949604" lon="17.7049123">
        <ele>32.3416</ele>
        <time>2013-05-07T16:04:53Z</time>
      </trkpt>
      <trkpt lat="59.8950366" lon="17.7050235">
        <ele>31.8607</ele>
        <time>2013-05-07T16:04:54Z</time>
      </trkpt>
      <trkpt lat="59.8951128" lon="17.7051396">
        <ele>31.8607</ele>
        <time>2013-05-07T16:04:55Z</time>
      </trkpt>
      <trkpt lat="59.8951918" lon="17.7052525">
        <ele>31.8607</ele>
        <time>2013-05-07T16:04:56Z</time>
      </trkpt>
      <trkpt lat="59.895275" lon="17.705354">
        <ele>31.8607</ele>
        <time>2013-05-07T16:04:57Z</time>
      </trkpt>
      <trkpt lat="59.8953603" lon="17.7054491">
        <ele>31.8607</ele>
        <time>2013-05-07T16:04:58Z</time>
      </trkpt>
      <trkpt lat="59.8954439" lon="17.7055468">
        <ele>31.8607</ele>
        <time>2013-05-07T16:04:59Z</time>
      </trkpt>
      <trkpt lat="59.8955249" lon="17.7056475">
        <ele>31.8607</ele>
        <time>2013-05-07T16:05:00Z</time>
      </trkpt>
      <trkpt lat="59.8956044" lon="17.7057489">
        <ele>31.8607</ele>
        <time>2013-05-07T16:05:01Z</time>
      </trkpt>
      <trkpt lat="59.895683" lon="17.7058515">
        <ele>31.8607</ele>
        <time>2013-05-07T16:05:02Z</time>
      </trkpt>
      <trkpt lat="59.8957608" lon="17.7059551">
        <ele>31.8607</ele>
        <time>2013-05-07T16:05:03Z</time>
      </trkpt>
      <trkpt lat="59.8958381" lon="17.7060587">
        <ele>31.8607</ele>
        <time>2013-05-07T16:05:04Z</time>
      </trkpt>
      <trkpt lat="59.8959146" lon="17.7061613">
        <ele>31.8607</ele>
        <time>2013-05-07T16:05:05Z</time>
      </trkpt>
      <trkpt lat="59.8959897" lon="17.7062621">
        <ele>31.8607</ele>
        <time>2013-05-07T16:05:06Z</time>
      </trkpt>
      <trkpt lat="59.8960641" lon="17.7063628">
        <ele>32.3416</ele>
        <time>2013-05-07T16:05:07Z</time>
      </trkpt>
      <trkpt lat="59.8961382" lon="17.7064634">
        <ele>32.3416</ele>
        <time>2013-05-07T16:05:08Z</time>
      </trkpt>
      <trkpt lat="59.8962126" lon="17.7065623">
        <ele>32.3416</ele>
        <time>2013-05-07T16:05:09Z</time>
      </trkpt>
      <trkpt lat="59.8962872" lon="17.7066602">
        <ele>32.3416</ele>
        <time>2013-05-07T16:05:10Z</time>
      </trkpt>
      <trkpt lat="59.8963622" lon="17.7067537">
        <ele>32.3416</ele>
        <time>2013-05-07T16:05:11Z</time>
      </trkpt>
      <trkpt lat="59.8964364" lon="17.7068491">
        <ele>32.3416</ele>
        <time>2013-05-07T16:05:12Z</time>
      </trkpt>
      <trkpt lat="59.8965099" lon="17.7069453">
        <ele>32.3416</ele>
        <time>2013-05-07T16:05:13Z</time>
      </trkpt>
      <trkpt lat="59.8965828" lon="17.7070414">
        <ele>32.3416</ele>
        <time>2013-05-07T16:05:14Z</time>
      </trkpt>
      <trkpt lat="59.896655" lon="17.7071377">
        <ele>31.8607</ele>
        <time>2013-05-07T16:05:15Z</time>
      </trkpt>
      <trkpt lat="59.8967275" lon="17.7072339">
        <ele>31.8607</ele>
        <time>2013-05-07T16:05:16Z</time>
      </trkpt>
      <trkpt lat="59.8968004" lon="17.7073287">
        <ele>31.8607</ele>
        <time>2013-05-07T16:05:17Z</time>
      </trkpt>
      <trkpt lat="59.8968723" lon="17.707425">
        <ele>31.8607</ele>
        <time>2013-05-07T16:05:18Z</time>
      </trkpt>
      <trkpt lat="59.8969437" lon="17.7075214">
        <ele>31.8607</ele>
        <time>2013-05-07T16:05:19Z</time>
      </trkpt>
      <trkpt lat="59.8970155" lon="17.7076127">
        <ele>31.3801</ele>
        <time>2013-05-07T16:05:20Z</time>
      </trkpt>
      <trkpt lat="59.8970879" lon="17.7077033">
        <ele>31.3801</ele>
        <time>2013-05-07T16:05:21Z</time>
      </trkpt>
      <trkpt lat="59.8971578" lon="17.7077991">
        <ele>31.3801</ele>
        <time>2013-05-07T16:05:22Z</time>
      </trkpt>
      <trkpt lat="59.8972268" lon="17.7078934">
        <ele>30.8995</ele>
        <time>2013-05-07T16:05:23Z</time>
      </trkpt>
      <trkpt lat="59.8972937" lon="17.7079878">
        <ele>30.8995</ele>
        <time>2013-05-07T16:05:24Z</time>
      </trkpt>
      <trkpt lat="59.8973574" lon="17.7080855">
        <ele>30.8995</ele>
        <time>2013-05-07T16:05:25Z</time>
      </trkpt>
      <trkpt lat="59.8974179" lon="17.7081865">
        <ele>30.8995</ele>
        <time>2013-05-07T16:05:26Z</time>
      </trkpt>
      <trkpt lat="59.8974764" lon="17.7082881">
        <ele>30.8995</ele>
        <time>2013-05-07T16:05:27Z</time>
      </trkpt>
      <trkpt lat="59.8975374" lon="17.7083799">
        <ele>30.4188</ele>
        <time>2013-05-07T16:05:28Z</time>
      </trkpt>
      <trkpt lat="59.8976023" lon="17.7084621">
        <ele>30.4188</ele>
        <time>2013-05-07T16:05:29Z</time>
      </trkpt>
      <trkpt lat="59.8976702" lon="17.7085352">
        <ele>30.4188</ele>
        <time>2013-05-07T16:05:30Z</time>
      </trkpt>
      <trkpt lat="59.8977399" lon="17.7086032">
        <ele>29.9381</ele>
        <time>2013-05-07T16:05:31Z</time>
      </trkpt>
      <trkpt lat="59.8978082" lon="17.7086767">
        <ele>29.9381</ele>
        <time>2013-05-07T16:05:32Z</time>
      </trkpt>
      <trkpt lat="59.8978747" lon="17.7087568">
        <ele>29.4575</ele>
        <time>2013-05-07T16:05:33Z</time>
      </trkpt>
      <trkpt lat="59.8979406" lon="17.70884">
        <ele>29.4575</ele>
        <time>2013-05-07T16:05:34Z</time>
      </trkpt>
      <trkpt lat="59.8980062" lon="17.7089304">
        <ele>29.4575</ele>
        <time>2013-05-07T16:05:35Z</time>
      </trkpt>
      <trkpt lat="59.8980726" lon="17.7090182">
        <ele>29.9381</ele>
        <time>2013-05-07T16:05:36Z</time>
      </trkpt>
      <trkpt lat="59.89814" lon="17.7091045">
        <ele>29.9381</ele>
        <time>2013-05-07T16:05:37Z</time>
      </trkpt>
      <trkpt lat="59.898208" lon="17.7091925">
        <ele>29.9381</ele>
        <time>2013-05-07T16:05:38Z</time>
      </trkpt>
      <trkpt lat="59.8982773" lon="17.7092824">
        <ele>30.4188</ele>
        <time>2013-05-07T16:05:39Z</time>
      </trkpt>
      <trkpt lat="59.8983473" lon="17.7093744">
        <ele>30.4188</ele>
        <time>2013-05-07T16:05:40Z</time>
      </trkpt>
      <trkpt lat="59.898418" lon="17.709466">
        <ele>30.4188</ele>
        <time>2013-05-07T16:05:41Z</time>
      </trkpt>
      <trkpt lat="59.8984885" lon="17.7095605">
        <ele>30.4188</ele>
        <time>2013-05-07T16:05:42Z</time>
      </trkpt>
      <trkpt lat="59.8985597" lon="17.7096532">
        <ele>30.4188</ele>
        <time>2013-05-07T16:05:43Z</time>
      </trkpt>
      <trkpt lat="59.898632" lon="17.7097428">
        <ele>30.4188</ele>
        <time>2013-05-07T16:05:44Z</time>
      </trkpt>
      <trkpt lat="59.8987041" lon="17.7098308">
        <ele>30.4188</ele>
        <time>2013-05-07T16:05:45Z</time>
      </trkpt>
      <trkpt lat="59.8987761" lon="17.7099184">
        <ele>30.4188</ele>
        <time>2013-05-07T16:05:46Z</time>
      </trkpt>
      <trkpt lat="59.8988471" lon="17.7100059">
        <ele>30.4188</ele>
        <time>2013-05-07T16:05:47Z</time>
      </trkpt>
      <trkpt lat="59.8989165" lon="17.710095">
        <ele>30.4188</ele>
        <time>2013-05-07T16:05:48Z</time>
      </trkpt>
      <trkpt lat="59.8989859" lon="17.7101845">
        <ele>30.4188</ele>
        <time>2013-05-07T16:05:49Z</time>
      </trkpt>
      <trkpt lat="59.8990543" lon="17.7102769">
        <ele>30.4188</ele>
        <time>2013-05-07T16:05:50Z</time>
      </trkpt>
      <trkpt lat="59.8991228" lon="17.7103671">
        <ele>30.4188</ele>
        <time>2013-05-07T16:05:51Z</time>
      </trkpt>
      <trkpt lat="59.8991922" lon="17.7104541">
        <ele>30.8995</ele>
        <time>2013-05-07T16:05:52Z</time>
      </trkpt>
      <trkpt lat="59.8992615" lon="17.7105408">
        <ele>30.8995</ele>
        <time>2013-05-07T16:05:53Z</time>
      </trkpt>
      <trkpt lat="59.8993309" lon="17.7106276">
        <ele>30.8995</ele>
        <time>2013-05-07T16:05:54Z</time>
      </trkpt>
      <trkpt lat="59.8994001" lon="17.710715">
        <ele>30.8995</ele>
        <time>2013-05-07T16:05:55Z</time>
      </trkpt>
      <trkpt lat="59.8994696" lon="17.7108002">
        <ele>30.8995</ele>
        <time>2013-05-07T16:05:56Z</time>
      </trkpt>
      <trkpt lat="59.8995394" lon="17.7108836">
        <ele>31.3801</ele>
        <time>2013-05-07T16:05:57Z</time>
      </trkpt>
      <trkpt lat="59.8996097" lon="17.7109656">
        <ele>31.3801</ele>
        <time>2013-05-07T16:05:58Z</time>
      </trkpt>
      <trkpt lat="59.8996801" lon="17.711047">
        <ele>31.3801</ele>
        <time>2013-05-07T16:05:59Z</time>
      </trkpt>
      <trkpt lat="59.899751" lon="17.7111274">
        <ele>31.3801</ele>
        <time>2013-05-07T16:06:00Z</time>
      </trkpt>
      <trkpt lat="59.8998213" lon="17.7112113">
        <ele>31.3801</ele>
        <time>2013-05-07T16:06:01Z</time>
      </trkpt>
      <trkpt lat="59.8998918" lon="17.7112943">
        <ele>31.3801</ele>
        <time>2013-05-07T16:06:02Z</time>
      </trkpt>
      <trkpt lat="59.8999619" lon="17.7113781">
        <ele>31.8607</ele>
        <time>2013-05-07T16:06:03Z</time>
      </trkpt>
      <trkpt lat="59.9000324" lon="17.7114621">
        <ele>31.8607</ele>
        <time>2013-05-07T16:06:04Z</time>
      </trkpt>
      <trkpt lat="59.9001038" lon="17.7115444">
        <ele>31.8607</ele>
        <time>2013-05-07T16:06:05Z</time>
      </trkpt>
      <trkpt lat="59.9001748" lon="17.711623">
        <ele>31.8607</ele>
        <time>2013-05-07T16:06:06Z</time>
      </trkpt>
      <trkpt lat="59.9002441" lon="17.7116999">
        <ele>31.8607</ele>
        <time>2013-05-07T16:06:07Z</time>
      </trkpt>
      <trkpt lat="59.900311" lon="17.7117774">
        <ele>31.8607</ele>
        <time>2013-05-07T16:06:08Z</time>
      </trkpt>
      <trkpt lat="59.9003761" lon="17.7118547">
        <ele>32.3416</ele>
        <time>2013-05-07T16:06:09Z</time>
      </trkpt>
      <trkpt lat="59.9004379" lon="17.7119345">
        <ele>31.8607</ele>
        <time>2013-05-07T16:06:10Z</time>
      </trkpt>
      <trkpt lat="59.9004999" lon="17.7120096">
        <ele>31.8607</ele>
        <time>2013-05-07T16:06:11Z</time>
      </trkpt>
      <trkpt lat="59.9005617" lon="17.7120824">
        <ele>31.8607</ele>
        <time>2013-05-07T16:06:12Z</time>
      </trkpt>
      <trkpt lat="59.9006233" lon="17.7121553">
        <ele>31.8607</ele>
        <time>2013-05-07T16:06:13Z</time>
      </trkpt>
      <trkpt lat="59.9006845" lon="17.7122272">
        <ele>31.3801</ele>
        <time>2013-05-07T16:06:14Z</time>
      </trkpt>
      <trkpt lat="59.9007454" lon="17.7122971">
        <ele>31.3801</ele>
        <time>2013-05-07T16:06:15Z</time>
      </trkpt>
      <trkpt lat="59.9008055" lon="17.7123661">
        <ele>31.3801</ele>
        <time>2013-05-07T16:06:16Z</time>
      </trkpt>
      <trkpt lat="59.9008655" lon="17.7124327">
        <ele>31.3801</ele>
        <time>2013-05-07T16:06:17Z</time>
      </trkpt>
      <trkpt lat="59.9009264" lon="17.7124929">
        <ele>31.3801</ele>
        <time>2013-05-07T16:06:18Z</time>
      </trkpt>
      <trkpt lat="59.9009854" lon="17.7125447">
        <ele>30.8995</ele>
        <time>2013-05-07T16:06:19Z</time>
      </trkpt>
      <trkpt lat="59.9010332" lon="17.7126054">
        <ele>30.4188</ele>
        <time>2013-05-07T16:06:20Z</time>
      </trkpt>
      <trkpt lat="59.9010565" lon="17.7126569">
        <ele>30.8995</ele>
        <time>2013-05-07T16:06:21Z</time>
      </trkpt>
      <trkpt lat="59.9010372" lon="17.7127675">
        <ele>30.4188</ele>
        <time>2013-05-07T16:06:22Z</time>
      </trkpt>
      <trkpt lat="59.9010113" lon="17.712873">
        <ele>29.4575</ele>
        <time>2013-05-07T16:06:23Z</time>
      </trkpt>
      <trkpt lat="59.9009791" lon="17.7129665">
        <ele>28.9769</ele>
        <time>2013-05-07T16:06:24Z</time>
      </trkpt>
      <trkpt lat="59.9009398" lon="17.7130636">
        <ele>28.4962</ele>
        <time>2013-05-07T16:06:25Z</time>
      </trkpt>
      <trkpt lat="59.9009036" lon="17.7131701">
        <ele>28.0155</ele>
        <time>2013-05-07T16:06:26Z</time>
      </trkpt>
      <trkpt lat="59.9008661" lon="17.7132906">
        <ele>27.5349</ele>
        <time>2013-05-07T16:06:27Z</time>
      </trkpt>
      <trkpt lat="59.9008277" lon="17.7134163">
        <ele>27.5349</ele>
        <time>2013-05-07T16:06:28Z</time>
      </trkpt>
      <trkpt lat="59.9007874" lon="17.7135454">
        <ele>27.0543</ele>
        <time>2013-05-07T16:06:29Z</time>
      </trkpt>
      <trkpt lat="59.9007455" lon="17.7136681">
        <ele>27.0543</ele>
        <time>2013-05-07T16:06:30Z</time>
      </trkpt>
      <trkpt lat="59.9007036" lon="17.7137936">
        <ele>26.5736</ele>
        <time>2013-05-07T16:06:31Z</time>
      </trkpt>
      <trkpt lat="59.9006611" lon="17.7139209">
        <ele>26.5736</ele>
        <time>2013-05-07T16:06:32Z</time>
      </trkpt>
      <trkpt lat="59.9006185" lon="17.7140548">
        <ele>26.0929</ele>
        <time>2013-05-07T16:06:33Z</time>
      </trkpt>
      <trkpt lat="59.9005767" lon="17.7141873">
        <ele>26.0929</ele>
        <time>2013-05-07T16:06:34Z</time>
      </trkpt>
      <trkpt lat="59.9005357" lon="17.7143205">
        <ele>26.0929</ele>
        <time>2013-05-07T16:06:35Z</time>
      </trkpt>
      <trkpt lat="59.9004953" lon="17.7144547">
        <ele>26.0929</ele>
        <time>2013-05-07T16:06:36Z</time>
      </trkpt>
      <trkpt lat="59.9004548" lon="17.7145829">
        <ele>26.0929</ele>
        <time>2013-05-07T16:06:37Z</time>
      </trkpt>
      <trkpt lat="59.9004154" lon="17.7147119">
        <ele>26.0929</ele>
        <time>2013-05-07T16:06:38Z</time>
      </trkpt>
      <trkpt lat="59.9003772" lon="17.7148436">
        <ele>26.0929</ele>
        <time>2013-05-07T16:06:39Z</time>
      </trkpt>
      <trkpt lat="59.9003416" lon="17.7149781">
        <ele>25.6123</ele>
        <time>2013-05-07T16:06:40Z</time>
      </trkpt>
      <trkpt lat="59.9003076" lon="17.7151154">
        <ele>25.6123</ele>
        <time>2013-05-07T16:06:41Z</time>
      </trkpt>
      <trkpt lat="59.9002747" lon="17.7152586">
        <ele>25.6123</ele>
        <time>2013-05-07T16:06:42Z</time>
      </trkpt>
      <trkpt lat="59.9002424" lon="17.7154053">
        <ele>25.1317</ele>
        <time>2013-05-07T16:06:43Z</time>
      </trkpt>
      <trkpt lat="59.9002113" lon="17.7155562">
        <ele>25.1317</ele>
        <time>2013-05-07T16:06:44Z</time>
      </trkpt>
      <trkpt lat="59.9001815" lon="17.7157097">
        <ele>25.1317</ele>
        <time>2013-05-07T16:06:45Z</time>
      </trkpt>
      <trkpt lat="59.9001538" lon="17.7158605">
        <ele>24.1703</ele>
        <time>2013-05-07T16:06:46Z</time>
      </trkpt>
      <trkpt lat="59.9001303" lon="17.7160149">
        <ele>23.6896</ele>
        <time>2013-05-07T16:06:47Z</time>
      </trkpt>
      <trkpt lat="59.900112" lon="17.7161753">
        <ele>23.209</ele>
        <time>2013-05-07T16:06:48Z</time>
      </trkpt>
      <trkpt lat="59.9000991" lon="17.7163384">
        <ele>22.7283</ele>
        <time>2013-05-07T16:06:49Z</time>
      </trkpt>
      <trkpt lat="59.9000877" lon="17.7165028">
        <ele>21.767</ele>
        <time>2013-05-07T16:06:50Z</time>
      </trkpt>
      <trkpt lat="59.9000773" lon="17.716667">
        <ele>21.2864</ele>
        <time>2013-05-07T16:06:51Z</time>
      </trkpt>
      <trkpt lat="59.9000674" lon="17.7168316">
        <ele>20.8057</ele>
        <time>2013-05-07T16:06:52Z</time>
      </trkpt>
      <trkpt lat="59.9000567" lon="17.716996">
        <ele>20.8057</ele>
        <time>2013-05-07T16:06:53Z</time>
      </trkpt>
      <trkpt lat="59.9000456" lon="17.7171612">
        <ele>20.325</ele>
        <time>2013-05-07T16:06:54Z</time>
      </trkpt>
      <trkpt lat="59.9000348" lon="17.7173263">
        <ele>20.325</ele>
        <time>2013-05-07T16:06:55Z</time>
      </trkpt>
      <trkpt lat="59.9000225" lon="17.7174897">
        <ele>20.325</ele>
        <time>2013-05-07T16:06:56Z</time>
      </trkpt>
      <trkpt lat="59.9000069" lon="17.7176481">
        <ele>20.325</ele>
        <time>2013-05-07T16:06:57Z</time>
      </trkpt>
      <trkpt lat="59.899986" lon="17.7177909">
        <ele>19.8444</ele>
        <time>2013-05-07T16:06:58Z</time>
      </trkpt>
      <trkpt lat="59.8999601" lon="17.7179211">
        <ele>19.3638</ele>
        <time>2013-05-07T16:06:59Z</time>
      </trkpt>
      <trkpt lat="59.8999333" lon="17.7180448">
        <ele>19.3638</ele>
        <time>2013-05-07T16:07:00Z</time>
      </trkpt>
      <trkpt lat="59.8999078" lon="17.7181546">
        <ele>20.325</ele>
        <time>2013-05-07T16:07:01Z</time>
      </trkpt>
      <trkpt lat="59.8998835" lon="17.7182651">
        <ele>21.2864</ele>
        <time>2013-05-07T16:07:02Z</time>
      </trkpt>
      <trkpt lat="59.8998525" lon="17.7183773">
        <ele>20.8057</ele>
        <time>2013-05-07T16:07:03Z</time>
      </trkpt>
      <trkpt lat="59.8998178" lon="17.7184903">
        <ele>20.325</ele>
        <time>2013-05-07T16:07:04Z</time>
      </trkpt>
      <trkpt lat="59.8997816" lon="17.718598">
        <ele>19.8444</ele>
        <time>2013-05-07T16:07:05Z</time>
      </trkpt>
      <trkpt lat="59.8997447" lon="17.7187064">
        <ele>20.325</ele>
        <time>2013-05-07T16:07:06Z</time>
      </trkpt>
      <trkpt lat="59.899709" lon="17.718812">
        <ele>20.325</ele>
        <time>2013-05-07T16:07:07Z</time>
      </trkpt>
      <trkpt lat="59.8996748" lon="17.7189259">
        <ele>20.325</ele>
        <time>2013-05-07T16:07:08Z</time>
      </trkpt>
      <trkpt lat="59.899639" lon="17.7190452">
        <ele>20.325</ele>
        <time>2013-05-07T16:07:09Z</time>
      </trkpt>
      <trkpt lat="59.8996042" lon="17.7191742">
        <ele>19.8444</ele>
        <time>2013-05-07T16:07:10Z</time>
      </trkpt>
      <trkpt lat="59.8995728" lon="17.7193051">
        <ele>19.8444</ele>
        <time>2013-05-07T16:07:11Z</time>
      </trkpt>
      <trkpt lat="59.8995436" lon="17.719438">
        <ele>20.325</ele>
        <time>2013-05-07T16:07:12Z</time>
      </trkpt>
      <trkpt lat="59.8995154" lon="17.7195679">
        <ele>20.325</ele>
        <time>2013-05-07T16:07:13Z</time>
      </trkpt>
      <trkpt lat="59.8994869" lon="17.7196978">
        <ele>20.325</ele>
        <time>2013-05-07T16:07:14Z</time>
      </trkpt>
      <trkpt lat="59.8994584" lon="17.719828">
        <ele>20.325</ele>
        <time>2013-05-07T16:07:15Z</time>
      </trkpt>
      <trkpt lat="59.8994314" lon="17.7199569">
        <ele>20.325</ele>
        <time>2013-05-07T16:07:16Z</time>
      </trkpt>
      <trkpt lat="59.8994089" lon="17.7200844">
        <ele>20.325</ele>
        <time>2013-05-07T16:07:17Z</time>
      </trkpt>
      <trkpt lat="59.8993903" lon="17.7202101">
        <ele>20.325</ele>
        <time>2013-05-07T16:07:18Z</time>
      </trkpt>
      <trkpt lat="59.8993711" lon="17.7203294">
        <ele>20.325</ele>
        <time>2013-05-07T16:07:19Z</time>
      </trkpt>
      <trkpt lat="59.89935" lon="17.7204326">
        <ele>20.325</ele>
        <time>2013-05-07T16:07:20Z</time>
      </trkpt>
      <trkpt lat="59.8993361" lon="17.7205194">
        <ele>20.325</ele>
        <time>2013-05-07T16:07:21Z</time>
      </trkpt>
      <trkpt lat="59.8993385" lon="17.720592">
        <ele>20.325</ele>
        <time>2013-05-07T16:07:22Z</time>
      </trkpt>
      <trkpt lat="59.8993484" lon="17.7206581">
        <ele>20.325</ele>
        <time>2013-05-07T16:07:23Z</time>
      </trkpt>
      <trkpt lat="59.8993618" lon="17.7207169">
        <ele>20.325</ele>
        <time>2013-05-07T16:07:24Z</time>
      </trkpt>
      <trkpt lat="59.8993811" lon="17.7207624">
        <ele>20.325</ele>
        <time>2013-05-07T16:07:25Z</time>
      </trkpt>
      <trkpt lat="59.8993967" lon="17.7208045">
        <ele>20.325</ele>
        <time>2013-05-07T16:07:26Z</time>
      </trkpt>
      <trkpt lat="59.8994149" lon="17.7208338">
        <ele>20.325</ele>
        <time>2013-05-07T16:07:27Z</time>
      </trkpt>
      <trkpt lat="59.8994305" lon="17.7208558">
        <ele>21.767</ele>
        <time>2013-05-07T16:07:28Z</time>
      </trkpt>
      <trkpt lat="59.8994429" lon="17.7208763">
        <ele>21.2864</ele>
        <time>2013-05-07T16:07:29Z</time>
      </trkpt>
      <trkpt lat="59.8994499" lon="17.7208829">
        <ele>21.2864</ele>
        <time>2013-05-07T16:07:30Z</time>
      </trkpt>
      <trkpt lat="59.8994548" lon="17.7208848">
        <ele>21.767</ele>
        <time>2013-05-07T16:07:31Z</time>
      </trkpt>
      <trkpt lat="59.8994568" lon="17.7208893">
        <ele>21.767</ele>
        <time>2013-05-07T16:07:32Z</time>
      </trkpt>
      <trkpt lat="59.8994592" lon="17.7208935">
        <ele>22.2476</ele>
        <time>2013-05-07T16:07:33Z</time>
      </trkpt>
      <trkpt lat="59.8994346" lon="17.7199994">
        <ele>19.3638</ele>
        <time>2013-05-07T16:34:33Z</time>
      </trkpt>
      <trkpt lat="59.8994475" lon="17.7199329">
        <ele>19.8444</ele>
        <time>2013-05-07T16:34:34Z</time>
      </trkpt>
      <trkpt lat="59.8994583" lon="17.7198765">
        <ele>19.3638</ele>
        <time>2013-05-07T16:34:35Z</time>
      </trkpt>
      <trkpt lat="59.8994705" lon="17.7198166">
        <ele>19.8444</ele>
        <time>2013-05-07T16:34:36Z</time>
      </trkpt>
      <trkpt lat="59.8994842" lon="17.719757">
        <ele>19.8444</ele>
        <time>2013-05-07T16:34:37Z</time>
      </trkpt>
      <trkpt lat="59.8994986" lon="17.7196958">
        <ele>20.8057</ele>
        <time>2013-05-07T16:34:38Z</time>
      </trkpt>
      <trkpt lat="59.8995113" lon="17.7196299">
        <ele>20.8057</ele>
        <time>2013-05-07T16:34:39Z</time>
      </trkpt>
      <trkpt lat="59.8995236" lon="17.7195573">
        <ele>20.8057</ele>
        <time>2013-05-07T16:34:40Z</time>
      </trkpt>
      <trkpt lat="59.8995372" lon="17.7194869">
        <ele>20.325</ele>
        <time>2013-05-07T16:34:41Z</time>
      </trkpt>
      <trkpt lat="59.8995545" lon="17.7194115">
        <ele>20.325</ele>
        <time>2013-05-07T16:34:42Z</time>
      </trkpt>
      <trkpt lat="59.8995785" lon="17.7193336">
        <ele>20.8057</ele>
        <time>2013-05-07T16:34:43Z</time>
      </trkpt>
      <trkpt lat="59.8996014" lon="17.7192519">
        <ele>20.8057</ele>
        <time>2013-05-07T16:34:44Z</time>
      </trkpt>
      <trkpt lat="59.8996241" lon="17.7191752">
        <ele>20.8057</ele>
        <time>2013-05-07T16:34:45Z</time>
      </trkpt>
      <trkpt lat="59.8996428" lon="17.7191012">
        <ele>20.8057</ele>
        <time>2013-05-07T16:34:46Z</time>
      </trkpt>
      <trkpt lat="59.8996622" lon="17.7190266">
        <ele>20.8057</ele>
        <time>2013-05-07T16:34:47Z</time>
      </trkpt>
      <trkpt lat="59.899684" lon="17.718954">
        <ele>20.8057</ele>
        <time>2013-05-07T16:34:48Z</time>
      </trkpt>
      <trkpt lat="59.8997063" lon="17.718879">
        <ele>21.2864</ele>
        <time>2013-05-07T16:34:49Z</time>
      </trkpt>
      <trkpt lat="59.8997268" lon="17.7188058">
        <ele>21.2864</ele>
        <time>2013-05-07T16:34:50Z</time>
      </trkpt>
      <trkpt lat="59.8997478" lon="17.7187344">
        <ele>21.767</ele>
        <time>2013-05-07T16:34:51Z</time>
      </trkpt>
      <trkpt lat="59.899769" lon="17.7186615">
        <ele>21.767</ele>
        <time>2013-05-07T16:34:52Z</time>
      </trkpt>
      <trkpt lat="59.8997905" lon="17.7185939">
        <ele>22.2476</ele>
        <time>2013-05-07T16:34:53Z</time>
      </trkpt>
      <trkpt lat="59.8998137" lon="17.7185298">
        <ele>22.2476</ele>
        <time>2013-05-07T16:34:54Z</time>
      </trkpt>
      <trkpt lat="59.8998385" lon="17.7184617">
        <ele>22.2476</ele>
        <time>2013-05-07T16:34:55Z</time>
      </trkpt>
      <trkpt lat="59.8998629" lon="17.7183905">
        <ele>22.2476</ele>
        <time>2013-05-07T16:34:56Z</time>
      </trkpt>
      <trkpt lat="59.8998873" lon="17.7183174">
        <ele>22.2476</ele>
        <time>2013-05-07T16:34:57Z</time>
      </trkpt>
      <trkpt lat="59.8999125" lon="17.7182396">
        <ele>22.2476</ele>
        <time>2013-05-07T16:34:58Z</time>
      </trkpt>
      <trkpt lat="59.8999381" lon="17.7181557">
        <ele>22.2476</ele>
        <time>2013-05-07T16:34:59Z</time>
      </trkpt>
      <trkpt lat="59.8999598" lon="17.7180789">
        <ele>21.767</ele>
        <time>2013-05-07T16:35:00Z</time>
      </trkpt>
      <trkpt lat="59.8999748" lon="17.7179785">
        <ele>21.767</ele>
        <time>2013-05-07T16:35:01Z</time>
      </trkpt>
      <trkpt lat="59.8999937" lon="17.7178862">
        <ele>21.767</ele>
        <time>2013-05-07T16:35:02Z</time>
      </trkpt>
      <trkpt lat="59.9000151" lon="17.7177961">
        <ele>21.767</ele>
        <time>2013-05-07T16:35:03Z</time>
      </trkpt>
      <trkpt lat="59.9000317" lon="17.7177028">
        <ele>21.767</ele>
        <time>2013-05-07T16:35:04Z</time>
      </trkpt>
      <trkpt lat="59.900045" lon="17.7176078">
        <ele>21.767</ele>
        <time>2013-05-07T16:35:05Z</time>
      </trkpt>
      <trkpt lat="59.9000545" lon="17.7175146">
        <ele>21.767</ele>
        <time>2013-05-07T16:35:06Z</time>
      </trkpt>
      <trkpt lat="59.9000598" lon="17.7174253">
        <ele>21.2864</ele>
        <time>2013-05-07T16:35:07Z</time>
      </trkpt>
      <trkpt lat="59.9000652" lon="17.7173379">
        <ele>21.2864</ele>
        <time>2013-05-07T16:35:08Z</time>
      </trkpt>
      <trkpt lat="59.9000701" lon="17.7172515">
        <ele>21.2864</ele>
        <time>2013-05-07T16:35:09Z</time>
      </trkpt>
      <trkpt lat="59.9000727" lon="17.7171674">
        <ele>21.2864</ele>
        <time>2013-05-07T16:35:10Z</time>
      </trkpt>
      <trkpt lat="59.9000764" lon="17.7170851">
        <ele>21.2864</ele>
        <time>2013-05-07T16:35:11Z</time>
      </trkpt>
      <trkpt lat="59.900083" lon="17.717002">
        <ele>21.2864</ele>
        <time>2013-05-07T16:35:12Z</time>
      </trkpt>
      <trkpt lat="59.9000901" lon="17.7169166">
        <ele>21.2864</ele>
        <time>2013-05-07T16:35:13Z</time>
      </trkpt>
      <trkpt lat="59.9000959" lon="17.7168293">
        <ele>21.2864</ele>
        <time>2013-05-07T16:35:14Z</time>
      </trkpt>
      <trkpt lat="59.9001011" lon="17.7167437">
        <ele>21.767</ele>
        <time>2013-05-07T16:35:15Z</time>
      </trkpt>
      <trkpt lat="59.9001069" lon="17.7166614">
        <ele>21.767</ele>
        <time>2013-05-07T16:35:16Z</time>
      </trkpt>
      <trkpt lat="59.9001126" lon="17.7165804">
        <ele>21.767</ele>
        <time>2013-05-07T16:35:17Z</time>
      </trkpt>
      <trkpt lat="59.9001181" lon="17.7164991">
        <ele>21.767</ele>
        <time>2013-05-07T16:35:18Z</time>
      </trkpt>
      <trkpt lat="59.9001236" lon="17.716418">
        <ele>21.767</ele>
        <time>2013-05-07T16:35:19Z</time>
      </trkpt>
      <trkpt lat="59.9001305" lon="17.7163379">
        <ele>22.2476</ele>
        <time>2013-05-07T16:35:20Z</time>
      </trkpt>
      <trkpt lat="59.900138" lon="17.7162598">
        <ele>22.2476</ele>
        <time>2013-05-07T16:35:21Z</time>
      </trkpt>
      <trkpt lat="59.9001458" lon="17.716183">
        <ele>22.2476</ele>
        <time>2013-05-07T16:35:22Z</time>
      </trkpt>
      <trkpt lat="59.900154" lon="17.7161048">
        <ele>22.2476</ele>
        <time>2013-05-07T16:35:23Z</time>
      </trkpt>
      <trkpt lat="59.9001642" lon="17.7160288">
        <ele>22.2476</ele>
        <time>2013-05-07T16:35:24Z</time>
      </trkpt>
      <trkpt lat="59.9001746" lon="17.7159522">
        <ele>22.7283</ele>
        <time>2013-05-07T16:35:25Z</time>
      </trkpt>
      <trkpt lat="59.9001852" lon="17.7158748">
        <ele>22.7283</ele>
        <time>2013-05-07T16:35:26Z</time>
      </trkpt>
      <trkpt lat="59.900198" lon="17.7157962">
        <ele>22.7283</ele>
        <time>2013-05-07T16:35:27Z</time>
      </trkpt>
      <trkpt lat="59.9002119" lon="17.715716">
        <ele>22.7283</ele>
        <time>2013-05-07T16:35:28Z</time>
      </trkpt>
      <trkpt lat="59.900226" lon="17.7156347">
        <ele>22.7283</ele>
        <time>2013-05-07T16:35:29Z</time>
      </trkpt>
      <trkpt lat="59.9002416" lon="17.7155505">
        <ele>22.7283</ele>
        <time>2013-05-07T16:35:30Z</time>
      </trkpt>
      <trkpt lat="59.9002592" lon="17.7154654">
        <ele>22.7283</ele>
        <time>2013-05-07T16:35:31Z</time>
      </trkpt>
      <trkpt lat="59.9002771" lon="17.7153828">
        <ele>23.209</ele>
        <time>2013-05-07T16:35:32Z</time>
      </trkpt>
      <trkpt lat="59.9002952" lon="17.7153014">
        <ele>23.209</ele>
        <time>2013-05-07T16:35:33Z</time>
      </trkpt>
      <trkpt lat="59.900313" lon="17.7152171">
        <ele>23.209</ele>
        <time>2013-05-07T16:35:34Z</time>
      </trkpt>
      <trkpt lat="59.9003313" lon="17.7151332">
        <ele>23.209</ele>
        <time>2013-05-07T16:35:35Z</time>
      </trkpt>
      <trkpt lat="59.9003507" lon="17.7150508">
        <ele>23.209</ele>
        <time>2013-05-07T16:35:36Z</time>
      </trkpt>
      <trkpt lat="59.90037" lon="17.7149648">
        <ele>23.209</ele>
        <time>2013-05-07T16:35:37Z</time>
      </trkpt>
      <trkpt lat="59.9003892" lon="17.7148799">
        <ele>23.209</ele>
        <time>2013-05-07T16:35:38Z</time>
      </trkpt>
      <trkpt lat="59.9004089" lon="17.7148002">
        <ele>23.209</ele>
        <time>2013-05-07T16:35:39Z</time>
      </trkpt>
      <trkpt lat="59.900429" lon="17.7147225">
        <ele>23.6896</ele>
        <time>2013-05-07T16:35:40Z</time>
      </trkpt>
      <trkpt lat="59.9004489" lon="17.7146469">
        <ele>23.6896</ele>
        <time>2013-05-07T16:35:41Z</time>
      </trkpt>
      <trkpt lat="59.9004701" lon="17.7145748">
        <ele>23.6896</ele>
        <time>2013-05-07T16:35:42Z</time>
      </trkpt>
      <trkpt lat="59.9004923" lon="17.7145043">
        <ele>23.6896</ele>
        <time>2013-05-07T16:35:43Z</time>
      </trkpt>
      <trkpt lat="59.900515" lon="17.7144326">
        <ele>23.6896</ele>
        <time>2013-05-07T16:35:44Z</time>
      </trkpt>
      <trkpt lat="59.9005385" lon="17.7143581">
        <ele>23.6896</ele>
        <time>2013-05-07T16:35:45Z</time>
      </trkpt>
      <trkpt lat="59.9005632" lon="17.7142814">
        <ele>23.6896</ele>
        <time>2013-05-07T16:35:46Z</time>
      </trkpt>
      <trkpt lat="59.9005876" lon="17.7142049">
        <ele>23.6896</ele>
        <time>2013-05-07T16:35:47Z</time>
      </trkpt>
      <trkpt lat="59.9006126" lon="17.7141302">
        <ele>23.6896</ele>
        <time>2013-05-07T16:35:48Z</time>
      </trkpt>
      <trkpt lat="59.9006373" lon="17.7140563">
        <ele>23.6896</ele>
        <time>2013-05-07T16:35:49Z</time>
      </trkpt>
      <trkpt lat="59.9006604" lon="17.7139832">
        <ele>23.6896</ele>
        <time>2013-05-07T16:35:50Z</time>
      </trkpt>
      <trkpt lat="59.9006835" lon="17.7139116">
        <ele>23.6896</ele>
        <time>2013-05-07T16:35:51Z</time>
      </trkpt>
      <trkpt lat="59.9007062" lon="17.7138392">
        <ele>23.6896</ele>
        <time>2013-05-07T16:35:52Z</time>
      </trkpt>
      <trkpt lat="59.9007298" lon="17.7137657">
        <ele>23.6896</ele>
        <time>2013-05-07T16:35:53Z</time>
      </trkpt>
      <trkpt lat="59.9007528" lon="17.7136911">
        <ele>24.1703</ele>
        <time>2013-05-07T16:35:54Z</time>
      </trkpt>
      <trkpt lat="59.9007737" lon="17.7136157">
        <ele>24.1703</ele>
        <time>2013-05-07T16:35:55Z</time>
      </trkpt>
      <trkpt lat="59.9007947" lon="17.713545">
        <ele>24.1703</ele>
        <time>2013-05-07T16:35:56Z</time>
      </trkpt>
      <trkpt lat="59.9008172" lon="17.7134761">
        <ele>24.1703</ele>
        <time>2013-05-07T16:35:57Z</time>
      </trkpt>
      <trkpt lat="59.9008399" lon="17.7134072">
        <ele>24.651</ele>
        <time>2013-05-07T16:35:58Z</time>
      </trkpt>
      <trkpt lat="59.9008605" lon="17.7133384">
        <ele>24.651</ele>
        <time>2013-05-07T16:35:59Z</time>
      </trkpt>
      <trkpt lat="59.9008801" lon="17.7132711">
        <ele>24.651</ele>
        <time>2013-05-07T16:36:00Z</time>
      </trkpt>
      <trkpt lat="59.9008995" lon="17.7132066">
        <ele>25.1317</ele>
        <time>2013-05-07T16:36:01Z</time>
      </trkpt>
      <trkpt lat="59.9009155" lon="17.7131404">
        <ele>25.1317</ele>
        <time>2013-05-07T16:36:02Z</time>
      </trkpt>
      <trkpt lat="59.9009289" lon="17.7130705">
        <ele>25.1317</ele>
        <time>2013-05-07T16:36:03Z</time>
      </trkpt>
      <trkpt lat="59.9009419" lon="17.7129988">
        <ele>25.6123</ele>
        <time>2013-05-07T16:36:04Z</time>
      </trkpt>
      <trkpt lat="59.9009563" lon="17.7129292">
        <ele>25.6123</ele>
        <time>2013-05-07T16:36:05Z</time>
      </trkpt>
      <trkpt lat="59.9009714" lon="17.7128657">
        <ele>25.6123</ele>
        <time>2013-05-07T16:36:06Z</time>
      </trkpt>
      <trkpt lat="59.9009842" lon="17.7128063">
        <ele>25.6123</ele>
        <time>2013-05-07T16:36:07Z</time>
      </trkpt>
      <trkpt lat="59.9009953" lon="17.7127508">
        <ele>25.6123</ele>
        <time>2013-05-07T16:36:08Z</time>
      </trkpt>
      <trkpt lat="59.9009985" lon="17.7126943">
        <ele>25.6123</ele>
        <time>2013-05-07T16:36:09Z</time>
      </trkpt>
      <trkpt lat="59.9009854" lon="17.712638">
        <ele>25.6123</ele>
        <time>2013-05-07T16:36:10Z</time>
      </trkpt>
      <trkpt lat="59.900959" lon="17.7125938">
        <ele>26.0929</ele>
        <time>2013-05-07T16:36:11Z</time>
      </trkpt>
      <trkpt lat="59.9009267" lon="17.7125544">
        <ele>26.0929</ele>
        <time>2013-05-07T16:36:12Z</time>
      </trkpt>
      <trkpt lat="59.9008911" lon="17.7125145">
        <ele>26.0929</ele>
        <time>2013-05-07T16:36:13Z</time>
      </trkpt>
      <trkpt lat="59.9008547" lon="17.7124733">
        <ele>26.0929</ele>
        <time>2013-05-07T16:36:14Z</time>
      </trkpt>
      <trkpt lat="59.9008177" lon="17.7124307">
        <ele>26.0929</ele>
        <time>2013-05-07T16:36:15Z</time>
      </trkpt>
      <trkpt lat="59.9007786" lon="17.7123909">
        <ele>26.0929</ele>
        <time>2013-05-07T16:36:16Z</time>
      </trkpt>
      <trkpt lat="59.9007376" lon="17.7123494">
        <ele>26.0929</ele>
        <time>2013-05-07T16:36:17Z</time>
      </trkpt>
      <trkpt lat="59.9006967" lon="17.7123014">
        <ele>26.0929</ele>
        <time>2013-05-07T16:36:18Z</time>
      </trkpt>
      <trkpt lat="59.9006545" lon="17.7122506">
        <ele>26.0929</ele>
        <time>2013-05-07T16:36:19Z</time>
      </trkpt>
      <trkpt lat="59.9006109" lon="17.7122006">
        <ele>26.0929</ele>
        <time>2013-05-07T16:36:20Z</time>
      </trkpt>
      <trkpt lat="59.900567" lon="17.7121524">
        <ele>26.0929</ele>
        <time>2013-05-07T16:36:21Z</time>
      </trkpt>
      <trkpt lat="59.9005232" lon="17.7121057">
        <ele>26.0929</ele>
        <time>2013-05-07T16:36:22Z</time>
      </trkpt>
      <trkpt lat="59.9004814" lon="17.7120578">
        <ele>26.0929</ele>
        <time>2013-05-07T16:36:23Z</time>
      </trkpt>
      <trkpt lat="59.9004404" lon="17.7120117">
        <ele>26.0929</ele>
        <time>2013-05-07T16:36:24Z</time>
      </trkpt>
      <trkpt lat="59.9004004" lon="17.7119666">
        <ele>26.0929</ele>
        <time>2013-05-07T16:36:25Z</time>
      </trkpt>
      <trkpt lat="59.9003607" lon="17.7119193">
        <ele>26.0929</ele>
        <time>2013-05-07T16:36:26Z</time>
      </trkpt>
      <trkpt lat="59.9003198" lon="17.7118718">
        <ele>26.0929</ele>
        <time>2013-05-07T16:36:27Z</time>
      </trkpt>
      <trkpt lat="59.9002774" lon="17.7118253">
        <ele>26.0929</ele>
        <time>2013-05-07T16:36:28Z</time>
      </trkpt>
      <trkpt lat="59.9002352" lon="17.7117786">
        <ele>26.0929</ele>
        <time>2013-05-07T16:36:29Z</time>
      </trkpt>
      <trkpt lat="59.9001937" lon="17.7117328">
        <ele>26.0929</ele>
        <time>2013-05-07T16:36:30Z</time>
      </trkpt>
      <trkpt lat="59.9001526" lon="17.7116901">
        <ele>26.0929</ele>
        <time>2013-05-07T16:36:31Z</time>
      </trkpt>
      <trkpt lat="59.9001134" lon="17.7116485">
        <ele>26.0929</ele>
        <time>2013-05-07T16:36:32Z</time>
      </trkpt>
      <trkpt lat="59.9000753" lon="17.7116064">
        <ele>26.0929</ele>
        <time>2013-05-07T16:36:33Z</time>
      </trkpt>
      <trkpt lat="59.9000373" lon="17.7115636">
        <ele>25.6123</ele>
        <time>2013-05-07T16:36:34Z</time>
      </trkpt>
      <trkpt lat="59.8999987" lon="17.7115171">
        <ele>25.6123</ele>
        <time>2013-05-07T16:36:35Z</time>
      </trkpt>
      <trkpt lat="59.8999598" lon="17.7114676">
        <ele>25.6123</ele>
        <time>2013-05-07T16:36:36Z</time>
      </trkpt>
      <trkpt lat="59.8999191" lon="17.7114179">
        <ele>25.6123</ele>
        <time>2013-05-07T16:36:37Z</time>
      </trkpt>
      <trkpt lat="59.8998764" lon="17.7113673">
        <ele>25.6123</ele>
        <time>2013-05-07T16:36:38Z</time>
      </trkpt>
      <trkpt lat="59.8998323" lon="17.7113135">
        <ele>25.6123</ele>
        <time>2013-05-07T16:36:39Z</time>
      </trkpt>
      <trkpt lat="59.8997865" lon="17.711259">
        <ele>25.6123</ele>
        <time>2013-05-07T16:36:40Z</time>
      </trkpt>
      <trkpt lat="59.8997395" lon="17.7112056">
        <ele>25.6123</ele>
        <time>2013-05-07T16:36:41Z</time>
      </trkpt>
      <trkpt lat="59.8996938" lon="17.7111505">
        <ele>25.6123</ele>
        <time>2013-05-07T16:36:42Z</time>
      </trkpt>
      <trkpt lat="59.89965" lon="17.7110954">
        <ele>25.6123</ele>
        <time>2013-05-07T16:36:43Z</time>
      </trkpt>
      <trkpt lat="59.8996059" lon="17.7110433">
        <ele>25.6123</ele>
        <time>2013-05-07T16:36:44Z</time>
      </trkpt>
      <trkpt lat="59.8995614" lon="17.7109922">
        <ele>25.6123</ele>
        <time>2013-05-07T16:36:45Z</time>
      </trkpt>
      <trkpt lat="59.8995179" lon="17.7109421">
        <ele>25.6123</ele>
        <time>2013-05-07T16:36:46Z</time>
      </trkpt>
      <trkpt lat="59.8994752" lon="17.7108928">
        <ele>25.6123</ele>
        <time>2013-05-07T16:36:47Z</time>
      </trkpt>
      <trkpt lat="59.899433" lon="17.7108428">
        <ele>25.6123</ele>
        <time>2013-05-07T16:36:48Z</time>
      </trkpt>
      <trkpt lat="59.8993905" lon="17.7107918">
        <ele>25.6123</ele>
        <time>2013-05-07T16:36:49Z</time>
      </trkpt>
      <trkpt lat="59.8993479" lon="17.7107415">
        <ele>25.6123</ele>
        <time>2013-05-07T16:36:50Z</time>
      </trkpt>
      <trkpt lat="59.8993063" lon="17.7106907">
        <ele>25.6123</ele>
        <time>2013-05-07T16:36:51Z</time>
      </trkpt>
      <trkpt lat="59.8992656" lon="17.7106384">
        <ele>25.6123</ele>
        <time>2013-05-07T16:36:52Z</time>
      </trkpt>
      <trkpt lat="59.8992257" lon="17.7105886">
        <ele>25.6123</ele>
        <time>2013-05-07T16:36:53Z</time>
      </trkpt>
      <trkpt lat="59.8991873" lon="17.7105412">
        <ele>25.6123</ele>
        <time>2013-05-07T16:36:54Z</time>
      </trkpt>
      <trkpt lat="59.8991501" lon="17.7104923">
        <ele>25.6123</ele>
        <time>2013-05-07T16:36:55Z</time>
      </trkpt>
      <trkpt lat="59.8991134" lon="17.7104417">
        <ele>25.6123</ele>
        <time>2013-05-07T16:36:56Z</time>
      </trkpt>
      <trkpt lat="59.8990767" lon="17.7103933">
        <ele>25.6123</ele>
        <time>2013-05-07T16:36:57Z</time>
      </trkpt>
      <trkpt lat="59.8990392" lon="17.7103473">
        <ele>25.6123</ele>
        <time>2013-05-07T16:36:58Z</time>
      </trkpt>
      <trkpt lat="59.8990008" lon="17.710299">
        <ele>25.6123</ele>
        <time>2013-05-07T16:36:59Z</time>
      </trkpt>
      <trkpt lat="59.8989608" lon="17.7102466">
        <ele>25.1317</ele>
        <time>2013-05-07T16:37:00Z</time>
      </trkpt>
      <trkpt lat="59.8989217" lon="17.7101929">
        <ele>25.1317</ele>
        <time>2013-05-07T16:37:01Z</time>
      </trkpt>
      <trkpt lat="59.8988837" lon="17.7101399">
        <ele>25.1317</ele>
        <time>2013-05-07T16:37:02Z</time>
      </trkpt>
      <trkpt lat="59.8988456" lon="17.7100873">
        <ele>25.1317</ele>
        <time>2013-05-07T16:37:03Z</time>
      </trkpt>
      <trkpt lat="59.8988066" lon="17.710036">
        <ele>25.1317</ele>
        <time>2013-05-07T16:37:04Z</time>
      </trkpt>
      <trkpt lat="59.8987674" lon="17.7099858">
        <ele>25.1317</ele>
        <time>2013-05-07T16:37:05Z</time>
      </trkpt>
      <trkpt lat="59.8987286" lon="17.7099377">
        <ele>25.1317</ele>
        <time>2013-05-07T16:37:06Z</time>
      </trkpt>
      <trkpt lat="59.8986904" lon="17.7098923">
        <ele>25.1317</ele>
        <time>2013-05-07T16:37:07Z</time>
      </trkpt>
      <trkpt lat="59.8986529" lon="17.7098469">
        <ele>25.1317</ele>
        <time>2013-05-07T16:37:08Z</time>
      </trkpt>
      <trkpt lat="59.8986155" lon="17.7098001">
        <ele>24.651</ele>
        <time>2013-05-07T16:37:09Z</time>
      </trkpt>
      <trkpt lat="59.8985762" lon="17.7097509">
        <ele>24.651</ele>
        <time>2013-05-07T16:37:10Z</time>
      </trkpt>
      <trkpt lat="59.8985366" lon="17.7096998">
        <ele>24.651</ele>
        <time>2013-05-07T16:37:11Z</time>
      </trkpt>
      <trkpt lat="59.8984964" lon="17.7096479">
        <ele>24.651</ele>
        <time>2013-05-07T16:37:12Z</time>
      </trkpt>
      <trkpt lat="59.8984563" lon="17.7095949">
        <ele>24.651</ele>
        <time>2013-05-07T16:37:13Z</time>
      </trkpt>
      <trkpt lat="59.8984172" lon="17.7095421">
        <ele>24.651</ele>
        <time>2013-05-07T16:37:14Z</time>
      </trkpt>
      <trkpt lat="59.8983794" lon="17.70949">
        <ele>24.651</ele>
        <time>2013-05-07T16:37:15Z</time>
      </trkpt>
      <trkpt lat="59.8983408" lon="17.7094382">
        <ele>24.1703</ele>
        <time>2013-05-07T16:37:16Z</time>
      </trkpt>
      <trkpt lat="59.8983014" lon="17.7093874">
        <ele>24.1703</ele>
        <time>2013-05-07T16:37:17Z</time>
      </trkpt>
      <trkpt lat="59.8982628" lon="17.7093378">
        <ele>24.1703</ele>
        <time>2013-05-07T16:37:18Z</time>
      </trkpt>
      <trkpt lat="59.8982254" lon="17.7092904">
        <ele>24.1703</ele>
        <time>2013-05-07T16:37:19Z</time>
      </trkpt>
      <trkpt lat="59.8981876" lon="17.7092429">
        <ele>24.1703</ele>
        <time>2013-05-07T16:37:20Z</time>
      </trkpt>
      <trkpt lat="59.8981492" lon="17.7091931">
        <ele>24.1703</ele>
        <time>2013-05-07T16:37:21Z</time>
      </trkpt>
      <trkpt lat="59.8981111" lon="17.7091433">
        <ele>24.1703</ele>
        <time>2013-05-07T16:37:22Z</time>
      </trkpt>
      <trkpt lat="59.8980743" lon="17.7090938">
        <ele>24.1703</ele>
        <time>2013-05-07T16:37:23Z</time>
      </trkpt>
      <trkpt lat="59.8980374" lon="17.7090426">
        <ele>24.1703</ele>
        <time>2013-05-07T16:37:24Z</time>
      </trkpt>
      <trkpt lat="59.8979984" lon="17.7089901">
        <ele>24.1703</ele>
        <time>2013-05-07T16:37:25Z</time>
      </trkpt>
      <trkpt lat="59.897957" lon="17.7089368">
        <ele>24.1703</ele>
        <time>2013-05-07T16:37:26Z</time>
      </trkpt>
      <trkpt lat="59.8979151" lon="17.7088838">
        <ele>24.1703</ele>
        <time>2013-05-07T16:37:27Z</time>
      </trkpt>
      <trkpt lat="59.8978746" lon="17.7088306">
        <ele>24.1703</ele>
        <time>2013-05-07T16:37:28Z</time>
      </trkpt>
      <trkpt lat="59.8978349" lon="17.7087776">
        <ele>24.1703</ele>
        <time>2013-05-07T16:37:29Z</time>
      </trkpt>
      <trkpt lat="59.8977944" lon="17.7087265">
        <ele>24.1703</ele>
        <time>2013-05-07T16:37:30Z</time>
      </trkpt>
      <trkpt lat="59.8977525" lon="17.7086761">
        <ele>24.1703</ele>
        <time>2013-05-07T16:37:31Z</time>
      </trkpt>
      <trkpt lat="59.8977098" lon="17.7086271">
        <ele>24.1703</ele>
        <time>2013-05-07T16:37:32Z</time>
      </trkpt>
      <trkpt lat="59.897666" lon="17.7085829">
        <ele>24.1703</ele>
        <time>2013-05-07T16:37:33Z</time>
      </trkpt>
      <trkpt lat="59.8976223" lon="17.7085382">
        <ele>24.1703</ele>
        <time>2013-05-07T16:37:34Z</time>
      </trkpt>
      <trkpt lat="59.8975794" lon="17.7084901">
        <ele>24.1703</ele>
        <time>2013-05-07T16:37:35Z</time>
      </trkpt>
      <trkpt lat="59.8975379" lon="17.7084395">
        <ele>24.1703</ele>
        <time>2013-05-07T16:37:36Z</time>
      </trkpt>
      <trkpt lat="59.8974981" lon="17.7083852">
        <ele>24.651</ele>
        <time>2013-05-07T16:37:37Z</time>
      </trkpt>
      <trkpt lat="59.8974594" lon="17.708326">
        <ele>24.651</ele>
        <time>2013-05-07T16:37:38Z</time>
      </trkpt>
      <trkpt lat="59.8974234" lon="17.7082598">
        <ele>24.651</ele>
        <time>2013-05-07T16:37:39Z</time>
      </trkpt>
      <trkpt lat="59.8973878" lon="17.7081914">
        <ele>24.651</ele>
        <time>2013-05-07T16:37:40Z</time>
      </trkpt>
      <trkpt lat="59.897351" lon="17.7081264">
        <ele>25.1317</ele>
        <time>2013-05-07T16:37:41Z</time>
      </trkpt>
      <trkpt lat="59.8973117" lon="17.7080679">
        <ele>25.1317</ele>
        <time>2013-05-07T16:37:42Z</time>
      </trkpt>
      <trkpt lat="59.8972742" lon="17.7080121">
        <ele>25.1317</ele>
        <time>2013-05-07T16:37:43Z</time>
      </trkpt>
      <trkpt lat="59.8972355" lon="17.7079592">
        <ele>25.1317</ele>
        <time>2013-05-07T16:37:44Z</time>
      </trkpt>
      <trkpt lat="59.8971962" lon="17.7079059">
        <ele>25.1317</ele>
        <time>2013-05-07T16:37:45Z</time>
      </trkpt>
      <trkpt lat="59.8971572" lon="17.707851">
        <ele>25.1317</ele>
        <time>2013-05-07T16:37:46Z</time>
      </trkpt>
      <trkpt lat="59.897117" lon="17.7077959">
        <ele>24.651</ele>
        <time>2013-05-07T16:37:47Z</time>
      </trkpt>
      <trkpt lat="59.897076" lon="17.7077381">
        <ele>25.1317</ele>
        <time>2013-05-07T16:37:48Z</time>
      </trkpt>
      <trkpt lat="59.8970344" lon="17.707679">
        <ele>25.1317</ele>
        <time>2013-05-07T16:37:49Z</time>
      </trkpt>
      <trkpt lat="59.8969917" lon="17.7076213">
        <ele>25.1317</ele>
        <time>2013-05-07T16:37:50Z</time>
      </trkpt>
      <trkpt lat="59.896948" lon="17.7075625">
        <ele>25.1317</ele>
        <time>2013-05-07T16:37:51Z</time>
      </trkpt>
      <trkpt lat="59.896903" lon="17.7075014">
        <ele>25.1317</ele>
        <time>2013-05-07T16:37:52Z</time>
      </trkpt>
      <trkpt lat="59.8968567" lon="17.7074401">
        <ele>25.1317</ele>
        <time>2013-05-07T16:37:53Z</time>
      </trkpt>
      <trkpt lat="59.8968108" lon="17.7073803">
        <ele>25.1317</ele>
        <time>2013-05-07T16:37:54Z</time>
      </trkpt>
      <trkpt lat="59.8967668" lon="17.707321">
        <ele>25.1317</ele>
        <time>2013-05-07T16:37:55Z</time>
      </trkpt>
      <trkpt lat="59.8967237" lon="17.7072626">
        <ele>25.1317</ele>
        <time>2013-05-07T16:37:56Z</time>
      </trkpt>
      <trkpt lat="59.8966812" lon="17.7072062">
        <ele>25.1317</ele>
        <time>2013-05-07T16:37:57Z</time>
      </trkpt>
      <trkpt lat="59.8966389" lon="17.7071484">
        <ele>25.1317</ele>
        <time>2013-05-07T16:37:58Z</time>
      </trkpt>
      <trkpt lat="59.8965968" lon="17.7070906">
        <ele>25.1317</ele>
        <time>2013-05-07T16:37:59Z</time>
      </trkpt>
      <trkpt lat="59.8965541" lon="17.7070326">
        <ele>25.1317</ele>
        <time>2013-05-07T16:38:00Z</time>
      </trkpt>
      <trkpt lat="59.896512" lon="17.7069735">
        <ele>25.1317</ele>
        <time>2013-05-07T16:38:01Z</time>
      </trkpt>
      <trkpt lat="59.8964697" lon="17.7069144">
        <ele>25.1317</ele>
        <time>2013-05-07T16:38:02Z</time>
      </trkpt>
      <trkpt lat="59.8964258" lon="17.706854">
        <ele>25.1317</ele>
        <time>2013-05-07T16:38:03Z</time>
      </trkpt>
      <trkpt lat="59.8963808" lon="17.706792">
        <ele>25.1317</ele>
        <time>2013-05-07T16:38:04Z</time>
      </trkpt>
      <trkpt lat="59.8963346" lon="17.70673">
        <ele>25.1317</ele>
        <time>2013-05-07T16:38:05Z</time>
      </trkpt>
      <trkpt lat="59.8962871" lon="17.7066679">
        <ele>25.1317</ele>
        <time>2013-05-07T16:38:06Z</time>
      </trkpt>
      <trkpt lat="59.8962403" lon="17.7066057">
        <ele>25.1317</ele>
        <time>2013-05-07T16:38:07Z</time>
      </trkpt>
      <trkpt lat="59.8961938" lon="17.7065457">
        <ele>25.1317</ele>
        <time>2013-05-07T16:38:08Z</time>
      </trkpt>
      <trkpt lat="59.8961477" lon="17.7064865">
        <ele>25.1317</ele>
        <time>2013-05-07T16:38:09Z</time>
      </trkpt>
      <trkpt lat="59.8961017" lon="17.7064249">
        <ele>25.1317</ele>
        <time>2013-05-07T16:38:10Z</time>
      </trkpt>
      <trkpt lat="59.8960553" lon="17.706361">
        <ele>25.1317</ele>
        <time>2013-05-07T16:38:11Z</time>
      </trkpt>
      <trkpt lat="59.8960082" lon="17.7062981">
        <ele>25.1317</ele>
        <time>2013-05-07T16:38:12Z</time>
      </trkpt>
      <trkpt lat="59.8959623" lon="17.7062388">
        <ele>24.651</ele>
        <time>2013-05-07T16:38:13Z</time>
      </trkpt>
      <trkpt lat="59.8959189" lon="17.7061813">
        <ele>24.651</ele>
        <time>2013-05-07T16:38:14Z</time>
      </trkpt>
      <trkpt lat="59.8958773" lon="17.7061258">
        <ele>24.651</ele>
        <time>2013-05-07T16:38:15Z</time>
      </trkpt>
      <trkpt lat="59.8958374" lon="17.7060718">
        <ele>24.651</ele>
        <time>2013-05-07T16:38:16Z</time>
      </trkpt>
      <trkpt lat="59.8957987" lon="17.7060178">
        <ele>24.651</ele>
        <time>2013-05-07T16:38:17Z</time>
      </trkpt>
      <trkpt lat="59.8957597" lon="17.7059644">
        <ele>24.1703</ele>
        <time>2013-05-07T16:38:18Z</time>
      </trkpt>
      <trkpt lat="59.8957198" lon="17.7059101">
        <ele>24.1703</ele>
        <time>2013-05-07T16:38:19Z</time>
      </trkpt>
      <trkpt lat="59.8956798" lon="17.7058536">
        <ele>24.1703</ele>
        <time>2013-05-07T16:38:20Z</time>
      </trkpt>
      <trkpt lat="59.8956385" lon="17.7057972">
        <ele>24.1703</ele>
        <time>2013-05-07T16:38:21Z</time>
      </trkpt>
      <trkpt lat="59.8955963" lon="17.7057406">
        <ele>23.6896</ele>
        <time>2013-05-07T16:38:22Z</time>
      </trkpt>
      <trkpt lat="59.8955531" lon="17.7056833">
        <ele>23.6896</ele>
        <time>2013-05-07T16:38:23Z</time>
      </trkpt>
      <trkpt lat="59.8955099" lon="17.7056275">
        <ele>23.6896</ele>
        <time>2013-05-07T16:38:24Z</time>
      </trkpt>
      <trkpt lat="59.8954666" lon="17.7055762">
        <ele>23.6896</ele>
        <time>2013-05-07T16:38:25Z</time>
      </trkpt>
      <trkpt lat="59.8954241" lon="17.7055283">
        <ele>23.6896</ele>
        <time>2013-05-07T16:38:26Z</time>
      </trkpt>
      <trkpt lat="59.895383" lon="17.7054811">
        <ele>23.209</ele>
        <time>2013-05-07T16:38:27Z</time>
      </trkpt>
      <trkpt lat="59.8953416" lon="17.7054374">
        <ele>23.209</ele>
        <time>2013-05-07T16:38:28Z</time>
      </trkpt>
      <trkpt lat="59.8952983" lon="17.7053954">
        <ele>23.209</ele>
        <time>2013-05-07T16:38:29Z</time>
      </trkpt>
      <trkpt lat="59.8952555" lon="17.705349">
        <ele>23.209</ele>
        <time>2013-05-07T16:38:30Z</time>
      </trkpt>
      <trkpt lat="59.8952135" lon="17.7052961">
        <ele>23.209</ele>
        <time>2013-05-07T16:38:31Z</time>
      </trkpt>
      <trkpt lat="59.8951718" lon="17.70524">
        <ele>23.6896</ele>
        <time>2013-05-07T16:38:32Z</time>
      </trkpt>
      <trkpt lat="59.8951309" lon="17.7051797">
        <ele>23.209</ele>
        <time>2013-05-07T16:38:33Z</time>
      </trkpt>
      <trkpt lat="59.8950919" lon="17.7051139">
        <ele>23.209</ele>
        <time>2013-05-07T16:38:34Z</time>
      </trkpt>
      <trkpt lat="59.8950555" lon="17.7050475">
        <ele>23.6896</ele>
        <time>2013-05-07T16:38:35Z</time>
      </trkpt>
      <trkpt lat="59.8950159" lon="17.7049883">
        <ele>23.6896</ele>
        <time>2013-05-07T16:38:36Z</time>
      </trkpt>
      <trkpt lat="59.8949753" lon="17.7049335">
        <ele>23.209</ele>
        <time>2013-05-07T16:38:37Z</time>
      </trkpt>
      <trkpt lat="59.8949351" lon="17.7048798">
        <ele>23.6896</ele>
        <time>2013-05-07T16:38:38Z</time>
      </trkpt>
      <trkpt lat="59.894895" lon="17.7048269">
        <ele>23.6896</ele>
        <time>2013-05-07T16:38:39Z</time>
      </trkpt>
      <trkpt lat="59.8948558" lon="17.7047724">
        <ele>23.6896</ele>
        <time>2013-05-07T16:38:40Z</time>
      </trkpt>
      <trkpt lat="59.894818" lon="17.704715">
        <ele>23.6896</ele>
        <time>2013-05-07T16:38:41Z</time>
      </trkpt>
      <trkpt lat="59.8947807" lon="17.7046559">
        <ele>23.6896</ele>
        <time>2013-05-07T16:38:42Z</time>
      </trkpt>
      <trkpt lat="59.8947439" lon="17.7045996">
        <ele>23.6896</ele>
        <time>2013-05-07T16:38:43Z</time>
      </trkpt>
      <trkpt lat="59.8947113" lon="17.7045464">
        <ele>23.6896</ele>
        <time>2013-05-07T16:38:44Z</time>
      </trkpt>
      <trkpt lat="59.8946786" lon="17.7044964">
        <ele>24.1703</ele>
        <time>2013-05-07T16:38:45Z</time>
      </trkpt>
      <trkpt lat="59.8946456" lon="17.7044473">
        <ele>24.651</ele>
        <time>2013-05-07T16:38:46Z</time>
      </trkpt>
      <trkpt lat="59.8946121" lon="17.704399">
        <ele>24.651</ele>
        <time>2013-05-07T16:38:47Z</time>
      </trkpt>
      <trkpt lat="59.8945775" lon="17.7043514">
        <ele>25.1317</ele>
        <time>2013-05-07T16:38:48Z</time>
      </trkpt>
      <trkpt lat="59.8945423" lon="17.7043033">
        <ele>25.6123</ele>
        <time>2013-05-07T16:38:49Z</time>
      </trkpt>
      <trkpt lat="59.8945075" lon="17.7042538">
        <ele>25.6123</ele>
        <time>2013-05-07T16:38:50Z</time>
      </trkpt>
      <trkpt lat="59.8944726" lon="17.7042027">
        <ele>25.6123</ele>
        <time>2013-05-07T16:38:51Z</time>
      </trkpt>
      <trkpt lat="59.8944366" lon="17.704152">
        <ele>26.0929</ele>
        <time>2013-05-07T16:38:52Z</time>
      </trkpt>
      <trkpt lat="59.8943999" lon="17.7041012">
        <ele>26.0929</ele>
        <time>2013-05-07T16:38:53Z</time>
      </trkpt>
      <trkpt lat="59.8943633" lon="17.7040499">
        <ele>26.5736</ele>
        <time>2013-05-07T16:38:54Z</time>
      </trkpt>
      <trkpt lat="59.8943269" lon="17.7039991">
        <ele>26.5736</ele>
        <time>2013-05-07T16:38:55Z</time>
      </trkpt>
      <trkpt lat="59.8942907" lon="17.7039477">
        <ele>26.5736</ele>
        <time>2013-05-07T16:38:56Z</time>
      </trkpt>
      <trkpt lat="59.8942552" lon="17.7038945">
        <ele>26.5736</ele>
        <time>2013-05-07T16:38:57Z</time>
      </trkpt>
      <trkpt lat="59.8942196" lon="17.7038405">
        <ele>27.0543</ele>
        <time>2013-05-07T16:38:58Z</time>
      </trkpt>
      <trkpt lat="59.8941837" lon="17.7037878">
        <ele>27.0543</ele>
        <time>2013-05-07T16:38:59Z</time>
      </trkpt>
      <trkpt lat="59.8941477" lon="17.7037364">
        <ele>27.0543</ele>
        <time>2013-05-07T16:39:00Z</time>
      </trkpt>
      <trkpt lat="59.8941115" lon="17.7036855">
        <ele>27.0543</ele>
        <time>2013-05-07T16:39:01Z</time>
      </trkpt>
      <trkpt lat="59.8940755" lon="17.7036347">
        <ele>27.5349</ele>
        <time>2013-05-07T16:39:02Z</time>
      </trkpt>
      <trkpt lat="59.8940385" lon="17.7035848">
        <ele>27.5349</ele>
        <time>2013-05-07T16:39:03Z</time>
      </trkpt>
      <trkpt lat="59.8940011" lon="17.7035361">
        <ele>27.5349</ele>
        <time>2013-05-07T16:39:04Z</time>
      </trkpt>
      <trkpt lat="59.8939627" lon="17.7034888">
        <ele>27.5349</ele>
        <time>2013-05-07T16:39:05Z</time>
      </trkpt>
      <trkpt lat="59.8939239" lon="17.7034422">
        <ele>27.5349</ele>
        <time>2013-05-07T16:39:06Z</time>
      </trkpt>
      <trkpt lat="59.8938855" lon="17.7033959">
        <ele>28.0155</ele>
        <time>2013-05-07T16:39:07Z</time>
      </trkpt>
      <trkpt lat="59.8938462" lon="17.7033472">
        <ele>28.0155</ele>
        <time>2013-05-07T16:39:08Z</time>
      </trkpt>
      <trkpt lat="59.8938073" lon="17.703292">
        <ele>28.0155</ele>
        <time>2013-05-07T16:39:09Z</time>
      </trkpt>
      <trkpt lat="59.8937683" lon="17.7032296">
        <ele>28.4962</ele>
        <time>2013-05-07T16:39:10Z</time>
      </trkpt>
      <trkpt lat="59.8937281" lon="17.7031667">
        <ele>28.4962</ele>
        <time>2013-05-07T16:39:11Z</time>
      </trkpt>
      <trkpt lat="59.8936881" lon="17.7031092">
        <ele>28.4962</ele>
        <time>2013-05-07T16:39:12Z</time>
      </trkpt>
      <trkpt lat="59.8936464" lon="17.7030548">
        <ele>28.4962</ele>
        <time>2013-05-07T16:39:13Z</time>
      </trkpt>
      <trkpt lat="59.8936044" lon="17.7029983">
        <ele>28.4962</ele>
        <time>2013-05-07T16:39:14Z</time>
      </trkpt>
      <trkpt lat="59.8935619" lon="17.7029419">
        <ele>28.4962</ele>
        <time>2013-05-07T16:39:15Z</time>
      </trkpt>
      <trkpt lat="59.8935187" lon="17.7028874">
        <ele>28.4962</ele>
        <time>2013-05-07T16:39:16Z</time>
      </trkpt>
      <trkpt lat="59.8934751" lon="17.7028329">
        <ele>28.4962</ele>
        <time>2013-05-07T16:39:17Z</time>
      </trkpt>
      <trkpt lat="59.8934313" lon="17.7027776">
        <ele>28.9769</ele>
        <time>2013-05-07T16:39:18Z</time>
      </trkpt>
      <trkpt lat="59.8933865" lon="17.7027202">
        <ele>28.9769</ele>
        <time>2013-05-07T16:39:19Z</time>
      </trkpt>
      <trkpt lat="59.8933417" lon="17.7026632">
        <ele>28.9769</ele>
        <time>2013-05-07T16:39:20Z</time>
      </trkpt>
      <trkpt lat="59.8932983" lon="17.7026083">
        <ele>28.9769</ele>
        <time>2013-05-07T16:39:21Z</time>
      </trkpt>
      <trkpt lat="59.8932556" lon="17.7025542">
        <ele>28.9769</ele>
        <time>2013-05-07T16:39:22Z</time>
      </trkpt>
      <trkpt lat="59.8932133" lon="17.7024988">
        <ele>28.9769</ele>
        <time>2013-05-07T16:39:23Z</time>
      </trkpt>
      <trkpt lat="59.8931712" lon="17.7024424">
        <ele>28.9769</ele>
        <time>2013-05-07T16:39:24Z</time>
      </trkpt>
      <trkpt lat="59.8931286" lon="17.7023863">
        <ele>28.9769</ele>
        <time>2013-05-07T16:39:25Z</time>
      </trkpt>
      <trkpt lat="59.8930859" lon="17.7023305">
        <ele>29.4575</ele>
        <time>2013-05-07T16:39:26Z</time>
      </trkpt>
      <trkpt lat="59.8930424" lon="17.7022749">
        <ele>29.4575</ele>
        <time>2013-05-07T16:39:27Z</time>
      </trkpt>
      <trkpt lat="59.8929991" lon="17.7022188">
        <ele>29.4575</ele>
        <time>2013-05-07T16:39:28Z</time>
      </trkpt>
      <trkpt lat="59.8929569" lon="17.7021637">
        <ele>28.9769</ele>
        <time>2013-05-07T16:39:29Z</time>
      </trkpt>
      <trkpt lat="59.8929159" lon="17.7021108">
        <ele>28.9769</ele>
        <time>2013-05-07T16:39:30Z</time>
      </trkpt>
      <trkpt lat="59.8928758" lon="17.7020602">
        <ele>29.4575</ele>
        <time>2013-05-07T16:39:31Z</time>
      </trkpt>
      <trkpt lat="59.8928341" lon="17.7020132">
        <ele>29.4575</ele>
        <time>2013-05-07T16:39:32Z</time>
      </trkpt>
      <trkpt lat="59.8927896" lon="17.7019721">
        <ele>29.4575</ele>
        <time>2013-05-07T16:39:33Z</time>
      </trkpt>
      <trkpt lat="59.8927447" lon="17.7019315">
        <ele>28.9769</ele>
        <time>2013-05-07T16:39:34Z</time>
      </trkpt>
      <trkpt lat="59.8927018" lon="17.7018859">
        <ele>28.9769</ele>
        <time>2013-05-07T16:39:35Z</time>
      </trkpt>
      <trkpt lat="59.8926615" lon="17.7018354">
        <ele>28.9769</ele>
        <time>2013-05-07T16:39:36Z</time>
      </trkpt>
      <trkpt lat="59.8926233" lon="17.7017799">
        <ele>29.4575</ele>
        <time>2013-05-07T16:39:37Z</time>
      </trkpt>
      <trkpt lat="59.8925865" lon="17.7017193">
        <ele>28.9769</ele>
        <time>2013-05-07T16:39:38Z</time>
      </trkpt>
      <trkpt lat="59.8925511" lon="17.7016546">
        <ele>28.9769</ele>
        <time>2013-05-07T16:39:39Z</time>
      </trkpt>
      <trkpt lat="59.8925161" lon="17.7015874">
        <ele>28.9769</ele>
        <time>2013-05-07T16:39:40Z</time>
      </trkpt>
      <trkpt lat="59.8924795" lon="17.701524">
        <ele>28.9769</ele>
        <time>2013-05-07T16:39:41Z</time>
      </trkpt>
      <trkpt lat="59.8924397" lon="17.7014674">
        <ele>28.9769</ele>
        <time>2013-05-07T16:39:42Z</time>
      </trkpt>
      <trkpt lat="59.8923978" lon="17.7014142">
        <ele>28.9769</ele>
        <time>2013-05-07T16:39:43Z</time>
      </trkpt>
      <trkpt lat="59.8923549" lon="17.7013589">
        <ele>28.9769</ele>
        <time>2013-05-07T16:39:44Z</time>
      </trkpt>
      <trkpt lat="59.8923114" lon="17.7013009">
        <ele>28.9769</ele>
        <time>2013-05-07T16:39:45Z</time>
      </trkpt>
      <trkpt lat="59.8922676" lon="17.7012401">
        <ele>28.4962</ele>
        <time>2013-05-07T16:39:46Z</time>
      </trkpt>
      <trkpt lat="59.8922233" lon="17.7011791">
        <ele>28.4962</ele>
        <time>2013-05-07T16:39:47Z</time>
      </trkpt>
      <trkpt lat="59.8921803" lon="17.7011191">
        <ele>28.4962</ele>
        <time>2013-05-07T16:39:48Z</time>
      </trkpt>
      <trkpt lat="59.8921378" lon="17.7010602">
        <ele>28.4962</ele>
        <time>2013-05-07T16:39:49Z</time>
      </trkpt>
      <trkpt lat="59.8920943" lon="17.7010018">
        <ele>28.4962</ele>
        <time>2013-05-07T16:39:50Z</time>
      </trkpt>
      <trkpt lat="59.8920508" lon="17.7009439">
        <ele>28.4962</ele>
        <time>2013-05-07T16:39:51Z</time>
      </trkpt>
      <trkpt lat="59.8920068" lon="17.7008868">
        <ele>28.4962</ele>
        <time>2013-05-07T16:39:52Z</time>
      </trkpt>
      <trkpt lat="59.8919627" lon="17.7008304">
        <ele>28.0155</ele>
        <time>2013-05-07T16:39:53Z</time>
      </trkpt>
      <trkpt lat="59.8919193" lon="17.7007734">
        <ele>28.0155</ele>
        <time>2013-05-07T16:39:54Z</time>
      </trkpt>
      <trkpt lat="59.8918767" lon="17.7007157">
        <ele>28.0155</ele>
        <time>2013-05-07T16:39:55Z</time>
      </trkpt>
      <trkpt lat="59.8918332" lon="17.7006584">
        <ele>28.0155</ele>
        <time>2013-05-07T16:39:56Z</time>
      </trkpt>
      <trkpt lat="59.8917892" lon="17.7005999">
        <ele>28.0155</ele>
        <time>2013-05-07T16:39:57Z</time>
      </trkpt>
      <trkpt lat="59.8917445" lon="17.7005427">
        <ele>28.0155</ele>
        <time>2013-05-07T16:39:58Z</time>
      </trkpt>
      <trkpt lat="59.8917" lon="17.700488">
        <ele>27.5349</ele>
        <time>2013-05-07T16:39:59Z</time>
      </trkpt>
      <trkpt lat="59.8916574" lon="17.700431">
        <ele>27.5349</ele>
        <time>2013-05-07T16:40:00Z</time>
      </trkpt>
      <trkpt lat="59.8916168" lon="17.7003715">
        <ele>27.5349</ele>
        <time>2013-05-07T16:40:01Z</time>
      </trkpt>
      <trkpt lat="59.8915759" lon="17.7003151">
        <ele>27.5349</ele>
        <time>2013-05-07T16:40:02Z</time>
      </trkpt>
      <trkpt lat="59.8915332" lon="17.7002622">
        <ele>27.5349</ele>
        <time>2013-05-07T16:40:03Z</time>
      </trkpt>
      <trkpt lat="59.8914903" lon="17.7002104">
        <ele>27.5349</ele>
        <time>2013-05-07T16:40:04Z</time>
      </trkpt>
      <trkpt lat="59.8914479" lon="17.7001592">
        <ele>27.5349</ele>
        <time>2013-05-07T16:40:05Z</time>
      </trkpt>
      <trkpt lat="59.891407" lon="17.7001083">
        <ele>27.5349</ele>
        <time>2013-05-07T16:40:06Z</time>
      </trkpt>
      <trkpt lat="59.8913676" lon="17.7000575">
        <ele>27.5349</ele>
        <time>2013-05-07T16:40:07Z</time>
      </trkpt>
      <trkpt lat="59.8913291" lon="17.7000071">
        <ele>27.5349</ele>
        <time>2013-05-07T16:40:08Z</time>
      </trkpt>
      <trkpt lat="59.8912894" lon="17.6999591">
        <ele>27.0543</ele>
        <time>2013-05-07T16:40:09Z</time>
      </trkpt>
      <trkpt lat="59.8912489" lon="17.6999128">
        <ele>27.0543</ele>
        <time>2013-05-07T16:40:10Z</time>
      </trkpt>
      <trkpt lat="59.8912091" lon="17.6998633">
        <ele>27.0543</ele>
        <time>2013-05-07T16:40:11Z</time>
      </trkpt>
      <trkpt lat="59.8911707" lon="17.6998084">
        <ele>27.0543</ele>
        <time>2013-05-07T16:40:12Z</time>
      </trkpt>
      <trkpt lat="59.8911322" lon="17.6997524">
        <ele>27.0543</ele>
        <time>2013-05-07T16:40:13Z</time>
      </trkpt>
      <trkpt lat="59.8910925" lon="17.6996959">
        <ele>27.0543</ele>
        <time>2013-05-07T16:40:14Z</time>
      </trkpt>
      <trkpt lat="59.8910514" lon="17.6996395">
        <ele>27.0543</ele>
        <time>2013-05-07T16:40:15Z</time>
      </trkpt>
      <trkpt lat="59.891009" lon="17.6995885">
        <ele>27.0543</ele>
        <time>2013-05-07T16:40:16Z</time>
      </trkpt>
      <trkpt lat="59.8909661" lon="17.6995478">
        <ele>27.0543</ele>
        <time>2013-05-07T16:40:17Z</time>
      </trkpt>
      <trkpt lat="59.8909231" lon="17.6995167">
        <ele>27.0543</ele>
        <time>2013-05-07T16:40:18Z</time>
      </trkpt>
      <trkpt lat="59.8908793" lon="17.6994879">
        <ele>27.0543</ele>
        <time>2013-05-07T16:40:19Z</time>
      </trkpt>
      <trkpt lat="59.890836" lon="17.6994529">
        <ele>27.0543</ele>
        <time>2013-05-07T16:40:20Z</time>
      </trkpt>
      <trkpt lat="59.8907947" lon="17.6994069">
        <ele>27.0543</ele>
        <time>2013-05-07T16:40:21Z</time>
      </trkpt>
      <trkpt lat="59.8907555" lon="17.6993511">
        <ele>27.0543</ele>
        <time>2013-05-07T16:40:22Z</time>
      </trkpt>
      <trkpt lat="59.8907167" lon="17.6992891">
        <ele>27.0543</ele>
        <time>2013-05-07T16:40:23Z</time>
      </trkpt>
      <trkpt lat="59.8906822" lon="17.6992187">
        <ele>27.0543</ele>
        <time>2013-05-07T16:40:24Z</time>
      </trkpt>
      <trkpt lat="59.8906491" lon="17.6991454">
        <ele>27.0543</ele>
        <time>2013-05-07T16:40:25Z</time>
      </trkpt>
      <trkpt lat="59.8906158" lon="17.6990766">
        <ele>27.0543</ele>
        <time>2013-05-07T16:40:26Z</time>
      </trkpt>
      <trkpt lat="59.8905822" lon="17.6990133">
        <ele>27.0543</ele>
        <time>2013-05-07T16:40:27Z</time>
      </trkpt>
      <trkpt lat="59.8905476" lon="17.6989537">
        <ele>27.0543</ele>
        <time>2013-05-07T16:40:28Z</time>
      </trkpt>
      <trkpt lat="59.8905103" lon="17.6988965">
        <ele>27.0543</ele>
        <time>2013-05-07T16:40:29Z</time>
      </trkpt>
      <trkpt lat="59.8904727" lon="17.6988396">
        <ele>27.0543</ele>
        <time>2013-05-07T16:40:30Z</time>
      </trkpt>
      <trkpt lat="59.8904337" lon="17.6987847">
        <ele>27.0543</ele>
        <time>2013-05-07T16:40:31Z</time>
      </trkpt>
      <trkpt lat="59.8903941" lon="17.6987316">
        <ele>27.0543</ele>
        <time>2013-05-07T16:40:32Z</time>
      </trkpt>
      <trkpt lat="59.8903533" lon="17.6986797">
        <ele>27.0543</ele>
        <time>2013-05-07T16:40:33Z</time>
      </trkpt>
      <trkpt lat="59.8903127" lon="17.6986285">
        <ele>27.0543</ele>
        <time>2013-05-07T16:40:34Z</time>
      </trkpt>
      <trkpt lat="59.8902728" lon="17.6985777">
        <ele>27.0543</ele>
        <time>2013-05-07T16:40:35Z</time>
      </trkpt>
      <trkpt lat="59.890234" lon="17.6985252">
        <ele>27.0543</ele>
        <time>2013-05-07T16:40:36Z</time>
      </trkpt>
      <trkpt lat="59.8901964" lon="17.698472">
        <ele>26.5736</ele>
        <time>2013-05-07T16:40:37Z</time>
      </trkpt>
      <trkpt lat="59.8901591" lon="17.6984222">
        <ele>27.0543</ele>
        <time>2013-05-07T16:40:38Z</time>
      </trkpt>
      <trkpt lat="59.8901218" lon="17.6983746">
        <ele>27.0543</ele>
        <time>2013-05-07T16:40:39Z</time>
      </trkpt>
      <trkpt lat="59.8900839" lon="17.6983273">
        <ele>27.0543</ele>
        <time>2013-05-07T16:40:40Z</time>
      </trkpt>
      <trkpt lat="59.8900454" lon="17.6982765">
        <ele>27.0543</ele>
        <time>2013-05-07T16:40:41Z</time>
      </trkpt>
      <trkpt lat="59.8900067" lon="17.6982228">
        <ele>27.0543</ele>
        <time>2013-05-07T16:40:42Z</time>
      </trkpt>
      <trkpt lat="59.8899674" lon="17.6981684">
        <ele>27.0543</ele>
        <time>2013-05-07T16:40:43Z</time>
      </trkpt>
      <trkpt lat="59.8899273" lon="17.6981143">
        <ele>27.0543</ele>
        <time>2013-05-07T16:40:44Z</time>
      </trkpt>
      <trkpt lat="59.8898866" lon="17.6980631">
        <ele>27.0543</ele>
        <time>2013-05-07T16:40:45Z</time>
      </trkpt>
      <trkpt lat="59.8898461" lon="17.6980135">
        <ele>27.0543</ele>
        <time>2013-05-07T16:40:46Z</time>
      </trkpt>
      <trkpt lat="59.8898067" lon="17.69796">
        <ele>26.5736</ele>
        <time>2013-05-07T16:40:47Z</time>
      </trkpt>
      <trkpt lat="59.8897685" lon="17.6979033">
        <ele>26.5736</ele>
        <time>2013-05-07T16:40:48Z</time>
      </trkpt>
      <trkpt lat="59.88973" lon="17.6978461">
        <ele>26.5736</ele>
        <time>2013-05-07T16:40:49Z</time>
      </trkpt>
      <trkpt lat="59.8896902" lon="17.6977895">
        <ele>26.5736</ele>
        <time>2013-05-07T16:40:50Z</time>
      </trkpt>
      <trkpt lat="59.8896503" lon="17.6977359">
        <ele>26.5736</ele>
        <time>2013-05-07T16:40:51Z</time>
      </trkpt>
      <trkpt lat="59.8896105" lon="17.6976834">
        <ele>26.5736</ele>
        <time>2013-05-07T16:40:52Z</time>
      </trkpt>
      <trkpt lat="59.8895711" lon="17.6976292">
        <ele>26.5736</ele>
        <time>2013-05-07T16:40:53Z</time>
      </trkpt>
      <trkpt lat="59.8895326" lon="17.6975753">
        <ele>26.5736</ele>
        <time>2013-05-07T16:40:54Z</time>
      </trkpt>
      <trkpt lat="59.8894945" lon="17.6975229">
        <ele>26.5736</ele>
        <time>2013-05-07T16:40:55Z</time>
      </trkpt>
      <trkpt lat="59.8894564" lon="17.6974717">
        <ele>26.5736</ele>
        <time>2013-05-07T16:40:56Z</time>
      </trkpt>
      <trkpt lat="59.8894171" lon="17.6974193">
        <ele>26.5736</ele>
        <time>2013-05-07T16:40:57Z</time>
      </trkpt>
      <trkpt lat="59.8893768" lon="17.6973664">
        <ele>26.5736</ele>
        <time>2013-05-07T16:40:58Z</time>
      </trkpt>
      <trkpt lat="59.8893368" lon="17.6973131">
        <ele>26.5736</ele>
        <time>2013-05-07T16:40:59Z</time>
      </trkpt>
      <trkpt lat="59.8892966" lon="17.6972592">
        <ele>26.5736</ele>
        <time>2013-05-07T16:41:00Z</time>
      </trkpt>
      <trkpt lat="59.8892555" lon="17.6972049">
        <ele>26.5736</ele>
        <time>2013-05-07T16:41:01Z</time>
      </trkpt>
      <trkpt lat="59.8892135" lon="17.6971518">
        <ele>26.5736</ele>
        <time>2013-05-07T16:41:02Z</time>
      </trkpt>
      <trkpt lat="59.8891722" lon="17.6970996">
        <ele>26.5736</ele>
        <time>2013-05-07T16:41:03Z</time>
      </trkpt>
      <trkpt lat="59.8891314" lon="17.6970467">
        <ele>26.5736</ele>
        <time>2013-05-07T16:41:04Z</time>
      </trkpt>
      <trkpt lat="59.8890899" lon="17.6969919">
        <ele>26.5736</ele>
        <time>2013-05-07T16:41:05Z</time>
      </trkpt>
      <trkpt lat="59.889048" lon="17.6969376">
        <ele>26.5736</ele>
        <time>2013-05-07T16:41:06Z</time>
      </trkpt>
      <trkpt lat="59.8890068" lon="17.6968841">
        <ele>26.5736</ele>
        <time>2013-05-07T16:41:07Z</time>
      </trkpt>
      <trkpt lat="59.8889656" lon="17.6968289">
        <ele>26.5736</ele>
        <time>2013-05-07T16:41:08Z</time>
      </trkpt>
      <trkpt lat="59.8889246" lon="17.6967744">
        <ele>26.5736</ele>
        <time>2013-05-07T16:41:09Z</time>
      </trkpt>
      <trkpt lat="59.8888841" lon="17.6967195">
        <ele>26.5736</ele>
        <time>2013-05-07T16:41:10Z</time>
      </trkpt>
      <trkpt lat="59.8888443" lon="17.6966639">
        <ele>26.0929</ele>
        <time>2013-05-07T16:41:11Z</time>
      </trkpt>
      <trkpt lat="59.8888048" lon="17.6966112">
        <ele>26.0929</ele>
        <time>2013-05-07T16:41:12Z</time>
      </trkpt>
      <trkpt lat="59.888765" lon="17.69656">
        <ele>26.0929</ele>
        <time>2013-05-07T16:41:13Z</time>
      </trkpt>
      <trkpt lat="59.8887251" lon="17.6965066">
        <ele>26.0929</ele>
        <time>2013-05-07T16:41:14Z</time>
      </trkpt>
      <trkpt lat="59.8886842" lon="17.6964528">
        <ele>26.0929</ele>
        <time>2013-05-07T16:41:15Z</time>
      </trkpt>
      <trkpt lat="59.8886429" lon="17.6963993">
        <ele>26.0929</ele>
        <time>2013-05-07T16:41:16Z</time>
      </trkpt>
      <trkpt lat="59.8886011" lon="17.6963448">
        <ele>26.0929</ele>
        <time>2013-05-07T16:41:17Z</time>
      </trkpt>
      <trkpt lat="59.8885594" lon="17.6962866">
        <ele>26.0929</ele>
        <time>2013-05-07T16:41:18Z</time>
      </trkpt>
      <trkpt lat="59.8885174" lon="17.6962261">
        <ele>26.0929</ele>
        <time>2013-05-07T16:41:19Z</time>
      </trkpt>
      <trkpt lat="59.888473" lon="17.6961686">
        <ele>26.0929</ele>
        <time>2013-05-07T16:41:20Z</time>
      </trkpt>
      <trkpt lat="59.8884276" lon="17.696115">
        <ele>25.6123</ele>
        <time>2013-05-07T16:41:21Z</time>
      </trkpt>
      <trkpt lat="59.8883829" lon="17.6960616">
        <ele>25.6123</ele>
        <time>2013-05-07T16:41:22Z</time>
      </trkpt>
      <trkpt lat="59.8883409" lon="17.6960036">
        <ele>25.6123</ele>
        <time>2013-05-07T16:41:23Z</time>
      </trkpt>
      <trkpt lat="59.8883014" lon="17.6959439">
        <ele>25.6123</ele>
        <time>2013-05-07T16:41:24Z</time>
      </trkpt>
      <trkpt lat="59.8882626" lon="17.6958876">
        <ele>25.6123</ele>
        <time>2013-05-07T16:41:25Z</time>
      </trkpt>
      <trkpt lat="59.8882236" lon="17.6958352">
        <ele>25.6123</ele>
        <time>2013-05-07T16:41:26Z</time>
      </trkpt>
      <trkpt lat="59.8881843" lon="17.6957851">
        <ele>25.6123</ele>
        <time>2013-05-07T16:41:27Z</time>
      </trkpt>
      <trkpt lat="59.8881446" lon="17.6957358">
        <ele>25.6123</ele>
        <time>2013-05-07T16:41:28Z</time>
      </trkpt>
      <trkpt lat="59.8881051" lon="17.6956851">
        <ele>25.6123</ele>
        <time>2013-05-07T16:41:29Z</time>
      </trkpt>
      <trkpt lat="59.8880652" lon="17.6956335">
        <ele>25.6123</ele>
        <time>2013-05-07T16:41:30Z</time>
      </trkpt>
      <trkpt lat="59.8880246" lon="17.6955815">
        <ele>25.6123</ele>
        <time>2013-05-07T16:41:31Z</time>
      </trkpt>
      <trkpt lat="59.8879829" lon="17.6955287">
        <ele>25.6123</ele>
        <time>2013-05-07T16:41:32Z</time>
      </trkpt>
      <trkpt lat="59.8879414" lon="17.6954731">
        <ele>25.6123</ele>
        <time>2013-05-07T16:41:33Z</time>
      </trkpt>
      <trkpt lat="59.8879003" lon="17.6954147">
        <ele>25.6123</ele>
        <time>2013-05-07T16:41:34Z</time>
      </trkpt>
      <trkpt lat="59.8878583" lon="17.6953576">
        <ele>25.6123</ele>
        <time>2013-05-07T16:41:35Z</time>
      </trkpt>
      <trkpt lat="59.8878151" lon="17.6953025">
        <ele>25.6123</ele>
        <time>2013-05-07T16:41:36Z</time>
      </trkpt>
      <trkpt lat="59.8877715" lon="17.6952472">
        <ele>25.6123</ele>
        <time>2013-05-07T16:41:37Z</time>
      </trkpt>
      <trkpt lat="59.8877276" lon="17.6951891">
        <ele>25.6123</ele>
        <time>2013-05-07T16:41:38Z</time>
      </trkpt>
      <trkpt lat="59.8876825" lon="17.6951337">
        <ele>25.6123</ele>
        <time>2013-05-07T16:41:39Z</time>
      </trkpt>
      <trkpt lat="59.8876367" lon="17.6950845">
        <ele>25.6123</ele>
        <time>2013-05-07T16:41:40Z</time>
      </trkpt>
      <trkpt lat="59.8875933" lon="17.6950405">
        <ele>25.6123</ele>
        <time>2013-05-07T16:41:41Z</time>
      </trkpt>
      <trkpt lat="59.8875493" lon="17.6950044">
        <ele>26.0929</ele>
        <time>2013-05-07T16:41:42Z</time>
      </trkpt>
      <trkpt lat="59.8875038" lon="17.6949733">
        <ele>26.0929</ele>
        <time>2013-05-07T16:41:43Z</time>
      </trkpt>
      <trkpt lat="59.8874572" lon="17.6949448">
        <ele>26.0929</ele>
        <time>2013-05-07T16:41:44Z</time>
      </trkpt>
      <trkpt lat="59.8874102" lon="17.6949148">
        <ele>26.0929</ele>
        <time>2013-05-07T16:41:45Z</time>
      </trkpt>
      <trkpt lat="59.8873627" lon="17.6948836">
        <ele>26.5736</ele>
        <time>2013-05-07T16:41:46Z</time>
      </trkpt>
      <trkpt lat="59.8873146" lon="17.6948548">
        <ele>26.5736</ele>
        <time>2013-05-07T16:41:47Z</time>
      </trkpt>
      <trkpt lat="59.8872649" lon="17.6948315">
        <ele>26.5736</ele>
        <time>2013-05-07T16:41:48Z</time>
      </trkpt>
      <trkpt lat="59.8872166" lon="17.6948112">
        <ele>26.5736</ele>
        <time>2013-05-07T16:41:49Z</time>
      </trkpt>
      <trkpt lat="59.8871676" lon="17.6947935">
        <ele>26.5736</ele>
        <time>2013-05-07T16:41:50Z</time>
      </trkpt>
      <trkpt lat="59.8871182" lon="17.6947744">
        <ele>26.5736</ele>
        <time>2013-05-07T16:41:51Z</time>
      </trkpt>
      <trkpt lat="59.8870707" lon="17.6947453">
        <ele>26.5736</ele>
        <time>2013-05-07T16:41:52Z</time>
      </trkpt>
      <trkpt lat="59.8870252" lon="17.6947049">
        <ele>26.5736</ele>
        <time>2013-05-07T16:41:53Z</time>
      </trkpt>
      <trkpt lat="59.8869844" lon="17.6946527">
        <ele>26.5736</ele>
        <time>2013-05-07T16:41:54Z</time>
      </trkpt>
      <trkpt lat="59.8869482" lon="17.6945893">
        <ele>26.0929</ele>
        <time>2013-05-07T16:41:55Z</time>
      </trkpt>
      <trkpt lat="59.886919" lon="17.6945132">
        <ele>26.0929</ele>
        <time>2013-05-07T16:41:56Z</time>
      </trkpt>
      <trkpt lat="59.8868975" lon="17.6944268">
        <ele>26.0929</ele>
        <time>2013-05-07T16:41:57Z</time>
      </trkpt>
      <trkpt lat="59.8868813" lon="17.694335">
        <ele>26.0929</ele>
        <time>2013-05-07T16:41:58Z</time>
      </trkpt>
      <trkpt lat="59.8868708" lon="17.6942408">
        <ele>26.0929</ele>
        <time>2013-05-07T16:41:59Z</time>
      </trkpt>
      <trkpt lat="59.8868651" lon="17.6941428">
        <ele>26.0929</ele>
        <time>2013-05-07T16:42:00Z</time>
      </trkpt>
      <trkpt lat="59.8868607" lon="17.6940407">
        <ele>26.0929</ele>
        <time>2013-05-07T16:42:01Z</time>
      </trkpt>
      <trkpt lat="59.8868478" lon="17.6939405">
        <ele>25.6123</ele>
        <time>2013-05-07T16:42:02Z</time>
      </trkpt>
      <trkpt lat="59.8868229" lon="17.6938447">
        <ele>25.6123</ele>
        <time>2013-05-07T16:42:03Z</time>
      </trkpt>
      <trkpt lat="59.8867831" lon="17.693761">
        <ele>25.6123</ele>
        <time>2013-05-07T16:42:04Z</time>
      </trkpt>
      <trkpt lat="59.8867334" lon="17.6936917">
        <ele>25.6123</ele>
        <time>2013-05-07T16:42:05Z</time>
      </trkpt>
      <trkpt lat="59.8866824" lon="17.6936265">
        <ele>25.6123</ele>
        <time>2013-05-07T16:42:06Z</time>
      </trkpt>
      <trkpt lat="59.8866308" lon="17.6935606">
        <ele>25.6123</ele>
        <time>2013-05-07T16:42:07Z</time>
      </trkpt>
      <trkpt lat="59.886578" lon="17.6934933">
        <ele>25.6123</ele>
        <time>2013-05-07T16:42:08Z</time>
      </trkpt>
      <trkpt lat="59.8865252" lon="17.6934263">
        <ele>25.6123</ele>
        <time>2013-05-07T16:42:09Z</time>
      </trkpt>
      <trkpt lat="59.8864739" lon="17.6933581">
        <ele>25.6123</ele>
        <time>2013-05-07T16:42:10Z</time>
      </trkpt>
      <trkpt lat="59.8864242" lon="17.6932872">
        <ele>25.6123</ele>
        <time>2013-05-07T16:42:11Z</time>
      </trkpt>
      <trkpt lat="59.886375" lon="17.6932184">
        <ele>25.6123</ele>
        <time>2013-05-07T16:42:12Z</time>
      </trkpt>
      <trkpt lat="59.8863262" lon="17.6931533">
        <ele>25.6123</ele>
        <time>2013-05-07T16:42:13Z</time>
      </trkpt>
      <trkpt lat="59.8862784" lon="17.6930898">
        <ele>25.6123</ele>
        <time>2013-05-07T16:42:14Z</time>
      </trkpt>
      <trkpt lat="59.8862308" lon="17.6930281">
        <ele>26.0929</ele>
        <time>2013-05-07T16:42:15Z</time>
      </trkpt>
      <trkpt lat="59.8861843" lon="17.6929666">
        <ele>26.0929</ele>
        <time>2013-05-07T16:42:16Z</time>
      </trkpt>
      <trkpt lat="59.8861381" lon="17.6929064">
        <ele>26.0929</ele>
        <time>2013-05-07T16:42:17Z</time>
      </trkpt>
      <trkpt lat="59.8860922" lon="17.6928467">
        <ele>26.0929</ele>
        <time>2013-05-07T16:42:18Z</time>
      </trkpt>
      <trkpt lat="59.8860454" lon="17.6927864">
        <ele>26.0929</ele>
        <time>2013-05-07T16:42:19Z</time>
      </trkpt>
      <trkpt lat="59.885999" lon="17.6927249">
        <ele>26.0929</ele>
        <time>2013-05-07T16:42:20Z</time>
      </trkpt>
      <trkpt lat="59.8859527" lon="17.6926623">
        <ele>26.0929</ele>
        <time>2013-05-07T16:42:21Z</time>
      </trkpt>
      <trkpt lat="59.8859061" lon="17.6925988">
        <ele>26.0929</ele>
        <time>2013-05-07T16:42:22Z</time>
      </trkpt>
      <trkpt lat="59.885859" lon="17.6925369">
        <ele>26.0929</ele>
        <time>2013-05-07T16:42:23Z</time>
      </trkpt>
      <trkpt lat="59.8858119" lon="17.6924778">
        <ele>26.0929</ele>
        <time>2013-05-07T16:42:24Z</time>
      </trkpt>
      <trkpt lat="59.8857652" lon="17.692419">
        <ele>26.0929</ele>
        <time>2013-05-07T16:42:25Z</time>
      </trkpt>
      <trkpt lat="59.8857194" lon="17.69236">
        <ele>26.0929</ele>
        <time>2013-05-07T16:42:26Z</time>
      </trkpt>
      <trkpt lat="59.8856736" lon="17.6922992">
        <ele>25.6123</ele>
        <time>2013-05-07T16:42:27Z</time>
      </trkpt>
      <trkpt lat="59.8856285" lon="17.692238">
        <ele>25.6123</ele>
        <time>2013-05-07T16:42:28Z</time>
      </trkpt>
      <trkpt lat="59.8855843" lon="17.6921807">
        <ele>25.6123</ele>
        <time>2013-05-07T16:42:29Z</time>
      </trkpt>
      <trkpt lat="59.8855409" lon="17.6921238">
        <ele>25.6123</ele>
        <time>2013-05-07T16:42:30Z</time>
      </trkpt>
      <trkpt lat="59.885498" lon="17.6920643">
        <ele>25.6123</ele>
        <time>2013-05-07T16:42:31Z</time>
      </trkpt>
      <trkpt lat="59.8854559" lon="17.6920035">
        <ele>25.6123</ele>
        <time>2013-05-07T16:42:32Z</time>
      </trkpt>
      <trkpt lat="59.885414" lon="17.6919454">
        <ele>25.6123</ele>
        <time>2013-05-07T16:42:33Z</time>
      </trkpt>
      <trkpt lat="59.8853714" lon="17.6918931">
        <ele>25.6123</ele>
        <time>2013-05-07T16:42:34Z</time>
      </trkpt>
      <trkpt lat="59.8853284" lon="17.6918409">
        <ele>25.6123</ele>
        <time>2013-05-07T16:42:35Z</time>
      </trkpt>
      <trkpt lat="59.8852861" lon="17.6917858">
        <ele>25.6123</ele>
        <time>2013-05-07T16:42:36Z</time>
      </trkpt>
      <trkpt lat="59.8852436" lon="17.6917305">
        <ele>25.6123</ele>
        <time>2013-05-07T16:42:37Z</time>
      </trkpt>
      <trkpt lat="59.8852022" lon="17.6916724">
        <ele>25.6123</ele>
        <time>2013-05-07T16:42:38Z</time>
      </trkpt>
      <trkpt lat="59.8851612" lon="17.6916119">
        <ele>25.6123</ele>
        <time>2013-05-07T16:42:39Z</time>
      </trkpt>
      <trkpt lat="59.8851192" lon="17.6915527">
        <ele>25.6123</ele>
        <time>2013-05-07T16:42:40Z</time>
      </trkpt>
      <trkpt lat="59.8850758" lon="17.6914952">
        <ele>25.6123</ele>
        <time>2013-05-07T16:42:41Z</time>
      </trkpt>
      <trkpt lat="59.8850331" lon="17.6914389">
        <ele>25.6123</ele>
        <time>2013-05-07T16:42:42Z</time>
      </trkpt>
      <trkpt lat="59.8849922" lon="17.6913834">
        <ele>25.6123</ele>
        <time>2013-05-07T16:42:43Z</time>
      </trkpt>
      <trkpt lat="59.8849514" lon="17.6913289">
        <ele>25.6123</ele>
        <time>2013-05-07T16:42:44Z</time>
      </trkpt>
      <trkpt lat="59.8849104" lon="17.6912761">
        <ele>25.6123</ele>
        <time>2013-05-07T16:42:45Z</time>
      </trkpt>
      <trkpt lat="59.8848704" lon="17.6912248">
        <ele>25.6123</ele>
        <time>2013-05-07T16:42:46Z</time>
      </trkpt>
      <trkpt lat="59.8848322" lon="17.6911709">
        <ele>25.6123</ele>
        <time>2013-05-07T16:42:47Z</time>
      </trkpt>
      <trkpt lat="59.8847938" lon="17.6911162">
        <ele>25.6123</ele>
        <time>2013-05-07T16:42:48Z</time>
      </trkpt>
      <trkpt lat="59.8847545" lon="17.6910648">
        <ele>25.6123</ele>
        <time>2013-05-07T16:42:49Z</time>
      </trkpt>
      <trkpt lat="59.8847163" lon="17.6910131">
        <ele>25.6123</ele>
        <time>2013-05-07T16:42:50Z</time>
      </trkpt>
      <trkpt lat="59.8846794" lon="17.6909602">
        <ele>25.6123</ele>
        <time>2013-05-07T16:42:51Z</time>
      </trkpt>
      <trkpt lat="59.8846416" lon="17.6909091">
        <ele>25.6123</ele>
        <time>2013-05-07T16:42:52Z</time>
      </trkpt>
      <trkpt lat="59.8846026" lon="17.6908596">
        <ele>25.6123</ele>
        <time>2013-05-07T16:42:53Z</time>
      </trkpt>
      <trkpt lat="59.8845641" lon="17.6908089">
        <ele>25.6123</ele>
        <time>2013-05-07T16:42:54Z</time>
      </trkpt>
      <trkpt lat="59.8845258" lon="17.6907577">
        <ele>25.6123</ele>
        <time>2013-05-07T16:42:55Z</time>
      </trkpt>
      <trkpt lat="59.8844869" lon="17.690707">
        <ele>25.6123</ele>
        <time>2013-05-07T16:42:56Z</time>
      </trkpt>
      <trkpt lat="59.8844485" lon="17.6906552">
        <ele>25.6123</ele>
        <time>2013-05-07T16:42:57Z</time>
      </trkpt>
      <trkpt lat="59.8844101" lon="17.6906023">
        <ele>25.6123</ele>
        <time>2013-05-07T16:42:58Z</time>
      </trkpt>
      <trkpt lat="59.8843718" lon="17.6905491">
        <ele>25.6123</ele>
        <time>2013-05-07T16:42:59Z</time>
      </trkpt>
      <trkpt lat="59.884333" lon="17.690494">
        <ele>25.6123</ele>
        <time>2013-05-07T16:43:00Z</time>
      </trkpt>
      <trkpt lat="59.8842944" lon="17.6904397">
        <ele>25.6123</ele>
        <time>2013-05-07T16:43:01Z</time>
      </trkpt>
      <trkpt lat="59.8842571" lon="17.6903877">
        <ele>25.6123</ele>
        <time>2013-05-07T16:43:02Z</time>
      </trkpt>
      <trkpt lat="59.8842211" lon="17.6903374">
        <ele>25.6123</ele>
        <time>2013-05-07T16:43:03Z</time>
      </trkpt>
      <trkpt lat="59.8841853" lon="17.6902916">
        <ele>25.6123</ele>
        <time>2013-05-07T16:43:04Z</time>
      </trkpt>
      <trkpt lat="59.8841484" lon="17.6902476">
        <ele>25.6123</ele>
        <time>2013-05-07T16:43:05Z</time>
      </trkpt>
      <trkpt lat="59.8841112" lon="17.6902018">
        <ele>25.6123</ele>
        <time>2013-05-07T16:43:06Z</time>
      </trkpt>
      <trkpt lat="59.8840746" lon="17.690153">
        <ele>25.6123</ele>
        <time>2013-05-07T16:43:07Z</time>
      </trkpt>
      <trkpt lat="59.884038" lon="17.6901019">
        <ele>26.0929</ele>
        <time>2013-05-07T16:43:08Z</time>
      </trkpt>
      <trkpt lat="59.8840024" lon="17.6900501">
        <ele>26.0929</ele>
        <time>2013-05-07T16:43:09Z</time>
      </trkpt>
      <trkpt lat="59.8839673" lon="17.6900008">
        <ele>26.0929</ele>
        <time>2013-05-07T16:43:10Z</time>
      </trkpt>
      <trkpt lat="59.8839325" lon="17.6899558">
        <ele>26.0929</ele>
        <time>2013-05-07T16:43:11Z</time>
      </trkpt>
      <trkpt lat="59.8838973" lon="17.6899145">
        <ele>26.0929</ele>
        <time>2013-05-07T16:43:12Z</time>
      </trkpt>
      <trkpt lat="59.8838625" lon="17.689872">
        <ele>26.0929</ele>
        <time>2013-05-07T16:43:13Z</time>
      </trkpt>
      <trkpt lat="59.8838279" lon="17.6898253">
        <ele>26.0929</ele>
        <time>2013-05-07T16:43:14Z</time>
      </trkpt>
      <trkpt lat="59.8837935" lon="17.6897787">
        <ele>26.0929</ele>
        <time>2013-05-07T16:43:15Z</time>
      </trkpt>
      <trkpt lat="59.8837584" lon="17.6897342">
        <ele>26.0929</ele>
        <time>2013-05-07T16:43:16Z</time>
      </trkpt>
      <trkpt lat="59.8837242" lon="17.6896875">
        <ele>26.0929</ele>
        <time>2013-05-07T16:43:17Z</time>
      </trkpt>
      <trkpt lat="59.883691" lon="17.6896399">
        <ele>26.0929</ele>
        <time>2013-05-07T16:43:18Z</time>
      </trkpt>
      <trkpt lat="59.8836584" lon="17.6895923">
        <ele>26.0929</ele>
        <time>2013-05-07T16:43:19Z</time>
      </trkpt>
      <trkpt lat="59.8836262" lon="17.6895438">
        <ele>26.0929</ele>
        <time>2013-05-07T16:43:20Z</time>
      </trkpt>
      <trkpt lat="59.8835932" lon="17.6894985">
        <ele>26.0929</ele>
        <time>2013-05-07T16:43:21Z</time>
      </trkpt>
      <trkpt lat="59.8835586" lon="17.6894578">
        <ele>26.0929</ele>
        <time>2013-05-07T16:43:22Z</time>
      </trkpt>
      <trkpt lat="59.8835241" lon="17.6894156">
        <ele>26.0929</ele>
        <time>2013-05-07T16:43:23Z</time>
      </trkpt>
      <trkpt lat="59.88349" lon="17.6893692">
        <ele>26.0929</ele>
        <time>2013-05-07T16:43:24Z</time>
      </trkpt>
      <trkpt lat="59.8834552" lon="17.6893226">
        <ele>26.0929</ele>
        <time>2013-05-07T16:43:25Z</time>
      </trkpt>
      <trkpt lat="59.883419" lon="17.6892778">
        <ele>26.0929</ele>
        <time>2013-05-07T16:43:26Z</time>
      </trkpt>
      <trkpt lat="59.8833814" lon="17.6892349">
        <ele>26.0929</ele>
        <time>2013-05-07T16:43:27Z</time>
      </trkpt>
      <trkpt lat="59.8833441" lon="17.6891883">
        <ele>26.0929</ele>
        <time>2013-05-07T16:43:28Z</time>
      </trkpt>
      <trkpt lat="59.8833073" lon="17.689138">
        <ele>26.5736</ele>
        <time>2013-05-07T16:43:29Z</time>
      </trkpt>
      <trkpt lat="59.8832711" lon="17.6890931">
        <ele>26.5736</ele>
        <time>2013-05-07T16:43:30Z</time>
      </trkpt>
      <trkpt lat="59.8832357" lon="17.6890508">
        <ele>26.5736</ele>
        <time>2013-05-07T16:43:31Z</time>
      </trkpt>
      <trkpt lat="59.8832019" lon="17.6890058">
        <ele>26.5736</ele>
        <time>2013-05-07T16:43:32Z</time>
      </trkpt>
      <trkpt lat="59.8831679" lon="17.6889618">
        <ele>26.5736</ele>
        <time>2013-05-07T16:43:33Z</time>
      </trkpt>
      <trkpt lat="59.8831335" lon="17.6889209">
        <ele>26.5736</ele>
        <time>2013-05-07T16:43:34Z</time>
      </trkpt>
      <trkpt lat="59.8830991" lon="17.6888806">
        <ele>26.5736</ele>
        <time>2013-05-07T16:43:35Z</time>
      </trkpt>
      <trkpt lat="59.8830662" lon="17.6888378">
        <ele>26.5736</ele>
        <time>2013-05-07T16:43:36Z</time>
      </trkpt>
      <trkpt lat="59.8830342" lon="17.6887924">
        <ele>26.5736</ele>
        <time>2013-05-07T16:43:37Z</time>
      </trkpt>
      <trkpt lat="59.883002" lon="17.6887473">
        <ele>26.5736</ele>
        <time>2013-05-07T16:43:38Z</time>
      </trkpt>
      <trkpt lat="59.8829704" lon="17.6886995">
        <ele>26.5736</ele>
        <time>2013-05-07T16:43:39Z</time>
      </trkpt>
      <trkpt lat="59.8829399" lon="17.6886489">
        <ele>26.5736</ele>
        <time>2013-05-07T16:43:40Z</time>
      </trkpt>
      <trkpt lat="59.882909" lon="17.6885998">
        <ele>26.0929</ele>
        <time>2013-05-07T16:43:41Z</time>
      </trkpt>
      <trkpt lat="59.8828773" lon="17.6885536">
        <ele>26.0929</ele>
        <time>2013-05-07T16:43:42Z</time>
      </trkpt>
      <trkpt lat="59.8828443" lon="17.6885097">
        <ele>26.0929</ele>
        <time>2013-05-07T16:43:43Z</time>
      </trkpt>
      <trkpt lat="59.8828101" lon="17.6884686">
        <ele>26.0929</ele>
        <time>2013-05-07T16:43:44Z</time>
      </trkpt>
      <trkpt lat="59.8827759" lon="17.688427">
        <ele>26.0929</ele>
        <time>2013-05-07T16:43:45Z</time>
      </trkpt>
      <trkpt lat="59.8827432" lon="17.6883811">
        <ele>26.0929</ele>
        <time>2013-05-07T16:43:46Z</time>
      </trkpt>
      <trkpt lat="59.882712" lon="17.6883327">
        <ele>26.0929</ele>
        <time>2013-05-07T16:43:47Z</time>
      </trkpt>
      <trkpt lat="59.882681" lon="17.6882848">
        <ele>26.0929</ele>
        <time>2013-05-07T16:43:48Z</time>
      </trkpt>
      <trkpt lat="59.8826494" lon="17.6882396">
        <ele>26.0929</ele>
        <time>2013-05-07T16:43:49Z</time>
      </trkpt>
      <trkpt lat="59.8826168" lon="17.6881972">
        <ele>26.0929</ele>
        <time>2013-05-07T16:43:50Z</time>
      </trkpt>
      <trkpt lat="59.8825843" lon="17.6881553">
        <ele>26.0929</ele>
        <time>2013-05-07T16:43:51Z</time>
      </trkpt>
      <trkpt lat="59.8825529" lon="17.6881133">
        <ele>26.0929</ele>
        <time>2013-05-07T16:43:52Z</time>
      </trkpt>
      <trkpt lat="59.8825215" lon="17.6880719">
        <ele>26.5736</ele>
        <time>2013-05-07T16:43:53Z</time>
      </trkpt>
      <trkpt lat="59.8824904" lon="17.6880294">
        <ele>26.5736</ele>
        <time>2013-05-07T16:43:54Z</time>
      </trkpt>
      <trkpt lat="59.8824591" lon="17.6879869">
        <ele>26.5736</ele>
        <time>2013-05-07T16:43:55Z</time>
      </trkpt>
      <trkpt lat="59.8824268" lon="17.6879465">
        <ele>26.5736</ele>
        <time>2013-05-07T16:43:56Z</time>
      </trkpt>
      <trkpt lat="59.882394" lon="17.6879079">
        <ele>26.5736</ele>
        <time>2013-05-07T16:43:57Z</time>
      </trkpt>
      <trkpt lat="59.8823619" lon="17.6878666">
        <ele>26.5736</ele>
        <time>2013-05-07T16:43:58Z</time>
      </trkpt>
      <trkpt lat="59.8823298" lon="17.6878233">
        <ele>26.5736</ele>
        <time>2013-05-07T16:43:59Z</time>
      </trkpt>
      <trkpt lat="59.8822991" lon="17.6877761">
        <ele>26.5736</ele>
        <time>2013-05-07T16:44:00Z</time>
      </trkpt>
      <trkpt lat="59.8822671" lon="17.6877306">
        <ele>26.5736</ele>
        <time>2013-05-07T16:44:01Z</time>
      </trkpt>
      <trkpt lat="59.8822341" lon="17.687687">
        <ele>26.5736</ele>
        <time>2013-05-07T16:44:02Z</time>
      </trkpt>
      <trkpt lat="59.8822019" lon="17.6876413">
        <ele>27.0543</ele>
        <time>2013-05-07T16:44:03Z</time>
      </trkpt>
      <trkpt lat="59.8821697" lon="17.6875973">
        <ele>27.0543</ele>
        <time>2013-05-07T16:44:04Z</time>
      </trkpt>
      <trkpt lat="59.8821371" lon="17.6875553">
        <ele>27.0543</ele>
        <time>2013-05-07T16:44:05Z</time>
      </trkpt>
      <trkpt lat="59.8821045" lon="17.6875128">
        <ele>27.0543</ele>
        <time>2013-05-07T16:44:06Z</time>
      </trkpt>
      <trkpt lat="59.8820722" lon="17.687469">
        <ele>27.5349</ele>
        <time>2013-05-07T16:44:07Z</time>
      </trkpt>
      <trkpt lat="59.8820401" lon="17.6874248">
        <ele>27.5349</ele>
        <time>2013-05-07T16:44:08Z</time>
      </trkpt>
      <trkpt lat="59.8820072" lon="17.687382">
        <ele>27.5349</ele>
        <time>2013-05-07T16:44:09Z</time>
      </trkpt>
      <trkpt lat="59.8819743" lon="17.6873389">
        <ele>27.5349</ele>
        <time>2013-05-07T16:44:10Z</time>
      </trkpt>
      <trkpt lat="59.8819419" lon="17.6872917">
        <ele>27.5349</ele>
        <time>2013-05-07T16:44:11Z</time>
      </trkpt>
      <trkpt lat="59.8819096" lon="17.6872445">
        <ele>28.0155</ele>
        <time>2013-05-07T16:44:12Z</time>
      </trkpt>
      <trkpt lat="59.8818765" lon="17.6871991">
        <ele>28.0155</ele>
        <time>2013-05-07T16:44:13Z</time>
      </trkpt>
      <trkpt lat="59.8818435" lon="17.6871535">
        <ele>28.0155</ele>
        <time>2013-05-07T16:44:14Z</time>
      </trkpt>
      <trkpt lat="59.8818108" lon="17.6871083">
        <ele>28.4962</ele>
        <time>2013-05-07T16:44:15Z</time>
      </trkpt>
      <trkpt lat="59.8817776" lon="17.6870643">
        <ele>28.4962</ele>
        <time>2013-05-07T16:44:16Z</time>
      </trkpt>
      <trkpt lat="59.8817435" lon="17.6870199">
        <ele>28.4962</ele>
        <time>2013-05-07T16:44:17Z</time>
      </trkpt>
      <trkpt lat="59.8817092" lon="17.6869746">
        <ele>28.4962</ele>
        <time>2013-05-07T16:44:18Z</time>
      </trkpt>
      <trkpt lat="59.8816753" lon="17.6869277">
        <ele>28.4962</ele>
        <time>2013-05-07T16:44:19Z</time>
      </trkpt>
      <trkpt lat="59.8816419" lon="17.6868789">
        <ele>28.9769</ele>
        <time>2013-05-07T16:44:20Z</time>
      </trkpt>
      <trkpt lat="59.8816082" lon="17.6868297">
        <ele>28.9769</ele>
        <time>2013-05-07T16:44:21Z</time>
      </trkpt>
      <trkpt lat="59.8815741" lon="17.6867799">
        <ele>28.9769</ele>
        <time>2013-05-07T16:44:22Z</time>
      </trkpt>
      <trkpt lat="59.8815383" lon="17.6867315">
        <ele>28.9769</ele>
        <time>2013-05-07T16:44:23Z</time>
      </trkpt>
      <trkpt lat="59.8815001" lon="17.6866845">
        <ele>28.9769</ele>
        <time>2013-05-07T16:44:24Z</time>
      </trkpt>
      <trkpt lat="59.881462" lon="17.6866355">
        <ele>28.9769</ele>
        <time>2013-05-07T16:44:25Z</time>
      </trkpt>
      <trkpt lat="59.8814243" lon="17.6865839">
        <ele>28.9769</ele>
        <time>2013-05-07T16:44:26Z</time>
      </trkpt>
      <trkpt lat="59.8813865" lon="17.6865324">
        <ele>28.9769</ele>
        <time>2013-05-07T16:44:27Z</time>
      </trkpt>
      <trkpt lat="59.881349" lon="17.6864843">
        <ele>28.9769</ele>
        <time>2013-05-07T16:44:28Z</time>
      </trkpt>
      <trkpt lat="59.8813123" lon="17.686438">
        <ele>28.9769</ele>
        <time>2013-05-07T16:44:29Z</time>
      </trkpt>
      <trkpt lat="59.8812762" lon="17.6863903">
        <ele>28.9769</ele>
        <time>2013-05-07T16:44:30Z</time>
      </trkpt>
      <trkpt lat="59.881239" lon="17.686341">
        <ele>28.9769</ele>
        <time>2013-05-07T16:44:31Z</time>
      </trkpt>
      <trkpt lat="59.8812006" lon="17.6862909">
        <ele>28.9769</ele>
        <time>2013-05-07T16:44:32Z</time>
      </trkpt>
      <trkpt lat="59.8811626" lon="17.6862411">
        <ele>28.9769</ele>
        <time>2013-05-07T16:44:33Z</time>
      </trkpt>
      <trkpt lat="59.8811254" lon="17.6861915">
        <ele>28.9769</ele>
        <time>2013-05-07T16:44:34Z</time>
      </trkpt>
      <trkpt lat="59.8810892" lon="17.6861431">
        <ele>28.9769</ele>
        <time>2013-05-07T16:44:35Z</time>
      </trkpt>
      <trkpt lat="59.8810529" lon="17.6860956">
        <ele>28.9769</ele>
        <time>2013-05-07T16:44:36Z</time>
      </trkpt>
      <trkpt lat="59.8810161" lon="17.6860454">
        <ele>28.9769</ele>
        <time>2013-05-07T16:44:37Z</time>
      </trkpt>
      <trkpt lat="59.8809788" lon="17.6859934">
        <ele>28.9769</ele>
        <time>2013-05-07T16:44:38Z</time>
      </trkpt>
      <trkpt lat="59.8809415" lon="17.6859449">
        <ele>28.9769</ele>
        <time>2013-05-07T16:44:39Z</time>
      </trkpt>
      <trkpt lat="59.8809052" lon="17.6858986">
        <ele>28.9769</ele>
        <time>2013-05-07T16:44:40Z</time>
      </trkpt>
      <trkpt lat="59.8808705" lon="17.6858506">
        <ele>28.9769</ele>
        <time>2013-05-07T16:44:41Z</time>
      </trkpt>
      <trkpt lat="59.8808363" lon="17.6857996">
        <ele>28.9769</ele>
        <time>2013-05-07T16:44:42Z</time>
      </trkpt>
      <trkpt lat="59.8808006" lon="17.6857486">
        <ele>28.4962</ele>
        <time>2013-05-07T16:44:43Z</time>
      </trkpt>
      <trkpt lat="59.8807645" lon="17.6856999">
        <ele>28.4962</ele>
        <time>2013-05-07T16:44:44Z</time>
      </trkpt>
      <trkpt lat="59.8807289" lon="17.6856557">
        <ele>28.4962</ele>
        <time>2013-05-07T16:44:45Z</time>
      </trkpt>
      <trkpt lat="59.8806927" lon="17.6856119">
        <ele>28.4962</ele>
        <time>2013-05-07T16:44:46Z</time>
      </trkpt>
      <trkpt lat="59.8806566" lon="17.6855643">
        <ele>28.4962</ele>
        <time>2013-05-07T16:44:47Z</time>
      </trkpt>
      <trkpt lat="59.8806194" lon="17.6855163">
        <ele>28.4962</ele>
        <time>2013-05-07T16:44:48Z</time>
      </trkpt>
      <trkpt lat="59.8805815" lon="17.6854674">
        <ele>28.4962</ele>
        <time>2013-05-07T16:44:49Z</time>
      </trkpt>
      <trkpt lat="59.8805435" lon="17.6854174">
        <ele>28.4962</ele>
        <time>2013-05-07T16:44:50Z</time>
      </trkpt>
      <trkpt lat="59.8805043" lon="17.6853681">
        <ele>28.4962</ele>
        <time>2013-05-07T16:44:51Z</time>
      </trkpt>
      <trkpt lat="59.8804654" lon="17.6853189">
        <ele>28.4962</ele>
        <time>2013-05-07T16:44:52Z</time>
      </trkpt>
      <trkpt lat="59.8804266" lon="17.6852694">
        <ele>28.4962</ele>
        <time>2013-05-07T16:44:53Z</time>
      </trkpt>
      <trkpt lat="59.8803881" lon="17.6852202">
        <ele>28.4962</ele>
        <time>2013-05-07T16:44:54Z</time>
      </trkpt>
      <trkpt lat="59.8803494" lon="17.6851698">
        <ele>28.4962</ele>
        <time>2013-05-07T16:44:55Z</time>
      </trkpt>
      <trkpt lat="59.8803107" lon="17.6851176">
        <ele>28.4962</ele>
        <time>2013-05-07T16:44:56Z</time>
      </trkpt>
      <trkpt lat="59.8802718" lon="17.6850636">
        <ele>28.9769</ele>
        <time>2013-05-07T16:44:57Z</time>
      </trkpt>
      <trkpt lat="59.8802329" lon="17.6850088">
        <ele>28.9769</ele>
        <time>2013-05-07T16:44:58Z</time>
      </trkpt>
      <trkpt lat="59.880194" lon="17.6849554">
        <ele>28.9769</ele>
        <time>2013-05-07T16:44:59Z</time>
      </trkpt>
      <trkpt lat="59.8801547" lon="17.6849037">
        <ele>28.9769</ele>
        <time>2013-05-07T16:45:00Z</time>
      </trkpt>
      <trkpt lat="59.8801163" lon="17.6848514">
        <ele>29.4575</ele>
        <time>2013-05-07T16:45:01Z</time>
      </trkpt>
      <trkpt lat="59.8800781" lon="17.6847986">
        <ele>29.4575</ele>
        <time>2013-05-07T16:45:02Z</time>
      </trkpt>
      <trkpt lat="59.8800401" lon="17.6847481">
        <ele>29.4575</ele>
        <time>2013-05-07T16:45:03Z</time>
      </trkpt>
      <trkpt lat="59.880003" lon="17.684696">
        <ele>29.4575</ele>
        <time>2013-05-07T16:45:04Z</time>
      </trkpt>
      <trkpt lat="59.8799672" lon="17.6846407">
        <ele>29.9381</ele>
        <time>2013-05-07T16:45:05Z</time>
      </trkpt>
      <trkpt lat="59.8799319" lon="17.6845859">
        <ele>29.9381</ele>
        <time>2013-05-07T16:45:06Z</time>
      </trkpt>
      <trkpt lat="59.8798962" lon="17.6845322">
        <ele>29.9381</ele>
        <time>2013-05-07T16:45:07Z</time>
      </trkpt>
      <trkpt lat="59.8798611" lon="17.6844804">
        <ele>30.4188</ele>
        <time>2013-05-07T16:45:08Z</time>
      </trkpt>
      <trkpt lat="59.8798252" lon="17.6844329">
        <ele>30.4188</ele>
        <time>2013-05-07T16:45:09Z</time>
      </trkpt>
      <trkpt lat="59.8797872" lon="17.6843875">
        <ele>30.4188</ele>
        <time>2013-05-07T16:45:10Z</time>
      </trkpt>
      <trkpt lat="59.8797491" lon="17.6843412">
        <ele>30.4188</ele>
        <time>2013-05-07T16:45:11Z</time>
      </trkpt>
      <trkpt lat="59.8797092" lon="17.6842959">
        <ele>30.4188</ele>
        <time>2013-05-07T16:45:12Z</time>
      </trkpt>
      <trkpt lat="59.8796688" lon="17.6842493">
        <ele>30.4188</ele>
        <time>2013-05-07T16:45:13Z</time>
      </trkpt>
      <trkpt lat="59.8796282" lon="17.6842006">
        <ele>30.4188</ele>
        <time>2013-05-07T16:45:14Z</time>
      </trkpt>
      <trkpt lat="59.8795869" lon="17.6841511">
        <ele>30.4188</ele>
        <time>2013-05-07T16:45:15Z</time>
      </trkpt>
      <trkpt lat="59.8795446" lon="17.6841039">
        <ele>30.4188</ele>
        <time>2013-05-07T16:45:16Z</time>
      </trkpt>
      <trkpt lat="59.879503" lon="17.6840537">
        <ele>30.4188</ele>
        <time>2013-05-07T16:45:17Z</time>
      </trkpt>
      <trkpt lat="59.8794611" lon="17.6840018">
        <ele>30.4188</ele>
        <time>2013-05-07T16:45:18Z</time>
      </trkpt>
      <trkpt lat="59.8794171" lon="17.6839505">
        <ele>30.4188</ele>
        <time>2013-05-07T16:45:19Z</time>
      </trkpt>
      <trkpt lat="59.8793728" lon="17.6839035">
        <ele>30.4188</ele>
        <time>2013-05-07T16:45:20Z</time>
      </trkpt>
      <trkpt lat="59.8793285" lon="17.6838589">
        <ele>30.4188</ele>
        <time>2013-05-07T16:45:21Z</time>
      </trkpt>
      <trkpt lat="59.8792848" lon="17.6838127">
        <ele>30.8995</ele>
        <time>2013-05-07T16:45:22Z</time>
      </trkpt>
      <trkpt lat="59.8792425" lon="17.6837661">
        <ele>30.8995</ele>
        <time>2013-05-07T16:45:23Z</time>
      </trkpt>
      <trkpt lat="59.8792011" lon="17.6837206">
        <ele>30.8995</ele>
        <time>2013-05-07T16:45:24Z</time>
      </trkpt>
      <trkpt lat="59.8791589" lon="17.683676">
        <ele>31.3801</ele>
        <time>2013-05-07T16:45:25Z</time>
      </trkpt>
      <trkpt lat="59.879114" lon="17.6836321">
        <ele>31.3801</ele>
        <time>2013-05-07T16:45:26Z</time>
      </trkpt>
      <trkpt lat="59.8790718" lon="17.6835867">
        <ele>31.8607</ele>
        <time>2013-05-07T16:45:27Z</time>
      </trkpt>
      <trkpt lat="59.8790347" lon="17.6835367">
        <ele>31.8607</ele>
        <time>2013-05-07T16:45:28Z</time>
      </trkpt>
      <trkpt lat="59.8789995" lon="17.6834838">
        <ele>31.8607</ele>
        <time>2013-05-07T16:45:29Z</time>
      </trkpt>
      <trkpt lat="59.8789654" lon="17.6834318">
        <ele>31.8607</ele>
        <time>2013-05-07T16:45:30Z</time>
      </trkpt>
      <trkpt lat="59.8789318" lon="17.6833828">
        <ele>32.3416</ele>
        <time>2013-05-07T16:45:31Z</time>
      </trkpt>
      <trkpt lat="59.8788975" lon="17.6833375">
        <ele>32.3416</ele>
        <time>2013-05-07T16:45:32Z</time>
      </trkpt>
      <trkpt lat="59.8788638" lon="17.6832909">
        <ele>32.3416</ele>
        <time>2013-05-07T16:45:33Z</time>
      </trkpt>
      <trkpt lat="59.8788306" lon="17.6832404">
        <ele>32.3416</ele>
        <time>2013-05-07T16:45:34Z</time>
      </trkpt>
      <trkpt lat="59.8787975" lon="17.6831891">
        <ele>32.3416</ele>
        <time>2013-05-07T16:45:35Z</time>
      </trkpt>
      <trkpt lat="59.8787648" lon="17.6831399">
        <ele>32.8223</ele>
        <time>2013-05-07T16:45:36Z</time>
      </trkpt>
      <trkpt lat="59.8787332" lon="17.6830956">
        <ele>32.8223</ele>
        <time>2013-05-07T16:45:37Z</time>
      </trkpt>
      <trkpt lat="59.8787036" lon="17.6830535">
        <ele>32.8223</ele>
        <time>2013-05-07T16:45:38Z</time>
      </trkpt>
      <trkpt lat="59.8786763" lon="17.6830135">
        <ele>32.8223</ele>
        <time>2013-05-07T16:45:39Z</time>
      </trkpt>
      <trkpt lat="59.8786507" lon="17.6829788">
        <ele>32.8223</ele>
        <time>2013-05-07T16:45:40Z</time>
      </trkpt>
      <trkpt lat="59.8786266" lon="17.682949">
        <ele>33.3029</ele>
        <time>2013-05-07T16:45:41Z</time>
      </trkpt>
      <trkpt lat="59.8786053" lon="17.6829182">
        <ele>33.3029</ele>
        <time>2013-05-07T16:45:42Z</time>
      </trkpt>
      <trkpt lat="59.8785902" lon="17.6828855">
        <ele>33.7834</ele>
        <time>2013-05-07T16:45:43Z</time>
      </trkpt>
      <trkpt lat="59.8785701" lon="17.6828586">
        <ele>33.7834</ele>
        <time>2013-05-07T16:45:44Z</time>
      </trkpt>
      <trkpt lat="59.8785497" lon="17.6828356">
        <ele>34.2642</ele>
        <time>2013-05-07T16:45:45Z</time>
      </trkpt>
      <trkpt lat="59.8785326" lon="17.6828071">
        <ele>33.7834</ele>
        <time>2013-05-07T16:45:46Z</time>
      </trkpt>
      <trkpt lat="59.8785197" lon="17.6827732">
        <ele>33.7834</ele>
        <time>2013-05-07T16:45:47Z</time>
      </trkpt>
      <trkpt lat="59.8785101" lon="17.6827379">
        <ele>33.3029</ele>
        <time>2013-05-07T16:45:48Z</time>
      </trkpt>
      <trkpt lat="59.8785012" lon="17.6826995">
        <ele>33.3029</ele>
        <time>2013-05-07T16:45:49Z</time>
      </trkpt>
      <trkpt lat="59.8784909" lon="17.6826541">
        <ele>33.3029</ele>
        <time>2013-05-07T16:45:50Z</time>
      </trkpt>
      <trkpt lat="59.8784763" lon="17.6826177">
        <ele>33.3029</ele>
        <time>2013-05-07T16:45:51Z</time>
      </trkpt>
      <trkpt lat="59.8784566" lon="17.6825825">
        <ele>32.8223</ele>
        <time>2013-05-07T16:45:52Z</time>
      </trkpt>
      <trkpt lat="59.8784342" lon="17.6825472">
        <ele>33.3029</ele>
        <time>2013-05-07T16:45:53Z</time>
      </trkpt>
      <trkpt lat="59.8784078" lon="17.6825088">
        <ele>33.3029</ele>
        <time>2013-05-07T16:45:54Z</time>
      </trkpt>
      <trkpt lat="59.8783816" lon="17.6824621">
        <ele>33.3029</ele>
        <time>2013-05-07T16:45:55Z</time>
      </trkpt>
      <trkpt lat="59.8783568" lon="17.6824115">
        <ele>33.3029</ele>
        <time>2013-05-07T16:45:56Z</time>
      </trkpt>
      <trkpt lat="59.8783334" lon="17.6823618">
        <ele>32.8223</ele>
        <time>2013-05-07T16:45:57Z</time>
      </trkpt>
      <trkpt lat="59.8783133" lon="17.6823094">
        <ele>32.8223</ele>
        <time>2013-05-07T16:45:58Z</time>
      </trkpt>
      <trkpt lat="59.8782965" lon="17.6822563">
        <ele>32.8223</ele>
        <time>2013-05-07T16:45:59Z</time>
      </trkpt>
      <trkpt lat="59.8782804" lon="17.6821955">
        <ele>32.3416</ele>
        <time>2013-05-07T16:46:00Z</time>
      </trkpt>
      <trkpt lat="59.8782623" lon="17.682126">
        <ele>32.3416</ele>
        <time>2013-05-07T16:46:01Z</time>
      </trkpt>
      <trkpt lat="59.8782449" lon="17.6820489">
        <ele>32.3416</ele>
        <time>2013-05-07T16:46:02Z</time>
      </trkpt>
      <trkpt lat="59.8782268" lon="17.6819661">
        <ele>32.3416</ele>
        <time>2013-05-07T16:46:03Z</time>
      </trkpt>
      <trkpt lat="59.878212" lon="17.6818744">
        <ele>31.8607</ele>
        <time>2013-05-07T16:46:04Z</time>
      </trkpt>
      <trkpt lat="59.8781879" lon="17.6817814">
        <ele>31.3801</ele>
        <time>2013-05-07T16:46:05Z</time>
      </trkpt>
      <trkpt lat="59.8781614" lon="17.6816857">
        <ele>30.8995</ele>
        <time>2013-05-07T16:46:06Z</time>
      </trkpt>
      <trkpt lat="59.8781244" lon="17.6815998">
        <ele>30.8995</ele>
        <time>2013-05-07T16:46:07Z</time>
      </trkpt>
      <trkpt lat="59.8780855" lon="17.6815138">
        <ele>30.4188</ele>
        <time>2013-05-07T16:46:08Z</time>
      </trkpt>
      <trkpt lat="59.8780465" lon="17.6814235">
        <ele>30.4188</ele>
        <time>2013-05-07T16:46:09Z</time>
      </trkpt>
      <trkpt lat="59.8780174" lon="17.681321">
        <ele>30.8995</ele>
        <time>2013-05-07T16:46:10Z</time>
      </trkpt>
      <trkpt lat="59.8779749" lon="17.6812212">
        <ele>30.8995</ele>
        <time>2013-05-07T16:46:11Z</time>
      </trkpt>
      <trkpt lat="59.8779305" lon="17.681119">
        <ele>30.4188</ele>
        <time>2013-05-07T16:46:12Z</time>
      </trkpt>
      <trkpt lat="59.8778846" lon="17.681012">
        <ele>30.4188</ele>
        <time>2013-05-07T16:46:13Z</time>
      </trkpt>
      <trkpt lat="59.8778361" lon="17.6809017">
        <ele>29.9381</ele>
        <time>2013-05-07T16:46:14Z</time>
      </trkpt>
      <trkpt lat="59.8777861" lon="17.6807881">
        <ele>29.9381</ele>
        <time>2013-05-07T16:46:15Z</time>
      </trkpt>
      <trkpt lat="59.8777343" lon="17.6806716">
        <ele>29.4575</ele>
        <time>2013-05-07T16:46:16Z</time>
      </trkpt>
      <trkpt lat="59.8776822" lon="17.6805536">
        <ele>29.4575</ele>
        <time>2013-05-07T16:46:17Z</time>
      </trkpt>
      <trkpt lat="59.8776307" lon="17.6804374">
        <ele>28.9769</ele>
        <time>2013-05-07T16:46:18Z</time>
      </trkpt>
      <trkpt lat="59.8775821" lon="17.6803223">
        <ele>28.9769</ele>
        <time>2013-05-07T16:46:19Z</time>
      </trkpt>
      <trkpt lat="59.8775423" lon="17.6802043">
        <ele>28.9769</ele>
        <time>2013-05-07T16:46:20Z</time>
      </trkpt>
      <trkpt lat="59.8775166" lon="17.6800826">
        <ele>28.4962</ele>
        <time>2013-05-07T16:46:21Z</time>
      </trkpt>
      <trkpt lat="59.8775077" lon="17.6799578">
        <ele>28.4962</ele>
        <time>2013-05-07T16:46:22Z</time>
      </trkpt>
      <trkpt lat="59.8775147" lon="17.6798348">
        <ele>28.0155</ele>
        <time>2013-05-07T16:46:23Z</time>
      </trkpt>
      <trkpt lat="59.8775345" lon="17.6797216">
        <ele>27.5349</ele>
        <time>2013-05-07T16:46:24Z</time>
      </trkpt>
      <trkpt lat="59.8775627" lon="17.6796215">
        <ele>27.5349</ele>
        <time>2013-05-07T16:46:25Z</time>
      </trkpt>
      <trkpt lat="59.8775961" lon="17.6795348">
        <ele>27.0543</ele>
        <time>2013-05-07T16:46:26Z</time>
      </trkpt>
      <trkpt lat="59.8776258" lon="17.6794533">
        <ele>26.5736</ele>
        <time>2013-05-07T16:46:27Z</time>
      </trkpt>
      <trkpt lat="59.8776442" lon="17.679373">
        <ele>26.5736</ele>
        <time>2013-05-07T16:46:28Z</time>
      </trkpt>
      <trkpt lat="59.8776465" lon="17.6793024">
        <ele>26.0929</ele>
        <time>2013-05-07T16:46:29Z</time>
      </trkpt>
      <trkpt lat="59.8776426" lon="17.6792392">
        <ele>26.0929</ele>
        <time>2013-05-07T16:46:30Z</time>
      </trkpt>
      <trkpt lat="59.8776512" lon="17.6791852">
        <ele>25.6123</ele>
        <time>2013-05-07T16:46:31Z</time>
      </trkpt>
      <trkpt lat="59.8776729" lon="17.6791464">
        <ele>25.6123</ele>
        <time>2013-05-07T16:46:32Z</time>
      </trkpt>
      <trkpt lat="59.8776988" lon="17.6791124">
        <ele>25.6123</ele>
        <time>2013-05-07T16:46:33Z</time>
      </trkpt>
      <trkpt lat="59.8777255" lon="17.679075">
        <ele>25.6123</ele>
        <time>2013-05-07T16:46:34Z</time>
      </trkpt>
      <trkpt lat="59.8777526" lon="17.6790376">
        <ele>25.6123</ele>
        <time>2013-05-07T16:46:35Z</time>
      </trkpt>
      <trkpt lat="59.87778" lon="17.6790021">
        <ele>25.6123</ele>
        <time>2013-05-07T16:46:36Z</time>
      </trkpt>
      <trkpt lat="59.8778076" lon="17.6789651">
        <ele>25.6123</ele>
        <time>2013-05-07T16:46:37Z</time>
      </trkpt>
      <trkpt lat="59.8778353" lon="17.6789282">
        <ele>25.6123</ele>
        <time>2013-05-07T16:46:38Z</time>
      </trkpt>
      <trkpt lat="59.8778625" lon="17.6788944">
        <ele>25.6123</ele>
        <time>2013-05-07T16:46:39Z</time>
      </trkpt>
      <trkpt lat="59.8778877" lon="17.6788578">
        <ele>25.6123</ele>
        <time>2013-05-07T16:46:40Z</time>
      </trkpt>
      <trkpt lat="59.8779101" lon="17.678816">
        <ele>25.1317</ele>
        <time>2013-05-07T16:46:41Z</time>
      </trkpt>
      <trkpt lat="59.8779335" lon="17.6787716">
        <ele>25.1317</ele>
        <time>2013-05-07T16:46:42Z</time>
      </trkpt>
      <trkpt lat="59.8779599" lon="17.6787264">
        <ele>25.1317</ele>
        <time>2013-05-07T16:46:43Z</time>
      </trkpt>
      <trkpt lat="59.8779879" lon="17.6786762">
        <ele>25.1317</ele>
        <time>2013-05-07T16:46:44Z</time>
      </trkpt>
      <trkpt lat="59.8780142" lon="17.6786164">
        <ele>25.1317</ele>
        <time>2013-05-07T16:46:45Z</time>
      </trkpt>
      <trkpt lat="59.8780387" lon="17.6785519">
        <ele>25.1317</ele>
        <time>2013-05-07T16:46:46Z</time>
      </trkpt>
      <trkpt lat="59.8780618" lon="17.6784893">
        <ele>25.1317</ele>
        <time>2013-05-07T16:46:47Z</time>
      </trkpt>
      <trkpt lat="59.8780843" lon="17.6784307">
        <ele>25.1317</ele>
        <time>2013-05-07T16:46:48Z</time>
      </trkpt>
      <trkpt lat="59.878108" lon="17.6783756">
        <ele>25.1317</ele>
        <time>2013-05-07T16:46:49Z</time>
      </trkpt>
      <trkpt lat="59.8781337" lon="17.6783199">
        <ele>24.651</ele>
        <time>2013-05-07T16:46:50Z</time>
      </trkpt>
      <trkpt lat="59.878161" lon="17.6782605">
        <ele>24.651</ele>
        <time>2013-05-07T16:46:51Z</time>
      </trkpt>
      <trkpt lat="59.8781899" lon="17.6781963">
        <ele>24.651</ele>
        <time>2013-05-07T16:46:52Z</time>
      </trkpt>
      <trkpt lat="59.8782189" lon="17.6781231">
        <ele>24.651</ele>
        <time>2013-05-07T16:46:53Z</time>
      </trkpt>
      <trkpt lat="59.8782483" lon="17.6780469">
        <ele>24.1703</ele>
        <time>2013-05-07T16:46:54Z</time>
      </trkpt>
      <trkpt lat="59.8782783" lon="17.6779736">
        <ele>24.651</ele>
        <time>2013-05-07T16:46:55Z</time>
      </trkpt>
      <trkpt lat="59.87831" lon="17.6779033">
        <ele>24.651</ele>
        <time>2013-05-07T16:46:56Z</time>
      </trkpt>
      <trkpt lat="59.8783426" lon="17.6778363">
        <ele>24.651</ele>
        <time>2013-05-07T16:46:57Z</time>
      </trkpt>
      <trkpt lat="59.8783746" lon="17.677765">
        <ele>24.651</ele>
        <time>2013-05-07T16:46:58Z</time>
      </trkpt>
      <trkpt lat="59.8784068" lon="17.6776899">
        <ele>24.651</ele>
        <time>2013-05-07T16:46:59Z</time>
      </trkpt>
      <trkpt lat="59.8784395" lon="17.6776137">
        <ele>24.651</ele>
        <time>2013-05-07T16:47:00Z</time>
      </trkpt>
      <trkpt lat="59.8784733" lon="17.6775375">
        <ele>24.651</ele>
        <time>2013-05-07T16:47:01Z</time>
      </trkpt>
      <trkpt lat="59.8785083" lon="17.6774612">
        <ele>24.651</ele>
        <time>2013-05-07T16:47:02Z</time>
      </trkpt>
      <trkpt lat="59.8785425" lon="17.677383">
        <ele>25.1317</ele>
        <time>2013-05-07T16:47:03Z</time>
      </trkpt>
      <trkpt lat="59.8785768" lon="17.6773044">
        <ele>25.1317</ele>
        <time>2013-05-07T16:47:04Z</time>
      </trkpt>
      <trkpt lat="59.878612" lon="17.6772257">
        <ele>25.1317</ele>
        <time>2013-05-07T16:47:05Z</time>
      </trkpt>
      <trkpt lat="59.8786473" lon="17.6771435">
        <ele>25.1317</ele>
        <time>2013-05-07T16:47:06Z</time>
      </trkpt>
      <trkpt lat="59.8786834" lon="17.6770583">
        <ele>25.1317</ele>
        <time>2013-05-07T16:47:07Z</time>
      </trkpt>
      <trkpt lat="59.8787202" lon="17.676974">
        <ele>25.1317</ele>
        <time>2013-05-07T16:47:08Z</time>
      </trkpt>
      <trkpt lat="59.8787582" lon="17.6768925">
        <ele>25.1317</ele>
        <time>2013-05-07T16:47:09Z</time>
      </trkpt>
      <trkpt lat="59.8787971" lon="17.6768113">
        <ele>25.6123</ele>
        <time>2013-05-07T16:47:10Z</time>
      </trkpt>
      <trkpt lat="59.8788364" lon="17.6767298">
        <ele>25.6123</ele>
        <time>2013-05-07T16:47:11Z</time>
      </trkpt>
      <trkpt lat="59.8788753" lon="17.6766507">
        <ele>25.6123</ele>
        <time>2013-05-07T16:47:12Z</time>
      </trkpt>
      <trkpt lat="59.8789149" lon="17.6765758">
        <ele>25.6123</ele>
        <time>2013-05-07T16:47:13Z</time>
      </trkpt>
      <trkpt lat="59.8789561" lon="17.6765062">
        <ele>25.6123</ele>
        <time>2013-05-07T16:47:14Z</time>
      </trkpt>
      <trkpt lat="59.8789985" lon="17.6764377">
        <ele>25.6123</ele>
        <time>2013-05-07T16:47:15Z</time>
      </trkpt>
      <trkpt lat="59.8790409" lon="17.6763684">
        <ele>25.6123</ele>
        <time>2013-05-07T16:47:16Z</time>
      </trkpt>
      <trkpt lat="59.879084" lon="17.6762995">
        <ele>25.6123</ele>
        <time>2013-05-07T16:47:17Z</time>
      </trkpt>
      <trkpt lat="59.8791298" lon="17.6762308">
        <ele>25.1317</ele>
        <time>2013-05-07T16:47:18Z</time>
      </trkpt>
      <trkpt lat="59.8791768" lon="17.676161">
        <ele>25.1317</ele>
        <time>2013-05-07T16:47:19Z</time>
      </trkpt>
      <trkpt lat="59.8792222" lon="17.6760897">
        <ele>25.1317</ele>
        <time>2013-05-07T16:47:20Z</time>
      </trkpt>
      <trkpt lat="59.8792658" lon="17.6760213">
        <ele>24.651</ele>
        <time>2013-05-07T16:47:21Z</time>
      </trkpt>
      <trkpt lat="59.8793093" lon="17.675957">
        <ele>24.651</ele>
        <time>2013-05-07T16:47:22Z</time>
      </trkpt>
      <trkpt lat="59.8793545" lon="17.675893">
        <ele>24.1703</ele>
        <time>2013-05-07T16:47:23Z</time>
      </trkpt>
      <trkpt lat="59.879401" lon="17.6758275">
        <ele>24.1703</ele>
        <time>2013-05-07T16:47:24Z</time>
      </trkpt>
      <trkpt lat="59.8794481" lon="17.6757596">
        <ele>24.1703</ele>
        <time>2013-05-07T16:47:25Z</time>
      </trkpt>
      <trkpt lat="59.8794945" lon="17.6756888">
        <ele>24.1703</ele>
        <time>2013-05-07T16:47:26Z</time>
      </trkpt>
      <trkpt lat="59.8795396" lon="17.6756161">
        <ele>24.1703</ele>
        <time>2013-05-07T16:47:27Z</time>
      </trkpt>
      <trkpt lat="59.8795842" lon="17.6755451">
        <ele>23.6896</ele>
        <time>2013-05-07T16:47:28Z</time>
      </trkpt>
      <trkpt lat="59.87963" lon="17.6754769">
        <ele>23.6896</ele>
        <time>2013-05-07T16:47:29Z</time>
      </trkpt>
      <trkpt lat="59.8796779" lon="17.6754107">
        <ele>23.6896</ele>
        <time>2013-05-07T16:47:30Z</time>
      </trkpt>
      <trkpt lat="59.8797271" lon="17.6753437">
        <ele>23.209</ele>
        <time>2013-05-07T16:47:31Z</time>
      </trkpt>
      <trkpt lat="59.8797754" lon="17.6752739">
        <ele>23.209</ele>
        <time>2013-05-07T16:47:32Z</time>
      </trkpt>
      <trkpt lat="59.8798226" lon="17.6752007">
        <ele>23.209</ele>
        <time>2013-05-07T16:47:33Z</time>
      </trkpt>
      <trkpt lat="59.8798694" lon="17.6751292">
        <ele>22.7283</ele>
        <time>2013-05-07T16:47:34Z</time>
      </trkpt>
      <trkpt lat="59.8799159" lon="17.6750569">
        <ele>22.7283</ele>
        <time>2013-05-07T16:47:35Z</time>
      </trkpt>
      <trkpt lat="59.8799631" lon="17.6749921">
        <ele>22.7283</ele>
        <time>2013-05-07T16:47:36Z</time>
      </trkpt>
      <trkpt lat="59.8800108" lon="17.6749289">
        <ele>22.2476</ele>
        <time>2013-05-07T16:47:37Z</time>
      </trkpt>
      <trkpt lat="59.8800633" lon="17.6748819">
        <ele>22.2476</ele>
        <time>2013-05-07T16:47:38Z</time>
      </trkpt>
      <trkpt lat="59.880119" lon="17.6748247">
        <ele>21.767</ele>
        <time>2013-05-07T16:47:39Z</time>
      </trkpt>
      <trkpt lat="59.880178" lon="17.6747693">
        <ele>21.2864</ele>
        <time>2013-05-07T16:47:40Z</time>
      </trkpt>
      <trkpt lat="59.8802403" lon="17.6747144">
        <ele>20.8057</ele>
        <time>2013-05-07T16:47:41Z</time>
      </trkpt>
      <trkpt lat="59.8803054" lon="17.6746579">
        <ele>20.8057</ele>
        <time>2013-05-07T16:47:42Z</time>
      </trkpt>
      <trkpt lat="59.8803728" lon="17.6746039">
        <ele>20.8057</ele>
        <time>2013-05-07T16:47:43Z</time>
      </trkpt>
      <trkpt lat="59.880441" lon="17.6745461">
        <ele>20.8057</ele>
        <time>2013-05-07T16:47:44Z</time>
      </trkpt>
      <trkpt lat="59.8805093" lon="17.6744871">
        <ele>20.325</ele>
        <time>2013-05-07T16:47:45Z</time>
      </trkpt>
      <trkpt lat="59.8805779" lon="17.6744254">
        <ele>19.8444</ele>
        <time>2013-05-07T16:47:46Z</time>
      </trkpt>
      <trkpt lat="59.8806479" lon="17.6743622">
        <ele>19.8444</ele>
        <time>2013-05-07T16:47:47Z</time>
      </trkpt>
      <trkpt lat="59.8807196" lon="17.6742985">
        <ele>19.3638</ele>
        <time>2013-05-07T16:47:48Z</time>
      </trkpt>
      <trkpt lat="59.8807909" lon="17.6742321">
        <ele>18.8831</ele>
        <time>2013-05-07T16:47:49Z</time>
      </trkpt>
      <trkpt lat="59.8808614" lon="17.6741613">
        <ele>18.4023</ele>
        <time>2013-05-07T16:47:50Z</time>
      </trkpt>
      <trkpt lat="59.8809326" lon="17.6740882">
        <ele>18.4023</ele>
        <time>2013-05-07T16:47:51Z</time>
      </trkpt>
      <trkpt lat="59.8810057" lon="17.6740162">
        <ele>18.4023</ele>
        <time>2013-05-07T16:47:52Z</time>
      </trkpt>
      <trkpt lat="59.8810793" lon="17.6739427">
        <ele>17.9218</ele>
        <time>2013-05-07T16:47:53Z</time>
      </trkpt>
      <trkpt lat="59.8811545" lon="17.6738757">
        <ele>17.9218</ele>
        <time>2013-05-07T16:47:54Z</time>
      </trkpt>
      <trkpt lat="59.8812278" lon="17.6738049">
        <ele>17.4412</ele>
        <time>2013-05-07T16:47:55Z</time>
      </trkpt>
      <trkpt lat="59.8812959" lon="17.6737244">
        <ele>17.4412</ele>
        <time>2013-05-07T16:47:56Z</time>
      </trkpt>
      <trkpt lat="59.8813588" lon="17.6736355">
        <ele>17.4412</ele>
        <time>2013-05-07T16:47:57Z</time>
      </trkpt>
      <trkpt lat="59.8814205" lon="17.6735535">
        <ele>17.4412</ele>
        <time>2013-05-07T16:47:58Z</time>
      </trkpt>
      <trkpt lat="59.8814865" lon="17.6734924">
        <ele>17.9218</ele>
        <time>2013-05-07T16:47:59Z</time>
      </trkpt>
      <trkpt lat="59.8815555" lon="17.6734573">
        <ele>17.9218</ele>
        <time>2013-05-07T16:48:00Z</time>
      </trkpt>
      <trkpt lat="59.8816258" lon="17.6734231">
        <ele>18.4023</ele>
        <time>2013-05-07T16:48:01Z</time>
      </trkpt>
      <trkpt lat="59.8816976" lon="17.6733794">
        <ele>18.4023</ele>
        <time>2013-05-07T16:48:02Z</time>
      </trkpt>
      <trkpt lat="59.8817683" lon="17.6733288">
        <ele>18.8831</ele>
        <time>2013-05-07T16:48:03Z</time>
      </trkpt>
      <trkpt lat="59.8818362" lon="17.6732728">
        <ele>19.3638</ele>
        <time>2013-05-07T16:48:04Z</time>
      </trkpt>
      <trkpt lat="59.8819018" lon="17.6732164">
        <ele>19.3638</ele>
        <time>2013-05-07T16:48:05Z</time>
      </trkpt>
      <trkpt lat="59.8819635" lon="17.6731567">
        <ele>19.8444</ele>
        <time>2013-05-07T16:48:06Z</time>
      </trkpt>
      <trkpt lat="59.8820211" lon="17.6730931">
        <ele>20.325</ele>
        <time>2013-05-07T16:48:07Z</time>
      </trkpt>
      <trkpt lat="59.882074" lon="17.6730238">
        <ele>20.325</ele>
        <time>2013-05-07T16:48:08Z</time>
      </trkpt>
      <trkpt lat="59.8821184" lon="17.6729445">
        <ele>20.8057</ele>
        <time>2013-05-07T16:48:09Z</time>
      </trkpt>
      <trkpt lat="59.8821547" lon="17.6728661">
        <ele>20.8057</ele>
        <time>2013-05-07T16:48:10Z</time>
      </trkpt>
      <trkpt lat="59.8821858" lon="17.672793">
        <ele>20.8057</ele>
        <time>2013-05-07T16:48:11Z</time>
      </trkpt>
      <trkpt lat="59.8822141" lon="17.6727308">
        <ele>20.8057</ele>
        <time>2013-05-07T16:48:12Z</time>
      </trkpt>
      <trkpt lat="59.8822372" lon="17.6726822">
        <ele>20.8057</ele>
        <time>2013-05-07T16:48:13Z</time>
      </trkpt>
      <trkpt lat="59.8822579" lon="17.6726429">
        <ele>20.8057</ele>
        <time>2013-05-07T16:48:14Z</time>
      </trkpt>
      <trkpt lat="59.8822805" lon="17.6726028">
        <ele>20.8057</ele>
        <time>2013-05-07T16:48:15Z</time>
      </trkpt>
      <trkpt lat="59.8823091" lon="17.6725617">
        <ele>21.2864</ele>
        <time>2013-05-07T16:48:16Z</time>
      </trkpt>
      <trkpt lat="59.882348" lon="17.672523">
        <ele>21.2864</ele>
        <time>2013-05-07T16:48:17Z</time>
      </trkpt>
      <trkpt lat="59.8823946" lon="17.672484">
        <ele>20.8057</ele>
        <time>2013-05-07T16:48:18Z</time>
      </trkpt>
      <trkpt lat="59.8824465" lon="17.6724392">
        <ele>20.8057</ele>
        <time>2013-05-07T16:48:19Z</time>
      </trkpt>
      <trkpt lat="59.8825019" lon="17.6723916">
        <ele>20.8057</ele>
        <time>2013-05-07T16:48:20Z</time>
      </trkpt>
      <trkpt lat="59.8825592" lon="17.6723415">
        <ele>20.8057</ele>
        <time>2013-05-07T16:48:21Z</time>
      </trkpt>
      <trkpt lat="59.8826176" lon="17.6722899">
        <ele>20.8057</ele>
        <time>2013-05-07T16:48:22Z</time>
      </trkpt>
      <trkpt lat="59.8826779" lon="17.6722376">
        <ele>20.8057</ele>
        <time>2013-05-07T16:48:23Z</time>
      </trkpt>
      <trkpt lat="59.8827412" lon="17.6721838">
        <ele>20.8057</ele>
        <time>2013-05-07T16:48:24Z</time>
      </trkpt>
      <trkpt lat="59.8828074" lon="17.6721265">
        <ele>20.8057</ele>
        <time>2013-05-07T16:48:25Z</time>
      </trkpt>
      <trkpt lat="59.8828761" lon="17.6720657">
        <ele>20.8057</ele>
        <time>2013-05-07T16:48:26Z</time>
      </trkpt>
      <trkpt lat="59.8829462" lon="17.6720033">
        <ele>20.8057</ele>
        <time>2013-05-07T16:48:27Z</time>
      </trkpt>
      <trkpt lat="59.8830167" lon="17.6719378">
        <ele>20.8057</ele>
        <time>2013-05-07T16:48:28Z</time>
      </trkpt>
      <trkpt lat="59.8830871" lon="17.671868">
        <ele>20.8057</ele>
        <time>2013-05-07T16:48:29Z</time>
      </trkpt>
      <trkpt lat="59.8831582" lon="17.6717968">
        <ele>20.8057</ele>
        <time>2013-05-07T16:48:30Z</time>
      </trkpt>
      <trkpt lat="59.8832309" lon="17.6717245">
        <ele>20.8057</ele>
        <time>2013-05-07T16:48:31Z</time>
      </trkpt>
      <trkpt lat="59.8833033" lon="17.6716473">
        <ele>20.8057</ele>
        <time>2013-05-07T16:48:32Z</time>
      </trkpt>
      <trkpt lat="59.8833751" lon="17.6715665">
        <ele>20.8057</ele>
        <time>2013-05-07T16:48:33Z</time>
      </trkpt>
      <trkpt lat="59.8834467" lon="17.6714829">
        <ele>20.8057</ele>
        <time>2013-05-07T16:48:34Z</time>
      </trkpt>
      <trkpt lat="59.883518" lon="17.6713974">
        <ele>20.8057</ele>
        <time>2013-05-07T16:48:35Z</time>
      </trkpt>
      <trkpt lat="59.88359" lon="17.6713143">
        <ele>20.8057</ele>
        <time>2013-05-07T16:48:36Z</time>
      </trkpt>
      <trkpt lat="59.8836642" lon="17.6712412">
        <ele>20.8057</ele>
        <time>2013-05-07T16:48:37Z</time>
      </trkpt>
      <trkpt lat="59.8837408" lon="17.6711924">
        <ele>20.325</ele>
        <time>2013-05-07T16:48:38Z</time>
      </trkpt>
      <trkpt lat="59.8838181" lon="17.671166">
        <ele>20.325</ele>
        <time>2013-05-07T16:48:39Z</time>
      </trkpt>
      <trkpt lat="59.8838929" lon="17.6711319">
        <ele>20.325</ele>
        <time>2013-05-07T16:48:40Z</time>
      </trkpt>
      <trkpt lat="59.8839577" lon="17.6710676">
        <ele>20.325</ele>
        <time>2013-05-07T16:48:41Z</time>
      </trkpt>
      <trkpt lat="59.8840088" lon="17.6709697">
        <ele>20.325</ele>
        <time>2013-05-07T16:48:42Z</time>
      </trkpt>
      <trkpt lat="59.8840438" lon="17.6708485">
        <ele>20.325</ele>
        <time>2013-05-07T16:48:43Z</time>
      </trkpt>
      <trkpt lat="59.8840687" lon="17.670715">
        <ele>19.8444</ele>
        <time>2013-05-07T16:48:44Z</time>
      </trkpt>
      <trkpt lat="59.8840942" lon="17.6705786">
        <ele>19.8444</ele>
        <time>2013-05-07T16:48:45Z</time>
      </trkpt>
      <trkpt lat="59.8841289" lon="17.6704508">
        <ele>19.8444</ele>
        <time>2013-05-07T16:48:46Z</time>
      </trkpt>
      <trkpt lat="59.884175" lon="17.6703346">
        <ele>19.8444</ele>
        <time>2013-05-07T16:48:47Z</time>
      </trkpt>
      <trkpt lat="59.8842257" lon="17.6702233">
        <ele>19.8444</ele>
        <time>2013-05-07T16:48:48Z</time>
      </trkpt>
      <trkpt lat="59.884277" lon="17.6701166">
        <ele>19.8444</ele>
        <time>2013-05-07T16:48:49Z</time>
      </trkpt>
      <trkpt lat="59.8843265" lon="17.6700081">
        <ele>19.8444</ele>
        <time>2013-05-07T16:48:50Z</time>
      </trkpt>
      <trkpt lat="59.8843753" lon="17.6699007">
        <ele>19.8444</ele>
        <time>2013-05-07T16:48:51Z</time>
      </trkpt>
      <trkpt lat="59.8844227" lon="17.6697907">
        <ele>19.8444</ele>
        <time>2013-05-07T16:48:52Z</time>
      </trkpt>
      <trkpt lat="59.8844685" lon="17.6696794">
        <ele>19.3638</ele>
        <time>2013-05-07T16:48:53Z</time>
      </trkpt>
      <trkpt lat="59.8845136" lon="17.6695662">
        <ele>19.3638</ele>
        <time>2013-05-07T16:48:54Z</time>
      </trkpt>
      <trkpt lat="59.8845577" lon="17.669453">
        <ele>19.3638</ele>
        <time>2013-05-07T16:48:55Z</time>
      </trkpt>
      <trkpt lat="59.8846008" lon="17.6693375">
        <ele>19.3638</ele>
        <time>2013-05-07T16:48:56Z</time>
      </trkpt>
      <trkpt lat="59.8846432" lon="17.6692207">
        <ele>19.3638</ele>
        <time>2013-05-07T16:48:57Z</time>
      </trkpt>
      <trkpt lat="59.8846855" lon="17.6691006">
        <ele>19.3638</ele>
        <time>2013-05-07T16:48:58Z</time>
      </trkpt>
      <trkpt lat="59.8847256" lon="17.6689776">
        <ele>19.3638</ele>
        <time>2013-05-07T16:48:59Z</time>
      </trkpt>
      <trkpt lat="59.884764" lon="17.6688537">
        <ele>19.3638</ele>
        <time>2013-05-07T16:49:00Z</time>
      </trkpt>
      <trkpt lat="59.8848016" lon="17.6687262">
        <ele>19.8444</ele>
        <time>2013-05-07T16:49:01Z</time>
      </trkpt>
      <trkpt lat="59.8848371" lon="17.6685955">
        <ele>19.3638</ele>
        <time>2013-05-07T16:49:02Z</time>
      </trkpt>
      <trkpt lat="59.8848713" lon="17.668462">
        <ele>19.3638</ele>
        <time>2013-05-07T16:49:03Z</time>
      </trkpt>
      <trkpt lat="59.8849042" lon="17.66833">
        <ele>19.8444</ele>
        <time>2013-05-07T16:49:04Z</time>
      </trkpt>
      <trkpt lat="59.8849383" lon="17.6682062">
        <ele>19.3638</ele>
        <time>2013-05-07T16:49:05Z</time>
      </trkpt>
      <trkpt lat="59.8849779" lon="17.6680916">
        <ele>19.3638</ele>
        <time>2013-05-07T16:49:06Z</time>
      </trkpt>
      <trkpt lat="59.8850266" lon="17.667999">
        <ele>19.3638</ele>
        <time>2013-05-07T16:49:07Z</time>
      </trkpt>
      <trkpt lat="59.8850792" lon="17.667913">
        <ele>19.3638</ele>
        <time>2013-05-07T16:49:08Z</time>
      </trkpt>
      <trkpt lat="59.8851255" lon="17.667818">
        <ele>19.3638</ele>
        <time>2013-05-07T16:49:09Z</time>
      </trkpt>
      <trkpt lat="59.8851612" lon="17.6677151">
        <ele>18.8831</ele>
        <time>2013-05-07T16:49:10Z</time>
      </trkpt>
      <trkpt lat="59.8851821" lon="17.6676038">
        <ele>18.8831</ele>
        <time>2013-05-07T16:49:11Z</time>
      </trkpt>
      <trkpt lat="59.8851873" lon="17.6674908">
        <ele>18.4023</ele>
        <time>2013-05-07T16:49:12Z</time>
      </trkpt>
      <trkpt lat="59.8851794" lon="17.6673742">
        <ele>18.4023</ele>
        <time>2013-05-07T16:49:13Z</time>
      </trkpt>
      <trkpt lat="59.8851624" lon="17.6672535">
        <ele>18.4023</ele>
        <time>2013-05-07T16:49:14Z</time>
      </trkpt>
      <trkpt lat="59.8851483" lon="17.6671273">
        <ele>17.9218</ele>
        <time>2013-05-07T16:49:15Z</time>
      </trkpt>
      <trkpt lat="59.8851455" lon="17.6669936">
        <ele>17.9218</ele>
        <time>2013-05-07T16:49:16Z</time>
      </trkpt>
      <trkpt lat="59.8851513" lon="17.6668545">
        <ele>17.9218</ele>
        <time>2013-05-07T16:49:17Z</time>
      </trkpt>
      <trkpt lat="59.8851605" lon="17.6667141">
        <ele>17.9218</ele>
        <time>2013-05-07T16:49:18Z</time>
      </trkpt>
      <trkpt lat="59.8851716" lon="17.6665753">
        <ele>17.4412</ele>
        <time>2013-05-07T16:49:19Z</time>
      </trkpt>
      <trkpt lat="59.885184" lon="17.666436">
        <ele>17.4412</ele>
        <time>2013-05-07T16:49:20Z</time>
      </trkpt>
      <trkpt lat="59.8851971" lon="17.6662926">
        <ele>17.4412</ele>
        <time>2013-05-07T16:49:21Z</time>
      </trkpt>
      <trkpt lat="59.8852114" lon="17.6661466">
        <ele>17.4412</ele>
        <time>2013-05-07T16:49:22Z</time>
      </trkpt>
      <trkpt lat="59.8852276" lon="17.6659974">
        <ele>17.4412</ele>
        <time>2013-05-07T16:49:23Z</time>
      </trkpt>
      <trkpt lat="59.885245" lon="17.6658465">
        <ele>17.4412</ele>
        <time>2013-05-07T16:49:24Z</time>
      </trkpt>
      <trkpt lat="59.8852627" lon="17.6656985">
        <ele>17.4412</ele>
        <time>2013-05-07T16:49:25Z</time>
      </trkpt>
      <trkpt lat="59.8852835" lon="17.6655594">
        <ele>17.4412</ele>
        <time>2013-05-07T16:49:26Z</time>
      </trkpt>
      <trkpt lat="59.8853056" lon="17.6654284">
        <ele>17.4412</ele>
        <time>2013-05-07T16:49:27Z</time>
      </trkpt>
      <trkpt lat="59.8853294" lon="17.6653145">
        <ele>17.4412</ele>
        <time>2013-05-07T16:49:28Z</time>
      </trkpt>
      <trkpt lat="59.885356" lon="17.6652265">
        <ele>17.9218</ele>
        <time>2013-05-07T16:49:29Z</time>
      </trkpt>
      <trkpt lat="59.8853824" lon="17.6651562">
        <ele>17.9218</ele>
        <time>2013-05-07T16:49:30Z</time>
      </trkpt>
      <trkpt lat="59.8854058" lon="17.6651018">
        <ele>17.9218</ele>
        <time>2013-05-07T16:49:31Z</time>
      </trkpt>
      <trkpt lat="59.885428" lon="17.6650568">
        <ele>17.4412</ele>
        <time>2013-05-07T16:49:32Z</time>
      </trkpt>
      <trkpt lat="59.8854534" lon="17.6650215">
        <ele>16.9604</ele>
        <time>2013-05-07T16:49:33Z</time>
      </trkpt>
      <trkpt lat="59.8854801" lon="17.6649908">
        <ele>16.4797</ele>
        <time>2013-05-07T16:49:34Z</time>
      </trkpt>
      <trkpt lat="59.8855078" lon="17.6649634">
        <ele>16.4797</ele>
        <time>2013-05-07T16:49:35Z</time>
      </trkpt>
      <trkpt lat="59.8855337" lon="17.6649458">
        <ele>15.999</ele>
        <time>2013-05-07T16:49:36Z</time>
      </trkpt>
      <trkpt lat="59.8855529" lon="17.6649375">
        <ele>15.999</ele>
        <time>2013-05-07T16:49:37Z</time>
      </trkpt>
      <trkpt lat="59.8855667" lon="17.6649344">
        <ele>15.999</ele>
        <time>2013-05-07T16:49:38Z</time>
      </trkpt>
      <trkpt lat="59.8855791" lon="17.664923">
        <ele>16.4797</ele>
        <time>2013-05-07T16:49:39Z</time>
      </trkpt>
      <trkpt lat="59.8856025" lon="17.6649136">
        <ele>15.999</ele>
        <time>2013-05-07T16:49:40Z</time>
      </trkpt>
      <trkpt lat="59.8856377" lon="17.6649081">
        <ele>15.999</ele>
        <time>2013-05-07T16:49:41Z</time>
      </trkpt>
      <trkpt lat="59.8856829" lon="17.6649153">
        <ele>15.999</ele>
        <time>2013-05-07T16:49:42Z</time>
      </trkpt>
      <trkpt lat="59.8857407" lon="17.6649375">
        <ele>15.999</ele>
        <time>2013-05-07T16:49:43Z</time>
      </trkpt>
      <trkpt lat="59.8858082" lon="17.6649671">
        <ele>15.999</ele>
        <time>2013-05-07T16:49:44Z</time>
      </trkpt>
      <trkpt lat="59.8858802" lon="17.6649888">
        <ele>15.999</ele>
        <time>2013-05-07T16:49:45Z</time>
      </trkpt>
      <trkpt lat="59.8859538" lon="17.6649884">
        <ele>15.999</ele>
        <time>2013-05-07T16:49:46Z</time>
      </trkpt>
      <trkpt lat="59.8860305" lon="17.6649539">
        <ele>16.4797</ele>
        <time>2013-05-07T16:49:47Z</time>
      </trkpt>
      <trkpt lat="59.8861012" lon="17.6648872">
        <ele>16.4797</ele>
        <time>2013-05-07T16:49:48Z</time>
      </trkpt>
      <trkpt lat="59.8861615" lon="17.664793">
        <ele>16.4797</ele>
        <time>2013-05-07T16:49:49Z</time>
      </trkpt>
      <trkpt lat="59.8862139" lon="17.6646752">
        <ele>16.4797</ele>
        <time>2013-05-07T16:49:50Z</time>
      </trkpt>
      <trkpt lat="59.8862589" lon="17.6645459">
        <ele>15.999</ele>
        <time>2013-05-07T16:49:51Z</time>
      </trkpt>
      <trkpt lat="59.8863012" lon="17.6644106">
        <ele>15.5184</ele>
        <time>2013-05-07T16:49:52Z</time>
      </trkpt>
      <trkpt lat="59.8863407" lon="17.6642746">
        <ele>15.5184</ele>
        <time>2013-05-07T16:49:53Z</time>
      </trkpt>
      <trkpt lat="59.8863795" lon="17.6641404">
        <ele>15.5184</ele>
        <time>2013-05-07T16:49:54Z</time>
      </trkpt>
      <trkpt lat="59.8864195" lon="17.6640111">
        <ele>15.0377</ele>
        <time>2013-05-07T16:49:55Z</time>
      </trkpt>
      <trkpt lat="59.886462" lon="17.6638875">
        <ele>15.0377</ele>
        <time>2013-05-07T16:49:56Z</time>
      </trkpt>
      <trkpt lat="59.8865073" lon="17.6637689">
        <ele>15.0377</ele>
        <time>2013-05-07T16:49:57Z</time>
      </trkpt>
      <trkpt lat="59.8865548" lon="17.6636569">
        <ele>15.0377</ele>
        <time>2013-05-07T16:49:58Z</time>
      </trkpt>
      <trkpt lat="59.8866022" lon="17.6635521">
        <ele>15.0377</ele>
        <time>2013-05-07T16:49:59Z</time>
      </trkpt>
      <trkpt lat="59.8866491" lon="17.663457">
        <ele>15.0377</ele>
        <time>2013-05-07T16:50:00Z</time>
      </trkpt>
      <trkpt lat="59.8866961" lon="17.6633658">
        <ele>15.0377</ele>
        <time>2013-05-07T16:50:01Z</time>
      </trkpt>
      <trkpt lat="59.8867418" lon="17.6632752">
        <ele>15.0377</ele>
        <time>2013-05-07T16:50:02Z</time>
      </trkpt>
      <trkpt lat="59.8867863" lon="17.6631839">
        <ele>15.0377</ele>
        <time>2013-05-07T16:50:03Z</time>
      </trkpt>
      <trkpt lat="59.8868298" lon="17.6630906">
        <ele>15.0377</ele>
        <time>2013-05-07T16:50:04Z</time>
      </trkpt>
      <trkpt lat="59.8868711" lon="17.6629919">
        <ele>15.0377</ele>
        <time>2013-05-07T16:50:05Z</time>
      </trkpt>
      <trkpt lat="59.8869104" lon="17.6628888">
        <ele>15.5184</ele>
        <time>2013-05-07T16:50:06Z</time>
      </trkpt>
      <trkpt lat="59.8869478" lon="17.6627842">
        <ele>15.5184</ele>
        <time>2013-05-07T16:50:07Z</time>
      </trkpt>
      <trkpt lat="59.8869815" lon="17.662679">
        <ele>15.5184</ele>
        <time>2013-05-07T16:50:08Z</time>
      </trkpt>
      <trkpt lat="59.8870111" lon="17.6625736">
        <ele>15.5184</ele>
        <time>2013-05-07T16:50:09Z</time>
      </trkpt>
      <trkpt lat="59.8870381" lon="17.6624671">
        <ele>15.5184</ele>
        <time>2013-05-07T16:50:10Z</time>
      </trkpt>
      <trkpt lat="59.8870626" lon="17.6623577">
        <ele>15.0377</ele>
        <time>2013-05-07T16:50:11Z</time>
      </trkpt>
      <trkpt lat="59.8870834" lon="17.6622449">
        <ele>15.0377</ele>
        <time>2013-05-07T16:50:12Z</time>
      </trkpt>
      <trkpt lat="59.8870977" lon="17.6621351">
        <ele>15.0377</ele>
        <time>2013-05-07T16:50:13Z</time>
      </trkpt>
      <trkpt lat="59.8871074" lon="17.6620398">
        <ele>14.557</ele>
        <time>2013-05-07T16:50:14Z</time>
      </trkpt>
      <trkpt lat="59.8871126" lon="17.6619762">
        <ele>14.557</ele>
        <time>2013-05-07T16:50:15Z</time>
      </trkpt>
      <trkpt lat="59.8871136" lon="17.6619413">
        <ele>14.557</ele>
        <time>2013-05-07T16:50:16Z</time>
      </trkpt>
      <trkpt lat="59.8871126" lon="17.6619168">
        <ele>14.557</ele>
        <time>2013-05-07T16:50:17Z</time>
      </trkpt>
      <trkpt lat="59.8871088" lon="17.661904">
        <ele>14.0764</ele>
        <time>2013-05-07T16:50:18Z</time>
      </trkpt>
      <trkpt lat="59.887108" lon="17.6618927">
        <ele>14.0764</ele>
        <time>2013-05-07T16:50:19Z</time>
      </trkpt>
      <trkpt lat="59.8871077" lon="17.6618823">
        <ele>14.0764</ele>
        <time>2013-05-07T16:50:20Z</time>
      </trkpt>
      <trkpt lat="59.8871084" lon="17.6618734">
        <ele>14.0764</ele>
        <time>2013-05-07T16:50:21Z</time>
      </trkpt>
      <trkpt lat="59.8871096" lon="17.661865">
        <ele>13.5958</ele>
        <time>2013-05-07T16:50:22Z</time>
      </trkpt>
      <trkpt lat="59.8871105" lon="17.6618476">
        <ele>13.5958</ele>
        <time>2013-05-07T16:50:23Z</time>
      </trkpt>
      <trkpt lat="59.8871116" lon="17.6618139">
        <ele>13.5958</ele>
        <time>2013-05-07T16:50:24Z</time>
      </trkpt>
      <trkpt lat="59.8871139" lon="17.6617694">
        <ele>13.5958</ele>
        <time>2013-05-07T16:50:25Z</time>
      </trkpt>
      <trkpt lat="59.8871153" lon="17.6617306">
        <ele>14.0764</ele>
        <time>2013-05-07T16:50:26Z</time>
      </trkpt>
      <trkpt lat="59.8871158" lon="17.6617">
        <ele>14.0764</ele>
        <time>2013-05-07T16:50:27Z</time>
      </trkpt>
      <trkpt lat="59.8871179" lon="17.6616781">
        <ele>14.0764</ele>
        <time>2013-05-07T16:50:28Z</time>
      </trkpt>
      <trkpt lat="59.8871204" lon="17.661661">
        <ele>14.557</ele>
        <time>2013-05-07T16:50:29Z</time>
      </trkpt>
      <trkpt lat="59.8871198" lon="17.6616488">
        <ele>14.557</ele>
        <time>2013-05-07T16:50:30Z</time>
      </trkpt>
      <trkpt lat="59.8871187" lon="17.661635">
        <ele>14.557</ele>
        <time>2013-05-07T16:50:31Z</time>
      </trkpt>
      <trkpt lat="59.8871197" lon="17.6616114">
        <ele>14.557</ele>
        <time>2013-05-07T16:50:32Z</time>
      </trkpt>
      <trkpt lat="59.887124" lon="17.6615688">
        <ele>14.557</ele>
        <time>2013-05-07T16:50:33Z</time>
      </trkpt>
      <trkpt lat="59.8871331" lon="17.6615107">
        <ele>14.557</ele>
        <time>2013-05-07T16:50:34Z</time>
      </trkpt>
      <trkpt lat="59.8871503" lon="17.6614414">
        <ele>14.557</ele>
        <time>2013-05-07T16:50:35Z</time>
      </trkpt>
      <trkpt lat="59.8871773" lon="17.6613641">
        <ele>14.557</ele>
        <time>2013-05-07T16:50:36Z</time>
      </trkpt>
      <trkpt lat="59.8872157" lon="17.6612834">
        <ele>15.0377</ele>
        <time>2013-05-07T16:50:37Z</time>
      </trkpt>
      <trkpt lat="59.8872605" lon="17.6612028">
        <ele>15.0377</ele>
        <time>2013-05-07T16:50:38Z</time>
      </trkpt>
      <trkpt lat="59.8873108" lon="17.6611302">
        <ele>15.0377</ele>
        <time>2013-05-07T16:50:39Z</time>
      </trkpt>
      <trkpt lat="59.8873672" lon="17.6610686">
        <ele>15.0377</ele>
        <time>2013-05-07T16:50:40Z</time>
      </trkpt>
      <trkpt lat="59.8874259" lon="17.6610116">
        <ele>15.0377</ele>
        <time>2013-05-07T16:50:41Z</time>
      </trkpt>
      <trkpt lat="59.887487" lon="17.6609555">
        <ele>15.0377</ele>
        <time>2013-05-07T16:50:42Z</time>
      </trkpt>
      <trkpt lat="59.8875498" lon="17.6608981">
        <ele>14.557</ele>
        <time>2013-05-07T16:50:43Z</time>
      </trkpt>
      <trkpt lat="59.887613" lon="17.6608297">
        <ele>14.557</ele>
        <time>2013-05-07T16:50:44Z</time>
      </trkpt>
      <trkpt lat="59.8876757" lon="17.6607456">
        <ele>14.0764</ele>
        <time>2013-05-07T16:50:45Z</time>
      </trkpt>
      <trkpt lat="59.8877356" lon="17.6606444">
        <ele>14.0764</ele>
        <time>2013-05-07T16:50:46Z</time>
      </trkpt>
      <trkpt lat="59.8877915" lon="17.6605328">
        <ele>13.5958</ele>
        <time>2013-05-07T16:50:47Z</time>
      </trkpt>
      <trkpt lat="59.8878436" lon="17.6604118">
        <ele>13.1151</ele>
        <time>2013-05-07T16:50:48Z</time>
      </trkpt>
      <trkpt lat="59.8878951" lon="17.6602858">
        <ele>13.5958</ele>
        <time>2013-05-07T16:50:49Z</time>
      </trkpt>
      <trkpt lat="59.8879407" lon="17.6601603">
        <ele>13.1151</ele>
        <time>2013-05-07T16:50:50Z</time>
      </trkpt>
      <trkpt lat="59.8879842" lon="17.660038">
        <ele>12.6344</ele>
        <time>2013-05-07T16:50:51Z</time>
      </trkpt>
      <trkpt lat="59.8880264" lon="17.6599169">
        <ele>12.1538</ele>
        <time>2013-05-07T16:50:52Z</time>
      </trkpt>
      <trkpt lat="59.8880702" lon="17.6597947">
        <ele>12.1538</ele>
        <time>2013-05-07T16:50:53Z</time>
      </trkpt>
      <trkpt lat="59.8881147" lon="17.6596729">
        <ele>12.1538</ele>
        <time>2013-05-07T16:50:54Z</time>
      </trkpt>
      <trkpt lat="59.8881582" lon="17.6595522">
        <ele>11.6732</ele>
        <time>2013-05-07T16:50:55Z</time>
      </trkpt>
      <trkpt lat="59.8882013" lon="17.6594327">
        <ele>11.6732</ele>
        <time>2013-05-07T16:50:56Z</time>
      </trkpt>
      <trkpt lat="59.8882447" lon="17.6593134">
        <ele>12.1538</ele>
        <time>2013-05-07T16:50:57Z</time>
      </trkpt>
      <trkpt lat="59.888288" lon="17.6591959">
        <ele>12.1538</ele>
        <time>2013-05-07T16:50:58Z</time>
      </trkpt>
      <trkpt lat="59.8883303" lon="17.6590809">
        <ele>12.6344</ele>
        <time>2013-05-07T16:50:59Z</time>
      </trkpt>
      <trkpt lat="59.8883733" lon="17.6589696">
        <ele>12.6344</ele>
        <time>2013-05-07T16:51:00Z</time>
      </trkpt>
      <trkpt lat="59.8884169" lon="17.65886">
        <ele>12.6344</ele>
        <time>2013-05-07T16:51:01Z</time>
      </trkpt>
      <trkpt lat="59.8884579" lon="17.658752">
        <ele>12.6344</ele>
        <time>2013-05-07T16:51:02Z</time>
      </trkpt>
      <trkpt lat="59.8884972" lon="17.6586469">
        <ele>12.6344</ele>
        <time>2013-05-07T16:51:03Z</time>
      </trkpt>
      <trkpt lat="59.8885354" lon="17.6585442">
        <ele>12.6344</ele>
        <time>2013-05-07T16:51:04Z</time>
      </trkpt>
      <trkpt lat="59.8885714" lon="17.6584448">
        <ele>12.6344</ele>
        <time>2013-05-07T16:51:05Z</time>
      </trkpt>
      <trkpt lat="59.8886071" lon="17.6583529">
        <ele>12.1538</ele>
        <time>2013-05-07T16:51:06Z</time>
      </trkpt>
      <trkpt lat="59.8886438" lon="17.6582584">
        <ele>12.1538</ele>
        <time>2013-05-07T16:51:07Z</time>
      </trkpt>
      <trkpt lat="59.8886804" lon="17.6581634">
        <ele>12.1538</ele>
        <time>2013-05-07T16:51:08Z</time>
      </trkpt>
      <trkpt lat="59.8887184" lon="17.6580683">
        <ele>12.1538</ele>
        <time>2013-05-07T16:51:09Z</time>
      </trkpt>
      <trkpt lat="59.8887545" lon="17.6579714">
        <ele>12.1538</ele>
        <time>2013-05-07T16:51:10Z</time>
      </trkpt>
      <trkpt lat="59.8887909" lon="17.6578735">
        <ele>11.6732</ele>
        <time>2013-05-07T16:51:11Z</time>
      </trkpt>
      <trkpt lat="59.8888298" lon="17.6577791">
        <ele>11.6732</ele>
        <time>2013-05-07T16:51:12Z</time>
      </trkpt>
      <trkpt lat="59.8888688" lon="17.6576863">
        <ele>11.6732</ele>
        <time>2013-05-07T16:51:13Z</time>
      </trkpt>
      <trkpt lat="59.8889059" lon="17.6575953">
        <ele>11.1925</ele>
        <time>2013-05-07T16:51:14Z</time>
      </trkpt>
      <trkpt lat="59.8889447" lon="17.6575019">
        <ele>10.7118</ele>
        <time>2013-05-07T16:51:15Z</time>
      </trkpt>
      <trkpt lat="59.8889837" lon="17.6574081">
        <ele>10.7118</ele>
        <time>2013-05-07T16:51:16Z</time>
      </trkpt>
      <trkpt lat="59.8890205" lon="17.6573004">
        <ele>11.1925</ele>
        <time>2013-05-07T16:51:17Z</time>
      </trkpt>
      <trkpt lat="59.8890549" lon="17.6571913">
        <ele>11.1925</ele>
        <time>2013-05-07T16:51:18Z</time>
      </trkpt>
      <trkpt lat="59.8890935" lon="17.6570913">
        <ele>11.6732</ele>
        <time>2013-05-07T16:51:19Z</time>
      </trkpt>
      <trkpt lat="59.8891314" lon="17.6569906">
        <ele>11.6732</ele>
        <time>2013-05-07T16:51:20Z</time>
      </trkpt>
      <trkpt lat="59.8891707" lon="17.6568862">
        <ele>12.6344</ele>
        <time>2013-05-07T16:51:21Z</time>
      </trkpt>
      <trkpt lat="59.889208" lon="17.656784">
        <ele>13.1151</ele>
        <time>2013-05-07T16:51:22Z</time>
      </trkpt>
      <trkpt lat="59.8892448" lon="17.656681">
        <ele>13.1151</ele>
        <time>2013-05-07T16:51:23Z</time>
      </trkpt>
      <trkpt lat="59.8892834" lon="17.6565763">
        <ele>13.5958</ele>
        <time>2013-05-07T16:51:24Z</time>
      </trkpt>
      <trkpt lat="59.8893191" lon="17.6564759">
        <ele>13.5958</ele>
        <time>2013-05-07T16:51:25Z</time>
      </trkpt>
      <trkpt lat="59.8893595" lon="17.6563758">
        <ele>14.0764</ele>
        <time>2013-05-07T16:51:26Z</time>
      </trkpt>
      <trkpt lat="59.8893976" lon="17.6562743">
        <ele>14.0764</ele>
        <time>2013-05-07T16:51:27Z</time>
      </trkpt>
      <trkpt lat="59.8894348" lon="17.6561716">
        <ele>14.557</ele>
        <time>2013-05-07T16:51:28Z</time>
      </trkpt>
      <trkpt lat="59.8894717" lon="17.6560676">
        <ele>14.557</ele>
        <time>2013-05-07T16:51:29Z</time>
      </trkpt>
      <trkpt lat="59.889509" lon="17.655963">
        <ele>14.557</ele>
        <time>2013-05-07T16:51:30Z</time>
      </trkpt>
      <trkpt lat="59.8895458" lon="17.6558577">
        <ele>14.557</ele>
        <time>2013-05-07T16:51:31Z</time>
      </trkpt>
      <trkpt lat="59.8895856" lon="17.6557537">
        <ele>15.5184</ele>
        <time>2013-05-07T16:51:32Z</time>
      </trkpt>
      <trkpt lat="59.889623" lon="17.6556516">
        <ele>15.5184</ele>
        <time>2013-05-07T16:51:33Z</time>
      </trkpt>
      <trkpt lat="59.8896591" lon="17.6555507">
        <ele>15.0377</ele>
        <time>2013-05-07T16:51:34Z</time>
      </trkpt>
      <trkpt lat="59.8896917" lon="17.6554533">
        <ele>14.557</ele>
        <time>2013-05-07T16:51:35Z</time>
      </trkpt>
      <trkpt lat="59.8897254" lon="17.6553512">
        <ele>14.0764</ele>
        <time>2013-05-07T16:51:36Z</time>
      </trkpt>
      <trkpt lat="59.8897599" lon="17.6552477">
        <ele>14.0764</ele>
        <time>2013-05-07T16:51:37Z</time>
      </trkpt>
      <trkpt lat="59.8897958" lon="17.6551529">
        <ele>13.5958</ele>
        <time>2013-05-07T16:51:38Z</time>
      </trkpt>
      <trkpt lat="59.8898321" lon="17.6550592">
        <ele>13.1151</ele>
        <time>2013-05-07T16:51:39Z</time>
      </trkpt>
      <trkpt lat="59.8898695" lon="17.6549611">
        <ele>13.1151</ele>
        <time>2013-05-07T16:51:40Z</time>
      </trkpt>
      <trkpt lat="59.8899087" lon="17.6548566">
        <ele>13.1151</ele>
        <time>2013-05-07T16:51:41Z</time>
      </trkpt>
      <trkpt lat="59.889948" lon="17.6547457">
        <ele>13.1151</ele>
        <time>2013-05-07T16:51:42Z</time>
      </trkpt>
      <trkpt lat="59.8899884" lon="17.6546332">
        <ele>13.5958</ele>
        <time>2013-05-07T16:51:43Z</time>
      </trkpt>
      <trkpt lat="59.8900278" lon="17.6545224">
        <ele>13.5958</ele>
        <time>2013-05-07T16:51:44Z</time>
      </trkpt>
      <trkpt lat="59.8900674" lon="17.6544173">
        <ele>13.5958</ele>
        <time>2013-05-07T16:51:45Z</time>
      </trkpt>
      <trkpt lat="59.8901103" lon="17.6543117">
        <ele>13.5958</ele>
        <time>2013-05-07T16:51:46Z</time>
      </trkpt>
      <trkpt lat="59.8901497" lon="17.6542112">
        <ele>13.5958</ele>
        <time>2013-05-07T16:51:47Z</time>
      </trkpt>
      <trkpt lat="59.8901916" lon="17.6541059">
        <ele>13.5958</ele>
        <time>2013-05-07T16:51:48Z</time>
      </trkpt>
      <trkpt lat="59.890231" lon="17.6539993">
        <ele>13.1151</ele>
        <time>2013-05-07T16:51:49Z</time>
      </trkpt>
      <trkpt lat="59.8902683" lon="17.6538904">
        <ele>13.1151</ele>
        <time>2013-05-07T16:51:50Z</time>
      </trkpt>
      <trkpt lat="59.8903061" lon="17.6537832">
        <ele>12.6344</ele>
        <time>2013-05-07T16:51:51Z</time>
      </trkpt>
      <trkpt lat="59.8903448" lon="17.6536759">
        <ele>12.6344</ele>
        <time>2013-05-07T16:51:52Z</time>
      </trkpt>
      <trkpt lat="59.8903837" lon="17.6535667">
        <ele>12.6344</ele>
        <time>2013-05-07T16:51:53Z</time>
      </trkpt>
      <trkpt lat="59.8904226" lon="17.6534577">
        <ele>12.6344</ele>
        <time>2013-05-07T16:51:54Z</time>
      </trkpt>
      <trkpt lat="59.8904626" lon="17.6533517">
        <ele>12.6344</ele>
        <time>2013-05-07T16:51:55Z</time>
      </trkpt>
      <trkpt lat="59.8905023" lon="17.6532445">
        <ele>12.6344</ele>
        <time>2013-05-07T16:51:56Z</time>
      </trkpt>
      <trkpt lat="59.8905418" lon="17.6531365">
        <ele>12.6344</ele>
        <time>2013-05-07T16:51:57Z</time>
      </trkpt>
      <trkpt lat="59.8905808" lon="17.6530257">
        <ele>12.6344</ele>
        <time>2013-05-07T16:51:58Z</time>
      </trkpt>
      <trkpt lat="59.89062" lon="17.652914">
        <ele>12.6344</ele>
        <time>2013-05-07T16:51:59Z</time>
      </trkpt>
      <trkpt lat="59.890659" lon="17.6528019">
        <ele>12.6344</ele>
        <time>2013-05-07T16:52:00Z</time>
      </trkpt>
      <trkpt lat="59.8906991" lon="17.6526926">
        <ele>12.1538</ele>
        <time>2013-05-07T16:52:01Z</time>
      </trkpt>
      <trkpt lat="59.8907422" lon="17.6525781">
        <ele>12.6344</ele>
        <time>2013-05-07T16:52:02Z</time>
      </trkpt>
      <trkpt lat="59.8907804" lon="17.6524644">
        <ele>12.1538</ele>
        <time>2013-05-07T16:52:03Z</time>
      </trkpt>
      <trkpt lat="59.8908179" lon="17.652353">
        <ele>12.1538</ele>
        <time>2013-05-07T16:52:04Z</time>
      </trkpt>
      <trkpt lat="59.8908577" lon="17.6522442">
        <ele>12.1538</ele>
        <time>2013-05-07T16:52:05Z</time>
      </trkpt>
      <trkpt lat="59.8908987" lon="17.6521338">
        <ele>12.6344</ele>
        <time>2013-05-07T16:52:06Z</time>
      </trkpt>
      <trkpt lat="59.890941" lon="17.6520172">
        <ele>13.1151</ele>
        <time>2013-05-07T16:52:07Z</time>
      </trkpt>
      <trkpt lat="59.8909837" lon="17.6519075">
        <ele>13.5958</ele>
        <time>2013-05-07T16:52:08Z</time>
      </trkpt>
      <trkpt lat="59.8910242" lon="17.6517959">
        <ele>14.0764</ele>
        <time>2013-05-07T16:52:09Z</time>
      </trkpt>
      <trkpt lat="59.8910641" lon="17.6516832">
        <ele>14.0764</ele>
        <time>2013-05-07T16:52:10Z</time>
      </trkpt>
      <trkpt lat="59.8911052" lon="17.6515687">
        <ele>14.0764</ele>
        <time>2013-05-07T16:52:11Z</time>
      </trkpt>
      <trkpt lat="59.8911468" lon="17.6514525">
        <ele>14.0764</ele>
        <time>2013-05-07T16:52:12Z</time>
      </trkpt>
      <trkpt lat="59.8911887" lon="17.6513341">
        <ele>14.557</ele>
        <time>2013-05-07T16:52:13Z</time>
      </trkpt>
      <trkpt lat="59.89123" lon="17.6512179">
        <ele>14.557</ele>
        <time>2013-05-07T16:52:14Z</time>
      </trkpt>
      <trkpt lat="59.8912713" lon="17.6511019">
        <ele>14.557</ele>
        <time>2013-05-07T16:52:15Z</time>
      </trkpt>
      <trkpt lat="59.8913111" lon="17.6509849">
        <ele>14.557</ele>
        <time>2013-05-07T16:52:16Z</time>
      </trkpt>
      <trkpt lat="59.8913497" lon="17.6508663">
        <ele>15.0377</ele>
        <time>2013-05-07T16:52:17Z</time>
      </trkpt>
      <trkpt lat="59.8913868" lon="17.6507485">
        <ele>15.0377</ele>
        <time>2013-05-07T16:52:18Z</time>
      </trkpt>
      <trkpt lat="59.8914228" lon="17.650629">
        <ele>15.0377</ele>
        <time>2013-05-07T16:52:19Z</time>
      </trkpt>
      <trkpt lat="59.8914575" lon="17.6505093">
        <ele>15.0377</ele>
        <time>2013-05-07T16:52:20Z</time>
      </trkpt>
      <trkpt lat="59.8914922" lon="17.6503908">
        <ele>15.0377</ele>
        <time>2013-05-07T16:52:21Z</time>
      </trkpt>
      <trkpt lat="59.891527" lon="17.6502747">
        <ele>15.5184</ele>
        <time>2013-05-07T16:52:22Z</time>
      </trkpt>
      <trkpt lat="59.8915602" lon="17.6501597">
        <ele>15.0377</ele>
        <time>2013-05-07T16:52:23Z</time>
      </trkpt>
      <trkpt lat="59.8915924" lon="17.6500445">
        <ele>15.0377</ele>
        <time>2013-05-07T16:52:24Z</time>
      </trkpt>
      <trkpt lat="59.8916235" lon="17.6499276">
        <ele>15.0377</ele>
        <time>2013-05-07T16:52:25Z</time>
      </trkpt>
      <trkpt lat="59.891654" lon="17.6498083">
        <ele>15.0377</ele>
        <time>2013-05-07T16:52:26Z</time>
      </trkpt>
      <trkpt lat="59.891684" lon="17.6496883">
        <ele>15.0377</ele>
        <time>2013-05-07T16:52:27Z</time>
      </trkpt>
      <trkpt lat="59.8917115" lon="17.6495649">
        <ele>15.5184</ele>
        <time>2013-05-07T16:52:28Z</time>
      </trkpt>
      <trkpt lat="59.8917369" lon="17.6494386">
        <ele>15.5184</ele>
        <time>2013-05-07T16:52:29Z</time>
      </trkpt>
      <trkpt lat="59.8917623" lon="17.6493128">
        <ele>15.999</ele>
        <time>2013-05-07T16:52:30Z</time>
      </trkpt>
      <trkpt lat="59.8917879" lon="17.6491883">
        <ele>16.4797</ele>
        <time>2013-05-07T16:52:31Z</time>
      </trkpt>
      <trkpt lat="59.8918118" lon="17.6490641">
        <ele>16.4797</ele>
        <time>2013-05-07T16:52:32Z</time>
      </trkpt>
      <trkpt lat="59.8918354" lon="17.6489388">
        <ele>16.9604</ele>
        <time>2013-05-07T16:52:33Z</time>
      </trkpt>
      <trkpt lat="59.891858" lon="17.648816">
        <ele>17.4412</ele>
        <time>2013-05-07T16:52:34Z</time>
      </trkpt>
      <trkpt lat="59.8918799" lon="17.6486959">
        <ele>17.4412</ele>
        <time>2013-05-07T16:52:35Z</time>
      </trkpt>
      <trkpt lat="59.8919015" lon="17.6485776">
        <ele>17.4412</ele>
        <time>2013-05-07T16:52:36Z</time>
      </trkpt>
      <trkpt lat="59.8919228" lon="17.6484595">
        <ele>17.4412</ele>
        <time>2013-05-07T16:52:37Z</time>
      </trkpt>
      <trkpt lat="59.8919441" lon="17.6483405">
        <ele>17.4412</ele>
        <time>2013-05-07T16:52:38Z</time>
      </trkpt>
      <trkpt lat="59.8919652" lon="17.6482219">
        <ele>16.9604</ele>
        <time>2013-05-07T16:52:39Z</time>
      </trkpt>
      <trkpt lat="59.8919897" lon="17.6481075">
        <ele>16.4797</ele>
        <time>2013-05-07T16:52:40Z</time>
      </trkpt>
      <trkpt lat="59.8920161" lon="17.6479938">
        <ele>16.4797</ele>
        <time>2013-05-07T16:52:41Z</time>
      </trkpt>
      <trkpt lat="59.8920387" lon="17.647882">
        <ele>15.999</ele>
        <time>2013-05-07T16:52:42Z</time>
      </trkpt>
      <trkpt lat="59.8920601" lon="17.6477717">
        <ele>15.5184</ele>
        <time>2013-05-07T16:52:43Z</time>
      </trkpt>
      <trkpt lat="59.8920813" lon="17.6476535">
        <ele>15.5184</ele>
        <time>2013-05-07T16:52:44Z</time>
      </trkpt>
      <trkpt lat="59.8921011" lon="17.6475304">
        <ele>15.0377</ele>
        <time>2013-05-07T16:52:45Z</time>
      </trkpt>
      <trkpt lat="59.8921181" lon="17.6474011">
        <ele>14.557</ele>
        <time>2013-05-07T16:52:46Z</time>
      </trkpt>
      <trkpt lat="59.8921325" lon="17.6472716">
        <ele>14.0764</ele>
        <time>2013-05-07T16:52:47Z</time>
      </trkpt>
      <trkpt lat="59.8921471" lon="17.6471365">
        <ele>14.0764</ele>
        <time>2013-05-07T16:52:48Z</time>
      </trkpt>
      <trkpt lat="59.8921619" lon="17.6469962">
        <ele>14.0764</ele>
        <time>2013-05-07T16:52:49Z</time>
      </trkpt>
      <trkpt lat="59.8921766" lon="17.64686">
        <ele>14.0764</ele>
        <time>2013-05-07T16:52:50Z</time>
      </trkpt>
      <trkpt lat="59.8921896" lon="17.646722">
        <ele>13.5958</ele>
        <time>2013-05-07T16:52:51Z</time>
      </trkpt>
      <trkpt lat="59.8922013" lon="17.6465787">
        <ele>13.5958</ele>
        <time>2013-05-07T16:52:52Z</time>
      </trkpt>
      <trkpt lat="59.8922135" lon="17.6464341">
        <ele>13.5958</ele>
        <time>2013-05-07T16:52:53Z</time>
      </trkpt>
      <trkpt lat="59.8922275" lon="17.6462959">
        <ele>13.5958</ele>
        <time>2013-05-07T16:52:54Z</time>
      </trkpt>
      <trkpt lat="59.8922429" lon="17.6461622">
        <ele>13.1151</ele>
        <time>2013-05-07T16:52:55Z</time>
      </trkpt>
      <trkpt lat="59.8922585" lon="17.6460291">
        <ele>13.1151</ele>
        <time>2013-05-07T16:52:56Z</time>
      </trkpt>
      <trkpt lat="59.892274" lon="17.645894">
        <ele>13.1151</ele>
        <time>2013-05-07T16:52:57Z</time>
      </trkpt>
      <trkpt lat="59.8922891" lon="17.6457596">
        <ele>12.6344</ele>
        <time>2013-05-07T16:52:58Z</time>
      </trkpt>
      <trkpt lat="59.892304" lon="17.6456271">
        <ele>12.6344</ele>
        <time>2013-05-07T16:52:59Z</time>
      </trkpt>
      <trkpt lat="59.892317" lon="17.6454961">
        <ele>12.6344</ele>
        <time>2013-05-07T16:53:00Z</time>
      </trkpt>
      <trkpt lat="59.8923295" lon="17.6453676">
        <ele>12.1538</ele>
        <time>2013-05-07T16:53:01Z</time>
      </trkpt>
      <trkpt lat="59.8923439" lon="17.6452376">
        <ele>12.1538</ele>
        <time>2013-05-07T16:53:02Z</time>
      </trkpt>
      <trkpt lat="59.892358" lon="17.6451116">
        <ele>12.1538</ele>
        <time>2013-05-07T16:53:03Z</time>
      </trkpt>
      <trkpt lat="59.8923751" lon="17.6449842">
        <ele>12.6344</ele>
        <time>2013-05-07T16:53:04Z</time>
      </trkpt>
      <trkpt lat="59.8923921" lon="17.644863">
        <ele>12.1538</ele>
        <time>2013-05-07T16:53:05Z</time>
      </trkpt>
      <trkpt lat="59.8924092" lon="17.6447541">
        <ele>11.6732</ele>
        <time>2013-05-07T16:53:06Z</time>
      </trkpt>
      <trkpt lat="59.8924258" lon="17.6446467">
        <ele>11.1925</ele>
        <time>2013-05-07T16:53:07Z</time>
      </trkpt>
      <trkpt lat="59.892442" lon="17.6445362">
        <ele>10.7118</ele>
        <time>2013-05-07T16:53:08Z</time>
      </trkpt>
      <trkpt lat="59.8924588" lon="17.6444197">
        <ele>10.2312</ele>
        <time>2013-05-07T16:53:09Z</time>
      </trkpt>
      <trkpt lat="59.8924745" lon="17.6442983">
        <ele>10.2312</ele>
        <time>2013-05-07T16:53:10Z</time>
      </trkpt>
      <trkpt lat="59.8924898" lon="17.644177">
        <ele>9.75061</ele>
        <time>2013-05-07T16:53:11Z</time>
      </trkpt>
      <trkpt lat="59.8925045" lon="17.6440548">
        <ele>9.2699</ele>
        <time>2013-05-07T16:53:12Z</time>
      </trkpt>
      <trkpt lat="59.8925176" lon="17.6439347">
        <ele>9.2699</ele>
        <time>2013-05-07T16:53:13Z</time>
      </trkpt>
      <trkpt lat="59.8925254" lon="17.6438053">
        <ele>9.2699</ele>
        <time>2013-05-07T16:53:14Z</time>
      </trkpt>
      <trkpt lat="59.8925362" lon="17.6436845">
        <ele>8.78918</ele>
        <time>2013-05-07T16:53:15Z</time>
      </trkpt>
      <trkpt lat="59.8925508" lon="17.6435638">
        <ele>8.30859</ele>
        <time>2013-05-07T16:53:16Z</time>
      </trkpt>
      <trkpt lat="59.8925714" lon="17.6434463">
        <ele>7.82788</ele>
        <time>2013-05-07T16:53:17Z</time>
      </trkpt>
      <trkpt lat="59.8925904" lon="17.6433161">
        <ele>8.30859</ele>
        <time>2013-05-07T16:53:18Z</time>
      </trkpt>
      <trkpt lat="59.8926103" lon="17.6431952">
        <ele>8.30859</ele>
        <time>2013-05-07T16:53:19Z</time>
      </trkpt>
      <trkpt lat="59.8926258" lon="17.6430714">
        <ele>7.82788</ele>
        <time>2013-05-07T16:53:20Z</time>
      </trkpt>
      <trkpt lat="59.8926349" lon="17.6429412">
        <ele>7.82788</ele>
        <time>2013-05-07T16:53:21Z</time>
      </trkpt>
      <trkpt lat="59.8926403" lon="17.6428066">
        <ele>7.34717</ele>
        <time>2013-05-07T16:53:22Z</time>
      </trkpt>
      <trkpt lat="59.892647" lon="17.6426686">
        <ele>7.34717</ele>
        <time>2013-05-07T16:53:23Z</time>
      </trkpt>
      <trkpt lat="59.8926548" lon="17.6425266">
        <ele>6.86646</ele>
        <time>2013-05-07T16:53:24Z</time>
      </trkpt>
      <trkpt lat="59.8926641" lon="17.6423838">
        <ele>6.86646</ele>
        <time>2013-05-07T16:53:25Z</time>
      </trkpt>
      <trkpt lat="59.892673" lon="17.6422425">
        <ele>6.38586</ele>
        <time>2013-05-07T16:53:26Z</time>
      </trkpt>
      <trkpt lat="59.8926815" lon="17.6421053">
        <ele>5.90527</ele>
        <time>2013-05-07T16:53:27Z</time>
      </trkpt>
      <trkpt lat="59.8926891" lon="17.6419699">
        <ele>5.42456</ele>
        <time>2013-05-07T16:53:28Z</time>
      </trkpt>
      <trkpt lat="59.8926963" lon="17.641833">
        <ele>4.94385</ele>
        <time>2013-05-07T16:53:29Z</time>
      </trkpt>
      <trkpt lat="59.892704" lon="17.6416952">
        <ele>4.46326</ele>
        <time>2013-05-07T16:53:30Z</time>
      </trkpt>
      <trkpt lat="59.8927121" lon="17.6415567">
        <ele>3.98267</ele>
        <time>2013-05-07T16:53:31Z</time>
      </trkpt>
      <trkpt lat="59.89272" lon="17.6414169">
        <ele>3.98267</ele>
        <time>2013-05-07T16:53:32Z</time>
      </trkpt>
      <trkpt lat="59.8927274" lon="17.6412784">
        <ele>3.50195</ele>
        <time>2013-05-07T16:53:33Z</time>
      </trkpt>
      <trkpt lat="59.8927326" lon="17.6411408">
        <ele>3.50195</ele>
        <time>2013-05-07T16:53:34Z</time>
      </trkpt>
      <trkpt lat="59.892738" lon="17.6410106">
        <ele>3.98267</ele>
        <time>2013-05-07T16:53:35Z</time>
      </trkpt>
      <trkpt lat="59.8927421" lon="17.640882">
        <ele>3.98267</ele>
        <time>2013-05-07T16:53:36Z</time>
      </trkpt>
      <trkpt lat="59.892747" lon="17.6407541">
        <ele>3.98267</ele>
        <time>2013-05-07T16:53:37Z</time>
      </trkpt>
      <trkpt lat="59.8927501" lon="17.6406299">
        <ele>3.50195</ele>
        <time>2013-05-07T16:53:38Z</time>
      </trkpt>
      <trkpt lat="59.8927543" lon="17.6404967">
        <ele>4.46326</ele>
        <time>2013-05-07T16:53:39Z</time>
      </trkpt>
      <trkpt lat="59.8927557" lon="17.6403646">
        <ele>4.46326</ele>
        <time>2013-05-07T16:53:40Z</time>
      </trkpt>
      <trkpt lat="59.8927569" lon="17.6402346">
        <ele>4.94385</ele>
        <time>2013-05-07T16:53:41Z</time>
      </trkpt>
      <trkpt lat="59.8927584" lon="17.6401078">
        <ele>5.42456</ele>
        <time>2013-05-07T16:53:42Z</time>
      </trkpt>
      <trkpt lat="59.8927606" lon="17.6399813">
        <ele>5.42456</ele>
        <time>2013-05-07T16:53:43Z</time>
      </trkpt>
      <trkpt lat="59.892762" lon="17.639857">
        <ele>5.42456</ele>
        <time>2013-05-07T16:53:44Z</time>
      </trkpt>
      <trkpt lat="59.8927642" lon="17.6397349">
        <ele>5.42456</ele>
        <time>2013-05-07T16:53:45Z</time>
      </trkpt>
      <trkpt lat="59.892767" lon="17.6396123">
        <ele>5.42456</ele>
        <time>2013-05-07T16:53:46Z</time>
      </trkpt>
      <trkpt lat="59.8927682" lon="17.6394893">
        <ele>5.42456</ele>
        <time>2013-05-07T16:53:47Z</time>
      </trkpt>
      <trkpt lat="59.8927697" lon="17.63937">
        <ele>5.42456</ele>
        <time>2013-05-07T16:53:48Z</time>
      </trkpt>
      <trkpt lat="59.8927713" lon="17.6392556">
        <ele>4.94385</ele>
        <time>2013-05-07T16:53:49Z</time>
      </trkpt>
      <trkpt lat="59.8927698" lon="17.6391407">
        <ele>4.46326</ele>
        <time>2013-05-07T16:53:50Z</time>
      </trkpt>
      <trkpt lat="59.8927656" lon="17.6390163">
        <ele>4.46326</ele>
        <time>2013-05-07T16:53:51Z</time>
      </trkpt>
      <trkpt lat="59.8927652" lon="17.6388904">
        <ele>4.94385</ele>
        <time>2013-05-07T16:53:52Z</time>
      </trkpt>
      <trkpt lat="59.8927729" lon="17.6387688">
        <ele>4.94385</ele>
        <time>2013-05-07T16:53:53Z</time>
      </trkpt>
      <trkpt lat="59.8927971" lon="17.6386502">
        <ele>5.42456</ele>
        <time>2013-05-07T16:53:54Z</time>
      </trkpt>
      <trkpt lat="59.8928248" lon="17.6385088">
        <ele>6.86646</ele>
        <time>2013-05-07T16:53:55Z</time>
      </trkpt>
      <trkpt lat="59.8928634" lon="17.6384121">
        <ele>8.30859</ele>
        <time>2013-05-07T16:53:56Z</time>
      </trkpt>
      <trkpt lat="59.8929158" lon="17.6383661">
        <ele>8.30859</ele>
        <time>2013-05-07T16:53:57Z</time>
      </trkpt>
      <trkpt lat="59.8929718" lon="17.6383463">
        <ele>8.78918</ele>
        <time>2013-05-07T16:53:58Z</time>
      </trkpt>
      <trkpt lat="59.8930281" lon="17.6383269">
        <ele>9.2699</ele>
        <time>2013-05-07T16:53:59Z</time>
      </trkpt>
      <trkpt lat="59.8930846" lon="17.638305">
        <ele>8.78918</ele>
        <time>2013-05-07T16:54:00Z</time>
      </trkpt>
      <trkpt lat="59.8931411" lon="17.6382885">
        <ele>8.78918</ele>
        <time>2013-05-07T16:54:01Z</time>
      </trkpt>
      <trkpt lat="59.8931976" lon="17.6382765">
        <ele>7.82788</ele>
        <time>2013-05-07T16:54:02Z</time>
      </trkpt>
      <trkpt lat="59.8932547" lon="17.6382525">
        <ele>7.82788</ele>
        <time>2013-05-07T16:54:03Z</time>
      </trkpt>
      <trkpt lat="59.8933151" lon="17.6382209">
        <ele>7.82788</ele>
        <time>2013-05-07T16:54:04Z</time>
      </trkpt>
      <trkpt lat="59.8933784" lon="17.6381844">
        <ele>8.78918</ele>
        <time>2013-05-07T16:54:05Z</time>
      </trkpt>
      <trkpt lat="59.893439" lon="17.6381408">
        <ele>9.2699</ele>
        <time>2013-05-07T16:54:06Z</time>
      </trkpt>
      <trkpt lat="59.8934986" lon="17.6380973">
        <ele>9.75061</ele>
        <time>2013-05-07T16:54:07Z</time>
      </trkpt>
      <trkpt lat="59.8935595" lon="17.6380591">
        <ele>10.2312</ele>
        <time>2013-05-07T16:54:08Z</time>
      </trkpt>
      <trkpt lat="59.8936176" lon="17.6380172">
        <ele>10.2312</ele>
        <time>2013-05-07T16:54:09Z</time>
      </trkpt>
      <trkpt lat="59.8936732" lon="17.6379684">
        <ele>12.1538</ele>
        <time>2013-05-07T16:54:10Z</time>
      </trkpt>
      <trkpt lat="59.8937316" lon="17.6379229">
        <ele>11.6732</ele>
        <time>2013-05-07T16:54:11Z</time>
      </trkpt>
      <trkpt lat="59.8937897" lon="17.6378766">
        <ele>11.6732</ele>
        <time>2013-05-07T16:54:12Z</time>
      </trkpt>
      <trkpt lat="59.8938505" lon="17.6378324">
        <ele>11.1925</ele>
        <time>2013-05-07T16:54:13Z</time>
      </trkpt>
      <trkpt lat="59.8939094" lon="17.637784">
        <ele>11.6732</ele>
        <time>2013-05-07T16:54:14Z</time>
      </trkpt>
      <trkpt lat="59.8939669" lon="17.6377294">
        <ele>12.1538</ele>
        <time>2013-05-07T16:54:15Z</time>
      </trkpt>
      <trkpt lat="59.8940228" lon="17.6376798">
        <ele>12.1538</ele>
        <time>2013-05-07T16:54:16Z</time>
      </trkpt>
      <trkpt lat="59.8940808" lon="17.6376382">
        <ele>11.1925</ele>
        <time>2013-05-07T16:54:17Z</time>
      </trkpt>
      <trkpt lat="59.8941433" lon="17.6376001">
        <ele>10.2312</ele>
        <time>2013-05-07T16:54:18Z</time>
      </trkpt>
      <trkpt lat="59.8942084" lon="17.637562">
        <ele>9.75061</ele>
        <time>2013-05-07T16:54:19Z</time>
      </trkpt>
      <trkpt lat="59.8942714" lon="17.6375159">
        <ele>10.2312</ele>
        <time>2013-05-07T16:54:20Z</time>
      </trkpt>
      <trkpt lat="59.8943368" lon="17.6374722">
        <ele>9.75061</ele>
        <time>2013-05-07T16:54:21Z</time>
      </trkpt>
      <trkpt lat="59.8944" lon="17.6374258">
        <ele>9.2699</ele>
        <time>2013-05-07T16:54:22Z</time>
      </trkpt>
      <trkpt lat="59.894459" lon="17.6373794">
        <ele>9.2699</ele>
        <time>2013-05-07T16:54:23Z</time>
      </trkpt>
      <trkpt lat="59.8945178" lon="17.6373391">
        <ele>8.78918</ele>
        <time>2013-05-07T16:54:24Z</time>
      </trkpt>
      <trkpt lat="59.8945785" lon="17.6372928">
        <ele>8.30859</ele>
        <time>2013-05-07T16:54:25Z</time>
      </trkpt>
      <trkpt lat="59.8946475" lon="17.6372457">
        <ele>8.78918</ele>
        <time>2013-05-07T16:54:26Z</time>
      </trkpt>
      <trkpt lat="59.8947159" lon="17.6371965">
        <ele>8.78918</ele>
        <time>2013-05-07T16:54:27Z</time>
      </trkpt>
      <trkpt lat="59.8947849" lon="17.6371493">
        <ele>8.78918</ele>
        <time>2013-05-07T16:54:28Z</time>
      </trkpt>
      <trkpt lat="59.8948538" lon="17.6371006">
        <ele>8.30859</ele>
        <time>2013-05-07T16:54:29Z</time>
      </trkpt>
      <trkpt lat="59.8949226" lon="17.6370473">
        <ele>7.82788</ele>
        <time>2013-05-07T16:54:30Z</time>
      </trkpt>
      <trkpt lat="59.8949931" lon="17.6370022">
        <ele>7.82788</ele>
        <time>2013-05-07T16:54:31Z</time>
      </trkpt>
      <trkpt lat="59.8950623" lon="17.6369566">
        <ele>7.82788</ele>
        <time>2013-05-07T16:54:32Z</time>
      </trkpt>
      <trkpt lat="59.8951334" lon="17.6369137">
        <ele>8.30859</ele>
        <time>2013-05-07T16:54:33Z</time>
      </trkpt>
      <trkpt lat="59.8952016" lon="17.6368667">
        <ele>8.78918</ele>
        <time>2013-05-07T16:54:34Z</time>
      </trkpt>
      <trkpt lat="59.8952686" lon="17.6368323">
        <ele>8.78918</ele>
        <time>2013-05-07T16:54:35Z</time>
      </trkpt>
      <trkpt lat="59.8953349" lon="17.6368011">
        <ele>8.78918</ele>
        <time>2013-05-07T16:54:36Z</time>
      </trkpt>
      <trkpt lat="59.8954024" lon="17.6367667">
        <ele>8.30859</ele>
        <time>2013-05-07T16:54:37Z</time>
      </trkpt>
      <trkpt lat="59.8954692" lon="17.6367341">
        <ele>8.30859</ele>
        <time>2013-05-07T16:54:38Z</time>
      </trkpt>
      <trkpt lat="59.895536" lon="17.6367063">
        <ele>7.82788</ele>
        <time>2013-05-07T16:54:39Z</time>
      </trkpt>
      <trkpt lat="59.8956054" lon="17.6366858">
        <ele>7.34717</ele>
        <time>2013-05-07T16:54:40Z</time>
      </trkpt>
      <trkpt lat="59.8956772" lon="17.6366743">
        <ele>5.90527</ele>
        <time>2013-05-07T16:54:41Z</time>
      </trkpt>
      <trkpt lat="59.8957504" lon="17.6366603">
        <ele>6.38586</ele>
        <time>2013-05-07T16:54:42Z</time>
      </trkpt>
      <trkpt lat="59.8958235" lon="17.6366531">
        <ele>6.38586</ele>
        <time>2013-05-07T16:54:43Z</time>
      </trkpt>
      <trkpt lat="59.8958956" lon="17.6366599">
        <ele>5.90527</ele>
        <time>2013-05-07T16:54:44Z</time>
      </trkpt>
      <trkpt lat="59.895985" lon="17.6366801">
        <ele>6.86646</ele>
        <time>2013-05-07T16:54:45Z</time>
      </trkpt>
      <trkpt lat="59.8960688" lon="17.636693">
        <ele>7.82788</ele>
        <time>2013-05-07T16:54:46Z</time>
      </trkpt>
      <trkpt lat="59.8961487" lon="17.6367076">
        <ele>8.30859</ele>
        <time>2013-05-07T16:54:47Z</time>
      </trkpt>
      <trkpt lat="59.8962311" lon="17.6367213">
        <ele>8.30859</ele>
        <time>2013-05-07T16:54:48Z</time>
      </trkpt>
      <trkpt lat="59.8963131" lon="17.6367339">
        <ele>7.34717</ele>
        <time>2013-05-07T16:54:49Z</time>
      </trkpt>
      <trkpt lat="59.8963932" lon="17.6367537">
        <ele>7.82788</ele>
        <time>2013-05-07T16:54:50Z</time>
      </trkpt>
      <trkpt lat="59.8964713" lon="17.6367744">
        <ele>8.78918</ele>
        <time>2013-05-07T16:54:51Z</time>
      </trkpt>
      <trkpt lat="59.8965506" lon="17.6367987">
        <ele>9.75061</ele>
        <time>2013-05-07T16:54:52Z</time>
      </trkpt>
      <trkpt lat="59.8966305" lon="17.6368267">
        <ele>10.2312</ele>
        <time>2013-05-07T16:54:53Z</time>
      </trkpt>
      <trkpt lat="59.8967108" lon="17.6368565">
        <ele>10.7118</ele>
        <time>2013-05-07T16:54:54Z</time>
      </trkpt>
      <trkpt lat="59.896791" lon="17.6368851">
        <ele>11.6732</ele>
        <time>2013-05-07T16:54:55Z</time>
      </trkpt>
      <trkpt lat="59.8968736" lon="17.6369173">
        <ele>13.1151</ele>
        <time>2013-05-07T16:54:56Z</time>
      </trkpt>
      <trkpt lat="59.8969604" lon="17.6369531">
        <ele>13.5958</ele>
        <time>2013-05-07T16:54:57Z</time>
      </trkpt>
      <trkpt lat="59.8970509" lon="17.636994">
        <ele>14.0764</ele>
        <time>2013-05-07T16:54:58Z</time>
      </trkpt>
      <trkpt lat="59.8971434" lon="17.637036">
        <ele>14.557</ele>
        <time>2013-05-07T16:54:59Z</time>
      </trkpt>
      <trkpt lat="59.8972403" lon="17.6370779">
        <ele>15.5184</ele>
        <time>2013-05-07T16:55:00Z</time>
      </trkpt>
      <trkpt lat="59.8973401" lon="17.6371199">
        <ele>15.999</ele>
        <time>2013-05-07T16:55:01Z</time>
      </trkpt>
      <trkpt lat="59.8974396" lon="17.6371704">
        <ele>16.4797</ele>
        <time>2013-05-07T16:55:02Z</time>
      </trkpt>
      <trkpt lat="59.8975387" lon="17.6372277">
        <ele>16.9604</ele>
        <time>2013-05-07T16:55:03Z</time>
      </trkpt>
      <trkpt lat="59.8976354" lon="17.637298">
        <ele>16.9604</ele>
        <time>2013-05-07T16:55:04Z</time>
      </trkpt>
      <trkpt lat="59.8977295" lon="17.6373851">
        <ele>17.9218</ele>
        <time>2013-05-07T16:55:05Z</time>
      </trkpt>
      <trkpt lat="59.8978121" lon="17.6375033">
        <ele>18.8831</ele>
        <time>2013-05-07T16:55:06Z</time>
      </trkpt>
      <trkpt lat="59.8978913" lon="17.6376387">
        <ele>18.4023</ele>
        <time>2013-05-07T16:55:07Z</time>
      </trkpt>
      <trkpt lat="59.8979748" lon="17.637772">
        <ele>17.9218</ele>
        <time>2013-05-07T16:55:08Z</time>
      </trkpt>
      <trkpt lat="59.8980631" lon="17.6378845">
        <ele>17.4412</ele>
        <time>2013-05-07T16:55:09Z</time>
      </trkpt>
      <trkpt lat="59.8981555" lon="17.6379825">
        <ele>17.4412</ele>
        <time>2013-05-07T16:55:10Z</time>
      </trkpt>
      <trkpt lat="59.8982478" lon="17.6380714">
        <ele>16.9604</ele>
        <time>2013-05-07T16:55:11Z</time>
      </trkpt>
      <trkpt lat="59.8983398" lon="17.6381548">
        <ele>16.9604</ele>
        <time>2013-05-07T16:55:12Z</time>
      </trkpt>
      <trkpt lat="59.8984307" lon="17.6382356">
        <ele>16.9604</ele>
        <time>2013-05-07T16:55:13Z</time>
      </trkpt>
      <trkpt lat="59.8985244" lon="17.6383014">
        <ele>16.4797</ele>
        <time>2013-05-07T16:55:14Z</time>
      </trkpt>
      <trkpt lat="59.8986215" lon="17.6383403">
        <ele>15.5184</ele>
        <time>2013-05-07T16:55:15Z</time>
      </trkpt>
      <trkpt lat="59.8987216" lon="17.638345">
        <ele>15.0377</ele>
        <time>2013-05-07T16:55:16Z</time>
      </trkpt>
      <trkpt lat="59.8988185" lon="17.6383479">
        <ele>15.5184</ele>
        <time>2013-05-07T16:55:17Z</time>
      </trkpt>
      <trkpt lat="59.898916" lon="17.6383684">
        <ele>15.999</ele>
        <time>2013-05-07T16:55:18Z</time>
      </trkpt>
      <trkpt lat="59.8990149" lon="17.6384102">
        <ele>15.5184</ele>
        <time>2013-05-07T16:55:19Z</time>
      </trkpt>
      <trkpt lat="59.8990994" lon="17.6384936">
        <ele>14.557</ele>
        <time>2013-05-07T16:55:20Z</time>
      </trkpt>
      <trkpt lat="59.8991843" lon="17.6385844">
        <ele>14.0764</ele>
        <time>2013-05-07T16:55:21Z</time>
      </trkpt>
      <trkpt lat="59.8992667" lon="17.6386838">
        <ele>14.0764</ele>
        <time>2013-05-07T16:55:22Z</time>
      </trkpt>
      <trkpt lat="59.8993526" lon="17.6387656">
        <ele>15.999</ele>
        <time>2013-05-07T16:55:23Z</time>
      </trkpt>
      <trkpt lat="59.8994417" lon="17.6388511">
        <ele>15.999</ele>
        <time>2013-05-07T16:55:24Z</time>
      </trkpt>
      <trkpt lat="59.899523" lon="17.6389401">
        <ele>15.5184</ele>
        <time>2013-05-07T16:55:25Z</time>
      </trkpt>
      <trkpt lat="59.8996028" lon="17.6390316">
        <ele>15.0377</ele>
        <time>2013-05-07T16:55:26Z</time>
      </trkpt>
      <trkpt lat="59.8996755" lon="17.6391361">
        <ele>13.5958</ele>
        <time>2013-05-07T16:55:27Z</time>
      </trkpt>
      <trkpt lat="59.8997613" lon="17.6392297">
        <ele>12.1538</ele>
        <time>2013-05-07T16:55:28Z</time>
      </trkpt>
      <trkpt lat="59.8998443" lon="17.6393272">
        <ele>10.7118</ele>
        <time>2013-05-07T16:55:29Z</time>
      </trkpt>
      <trkpt lat="59.8999274" lon="17.6394271">
        <ele>9.2699</ele>
        <time>2013-05-07T16:55:30Z</time>
      </trkpt>
      <trkpt lat="59.9000137" lon="17.6395198">
        <ele>8.78918</ele>
        <time>2013-05-07T16:55:31Z</time>
      </trkpt>
      <trkpt lat="59.9000975" lon="17.6396109">
        <ele>8.78918</ele>
        <time>2013-05-07T16:55:32Z</time>
      </trkpt>
      <trkpt lat="59.9001802" lon="17.6397054">
        <ele>8.30859</ele>
        <time>2013-05-07T16:55:33Z</time>
      </trkpt>
      <trkpt lat="59.9002603" lon="17.6398042">
        <ele>7.82788</ele>
        <time>2013-05-07T16:55:34Z</time>
      </trkpt>
      <trkpt lat="59.9003453" lon="17.6398974">
        <ele>7.34717</ele>
        <time>2013-05-07T16:55:35Z</time>
      </trkpt>
      <trkpt lat="59.9004306" lon="17.6399871">
        <ele>6.38586</ele>
        <time>2013-05-07T16:55:36Z</time>
      </trkpt>
      <trkpt lat="59.9005156" lon="17.6400757">
        <ele>5.90527</ele>
        <time>2013-05-07T16:55:37Z</time>
      </trkpt>
      <trkpt lat="59.9006024" lon="17.6401689">
        <ele>5.42456</ele>
        <time>2013-05-07T16:55:38Z</time>
      </trkpt>
      <trkpt lat="59.9006907" lon="17.6402625">
        <ele>5.42456</ele>
        <time>2013-05-07T16:55:39Z</time>
      </trkpt>
      <trkpt lat="59.9007817" lon="17.6403524">
        <ele>4.94385</ele>
        <time>2013-05-07T16:55:40Z</time>
      </trkpt>
      <trkpt lat="59.9008735" lon="17.6404423">
        <ele>4.46326</ele>
        <time>2013-05-07T16:55:41Z</time>
      </trkpt>
      <trkpt lat="59.900972" lon="17.6405419">
        <ele>3.50195</ele>
        <time>2013-05-07T16:55:42Z</time>
      </trkpt>
      <trkpt lat="59.9010693" lon="17.6406383">
        <ele>3.02124</ele>
        <time>2013-05-07T16:55:43Z</time>
      </trkpt>
      <trkpt lat="59.9011663" lon="17.6407318">
        <ele>3.50195</ele>
        <time>2013-05-07T16:55:44Z</time>
      </trkpt>
      <trkpt lat="59.9012657" lon="17.6408224">
        <ele>4.46326</ele>
        <time>2013-05-07T16:55:45Z</time>
      </trkpt>
      <trkpt lat="59.9013645" lon="17.6409136">
        <ele>4.94385</ele>
        <time>2013-05-07T16:55:46Z</time>
      </trkpt>
      <trkpt lat="59.9014638" lon="17.6410023">
        <ele>5.42456</ele>
        <time>2013-05-07T16:55:47Z</time>
      </trkpt>
      <trkpt lat="59.9015651" lon="17.6410851">
        <ele>6.38586</ele>
        <time>2013-05-07T16:55:48Z</time>
      </trkpt>
      <trkpt lat="59.901665" lon="17.6411692">
        <ele>6.86646</ele>
        <time>2013-05-07T16:55:49Z</time>
      </trkpt>
      <trkpt lat="59.9017643" lon="17.6412529">
        <ele>6.86646</ele>
        <time>2013-05-07T16:55:50Z</time>
      </trkpt>
      <trkpt lat="59.9018639" lon="17.6413335">
        <ele>7.34717</ele>
        <time>2013-05-07T16:55:51Z</time>
      </trkpt>
      <trkpt lat="59.9019633" lon="17.6414145">
        <ele>7.34717</ele>
        <time>2013-05-07T16:55:52Z</time>
      </trkpt>
      <trkpt lat="59.9020632" lon="17.6414918">
        <ele>7.82788</ele>
        <time>2013-05-07T16:55:53Z</time>
      </trkpt>
      <trkpt lat="59.9021628" lon="17.6415654">
        <ele>7.82788</ele>
        <time>2013-05-07T16:55:54Z</time>
      </trkpt>
      <trkpt lat="59.9022601" lon="17.6416322">
        <ele>8.78918</ele>
        <time>2013-05-07T16:55:55Z</time>
      </trkpt>
      <trkpt lat="59.9023586" lon="17.641698">
        <ele>9.2699</ele>
        <time>2013-05-07T16:55:56Z</time>
      </trkpt>
      <trkpt lat="59.9024576" lon="17.6417611">
        <ele>9.75061</ele>
        <time>2013-05-07T16:55:57Z</time>
      </trkpt>
      <trkpt lat="59.9025566" lon="17.6418219">
        <ele>10.2312</ele>
        <time>2013-05-07T16:55:58Z</time>
      </trkpt>
      <trkpt lat="59.902655" lon="17.6418814">
        <ele>10.7118</ele>
        <time>2013-05-07T16:55:59Z</time>
      </trkpt>
      <trkpt lat="59.9027528" lon="17.6419399">
        <ele>10.7118</ele>
        <time>2013-05-07T16:56:00Z</time>
      </trkpt>
      <trkpt lat="59.9028523" lon="17.6419932">
        <ele>11.6732</ele>
        <time>2013-05-07T16:56:01Z</time>
      </trkpt>
      <trkpt lat="59.9029509" lon="17.6420433">
        <ele>12.1538</ele>
        <time>2013-05-07T16:56:02Z</time>
      </trkpt>
      <trkpt lat="59.9030497" lon="17.6420891">
        <ele>12.6344</ele>
        <time>2013-05-07T16:56:03Z</time>
      </trkpt>
      <trkpt lat="59.9031486" lon="17.6421321">
        <ele>13.5958</ele>
        <time>2013-05-07T16:56:04Z</time>
      </trkpt>
      <trkpt lat="59.9032466" lon="17.6421737">
        <ele>13.5958</ele>
        <time>2013-05-07T16:56:05Z</time>
      </trkpt>
      <trkpt lat="59.9033438" lon="17.642216">
        <ele>13.1151</ele>
        <time>2013-05-07T16:56:06Z</time>
      </trkpt>
      <trkpt lat="59.9034392" lon="17.6422612">
        <ele>12.6344</ele>
        <time>2013-05-07T16:56:07Z</time>
      </trkpt>
      <trkpt lat="59.9035341" lon="17.6423057">
        <ele>12.6344</ele>
        <time>2013-05-07T16:56:08Z</time>
      </trkpt>
      <trkpt lat="59.9036304" lon="17.6423477">
        <ele>12.6344</ele>
        <time>2013-05-07T16:56:09Z</time>
      </trkpt>
      <trkpt lat="59.9037272" lon="17.6423845">
        <ele>13.1151</ele>
        <time>2013-05-07T16:56:10Z</time>
      </trkpt>
      <trkpt lat="59.9038163" lon="17.642428">
        <ele>13.1151</ele>
        <time>2013-05-07T16:56:11Z</time>
      </trkpt>
      <trkpt lat="59.9039068" lon="17.6424699">
        <ele>12.6344</ele>
        <time>2013-05-07T16:56:12Z</time>
      </trkpt>
      <trkpt lat="59.9040016" lon="17.6425061">
        <ele>13.1151</ele>
        <time>2013-05-07T16:56:13Z</time>
      </trkpt>
      <trkpt lat="59.904091" lon="17.6425521">
        <ele>13.1151</ele>
        <time>2013-05-07T16:56:14Z</time>
      </trkpt>
      <trkpt lat="59.9041815" lon="17.6425924">
        <ele>12.6344</ele>
        <time>2013-05-07T16:56:15Z</time>
      </trkpt>
      <trkpt lat="59.9042665" lon="17.6426422">
        <ele>11.6732</ele>
        <time>2013-05-07T16:56:16Z</time>
      </trkpt>
      <trkpt lat="59.9043591" lon="17.6426874">
        <ele>11.6732</ele>
        <time>2013-05-07T16:56:17Z</time>
      </trkpt>
      <trkpt lat="59.9044554" lon="17.6427207">
        <ele>13.1151</ele>
        <time>2013-05-07T16:56:18Z</time>
      </trkpt>
      <trkpt lat="59.9045471" lon="17.6427588">
        <ele>13.1151</ele>
        <time>2013-05-07T16:56:19Z</time>
      </trkpt>
      <trkpt lat="59.9046379" lon="17.6427971">
        <ele>13.5958</ele>
        <time>2013-05-07T16:56:20Z</time>
      </trkpt>
      <trkpt lat="59.904729" lon="17.6428361">
        <ele>14.0764</ele>
        <time>2013-05-07T16:56:21Z</time>
      </trkpt>
      <trkpt lat="59.9048181" lon="17.6428744">
        <ele>14.0764</ele>
        <time>2013-05-07T16:56:22Z</time>
      </trkpt>
      <trkpt lat="59.9049029" lon="17.6429163">
        <ele>14.0764</ele>
        <time>2013-05-07T16:56:23Z</time>
      </trkpt>
      <trkpt lat="59.904986" lon="17.6429521">
        <ele>15.5184</ele>
        <time>2013-05-07T16:56:24Z</time>
      </trkpt>
      <trkpt lat="59.9050704" lon="17.6429872">
        <ele>15.0377</ele>
        <time>2013-05-07T16:56:25Z</time>
      </trkpt>
      <trkpt lat="59.9051569" lon="17.6430224">
        <ele>15.5184</ele>
        <time>2013-05-07T16:56:26Z</time>
      </trkpt>
      <trkpt lat="59.9052427" lon="17.6430671">
        <ele>15.5184</ele>
        <time>2013-05-07T16:56:27Z</time>
      </trkpt>
      <trkpt lat="59.9053267" lon="17.6431091">
        <ele>15.5184</ele>
        <time>2013-05-07T16:56:28Z</time>
      </trkpt>
      <trkpt lat="59.9054113" lon="17.6431536">
        <ele>15.0377</ele>
        <time>2013-05-07T16:56:29Z</time>
      </trkpt>
      <trkpt lat="59.9054937" lon="17.6431975">
        <ele>14.557</ele>
        <time>2013-05-07T16:56:30Z</time>
      </trkpt>
      <trkpt lat="59.9055779" lon="17.6432339">
        <ele>14.0764</ele>
        <time>2013-05-07T16:56:31Z</time>
      </trkpt>
      <trkpt lat="59.9056611" lon="17.643269">
        <ele>13.1151</ele>
        <time>2013-05-07T16:56:32Z</time>
      </trkpt>
      <trkpt lat="59.9057423" lon="17.643308">
        <ele>12.6344</ele>
        <time>2013-05-07T16:56:33Z</time>
      </trkpt>
      <trkpt lat="59.905821" lon="17.6433508">
        <ele>11.6732</ele>
        <time>2013-05-07T16:56:34Z</time>
      </trkpt>
      <trkpt lat="59.9058991" lon="17.6433893">
        <ele>11.1925</ele>
        <time>2013-05-07T16:56:35Z</time>
      </trkpt>
      <trkpt lat="59.9059738" lon="17.6434313">
        <ele>11.6732</ele>
        <time>2013-05-07T16:56:36Z</time>
      </trkpt>
      <trkpt lat="59.9060529" lon="17.6434665">
        <ele>11.6732</ele>
        <time>2013-05-07T16:56:37Z</time>
      </trkpt>
      <trkpt lat="59.9061281" lon="17.6435084">
        <ele>11.6732</ele>
        <time>2013-05-07T16:56:38Z</time>
      </trkpt>
      <trkpt lat="59.9061985" lon="17.6435544">
        <ele>11.6732</ele>
        <time>2013-05-07T16:56:39Z</time>
      </trkpt>
      <trkpt lat="59.9062756" lon="17.6435858">
        <ele>11.6732</ele>
        <time>2013-05-07T16:56:40Z</time>
      </trkpt>
      <trkpt lat="59.9063515" lon="17.6436183">
        <ele>11.6732</ele>
        <time>2013-05-07T16:56:41Z</time>
      </trkpt>
      <trkpt lat="59.9064318" lon="17.6436447">
        <ele>12.6344</ele>
        <time>2013-05-07T16:56:42Z</time>
      </trkpt>
      <trkpt lat="59.9065137" lon="17.643667">
        <ele>13.1151</ele>
        <time>2013-05-07T16:56:43Z</time>
      </trkpt>
      <trkpt lat="59.9065986" lon="17.6436857">
        <ele>14.0764</ele>
        <time>2013-05-07T16:56:44Z</time>
      </trkpt>
      <trkpt lat="59.9066805" lon="17.6437064">
        <ele>15.0377</ele>
        <time>2013-05-07T16:56:45Z</time>
      </trkpt>
      <trkpt lat="59.9067617" lon="17.6437287">
        <ele>15.0377</ele>
        <time>2013-05-07T16:56:46Z</time>
      </trkpt>
      <trkpt lat="59.906845" lon="17.6437442">
        <ele>16.4797</ele>
        <time>2013-05-07T16:56:47Z</time>
      </trkpt>
      <trkpt lat="59.9069271" lon="17.6437592">
        <ele>16.9604</ele>
        <time>2013-05-07T16:56:48Z</time>
      </trkpt>
      <trkpt lat="59.9070083" lon="17.6437743">
        <ele>16.9604</ele>
        <time>2013-05-07T16:56:49Z</time>
      </trkpt>
      <trkpt lat="59.9070884" lon="17.643789">
        <ele>17.9218</ele>
        <time>2013-05-07T16:56:50Z</time>
      </trkpt>
      <trkpt lat="59.9071679" lon="17.6438027">
        <ele>18.4023</ele>
        <time>2013-05-07T16:56:51Z</time>
      </trkpt>
      <trkpt lat="59.9072461" lon="17.6438189">
        <ele>18.8831</ele>
        <time>2013-05-07T16:56:52Z</time>
      </trkpt>
      <trkpt lat="59.9073256" lon="17.6438338">
        <ele>19.3638</ele>
        <time>2013-05-07T16:56:53Z</time>
      </trkpt>
      <trkpt lat="59.9074042" lon="17.6438478">
        <ele>19.8444</ele>
        <time>2013-05-07T16:56:54Z</time>
      </trkpt>
      <trkpt lat="59.9074875" lon="17.6438554">
        <ele>20.325</ele>
        <time>2013-05-07T16:56:55Z</time>
      </trkpt>
      <trkpt lat="59.9075647" lon="17.6438714">
        <ele>20.8057</ele>
        <time>2013-05-07T16:56:56Z</time>
      </trkpt>
      <trkpt lat="59.9076425" lon="17.643884">
        <ele>20.8057</ele>
        <time>2013-05-07T16:56:57Z</time>
      </trkpt>
      <trkpt lat="59.9077211" lon="17.6438927">
        <ele>21.767</ele>
        <time>2013-05-07T16:56:58Z</time>
      </trkpt>
      <trkpt lat="59.9078003" lon="17.643899">
        <ele>22.7283</ele>
        <time>2013-05-07T16:56:59Z</time>
      </trkpt>
      <trkpt lat="59.9078781" lon="17.6439078">
        <ele>23.6896</ele>
        <time>2013-05-07T16:57:00Z</time>
      </trkpt>
      <trkpt lat="59.9079547" lon="17.643916">
        <ele>24.1703</ele>
        <time>2013-05-07T16:57:01Z</time>
      </trkpt>
      <trkpt lat="59.9080329" lon="17.6439197">
        <ele>24.651</ele>
        <time>2013-05-07T16:57:02Z</time>
      </trkpt>
      <trkpt lat="59.9081104" lon="17.643924">
        <ele>25.6123</ele>
        <time>2013-05-07T16:57:03Z</time>
      </trkpt>
      <trkpt lat="59.9081876" lon="17.6439318">
        <ele>26.0929</ele>
        <time>2013-05-07T16:57:04Z</time>
      </trkpt>
      <trkpt lat="59.9082612" lon="17.6439422">
        <ele>26.5736</ele>
        <time>2013-05-07T16:57:05Z</time>
      </trkpt>
      <trkpt lat="59.9083344" lon="17.6439505">
        <ele>27.0543</ele>
        <time>2013-05-07T16:57:06Z</time>
      </trkpt>
      <trkpt lat="59.9084126" lon="17.6439493">
        <ele>27.0543</ele>
        <time>2013-05-07T16:57:07Z</time>
      </trkpt>
      <trkpt lat="59.9084872" lon="17.6439558">
        <ele>27.5349</ele>
        <time>2013-05-07T16:57:08Z</time>
      </trkpt>
      <trkpt lat="59.9085627" lon="17.6439662">
        <ele>27.5349</ele>
        <time>2013-05-07T16:57:09Z</time>
      </trkpt>
      <trkpt lat="59.9086374" lon="17.6439695">
        <ele>27.5349</ele>
        <time>2013-05-07T16:57:10Z</time>
      </trkpt>
      <trkpt lat="59.9087131" lon="17.6439663">
        <ele>27.5349</ele>
        <time>2013-05-07T16:57:11Z</time>
      </trkpt>
      <trkpt lat="59.9087897" lon="17.6439628">
        <ele>27.5349</ele>
        <time>2013-05-07T16:57:12Z</time>
      </trkpt>
      <trkpt lat="59.9088664" lon="17.6439626">
        <ele>27.5349</ele>
        <time>2013-05-07T16:57:13Z</time>
      </trkpt>
      <trkpt lat="59.9089414" lon="17.6439605">
        <ele>27.5349</ele>
        <time>2013-05-07T16:57:14Z</time>
      </trkpt>
      <trkpt lat="59.9090173" lon="17.6439565">
        <ele>27.5349</ele>
        <time>2013-05-07T16:57:15Z</time>
      </trkpt>
      <trkpt lat="59.9090928" lon="17.6439519">
        <ele>27.5349</ele>
        <time>2013-05-07T16:57:16Z</time>
      </trkpt>
      <trkpt lat="59.909167" lon="17.6439492">
        <ele>28.0155</ele>
        <time>2013-05-07T16:57:17Z</time>
      </trkpt>
      <trkpt lat="59.9092409" lon="17.6439467">
        <ele>28.0155</ele>
        <time>2013-05-07T16:57:18Z</time>
      </trkpt>
      <trkpt lat="59.9093156" lon="17.6439426">
        <ele>28.0155</ele>
        <time>2013-05-07T16:57:19Z</time>
      </trkpt>
      <trkpt lat="59.9093889" lon="17.6439374">
        <ele>28.0155</ele>
        <time>2013-05-07T16:57:20Z</time>
      </trkpt>
      <trkpt lat="59.9094621" lon="17.6439308">
        <ele>27.5349</ele>
        <time>2013-05-07T16:57:21Z</time>
      </trkpt>
      <trkpt lat="59.9095358" lon="17.643925">
        <ele>27.5349</ele>
        <time>2013-05-07T16:57:22Z</time>
      </trkpt>
      <trkpt lat="59.9096113" lon="17.6439167">
        <ele>27.5349</ele>
        <time>2013-05-07T16:57:23Z</time>
      </trkpt>
      <trkpt lat="59.9096876" lon="17.6439077">
        <ele>27.5349</ele>
        <time>2013-05-07T16:57:24Z</time>
      </trkpt>
      <trkpt lat="59.9097641" lon="17.6438975">
        <ele>27.5349</ele>
        <time>2013-05-07T16:57:25Z</time>
      </trkpt>
      <trkpt lat="59.9098397" lon="17.6438864">
        <ele>27.0543</ele>
        <time>2013-05-07T16:57:26Z</time>
      </trkpt>
      <trkpt lat="59.9099139" lon="17.6438746">
        <ele>26.5736</ele>
        <time>2013-05-07T16:57:27Z</time>
      </trkpt>
      <trkpt lat="59.9099889" lon="17.6438628">
        <ele>26.5736</ele>
        <time>2013-05-07T16:57:28Z</time>
      </trkpt>
      <trkpt lat="59.9100645" lon="17.6438508">
        <ele>26.5736</ele>
        <time>2013-05-07T16:57:29Z</time>
      </trkpt>
      <trkpt lat="59.910139" lon="17.6438308">
        <ele>26.0929</ele>
        <time>2013-05-07T16:57:30Z</time>
      </trkpt>
      <trkpt lat="59.9102099" lon="17.643797">
        <ele>25.6123</ele>
        <time>2013-05-07T16:57:31Z</time>
      </trkpt>
      <trkpt lat="59.9102833" lon="17.6437436">
        <ele>25.1317</ele>
        <time>2013-05-07T16:57:32Z</time>
      </trkpt>
      <trkpt lat="59.9103557" lon="17.6436897">
        <ele>24.651</ele>
        <time>2013-05-07T16:57:33Z</time>
      </trkpt>
      <trkpt lat="59.9104234" lon="17.64364">
        <ele>24.1703</ele>
        <time>2013-05-07T16:57:34Z</time>
      </trkpt>
      <trkpt lat="59.9104945" lon="17.6435775">
        <ele>25.1317</ele>
        <time>2013-05-07T16:57:35Z</time>
      </trkpt>
      <trkpt lat="59.910563" lon="17.6435054">
        <ele>24.1703</ele>
        <time>2013-05-07T16:57:36Z</time>
      </trkpt>
      <trkpt lat="59.9106401" lon="17.6434596">
        <ele>24.651</ele>
        <time>2013-05-07T16:57:37Z</time>
      </trkpt>
      <trkpt lat="59.9107199" lon="17.6434334">
        <ele>24.651</ele>
        <time>2013-05-07T16:57:38Z</time>
      </trkpt>
      <trkpt lat="59.9108001" lon="17.643419">
        <ele>24.651</ele>
        <time>2013-05-07T16:57:39Z</time>
      </trkpt>
      <trkpt lat="59.9108789" lon="17.643409">
        <ele>24.651</ele>
        <time>2013-05-07T16:57:40Z</time>
      </trkpt>
      <trkpt lat="59.9109561" lon="17.6433993">
        <ele>24.651</ele>
        <time>2013-05-07T16:57:41Z</time>
      </trkpt>
      <trkpt lat="59.9110316" lon="17.6433891">
        <ele>25.1317</ele>
        <time>2013-05-07T16:57:42Z</time>
      </trkpt>
      <trkpt lat="59.9111057" lon="17.643382">
        <ele>25.1317</ele>
        <time>2013-05-07T16:57:43Z</time>
      </trkpt>
      <trkpt lat="59.9111803" lon="17.6433726">
        <ele>24.651</ele>
        <time>2013-05-07T16:57:44Z</time>
      </trkpt>
      <trkpt lat="59.9112563" lon="17.6433603">
        <ele>24.651</ele>
        <time>2013-05-07T16:57:45Z</time>
      </trkpt>
      <trkpt lat="59.9113306" lon="17.6433427">
        <ele>24.1703</ele>
        <time>2013-05-07T16:57:46Z</time>
      </trkpt>
      <trkpt lat="59.9114053" lon="17.643323">
        <ele>23.6896</ele>
        <time>2013-05-07T16:57:47Z</time>
      </trkpt>
      <trkpt lat="59.9114808" lon="17.643308">
        <ele>23.209</ele>
        <time>2013-05-07T16:57:48Z</time>
      </trkpt>
      <trkpt lat="59.911558" lon="17.6432988">
        <ele>23.209</ele>
        <time>2013-05-07T16:57:49Z</time>
      </trkpt>
      <trkpt lat="59.9116372" lon="17.6432886">
        <ele>23.209</ele>
        <time>2013-05-07T16:57:50Z</time>
      </trkpt>
      <trkpt lat="59.9117145" lon="17.6432795">
        <ele>22.7283</ele>
        <time>2013-05-07T16:57:51Z</time>
      </trkpt>
      <trkpt lat="59.9117909" lon="17.64327">
        <ele>22.2476</ele>
        <time>2013-05-07T16:57:52Z</time>
      </trkpt>
      <trkpt lat="59.9118676" lon="17.6432561">
        <ele>22.7283</ele>
        <time>2013-05-07T16:57:53Z</time>
      </trkpt>
      <trkpt lat="59.9119448" lon="17.6432384">
        <ele>22.7283</ele>
        <time>2013-05-07T16:57:54Z</time>
      </trkpt>
      <trkpt lat="59.912022" lon="17.6432128">
        <ele>22.7283</ele>
        <time>2013-05-07T16:57:55Z</time>
      </trkpt>
      <trkpt lat="59.9121014" lon="17.6431828">
        <ele>22.7283</ele>
        <time>2013-05-07T16:57:56Z</time>
      </trkpt>
      <trkpt lat="59.9121831" lon="17.6431531">
        <ele>22.7283</ele>
        <time>2013-05-07T16:57:57Z</time>
      </trkpt>
      <trkpt lat="59.9122657" lon="17.643124">
        <ele>23.209</ele>
        <time>2013-05-07T16:57:58Z</time>
      </trkpt>
      <trkpt lat="59.9123459" lon="17.6431039">
        <ele>23.209</ele>
        <time>2013-05-07T16:57:59Z</time>
      </trkpt>
      <trkpt lat="59.912423" lon="17.6430945">
        <ele>23.209</ele>
        <time>2013-05-07T16:58:00Z</time>
      </trkpt>
      <trkpt lat="59.9125003" lon="17.6430987">
        <ele>22.7283</ele>
        <time>2013-05-07T16:58:01Z</time>
      </trkpt>
      <trkpt lat="59.9125831" lon="17.6431183">
        <ele>21.767</ele>
        <time>2013-05-07T16:58:02Z</time>
      </trkpt>
      <trkpt lat="59.9126614" lon="17.6431536">
        <ele>20.8057</ele>
        <time>2013-05-07T16:58:03Z</time>
      </trkpt>
      <trkpt lat="59.9127432" lon="17.643184">
        <ele>20.325</ele>
        <time>2013-05-07T16:58:04Z</time>
      </trkpt>
      <trkpt lat="59.9128233" lon="17.6431909">
        <ele>20.325</ele>
        <time>2013-05-07T16:58:05Z</time>
      </trkpt>
      <trkpt lat="59.9129011" lon="17.6431748">
        <ele>20.8057</ele>
        <time>2013-05-07T16:58:06Z</time>
      </trkpt>
      <trkpt lat="59.9129779" lon="17.6431551">
        <ele>21.2864</ele>
        <time>2013-05-07T16:58:07Z</time>
      </trkpt>
      <trkpt lat="59.9130608" lon="17.6431356">
        <ele>22.2476</ele>
        <time>2013-05-07T16:58:08Z</time>
      </trkpt>
      <trkpt lat="59.9131379" lon="17.6431169">
        <ele>22.7283</ele>
        <time>2013-05-07T16:58:09Z</time>
      </trkpt>
      <trkpt lat="59.9132141" lon="17.6431024">
        <ele>22.7283</ele>
        <time>2013-05-07T16:58:10Z</time>
      </trkpt>
      <trkpt lat="59.9132917" lon="17.6430848">
        <ele>22.7283</ele>
        <time>2013-05-07T16:58:11Z</time>
      </trkpt>
      <trkpt lat="59.913368" lon="17.6430634">
        <ele>22.7283</ele>
        <time>2013-05-07T16:58:12Z</time>
      </trkpt>
      <trkpt lat="59.9134454" lon="17.6430485">
        <ele>22.7283</ele>
        <time>2013-05-07T16:58:13Z</time>
      </trkpt>
      <trkpt lat="59.9135238" lon="17.6430359">
        <ele>21.767</ele>
        <time>2013-05-07T16:58:14Z</time>
      </trkpt>
      <trkpt lat="59.913601" lon="17.6430247">
        <ele>21.2864</ele>
        <time>2013-05-07T16:58:15Z</time>
      </trkpt>
      <trkpt lat="59.9136849" lon="17.6430128">
        <ele>21.2864</ele>
        <time>2013-05-07T16:58:16Z</time>
      </trkpt>
      <trkpt lat="59.9137668" lon="17.6430033">
        <ele>19.8444</ele>
        <time>2013-05-07T16:58:17Z</time>
      </trkpt>
      <trkpt lat="59.9138515" lon="17.6429905">
        <ele>19.8444</ele>
        <time>2013-05-07T16:58:18Z</time>
      </trkpt>
      <trkpt lat="59.9139331" lon="17.6429723">
        <ele>19.8444</ele>
        <time>2013-05-07T16:58:19Z</time>
      </trkpt>
      <trkpt lat="59.9140175" lon="17.6429595">
        <ele>19.8444</ele>
        <time>2013-05-07T16:58:20Z</time>
      </trkpt>
      <trkpt lat="59.9141056" lon="17.6429407">
        <ele>20.8057</ele>
        <time>2013-05-07T16:58:21Z</time>
      </trkpt>
      <trkpt lat="59.914189" lon="17.6429134">
        <ele>22.2476</ele>
        <time>2013-05-07T16:58:22Z</time>
      </trkpt>
      <trkpt lat="59.914275" lon="17.6428908">
        <ele>23.209</ele>
        <time>2013-05-07T16:58:23Z</time>
      </trkpt>
      <trkpt lat="59.9143572" lon="17.6428744">
        <ele>22.2476</ele>
        <time>2013-05-07T16:58:24Z</time>
      </trkpt>
      <trkpt lat="59.9144419" lon="17.6428593">
        <ele>22.2476</ele>
        <time>2013-05-07T16:58:25Z</time>
      </trkpt>
      <trkpt lat="59.9145253" lon="17.6428491">
        <ele>21.2864</ele>
        <time>2013-05-07T16:58:26Z</time>
      </trkpt>
      <trkpt lat="59.9146126" lon="17.6428352">
        <ele>20.8057</ele>
        <time>2013-05-07T16:58:27Z</time>
      </trkpt>
      <trkpt lat="59.9147001" lon="17.6428185">
        <ele>20.8057</ele>
        <time>2013-05-07T16:58:28Z</time>
      </trkpt>
      <trkpt lat="59.9147886" lon="17.6428038">
        <ele>20.325</ele>
        <time>2013-05-07T16:58:29Z</time>
      </trkpt>
      <trkpt lat="59.9148743" lon="17.6427931">
        <ele>20.8057</ele>
        <time>2013-05-07T16:58:30Z</time>
      </trkpt>
      <trkpt lat="59.9149607" lon="17.6427791">
        <ele>20.8057</ele>
        <time>2013-05-07T16:58:31Z</time>
      </trkpt>
      <trkpt lat="59.9150489" lon="17.6427632">
        <ele>21.2864</ele>
        <time>2013-05-07T16:58:32Z</time>
      </trkpt>
      <trkpt lat="59.9151318" lon="17.6427416">
        <ele>20.325</ele>
        <time>2013-05-07T16:58:33Z</time>
      </trkpt>
      <trkpt lat="59.9152137" lon="17.6427009">
        <ele>19.8444</ele>
        <time>2013-05-07T16:58:34Z</time>
      </trkpt>
      <trkpt lat="59.915295" lon="17.6426392">
        <ele>19.3638</ele>
        <time>2013-05-07T16:58:35Z</time>
      </trkpt>
      <trkpt lat="59.9153887" lon="17.6425818">
        <ele>18.8831</ele>
        <time>2013-05-07T16:58:36Z</time>
      </trkpt>
      <trkpt lat="59.9154893" lon="17.6425449">
        <ele>18.4023</ele>
        <time>2013-05-07T16:58:37Z</time>
      </trkpt>
      <trkpt lat="59.9155906" lon="17.6425182">
        <ele>17.9218</ele>
        <time>2013-05-07T16:58:38Z</time>
      </trkpt>
      <trkpt lat="59.9156876" lon="17.6424983">
        <ele>17.4412</ele>
        <time>2013-05-07T16:58:39Z</time>
      </trkpt>
      <trkpt lat="59.9157811" lon="17.6424871">
        <ele>16.9604</ele>
        <time>2013-05-07T16:58:40Z</time>
      </trkpt>
      <trkpt lat="59.9158731" lon="17.6424828">
        <ele>17.4412</ele>
        <time>2013-05-07T16:58:41Z</time>
      </trkpt>
      <trkpt lat="59.9159626" lon="17.6424822">
        <ele>16.9604</ele>
        <time>2013-05-07T16:58:42Z</time>
      </trkpt>
      <trkpt lat="59.9160498" lon="17.6424821">
        <ele>16.9604</ele>
        <time>2013-05-07T16:58:43Z</time>
      </trkpt>
      <trkpt lat="59.9161371" lon="17.6424807">
        <ele>17.4412</ele>
        <time>2013-05-07T16:58:44Z</time>
      </trkpt>
      <trkpt lat="59.9162233" lon="17.6424776">
        <ele>17.4412</ele>
        <time>2013-05-07T16:58:45Z</time>
      </trkpt>
      <trkpt lat="59.9163071" lon="17.6424718">
        <ele>17.4412</ele>
        <time>2013-05-07T16:58:46Z</time>
      </trkpt>
      <trkpt lat="59.916389" lon="17.642461">
        <ele>17.4412</ele>
        <time>2013-05-07T16:58:47Z</time>
      </trkpt>
      <trkpt lat="59.9164713" lon="17.6424476">
        <ele>17.4412</ele>
        <time>2013-05-07T16:58:48Z</time>
      </trkpt>
      <trkpt lat="59.9165531" lon="17.642434">
        <ele>17.4412</ele>
        <time>2013-05-07T16:58:49Z</time>
      </trkpt>
      <trkpt lat="59.9166345" lon="17.6424222">
        <ele>16.9604</ele>
        <time>2013-05-07T16:58:50Z</time>
      </trkpt>
      <trkpt lat="59.916717" lon="17.6424113">
        <ele>16.4797</ele>
        <time>2013-05-07T16:58:51Z</time>
      </trkpt>
      <trkpt lat="59.9168021" lon="17.6423989">
        <ele>16.4797</ele>
        <time>2013-05-07T16:58:52Z</time>
      </trkpt>
      <trkpt lat="59.9168881" lon="17.6423864">
        <ele>16.4797</ele>
        <time>2013-05-07T16:58:53Z</time>
      </trkpt>
      <trkpt lat="59.9169742" lon="17.6423713">
        <ele>15.999</ele>
        <time>2013-05-07T16:58:54Z</time>
      </trkpt>
      <trkpt lat="59.9170603" lon="17.6423476">
        <ele>15.5184</ele>
        <time>2013-05-07T16:58:55Z</time>
      </trkpt>
      <trkpt lat="59.9171471" lon="17.6423176">
        <ele>15.5184</ele>
        <time>2013-05-07T16:58:56Z</time>
      </trkpt>
      <trkpt lat="59.9172388" lon="17.6422943">
        <ele>15.5184</ele>
        <time>2013-05-07T16:58:57Z</time>
      </trkpt>
      <trkpt lat="59.9173276" lon="17.6422904">
        <ele>15.999</ele>
        <time>2013-05-07T16:58:58Z</time>
      </trkpt>
      <trkpt lat="59.9174168" lon="17.6422901">
        <ele>16.4797</ele>
        <time>2013-05-07T16:58:59Z</time>
      </trkpt>
      <trkpt lat="59.9175049" lon="17.6422875">
        <ele>15.999</ele>
        <time>2013-05-07T16:59:00Z</time>
      </trkpt>
      <trkpt lat="59.9175905" lon="17.6422839">
        <ele>16.9604</ele>
        <time>2013-05-07T16:59:01Z</time>
      </trkpt>
      <trkpt lat="59.9176753" lon="17.6422847">
        <ele>16.9604</ele>
        <time>2013-05-07T16:59:02Z</time>
      </trkpt>
      <trkpt lat="59.9177602" lon="17.642287">
        <ele>17.4412</ele>
        <time>2013-05-07T16:59:03Z</time>
      </trkpt>
      <trkpt lat="59.9178476" lon="17.6422855">
        <ele>17.4412</ele>
        <time>2013-05-07T16:59:04Z</time>
      </trkpt>
      <trkpt lat="59.9179337" lon="17.642283">
        <ele>16.9604</ele>
        <time>2013-05-07T16:59:05Z</time>
      </trkpt>
      <trkpt lat="59.9180208" lon="17.6422777">
        <ele>17.4412</ele>
        <time>2013-05-07T16:59:06Z</time>
      </trkpt>
      <trkpt lat="59.9181103" lon="17.642273">
        <ele>16.9604</ele>
        <time>2013-05-07T16:59:07Z</time>
      </trkpt>
      <trkpt lat="59.9181969" lon="17.6422648">
        <ele>16.9604</ele>
        <time>2013-05-07T16:59:08Z</time>
      </trkpt>
      <trkpt lat="59.9182838" lon="17.6422555">
        <ele>16.9604</ele>
        <time>2013-05-07T16:59:09Z</time>
      </trkpt>
      <trkpt lat="59.9183697" lon="17.642247">
        <ele>17.4412</ele>
        <time>2013-05-07T16:59:10Z</time>
      </trkpt>
      <trkpt lat="59.9184531" lon="17.6422368">
        <ele>17.9218</ele>
        <time>2013-05-07T16:59:11Z</time>
      </trkpt>
      <trkpt lat="59.9185354" lon="17.6422301">
        <ele>18.4023</ele>
        <time>2013-05-07T16:59:12Z</time>
      </trkpt>
      <trkpt lat="59.9186169" lon="17.6422202">
        <ele>18.8831</ele>
        <time>2013-05-07T16:59:13Z</time>
      </trkpt>
      <trkpt lat="59.9186996" lon="17.6422094">
        <ele>19.3638</ele>
        <time>2013-05-07T16:59:14Z</time>
      </trkpt>
      <trkpt lat="59.9187802" lon="17.6421972">
        <ele>19.8444</ele>
        <time>2013-05-07T16:59:15Z</time>
      </trkpt>
      <trkpt lat="59.9188609" lon="17.6421868">
        <ele>19.3638</ele>
        <time>2013-05-07T16:59:16Z</time>
      </trkpt>
      <trkpt lat="59.9189412" lon="17.6421796">
        <ele>18.8831</ele>
        <time>2013-05-07T16:59:17Z</time>
      </trkpt>
      <trkpt lat="59.919021" lon="17.6421657">
        <ele>21.767</ele>
        <time>2013-05-07T16:59:18Z</time>
      </trkpt>
      <trkpt lat="59.9191023" lon="17.6421548">
        <ele>21.767</ele>
        <time>2013-05-07T16:59:19Z</time>
      </trkpt>
      <trkpt lat="59.9191822" lon="17.6421415">
        <ele>22.2476</ele>
        <time>2013-05-07T16:59:20Z</time>
      </trkpt>
      <trkpt lat="59.9192625" lon="17.6421311">
        <ele>21.767</ele>
        <time>2013-05-07T16:59:21Z</time>
      </trkpt>
      <trkpt lat="59.9193421" lon="17.6421198">
        <ele>22.2476</ele>
        <time>2013-05-07T16:59:22Z</time>
      </trkpt>
      <trkpt lat="59.9194214" lon="17.6421078">
        <ele>22.2476</ele>
        <time>2013-05-07T16:59:23Z</time>
      </trkpt>
      <trkpt lat="59.9195012" lon="17.6421">
        <ele>22.7283</ele>
        <time>2013-05-07T16:59:24Z</time>
      </trkpt>
      <trkpt lat="59.9195809" lon="17.6420921">
        <ele>22.7283</ele>
        <time>2013-05-07T16:59:25Z</time>
      </trkpt>
      <trkpt lat="59.9196603" lon="17.6420804">
        <ele>22.7283</ele>
        <time>2013-05-07T16:59:26Z</time>
      </trkpt>
      <trkpt lat="59.91974" lon="17.6420673">
        <ele>22.2476</ele>
        <time>2013-05-07T16:59:27Z</time>
      </trkpt>
      <trkpt lat="59.9198191" lon="17.6420511">
        <ele>22.2476</ele>
        <time>2013-05-07T16:59:28Z</time>
      </trkpt>
      <trkpt lat="59.919897" lon="17.6420314">
        <ele>22.2476</ele>
        <time>2013-05-07T16:59:29Z</time>
      </trkpt>
      <trkpt lat="59.9199736" lon="17.6420105">
        <ele>21.767</ele>
        <time>2013-05-07T16:59:30Z</time>
      </trkpt>
      <trkpt lat="59.9200508" lon="17.6419965">
        <ele>21.767</ele>
        <time>2013-05-07T16:59:31Z</time>
      </trkpt>
      <trkpt lat="59.920128" lon="17.6419886">
        <ele>21.2864</ele>
        <time>2013-05-07T16:59:32Z</time>
      </trkpt>
      <trkpt lat="59.9202044" lon="17.6419836">
        <ele>20.8057</ele>
        <time>2013-05-07T16:59:33Z</time>
      </trkpt>
      <trkpt lat="59.9202788" lon="17.6419792">
        <ele>20.325</ele>
        <time>2013-05-07T16:59:34Z</time>
      </trkpt>
      <trkpt lat="59.9203546" lon="17.6419757">
        <ele>20.325</ele>
        <time>2013-05-07T16:59:35Z</time>
      </trkpt>
      <trkpt lat="59.9204318" lon="17.6419701">
        <ele>20.325</ele>
        <time>2013-05-07T16:59:36Z</time>
      </trkpt>
      <trkpt lat="59.9205143" lon="17.6419621">
        <ele>19.8444</ele>
        <time>2013-05-07T16:59:37Z</time>
      </trkpt>
      <trkpt lat="59.9205921" lon="17.6419607">
        <ele>19.3638</ele>
        <time>2013-05-07T16:59:38Z</time>
      </trkpt>
      <trkpt lat="59.9206689" lon="17.6419622">
        <ele>19.3638</ele>
        <time>2013-05-07T16:59:39Z</time>
      </trkpt>
      <trkpt lat="59.9207474" lon="17.6419653">
        <ele>19.3638</ele>
        <time>2013-05-07T16:59:40Z</time>
      </trkpt>
      <trkpt lat="59.9208261" lon="17.6419684">
        <ele>18.8831</ele>
        <time>2013-05-07T16:59:41Z</time>
      </trkpt>
      <trkpt lat="59.9209033" lon="17.6419662">
        <ele>17.9218</ele>
        <time>2013-05-07T16:59:42Z</time>
      </trkpt>
      <trkpt lat="59.9209778" lon="17.6419611">
        <ele>17.9218</ele>
        <time>2013-05-07T16:59:43Z</time>
      </trkpt>
      <trkpt lat="59.9210508" lon="17.6419509">
        <ele>17.9218</ele>
        <time>2013-05-07T16:59:44Z</time>
      </trkpt>
      <trkpt lat="59.9211252" lon="17.6419406">
        <ele>17.9218</ele>
        <time>2013-05-07T16:59:45Z</time>
      </trkpt>
      <trkpt lat="59.9211992" lon="17.6419332">
        <ele>18.4023</ele>
        <time>2013-05-07T16:59:46Z</time>
      </trkpt>
      <trkpt lat="59.9212751" lon="17.6419256">
        <ele>18.4023</ele>
        <time>2013-05-07T16:59:47Z</time>
      </trkpt>
      <trkpt lat="59.9213521" lon="17.6419135">
        <ele>17.9218</ele>
        <time>2013-05-07T16:59:48Z</time>
      </trkpt>
      <trkpt lat="59.9214266" lon="17.6419053">
        <ele>18.8831</ele>
        <time>2013-05-07T16:59:49Z</time>
      </trkpt>
      <trkpt lat="59.921496" lon="17.6419052">
        <ele>19.3638</ele>
        <time>2013-05-07T16:59:50Z</time>
      </trkpt>
      <trkpt lat="59.9215655" lon="17.6418881">
        <ele>20.325</ele>
        <time>2013-05-07T16:59:51Z</time>
      </trkpt>
      <trkpt lat="59.9216364" lon="17.6418705">
        <ele>19.8444</ele>
        <time>2013-05-07T16:59:52Z</time>
      </trkpt>
      <trkpt lat="59.9217116" lon="17.6418543">
        <ele>19.3638</ele>
        <time>2013-05-07T16:59:53Z</time>
      </trkpt>
      <trkpt lat="59.9217907" lon="17.641842">
        <ele>18.4023</ele>
        <time>2013-05-07T16:59:54Z</time>
      </trkpt>
      <trkpt lat="59.921869" lon="17.6418327">
        <ele>18.4023</ele>
        <time>2013-05-07T16:59:55Z</time>
      </trkpt>
      <trkpt lat="59.9219481" lon="17.641826">
        <ele>18.4023</ele>
        <time>2013-05-07T16:59:56Z</time>
      </trkpt>
      <trkpt lat="59.9220245" lon="17.6418201">
        <ele>18.4023</ele>
        <time>2013-05-07T16:59:57Z</time>
      </trkpt>
      <trkpt lat="59.9221011" lon="17.6418146">
        <ele>18.4023</ele>
        <time>2013-05-07T16:59:58Z</time>
      </trkpt>
      <trkpt lat="59.9221778" lon="17.6418108">
        <ele>18.4023</ele>
        <time>2013-05-07T16:59:59Z</time>
      </trkpt>
      <trkpt lat="59.9222553" lon="17.6418068">
        <ele>18.8831</ele>
        <time>2013-05-07T17:00:00Z</time>
      </trkpt>
      <trkpt lat="59.9223321" lon="17.6418011">
        <ele>18.4023</ele>
        <time>2013-05-07T17:00:01Z</time>
      </trkpt>
      <trkpt lat="59.9224093" lon="17.6417932">
        <ele>18.4023</ele>
        <time>2013-05-07T17:00:02Z</time>
      </trkpt>
      <trkpt lat="59.9224879" lon="17.641784">
        <ele>18.8831</ele>
        <time>2013-05-07T17:00:03Z</time>
      </trkpt>
      <trkpt lat="59.9225688" lon="17.6417735">
        <ele>19.3638</ele>
        <time>2013-05-07T17:00:04Z</time>
      </trkpt>
      <trkpt lat="59.9226482" lon="17.6417613">
        <ele>18.8831</ele>
        <time>2013-05-07T17:00:05Z</time>
      </trkpt>
      <trkpt lat="59.9227258" lon="17.6417519">
        <ele>18.4023</ele>
        <time>2013-05-07T17:00:06Z</time>
      </trkpt>
      <trkpt lat="59.9228071" lon="17.6417415">
        <ele>17.9218</ele>
        <time>2013-05-07T17:00:07Z</time>
      </trkpt>
      <trkpt lat="59.9228874" lon="17.6417339">
        <ele>17.9218</ele>
        <time>2013-05-07T17:00:08Z</time>
      </trkpt>
      <trkpt lat="59.9229665" lon="17.6417279">
        <ele>17.4412</ele>
        <time>2013-05-07T17:00:09Z</time>
      </trkpt>
      <trkpt lat="59.9230493" lon="17.641722">
        <ele>17.4412</ele>
        <time>2013-05-07T17:00:10Z</time>
      </trkpt>
      <trkpt lat="59.9231341" lon="17.641714">
        <ele>16.9604</ele>
        <time>2013-05-07T17:00:11Z</time>
      </trkpt>
      <trkpt lat="59.92322" lon="17.6417018">
        <ele>16.9604</ele>
        <time>2013-05-07T17:00:12Z</time>
      </trkpt>
      <trkpt lat="59.923307" lon="17.6416901">
        <ele>16.9604</ele>
        <time>2013-05-07T17:00:13Z</time>
      </trkpt>
      <trkpt lat="59.9233938" lon="17.6416793">
        <ele>16.9604</ele>
        <time>2013-05-07T17:00:14Z</time>
      </trkpt>
      <trkpt lat="59.9234817" lon="17.6416667">
        <ele>16.9604</ele>
        <time>2013-05-07T17:00:15Z</time>
      </trkpt>
      <trkpt lat="59.9235706" lon="17.6416534">
        <ele>16.9604</ele>
        <time>2013-05-07T17:00:16Z</time>
      </trkpt>
      <trkpt lat="59.9236613" lon="17.6416405">
        <ele>16.9604</ele>
        <time>2013-05-07T17:00:17Z</time>
      </trkpt>
      <trkpt lat="59.9237546" lon="17.641626">
        <ele>16.9604</ele>
        <time>2013-05-07T17:00:18Z</time>
      </trkpt>
      <trkpt lat="59.9238496" lon="17.6416126">
        <ele>16.9604</ele>
        <time>2013-05-07T17:00:19Z</time>
      </trkpt>
      <trkpt lat="59.9239456" lon="17.6416001">
        <ele>17.4412</ele>
        <time>2013-05-07T17:00:20Z</time>
      </trkpt>
      <trkpt lat="59.9240404" lon="17.6415893">
        <ele>17.4412</ele>
        <time>2013-05-07T17:00:21Z</time>
      </trkpt>
      <trkpt lat="59.9241406" lon="17.6415736">
        <ele>17.4412</ele>
        <time>2013-05-07T17:00:22Z</time>
      </trkpt>
      <trkpt lat="59.9242378" lon="17.6415648">
        <ele>17.9218</ele>
        <time>2013-05-07T17:00:23Z</time>
      </trkpt>
      <trkpt lat="59.924326" lon="17.641566">
        <ele>17.9218</ele>
        <time>2013-05-07T17:00:24Z</time>
      </trkpt>
      <trkpt lat="59.9244198" lon="17.6415618">
        <ele>18.4023</ele>
        <time>2013-05-07T17:00:25Z</time>
      </trkpt>
      <trkpt lat="59.9245139" lon="17.6415523">
        <ele>18.4023</ele>
        <time>2013-05-07T17:00:26Z</time>
      </trkpt>
      <trkpt lat="59.924607" lon="17.6415333">
        <ele>18.4023</ele>
        <time>2013-05-07T17:00:27Z</time>
      </trkpt>
      <trkpt lat="59.9246985" lon="17.6415106">
        <ele>18.4023</ele>
        <time>2013-05-07T17:00:28Z</time>
      </trkpt>
      <trkpt lat="59.9247898" lon="17.6414861">
        <ele>18.4023</ele>
        <time>2013-05-07T17:00:29Z</time>
      </trkpt>
      <trkpt lat="59.9248812" lon="17.6414664">
        <ele>18.4023</ele>
        <time>2013-05-07T17:00:30Z</time>
      </trkpt>
      <trkpt lat="59.9249734" lon="17.6414573">
        <ele>18.4023</ele>
        <time>2013-05-07T17:00:31Z</time>
      </trkpt>
      <trkpt lat="59.925068" lon="17.641452">
        <ele>18.4023</ele>
        <time>2013-05-07T17:00:32Z</time>
      </trkpt>
      <trkpt lat="59.925163" lon="17.6414478">
        <ele>18.4023</ele>
        <time>2013-05-07T17:00:33Z</time>
      </trkpt>
      <trkpt lat="59.9252556" lon="17.6414477">
        <ele>18.4023</ele>
        <time>2013-05-07T17:00:34Z</time>
      </trkpt>
      <trkpt lat="59.9253486" lon="17.6414446">
        <ele>17.9218</ele>
        <time>2013-05-07T17:00:35Z</time>
      </trkpt>
      <trkpt lat="59.9254405" lon="17.6414381">
        <ele>17.9218</ele>
        <time>2013-05-07T17:00:36Z</time>
      </trkpt>
      <trkpt lat="59.9255363" lon="17.6414256">
        <ele>17.9218</ele>
        <time>2013-05-07T17:00:37Z</time>
      </trkpt>
      <trkpt lat="59.9256326" lon="17.6414121">
        <ele>17.9218</ele>
        <time>2013-05-07T17:00:38Z</time>
      </trkpt>
      <trkpt lat="59.9257288" lon="17.6413969">
        <ele>17.9218</ele>
        <time>2013-05-07T17:00:39Z</time>
      </trkpt>
      <trkpt lat="59.925823" lon="17.6413816">
        <ele>17.9218</ele>
        <time>2013-05-07T17:00:40Z</time>
      </trkpt>
      <trkpt lat="59.9259165" lon="17.6413675">
        <ele>18.4023</ele>
        <time>2013-05-07T17:00:41Z</time>
      </trkpt>
      <trkpt lat="59.9260131" lon="17.6413519">
        <ele>18.4023</ele>
        <time>2013-05-07T17:00:42Z</time>
      </trkpt>
      <trkpt lat="59.9261094" lon="17.6413385">
        <ele>18.4023</ele>
        <time>2013-05-07T17:00:43Z</time>
      </trkpt>
      <trkpt lat="59.9262052" lon="17.641324">
        <ele>18.4023</ele>
        <time>2013-05-07T17:00:44Z</time>
      </trkpt>
      <trkpt lat="59.9263004" lon="17.6413085">
        <ele>18.8831</ele>
        <time>2013-05-07T17:00:45Z</time>
      </trkpt>
      <trkpt lat="59.9263934" lon="17.6412964">
        <ele>18.8831</ele>
        <time>2013-05-07T17:00:46Z</time>
      </trkpt>
      <trkpt lat="59.9264858" lon="17.641286">
        <ele>18.8831</ele>
        <time>2013-05-07T17:00:47Z</time>
      </trkpt>
      <trkpt lat="59.9265776" lon="17.6412738">
        <ele>19.3638</ele>
        <time>2013-05-07T17:00:48Z</time>
      </trkpt>
      <trkpt lat="59.9266693" lon="17.6412619">
        <ele>19.8444</ele>
        <time>2013-05-07T17:00:49Z</time>
      </trkpt>
      <trkpt lat="59.9267595" lon="17.6412529">
        <ele>19.8444</ele>
        <time>2013-05-07T17:00:50Z</time>
      </trkpt>
      <trkpt lat="59.9268496" lon="17.641244">
        <ele>20.325</ele>
        <time>2013-05-07T17:00:51Z</time>
      </trkpt>
      <trkpt lat="59.9269391" lon="17.6412348">
        <ele>20.325</ele>
        <time>2013-05-07T17:00:52Z</time>
      </trkpt>
      <trkpt lat="59.927028" lon="17.641224">
        <ele>20.325</ele>
        <time>2013-05-07T17:00:53Z</time>
      </trkpt>
      <trkpt lat="59.9271179" lon="17.6412102">
        <ele>20.325</ele>
        <time>2013-05-07T17:00:54Z</time>
      </trkpt>
      <trkpt lat="59.9272045" lon="17.6412008">
        <ele>20.8057</ele>
        <time>2013-05-07T17:00:55Z</time>
      </trkpt>
      <trkpt lat="59.9272898" lon="17.6411944">
        <ele>20.8057</ele>
        <time>2013-05-07T17:00:56Z</time>
      </trkpt>
      <trkpt lat="59.9273749" lon="17.6411899">
        <ele>20.8057</ele>
        <time>2013-05-07T17:00:57Z</time>
      </trkpt>
      <trkpt lat="59.9274609" lon="17.6411824">
        <ele>19.8444</ele>
        <time>2013-05-07T17:00:58Z</time>
      </trkpt>
      <trkpt lat="59.9275449" lon="17.6411734">
        <ele>19.8444</ele>
        <time>2013-05-07T17:00:59Z</time>
      </trkpt>
      <trkpt lat="59.9276256" lon="17.641165">
        <ele>19.8444</ele>
        <time>2013-05-07T17:01:00Z</time>
      </trkpt>
      <trkpt lat="59.9277063" lon="17.6411551">
        <ele>20.325</ele>
        <time>2013-05-07T17:01:01Z</time>
      </trkpt>
      <trkpt lat="59.9277868" lon="17.6411449">
        <ele>20.325</ele>
        <time>2013-05-07T17:01:02Z</time>
      </trkpt>
      <trkpt lat="59.927867" lon="17.6411366">
        <ele>20.325</ele>
        <time>2013-05-07T17:01:03Z</time>
      </trkpt>
      <trkpt lat="59.9279469" lon="17.6411276">
        <ele>20.325</ele>
        <time>2013-05-07T17:01:04Z</time>
      </trkpt>
      <trkpt lat="59.9280276" lon="17.6411173">
        <ele>20.8057</ele>
        <time>2013-05-07T17:01:05Z</time>
      </trkpt>
      <trkpt lat="59.9281079" lon="17.641109">
        <ele>20.8057</ele>
        <time>2013-05-07T17:01:06Z</time>
      </trkpt>
      <trkpt lat="59.9281864" lon="17.6411026">
        <ele>20.8057</ele>
        <time>2013-05-07T17:01:07Z</time>
      </trkpt>
      <trkpt lat="59.9282644" lon="17.6410981">
        <ele>20.8057</ele>
        <time>2013-05-07T17:01:08Z</time>
      </trkpt>
      <trkpt lat="59.9283436" lon="17.6410914">
        <ele>20.8057</ele>
        <time>2013-05-07T17:01:09Z</time>
      </trkpt>
      <trkpt lat="59.9284234" lon="17.6410814">
        <ele>20.8057</ele>
        <time>2013-05-07T17:01:10Z</time>
      </trkpt>
      <trkpt lat="59.9285037" lon="17.6410712">
        <ele>20.8057</ele>
        <time>2013-05-07T17:01:11Z</time>
      </trkpt>
      <trkpt lat="59.9285824" lon="17.6410613">
        <ele>20.325</ele>
        <time>2013-05-07T17:01:12Z</time>
      </trkpt>
      <trkpt lat="59.9286605" lon="17.6410473">
        <ele>20.325</ele>
        <time>2013-05-07T17:01:13Z</time>
      </trkpt>
      <trkpt lat="59.9287384" lon="17.6410293">
        <ele>20.325</ele>
        <time>2013-05-07T17:01:14Z</time>
      </trkpt>
      <trkpt lat="59.9288171" lon="17.6410117">
        <ele>20.325</ele>
        <time>2013-05-07T17:01:15Z</time>
      </trkpt>
      <trkpt lat="59.9288971" lon="17.6409961">
        <ele>20.325</ele>
        <time>2013-05-07T17:01:16Z</time>
      </trkpt>
      <trkpt lat="59.9289785" lon="17.6409827">
        <ele>20.325</ele>
        <time>2013-05-07T17:01:17Z</time>
      </trkpt>
      <trkpt lat="59.9290564" lon="17.640977">
        <ele>19.3638</ele>
        <time>2013-05-07T17:01:18Z</time>
      </trkpt>
      <trkpt lat="59.9291362" lon="17.6409754">
        <ele>18.4023</ele>
        <time>2013-05-07T17:01:19Z</time>
      </trkpt>
      <trkpt lat="59.9292167" lon="17.6409765">
        <ele>17.9218</ele>
        <time>2013-05-07T17:01:20Z</time>
      </trkpt>
      <trkpt lat="59.9292961" lon="17.6409788">
        <ele>16.9604</ele>
        <time>2013-05-07T17:01:21Z</time>
      </trkpt>
      <trkpt lat="59.9293749" lon="17.6409791">
        <ele>15.999</ele>
        <time>2013-05-07T17:01:22Z</time>
      </trkpt>
      <trkpt lat="59.9294564" lon="17.6409726">
        <ele>15.999</ele>
        <time>2013-05-07T17:01:23Z</time>
      </trkpt>
      <trkpt lat="59.9295384" lon="17.640961">
        <ele>15.999</ele>
        <time>2013-05-07T17:01:24Z</time>
      </trkpt>
      <trkpt lat="59.9296199" lon="17.6409432">
        <ele>15.999</ele>
        <time>2013-05-07T17:01:25Z</time>
      </trkpt>
      <trkpt lat="59.9296998" lon="17.6409247">
        <ele>15.999</ele>
        <time>2013-05-07T17:01:26Z</time>
      </trkpt>
      <trkpt lat="59.929777" lon="17.6409095">
        <ele>15.999</ele>
        <time>2013-05-07T17:01:27Z</time>
      </trkpt>
      <trkpt lat="59.9298549" lon="17.6408982">
        <ele>15.999</ele>
        <time>2013-05-07T17:01:28Z</time>
      </trkpt>
      <trkpt lat="59.9299344" lon="17.6408935">
        <ele>15.999</ele>
        <time>2013-05-07T17:01:29Z</time>
      </trkpt>
      <trkpt lat="59.9300158" lon="17.640892">
        <ele>15.999</ele>
        <time>2013-05-07T17:01:30Z</time>
      </trkpt>
      <trkpt lat="59.9300986" lon="17.6408916">
        <ele>15.999</ele>
        <time>2013-05-07T17:01:31Z</time>
      </trkpt>
      <trkpt lat="59.9301841" lon="17.6408885">
        <ele>16.4797</ele>
        <time>2013-05-07T17:01:32Z</time>
      </trkpt>
      <trkpt lat="59.9302658" lon="17.64089">
        <ele>16.4797</ele>
        <time>2013-05-07T17:01:33Z</time>
      </trkpt>
      <trkpt lat="59.9303471" lon="17.6408905">
        <ele>16.9604</ele>
        <time>2013-05-07T17:01:34Z</time>
      </trkpt>
      <trkpt lat="59.930427" lon="17.6408926">
        <ele>16.9604</ele>
        <time>2013-05-07T17:01:35Z</time>
      </trkpt>
      <trkpt lat="59.9305053" lon="17.640894">
        <ele>17.4412</ele>
        <time>2013-05-07T17:01:36Z</time>
      </trkpt>
      <trkpt lat="59.9305819" lon="17.6408889">
        <ele>17.4412</ele>
        <time>2013-05-07T17:01:37Z</time>
      </trkpt>
      <trkpt lat="59.9306565" lon="17.6408769">
        <ele>17.9218</ele>
        <time>2013-05-07T17:01:38Z</time>
      </trkpt>
      <trkpt lat="59.9307293" lon="17.6408646">
        <ele>17.9218</ele>
        <time>2013-05-07T17:01:39Z</time>
      </trkpt>
      <trkpt lat="59.9308021" lon="17.6408594">
        <ele>17.9218</ele>
        <time>2013-05-07T17:01:40Z</time>
      </trkpt>
      <trkpt lat="59.9308776" lon="17.6408669">
        <ele>17.9218</ele>
        <time>2013-05-07T17:01:41Z</time>
      </trkpt>
      <trkpt lat="59.9309529" lon="17.64089">
        <ele>17.4412</ele>
        <time>2013-05-07T17:01:42Z</time>
      </trkpt>
      <trkpt lat="59.9310253" lon="17.6409362">
        <ele>17.4412</ele>
        <time>2013-05-07T17:01:43Z</time>
      </trkpt>
      <trkpt lat="59.9310963" lon="17.6409929">
        <ele>17.4412</ele>
        <time>2013-05-07T17:01:44Z</time>
      </trkpt>
      <trkpt lat="59.9311693" lon="17.6410524">
        <ele>17.9218</ele>
        <time>2013-05-07T17:01:45Z</time>
      </trkpt>
      <trkpt lat="59.9312362" lon="17.6411123">
        <ele>18.4023</ele>
        <time>2013-05-07T17:01:46Z</time>
      </trkpt>
      <trkpt lat="59.9313072" lon="17.6411648">
        <ele>17.9218</ele>
        <time>2013-05-07T17:01:47Z</time>
      </trkpt>
      <trkpt lat="59.9313812" lon="17.6412133">
        <ele>17.9218</ele>
        <time>2013-05-07T17:01:48Z</time>
      </trkpt>
      <trkpt lat="59.9314563" lon="17.6412588">
        <ele>18.4023</ele>
        <time>2013-05-07T17:01:49Z</time>
      </trkpt>
      <trkpt lat="59.9315304" lon="17.6413132">
        <ele>17.9218</ele>
        <time>2013-05-07T17:01:50Z</time>
      </trkpt>
      <trkpt lat="59.931604" lon="17.6413727">
        <ele>15.999</ele>
        <time>2013-05-07T17:01:51Z</time>
      </trkpt>
      <trkpt lat="59.9316806" lon="17.6414267">
        <ele>15.0377</ele>
        <time>2013-05-07T17:01:52Z</time>
      </trkpt>
      <trkpt lat="59.931749" lon="17.6414814">
        <ele>15.0377</ele>
        <time>2013-05-07T17:01:53Z</time>
      </trkpt>
      <trkpt lat="59.9318179" lon="17.6415379">
        <ele>13.5958</ele>
        <time>2013-05-07T17:01:54Z</time>
      </trkpt>
      <trkpt lat="59.9318856" lon="17.6415867">
        <ele>13.1151</ele>
        <time>2013-05-07T17:01:55Z</time>
      </trkpt>
      <trkpt lat="59.9319508" lon="17.6416355">
        <ele>12.6344</ele>
        <time>2013-05-07T17:01:56Z</time>
      </trkpt>
      <trkpt lat="59.9320133" lon="17.6416871">
        <ele>11.6732</ele>
        <time>2013-05-07T17:01:57Z</time>
      </trkpt>
      <trkpt lat="59.9320734" lon="17.6417398">
        <ele>11.1925</ele>
        <time>2013-05-07T17:01:58Z</time>
      </trkpt>
      <trkpt lat="59.9321375" lon="17.6417996">
        <ele>11.1925</ele>
        <time>2013-05-07T17:01:59Z</time>
      </trkpt>
      <trkpt lat="59.9322022" lon="17.6418696">
        <ele>10.2312</ele>
        <time>2013-05-07T17:02:00Z</time>
      </trkpt>
      <trkpt lat="59.9322763" lon="17.6419368">
        <ele>9.75061</ele>
        <time>2013-05-07T17:02:01Z</time>
      </trkpt>
      <trkpt lat="59.9323453" lon="17.6420087">
        <ele>9.2699</ele>
        <time>2013-05-07T17:02:02Z</time>
      </trkpt>
      <trkpt lat="59.9324152" lon="17.6420834">
        <ele>8.78918</ele>
        <time>2013-05-07T17:02:03Z</time>
      </trkpt>
      <trkpt lat="59.932483" lon="17.642159">
        <ele>8.30859</ele>
        <time>2013-05-07T17:02:04Z</time>
      </trkpt>
      <trkpt lat="59.9325499" lon="17.6422322">
        <ele>8.30859</ele>
        <time>2013-05-07T17:02:05Z</time>
      </trkpt>
      <trkpt lat="59.9326136" lon="17.6423062">
        <ele>8.78918</ele>
        <time>2013-05-07T17:02:06Z</time>
      </trkpt>
      <trkpt lat="59.9326788" lon="17.642388">
        <ele>8.78918</ele>
        <time>2013-05-07T17:02:07Z</time>
      </trkpt>
      <trkpt lat="59.9327545" lon="17.6424745">
        <ele>8.78918</ele>
        <time>2013-05-07T17:02:08Z</time>
      </trkpt>
      <trkpt lat="59.9328218" lon="17.642575">
        <ele>10.7118</ele>
        <time>2013-05-07T17:02:09Z</time>
      </trkpt>
      <trkpt lat="59.9328792" lon="17.6426787">
        <ele>10.7118</ele>
        <time>2013-05-07T17:02:10Z</time>
      </trkpt>
      <trkpt lat="59.9329387" lon="17.6427746">
        <ele>11.6732</ele>
        <time>2013-05-07T17:02:11Z</time>
      </trkpt>
      <trkpt lat="59.9329987" lon="17.6428594">
        <ele>12.1538</ele>
        <time>2013-05-07T17:02:12Z</time>
      </trkpt>
      <trkpt lat="59.9330591" lon="17.6429309">
        <ele>13.5958</ele>
        <time>2013-05-07T17:02:13Z</time>
      </trkpt>
      <trkpt lat="59.9331181" lon="17.6430105">
        <ele>14.0764</ele>
        <time>2013-05-07T17:02:14Z</time>
      </trkpt>
      <trkpt lat="59.9331798" lon="17.6430862">
        <ele>15.5184</ele>
        <time>2013-05-07T17:02:15Z</time>
      </trkpt>
      <trkpt lat="59.9332387" lon="17.643175">
        <ele>15.999</ele>
        <time>2013-05-07T17:02:16Z</time>
      </trkpt>
      <trkpt lat="59.9332958" lon="17.6432681">
        <ele>15.999</ele>
        <time>2013-05-07T17:02:17Z</time>
      </trkpt>
      <trkpt lat="59.9333532" lon="17.6433526">
        <ele>16.4797</ele>
        <time>2013-05-07T17:02:18Z</time>
      </trkpt>
      <trkpt lat="59.9334066" lon="17.6434433">
        <ele>16.4797</ele>
        <time>2013-05-07T17:02:19Z</time>
      </trkpt>
      <trkpt lat="59.9334548" lon="17.6435251">
        <ele>16.9604</ele>
        <time>2013-05-07T17:02:20Z</time>
      </trkpt>
      <trkpt lat="59.933501" lon="17.6436129">
        <ele>15.5184</ele>
        <time>2013-05-07T17:02:21Z</time>
      </trkpt>
      <trkpt lat="59.9335468" lon="17.6436793">
        <ele>16.4797</ele>
        <time>2013-05-07T17:02:22Z</time>
      </trkpt>
      <trkpt lat="59.9335961" lon="17.6437409">
        <ele>16.9604</ele>
        <time>2013-05-07T17:02:23Z</time>
      </trkpt>
      <trkpt lat="59.9336496" lon="17.6437927">
        <ele>16.9604</ele>
        <time>2013-05-07T17:02:24Z</time>
      </trkpt>
      <trkpt lat="59.9337106" lon="17.6438483">
        <ele>16.9604</ele>
        <time>2013-05-07T17:02:25Z</time>
      </trkpt>
      <trkpt lat="59.9337738" lon="17.6438928">
        <ele>17.4412</ele>
        <time>2013-05-07T17:02:26Z</time>
      </trkpt>
      <trkpt lat="59.9338364" lon="17.6439477">
        <ele>17.4412</ele>
        <time>2013-05-07T17:02:27Z</time>
      </trkpt>
      <trkpt lat="59.933894" lon="17.643998">
        <ele>17.4412</ele>
        <time>2013-05-07T17:02:28Z</time>
      </trkpt>
      <trkpt lat="59.9339501" lon="17.6440631">
        <ele>17.4412</ele>
        <time>2013-05-07T17:02:29Z</time>
      </trkpt>
      <trkpt lat="59.9340087" lon="17.6441356">
        <ele>17.4412</ele>
        <time>2013-05-07T17:02:30Z</time>
      </trkpt>
      <trkpt lat="59.9340682" lon="17.6442072">
        <ele>17.9218</ele>
        <time>2013-05-07T17:02:31Z</time>
      </trkpt>
      <trkpt lat="59.9341292" lon="17.6442814">
        <ele>18.8831</ele>
        <time>2013-05-07T17:02:32Z</time>
      </trkpt>
      <trkpt lat="59.9341924" lon="17.6443574">
        <ele>18.4023</ele>
        <time>2013-05-07T17:02:33Z</time>
      </trkpt>
      <trkpt lat="59.9342572" lon="17.6444331">
        <ele>17.9218</ele>
        <time>2013-05-07T17:02:34Z</time>
      </trkpt>
      <trkpt lat="59.934322" lon="17.6445091">
        <ele>17.9218</ele>
        <time>2013-05-07T17:02:35Z</time>
      </trkpt>
      <trkpt lat="59.9343787" lon="17.6445907">
        <ele>19.8444</ele>
        <time>2013-05-07T17:02:36Z</time>
      </trkpt>
      <trkpt lat="59.9344266" lon="17.6446771">
        <ele>20.8057</ele>
        <time>2013-05-07T17:02:37Z</time>
      </trkpt>
      <trkpt lat="59.9344695" lon="17.6447578">
        <ele>21.767</ele>
        <time>2013-05-07T17:02:38Z</time>
      </trkpt>
      <trkpt lat="59.9344984" lon="17.6448398">
        <ele>22.2476</ele>
        <time>2013-05-07T17:02:39Z</time>
      </trkpt>
      <trkpt lat="59.9345183" lon="17.6449206">
        <ele>22.7283</ele>
        <time>2013-05-07T17:02:40Z</time>
      </trkpt>
      <trkpt lat="59.934539" lon="17.6450007">
        <ele>22.7283</ele>
        <time>2013-05-07T17:02:41Z</time>
      </trkpt>
      <trkpt lat="59.9345689" lon="17.645075">
        <ele>23.6896</ele>
        <time>2013-05-07T17:02:42Z</time>
      </trkpt>
      <trkpt lat="59.9346069" lon="17.6451392">
        <ele>24.1703</ele>
        <time>2013-05-07T17:02:43Z</time>
      </trkpt>
      <trkpt lat="59.9346669" lon="17.6452017">
        <ele>23.209</ele>
        <time>2013-05-07T17:02:44Z</time>
      </trkpt>
      <trkpt lat="59.9347249" lon="17.6452573">
        <ele>23.6896</ele>
        <time>2013-05-07T17:02:45Z</time>
      </trkpt>
      <trkpt lat="59.9347638" lon="17.6453298">
        <ele>23.209</ele>
        <time>2013-05-07T17:02:46Z</time>
      </trkpt>
      <trkpt lat="59.9348074" lon="17.6454042">
        <ele>22.7283</ele>
        <time>2013-05-07T17:02:47Z</time>
      </trkpt>
      <trkpt lat="59.9348602" lon="17.6454864">
        <ele>22.2476</ele>
        <time>2013-05-07T17:02:48Z</time>
      </trkpt>
      <trkpt lat="59.9349192" lon="17.6455691">
        <ele>21.2864</ele>
        <time>2013-05-07T17:02:49Z</time>
      </trkpt>
      <trkpt lat="59.93497" lon="17.6456563">
        <ele>20.325</ele>
        <time>2013-05-07T17:02:50Z</time>
      </trkpt>
      <trkpt lat="59.9350326" lon="17.6457349">
        <ele>19.8444</ele>
        <time>2013-05-07T17:02:51Z</time>
      </trkpt>
      <trkpt lat="59.9351004" lon="17.6458171">
        <ele>18.4023</ele>
        <time>2013-05-07T17:02:52Z</time>
      </trkpt>
      <trkpt lat="59.9351667" lon="17.6458887">
        <ele>19.3638</ele>
        <time>2013-05-07T17:02:53Z</time>
      </trkpt>
      <trkpt lat="59.9352321" lon="17.6459607">
        <ele>20.325</ele>
        <time>2013-05-07T17:02:54Z</time>
      </trkpt>
      <trkpt lat="59.9352962" lon="17.6460341">
        <ele>20.8057</ele>
        <time>2013-05-07T17:02:55Z</time>
      </trkpt>
      <trkpt lat="59.93536" lon="17.6461079">
        <ele>21.2864</ele>
        <time>2013-05-07T17:02:56Z</time>
      </trkpt>
      <trkpt lat="59.9354222" lon="17.6461865">
        <ele>22.2476</ele>
        <time>2013-05-07T17:02:57Z</time>
      </trkpt>
      <trkpt lat="59.9354881" lon="17.6462617">
        <ele>23.209</ele>
        <time>2013-05-07T17:02:58Z</time>
      </trkpt>
      <trkpt lat="59.9355494" lon="17.6463408">
        <ele>23.6896</ele>
        <time>2013-05-07T17:02:59Z</time>
      </trkpt>
      <trkpt lat="59.935609" lon="17.6464238">
        <ele>23.6896</ele>
        <time>2013-05-07T17:03:00Z</time>
      </trkpt>
      <trkpt lat="59.9356683" lon="17.6465129">
        <ele>23.6896</ele>
        <time>2013-05-07T17:03:01Z</time>
      </trkpt>
      <trkpt lat="59.9357271" lon="17.6466044">
        <ele>23.209</ele>
        <time>2013-05-07T17:03:02Z</time>
      </trkpt>
      <trkpt lat="59.9357918" lon="17.6466914">
        <ele>23.6896</ele>
        <time>2013-05-07T17:03:03Z</time>
      </trkpt>
      <trkpt lat="59.9358599" lon="17.6467702">
        <ele>24.651</ele>
        <time>2013-05-07T17:03:04Z</time>
      </trkpt>
      <trkpt lat="59.9359265" lon="17.6468443">
        <ele>25.6123</ele>
        <time>2013-05-07T17:03:05Z</time>
      </trkpt>
      <trkpt lat="59.9359923" lon="17.6469297">
        <ele>25.1317</ele>
        <time>2013-05-07T17:03:06Z</time>
      </trkpt>
      <trkpt lat="59.9360574" lon="17.6470113">
        <ele>25.6123</ele>
        <time>2013-05-07T17:03:07Z</time>
      </trkpt>
      <trkpt lat="59.9361288" lon="17.6470996">
        <ele>25.6123</ele>
        <time>2013-05-07T17:03:08Z</time>
      </trkpt>
      <trkpt lat="59.9361992" lon="17.6471921">
        <ele>24.651</ele>
        <time>2013-05-07T17:03:09Z</time>
      </trkpt>
      <trkpt lat="59.9362674" lon="17.6472721">
        <ele>25.1317</ele>
        <time>2013-05-07T17:03:10Z</time>
      </trkpt>
      <trkpt lat="59.9363323" lon="17.6473537">
        <ele>25.6123</ele>
        <time>2013-05-07T17:03:11Z</time>
      </trkpt>
      <trkpt lat="59.936398" lon="17.6474424">
        <ele>26.0929</ele>
        <time>2013-05-07T17:03:12Z</time>
      </trkpt>
      <trkpt lat="59.9364645" lon="17.6475292">
        <ele>26.0929</ele>
        <time>2013-05-07T17:03:13Z</time>
      </trkpt>
      <trkpt lat="59.9365318" lon="17.6476127">
        <ele>26.5736</ele>
        <time>2013-05-07T17:03:14Z</time>
      </trkpt>
      <trkpt lat="59.9366011" lon="17.6476945">
        <ele>27.0543</ele>
        <time>2013-05-07T17:03:15Z</time>
      </trkpt>
      <trkpt lat="59.9366665" lon="17.647778">
        <ele>27.5349</ele>
        <time>2013-05-07T17:03:16Z</time>
      </trkpt>
      <trkpt lat="59.9367341" lon="17.6478629">
        <ele>28.0155</ele>
        <time>2013-05-07T17:03:17Z</time>
      </trkpt>
      <trkpt lat="59.9368" lon="17.6479458">
        <ele>28.0155</ele>
        <time>2013-05-07T17:03:18Z</time>
      </trkpt>
      <trkpt lat="59.9368617" lon="17.648031">
        <ele>28.0155</ele>
        <time>2013-05-07T17:03:19Z</time>
      </trkpt>
      <trkpt lat="59.9369235" lon="17.6481191">
        <ele>28.0155</ele>
        <time>2013-05-07T17:03:20Z</time>
      </trkpt>
      <trkpt lat="59.9369902" lon="17.6482082">
        <ele>28.4962</ele>
        <time>2013-05-07T17:03:21Z</time>
      </trkpt>
      <trkpt lat="59.9370584" lon="17.648299">
        <ele>28.9769</ele>
        <time>2013-05-07T17:03:22Z</time>
      </trkpt>
      <trkpt lat="59.9371249" lon="17.6483933">
        <ele>28.9769</ele>
        <time>2013-05-07T17:03:23Z</time>
      </trkpt>
      <trkpt lat="59.9371934" lon="17.6484866">
        <ele>29.9381</ele>
        <time>2013-05-07T17:03:24Z</time>
      </trkpt>
      <trkpt lat="59.9372657" lon="17.6485912">
        <ele>29.9381</ele>
        <time>2013-05-07T17:03:25Z</time>
      </trkpt>
      <trkpt lat="59.9373379" lon="17.6486969">
        <ele>30.4188</ele>
        <time>2013-05-07T17:03:26Z</time>
      </trkpt>
      <trkpt lat="59.9374114" lon="17.6488051">
        <ele>30.8995</ele>
        <time>2013-05-07T17:03:27Z</time>
      </trkpt>
      <trkpt lat="59.937486" lon="17.6489118">
        <ele>31.8607</ele>
        <time>2013-05-07T17:03:28Z</time>
      </trkpt>
      <trkpt lat="59.9375554" lon="17.6490251">
        <ele>31.8607</ele>
        <time>2013-05-07T17:03:29Z</time>
      </trkpt>
      <trkpt lat="59.93762" lon="17.6491443">
        <ele>32.3416</ele>
        <time>2013-05-07T17:03:30Z</time>
      </trkpt>
      <trkpt lat="59.9376854" lon="17.6492699">
        <ele>32.3416</ele>
        <time>2013-05-07T17:03:31Z</time>
      </trkpt>
      <trkpt lat="59.9377512" lon="17.6493965">
        <ele>32.8223</ele>
        <time>2013-05-07T17:03:32Z</time>
      </trkpt>
      <trkpt lat="59.9378024" lon="17.6495407">
        <ele>33.3029</ele>
        <time>2013-05-07T17:03:33Z</time>
      </trkpt>
      <trkpt lat="59.9378479" lon="17.6496916">
        <ele>32.8223</ele>
        <time>2013-05-07T17:03:34Z</time>
      </trkpt>
      <trkpt lat="59.937894" lon="17.6498437">
        <ele>31.8607</ele>
        <time>2013-05-07T17:03:35Z</time>
      </trkpt>
      <trkpt lat="59.9379504" lon="17.6499871">
        <ele>31.8607</ele>
        <time>2013-05-07T17:03:36Z</time>
      </trkpt>
      <trkpt lat="59.938007" lon="17.6501315">
        <ele>32.3416</ele>
        <time>2013-05-07T17:03:37Z</time>
      </trkpt>
      <trkpt lat="59.9380628" lon="17.6502799">
        <ele>32.3416</ele>
        <time>2013-05-07T17:03:38Z</time>
      </trkpt>
      <trkpt lat="59.938119" lon="17.6504367">
        <ele>32.3416</ele>
        <time>2013-05-07T17:03:39Z</time>
      </trkpt>
      <trkpt lat="59.938176" lon="17.6505908">
        <ele>33.3029</ele>
        <time>2013-05-07T17:03:40Z</time>
      </trkpt>
      <trkpt lat="59.9382323" lon="17.6507415">
        <ele>32.8223</ele>
        <time>2013-05-07T17:03:41Z</time>
      </trkpt>
      <trkpt lat="59.9382925" lon="17.6508881">
        <ele>33.3029</ele>
        <time>2013-05-07T17:03:42Z</time>
      </trkpt>
      <trkpt lat="59.9383551" lon="17.6510298">
        <ele>33.7834</ele>
        <time>2013-05-07T17:03:43Z</time>
      </trkpt>
      <trkpt lat="59.9384145" lon="17.6511692">
        <ele>33.7834</ele>
        <time>2013-05-07T17:03:44Z</time>
      </trkpt>
      <trkpt lat="59.9384716" lon="17.6513183">
        <ele>33.7834</ele>
        <time>2013-05-07T17:03:45Z</time>
      </trkpt>
      <trkpt lat="59.9385275" lon="17.6514723">
        <ele>34.7449</ele>
        <time>2013-05-07T17:03:46Z</time>
      </trkpt>
      <trkpt lat="59.9385852" lon="17.651623">
        <ele>35.2255</ele>
        <time>2013-05-07T17:03:47Z</time>
      </trkpt>
      <trkpt lat="59.9386402" lon="17.6517776">
        <ele>35.7061</ele>
        <time>2013-05-07T17:03:48Z</time>
      </trkpt>
      <trkpt lat="59.9386965" lon="17.6519353">
        <ele>36.6675</ele>
        <time>2013-05-07T17:03:49Z</time>
      </trkpt>
      <trkpt lat="59.9387458" lon="17.652095">
        <ele>37.1481</ele>
        <time>2013-05-07T17:03:50Z</time>
      </trkpt>
      <trkpt lat="59.938797" lon="17.6522603">
        <ele>36.1868</ele>
        <time>2013-05-07T17:03:51Z</time>
      </trkpt>
      <trkpt lat="59.9388409" lon="17.6524301">
        <ele>36.1868</ele>
        <time>2013-05-07T17:03:52Z</time>
      </trkpt>
      <trkpt lat="59.9388895" lon="17.6525965">
        <ele>35.7061</ele>
        <time>2013-05-07T17:03:53Z</time>
      </trkpt>
      <trkpt lat="59.9389396" lon="17.6527696">
        <ele>33.7834</ele>
        <time>2013-05-07T17:03:54Z</time>
      </trkpt>
      <trkpt lat="59.9389835" lon="17.65294">
        <ele>33.7834</ele>
        <time>2013-05-07T17:03:55Z</time>
      </trkpt>
      <trkpt lat="59.9390258" lon="17.6531098">
        <ele>33.7834</ele>
        <time>2013-05-07T17:03:56Z</time>
      </trkpt>
      <trkpt lat="59.9390683" lon="17.6532849">
        <ele>34.2642</ele>
        <time>2013-05-07T17:03:57Z</time>
      </trkpt>
      <trkpt lat="59.9391061" lon="17.653462">
        <ele>34.7449</ele>
        <time>2013-05-07T17:03:58Z</time>
      </trkpt>
      <trkpt lat="59.9391467" lon="17.6536382">
        <ele>35.2255</ele>
        <time>2013-05-07T17:03:59Z</time>
      </trkpt>
      <trkpt lat="59.9391851" lon="17.6538123">
        <ele>35.2255</ele>
        <time>2013-05-07T17:04:00Z</time>
      </trkpt>
      <trkpt lat="59.9392226" lon="17.6539876">
        <ele>35.7061</ele>
        <time>2013-05-07T17:04:01Z</time>
      </trkpt>
      <trkpt lat="59.9392589" lon="17.6541634">
        <ele>35.7061</ele>
        <time>2013-05-07T17:04:02Z</time>
      </trkpt>
      <trkpt lat="59.9392962" lon="17.6543424">
        <ele>36.1868</ele>
        <time>2013-05-07T17:04:03Z</time>
      </trkpt>
      <trkpt lat="59.939328" lon="17.6545255">
        <ele>35.7061</ele>
        <time>2013-05-07T17:04:04Z</time>
      </trkpt>
      <trkpt lat="59.9393627" lon="17.6547058">
        <ele>36.1868</ele>
        <time>2013-05-07T17:04:05Z</time>
      </trkpt>
      <trkpt lat="59.9393994" lon="17.6548866">
        <ele>36.1868</ele>
        <time>2013-05-07T17:04:06Z</time>
      </trkpt>
      <trkpt lat="59.9394363" lon="17.6550672">
        <ele>36.1868</ele>
        <time>2013-05-07T17:04:07Z</time>
      </trkpt>
      <trkpt lat="59.9394725" lon="17.6552438">
        <ele>35.7061</ele>
        <time>2013-05-07T17:04:08Z</time>
      </trkpt>
      <trkpt lat="59.9395091" lon="17.6554246">
        <ele>35.7061</ele>
        <time>2013-05-07T17:04:09Z</time>
      </trkpt>
      <trkpt lat="59.9395474" lon="17.6556051">
        <ele>35.7061</ele>
        <time>2013-05-07T17:04:10Z</time>
      </trkpt>
      <trkpt lat="59.9395852" lon="17.6557868">
        <ele>35.7061</ele>
        <time>2013-05-07T17:04:11Z</time>
      </trkpt>
      <trkpt lat="59.939622" lon="17.6559672">
        <ele>35.2255</ele>
        <time>2013-05-07T17:04:12Z</time>
      </trkpt>
      <trkpt lat="59.9396598" lon="17.6561469">
        <ele>34.7449</ele>
        <time>2013-05-07T17:04:13Z</time>
      </trkpt>
      <trkpt lat="59.9396953" lon="17.656324">
        <ele>33.3029</ele>
        <time>2013-05-07T17:04:14Z</time>
      </trkpt>
      <trkpt lat="59.9397334" lon="17.6565017">
        <ele>32.3416</ele>
        <time>2013-05-07T17:04:15Z</time>
      </trkpt>
      <trkpt lat="59.9397682" lon="17.6566763">
        <ele>31.8607</ele>
        <time>2013-05-07T17:04:16Z</time>
      </trkpt>
      <trkpt lat="59.9398028" lon="17.6568545">
        <ele>31.8607</ele>
        <time>2013-05-07T17:04:17Z</time>
      </trkpt>
      <trkpt lat="59.9398388" lon="17.6570357">
        <ele>31.3801</ele>
        <time>2013-05-07T17:04:18Z</time>
      </trkpt>
      <trkpt lat="59.9398759" lon="17.6572202">
        <ele>30.8995</ele>
        <time>2013-05-07T17:04:19Z</time>
      </trkpt>
      <trkpt lat="59.9399119" lon="17.6574057">
        <ele>30.4188</ele>
        <time>2013-05-07T17:04:20Z</time>
      </trkpt>
      <trkpt lat="59.9399495" lon="17.6575915">
        <ele>30.4188</ele>
        <time>2013-05-07T17:04:21Z</time>
      </trkpt>
      <trkpt lat="59.9399883" lon="17.657778">
        <ele>30.4188</ele>
        <time>2013-05-07T17:04:22Z</time>
      </trkpt>
      <trkpt lat="59.9400274" lon="17.6579667">
        <ele>30.4188</ele>
        <time>2013-05-07T17:04:23Z</time>
      </trkpt>
      <trkpt lat="59.9400665" lon="17.6581563">
        <ele>29.9381</ele>
        <time>2013-05-07T17:04:24Z</time>
      </trkpt>
      <trkpt lat="59.940108" lon="17.6583479">
        <ele>29.9381</ele>
        <time>2013-05-07T17:04:25Z</time>
      </trkpt>
      <trkpt lat="59.9401507" lon="17.6585404">
        <ele>29.9381</ele>
        <time>2013-05-07T17:04:26Z</time>
      </trkpt>
      <trkpt lat="59.9401936" lon="17.6587342">
        <ele>29.9381</ele>
        <time>2013-05-07T17:04:27Z</time>
      </trkpt>
      <trkpt lat="59.9402345" lon="17.6589303">
        <ele>29.9381</ele>
        <time>2013-05-07T17:04:28Z</time>
      </trkpt>
      <trkpt lat="59.9402723" lon="17.6591275">
        <ele>30.4188</ele>
        <time>2013-05-07T17:04:29Z</time>
      </trkpt>
      <trkpt lat="59.9403076" lon="17.6593224">
        <ele>30.4188</ele>
        <time>2013-05-07T17:04:30Z</time>
      </trkpt>
      <trkpt lat="59.9403376" lon="17.6595113">
        <ele>31.8607</ele>
        <time>2013-05-07T17:04:31Z</time>
      </trkpt>
      <trkpt lat="59.9403754" lon="17.6597068">
        <ele>31.8607</ele>
        <time>2013-05-07T17:04:32Z</time>
      </trkpt>
      <trkpt lat="59.9404111" lon="17.6598945">
        <ele>31.8607</ele>
        <time>2013-05-07T17:04:33Z</time>
      </trkpt>
      <trkpt lat="59.9404442" lon="17.6600761">
        <ele>32.3416</ele>
        <time>2013-05-07T17:04:34Z</time>
      </trkpt>
      <trkpt lat="59.940477" lon="17.6602509">
        <ele>32.8223</ele>
        <time>2013-05-07T17:04:35Z</time>
      </trkpt>
      <trkpt lat="59.9405011" lon="17.6604271">
        <ele>32.8223</ele>
        <time>2013-05-07T17:04:36Z</time>
      </trkpt>
      <trkpt lat="59.9404946" lon="17.6606064">
        <ele>34.7449</ele>
        <time>2013-05-07T17:04:37Z</time>
      </trkpt>
      <trkpt lat="59.9404655" lon="17.6607876">
        <ele>35.7061</ele>
        <time>2013-05-07T17:04:38Z</time>
      </trkpt>
      <trkpt lat="59.9404381" lon="17.6609799">
        <ele>35.7061</ele>
        <time>2013-05-07T17:04:39Z</time>
      </trkpt>
      <trkpt lat="59.940427" lon="17.6611809">
        <ele>35.7061</ele>
        <time>2013-05-07T17:04:40Z</time>
      </trkpt>
      <trkpt lat="59.9404137" lon="17.6613884">
        <ele>35.7061</ele>
        <time>2013-05-07T17:04:41Z</time>
      </trkpt>
      <trkpt lat="59.9404179" lon="17.6615954">
        <ele>35.7061</ele>
        <time>2013-05-07T17:04:42Z</time>
      </trkpt>
      <trkpt lat="59.9404236" lon="17.661803">
        <ele>35.2255</ele>
        <time>2013-05-07T17:04:43Z</time>
      </trkpt>
      <trkpt lat="59.9404328" lon="17.6619963">
        <ele>33.3029</ele>
        <time>2013-05-07T17:04:44Z</time>
      </trkpt>
      <trkpt lat="59.9404539" lon="17.6621549">
        <ele>31.8607</ele>
        <time>2013-05-07T17:04:45Z</time>
      </trkpt>
      <trkpt lat="59.9405012" lon="17.6622946">
        <ele>29.4575</ele>
        <time>2013-05-07T17:04:46Z</time>
      </trkpt>
      <trkpt lat="59.9405997" lon="17.6623996">
        <ele>29.4575</ele>
        <time>2013-05-07T17:04:47Z</time>
      </trkpt>
      <trkpt lat="59.9407358" lon="17.6623155">
        <ele>26.5736</ele>
        <time>2013-05-07T17:04:48Z</time>
      </trkpt>
      <trkpt lat="59.9408217" lon="17.6623411">
        <ele>23.209</ele>
        <time>2013-05-07T17:04:49Z</time>
      </trkpt>
      <trkpt lat="59.9409323" lon="17.6623356">
        <ele>22.2476</ele>
        <time>2013-05-07T17:04:50Z</time>
      </trkpt>
      <trkpt lat="59.9410406" lon="17.6623445">
        <ele>22.2476</ele>
        <time>2013-05-07T17:04:51Z</time>
      </trkpt>
      <trkpt lat="59.9411529" lon="17.6623604">
        <ele>22.7283</ele>
        <time>2013-05-07T17:04:52Z</time>
      </trkpt>
      <trkpt lat="59.9412389" lon="17.6624153">
        <ele>24.1703</ele>
        <time>2013-05-07T17:04:53Z</time>
      </trkpt>
      <trkpt lat="59.9413278" lon="17.6624795">
        <ele>24.651</ele>
        <time>2013-05-07T17:04:54Z</time>
      </trkpt>
      <trkpt lat="59.9414171" lon="17.6625618">
        <ele>24.651</ele>
        <time>2013-05-07T17:04:55Z</time>
      </trkpt>
      <trkpt lat="59.9415008" lon="17.6626628">
        <ele>24.1703</ele>
        <time>2013-05-07T17:04:56Z</time>
      </trkpt>
      <trkpt lat="59.9415768" lon="17.662767">
        <ele>25.1317</ele>
        <time>2013-05-07T17:04:57Z</time>
      </trkpt>
      <trkpt lat="59.9416429" lon="17.6628884">
        <ele>26.5736</ele>
        <time>2013-05-07T17:04:58Z</time>
      </trkpt>
      <trkpt lat="59.941714" lon="17.6630095">
        <ele>27.0543</ele>
        <time>2013-05-07T17:04:59Z</time>
      </trkpt>
      <trkpt lat="59.9417756" lon="17.6631317">
        <ele>28.0155</ele>
        <time>2013-05-07T17:05:00Z</time>
      </trkpt>
      <trkpt lat="59.9418347" lon="17.663255">
        <ele>28.4962</ele>
        <time>2013-05-07T17:05:01Z</time>
      </trkpt>
      <trkpt lat="59.941898" lon="17.6633763">
        <ele>28.4962</ele>
        <time>2013-05-07T17:05:02Z</time>
      </trkpt>
      <trkpt lat="59.941967" lon="17.6634949">
        <ele>28.4962</ele>
        <time>2013-05-07T17:05:03Z</time>
      </trkpt>
      <trkpt lat="59.9420387" lon="17.6636119">
        <ele>28.9769</ele>
        <time>2013-05-07T17:05:04Z</time>
      </trkpt>
      <trkpt lat="59.9421154" lon="17.6637273">
        <ele>29.4575</ele>
        <time>2013-05-07T17:05:05Z</time>
      </trkpt>
      <trkpt lat="59.9421951" lon="17.6638419">
        <ele>29.4575</ele>
        <time>2013-05-07T17:05:06Z</time>
      </trkpt>
      <trkpt lat="59.9422758" lon="17.6639553">
        <ele>29.4575</ele>
        <time>2013-05-07T17:05:07Z</time>
      </trkpt>
      <trkpt lat="59.9423633" lon="17.6640622">
        <ele>28.4962</ele>
        <time>2013-05-07T17:05:08Z</time>
      </trkpt>
      <trkpt lat="59.9424504" lon="17.6641693">
        <ele>27.5349</ele>
        <time>2013-05-07T17:05:09Z</time>
      </trkpt>
      <trkpt lat="59.942535" lon="17.6642708">
        <ele>27.5349</ele>
        <time>2013-05-07T17:05:10Z</time>
      </trkpt>
      <trkpt lat="59.9426211" lon="17.6643713">
        <ele>27.5349</ele>
        <time>2013-05-07T17:05:11Z</time>
      </trkpt>
      <trkpt lat="59.9427088" lon="17.6644734">
        <ele>28.0155</ele>
        <time>2013-05-07T17:05:12Z</time>
      </trkpt>
      <trkpt lat="59.9427956" lon="17.6645695">
        <ele>28.0155</ele>
        <time>2013-05-07T17:05:13Z</time>
      </trkpt>
      <trkpt lat="59.9428837" lon="17.6646604">
        <ele>28.0155</ele>
        <time>2013-05-07T17:05:14Z</time>
      </trkpt>
      <trkpt lat="59.9429725" lon="17.6647509">
        <ele>28.0155</ele>
        <time>2013-05-07T17:05:15Z</time>
      </trkpt>
      <trkpt lat="59.9430603" lon="17.6648376">
        <ele>27.5349</ele>
        <time>2013-05-07T17:05:16Z</time>
      </trkpt>
      <trkpt lat="59.9431512" lon="17.664923">
        <ele>27.5349</ele>
        <time>2013-05-07T17:05:17Z</time>
      </trkpt>
      <trkpt lat="59.9432422" lon="17.6650053">
        <ele>28.0155</ele>
        <time>2013-05-07T17:05:18Z</time>
      </trkpt>
      <trkpt lat="59.9433338" lon="17.6650799">
        <ele>28.0155</ele>
        <time>2013-05-07T17:05:19Z</time>
      </trkpt>
      <trkpt lat="59.9434259" lon="17.6651505">
        <ele>28.0155</ele>
        <time>2013-05-07T17:05:20Z</time>
      </trkpt>
      <trkpt lat="59.9435192" lon="17.6652182">
        <ele>28.0155</ele>
        <time>2013-05-07T17:05:21Z</time>
      </trkpt>
      <trkpt lat="59.943613" lon="17.6652828">
        <ele>27.5349</ele>
        <time>2013-05-07T17:05:22Z</time>
      </trkpt>
      <trkpt lat="59.9437062" lon="17.6653448">
        <ele>27.5349</ele>
        <time>2013-05-07T17:05:23Z</time>
      </trkpt>
      <trkpt lat="59.9437958" lon="17.6653996">
        <ele>27.0543</ele>
        <time>2013-05-07T17:05:24Z</time>
      </trkpt>
      <trkpt lat="59.9438868" lon="17.6654532">
        <ele>27.5349</ele>
        <time>2013-05-07T17:05:25Z</time>
      </trkpt>
      <trkpt lat="59.9439766" lon="17.6655061">
        <ele>27.0543</ele>
        <time>2013-05-07T17:05:26Z</time>
      </trkpt>
      <trkpt lat="59.9440672" lon="17.665558">
        <ele>26.0929</ele>
        <time>2013-05-07T17:05:27Z</time>
      </trkpt>
      <trkpt lat="59.9441574" lon="17.6656066">
        <ele>25.6123</ele>
        <time>2013-05-07T17:05:28Z</time>
      </trkpt>
      <trkpt lat="59.9442476" lon="17.6656519">
        <ele>25.1317</ele>
        <time>2013-05-07T17:05:29Z</time>
      </trkpt>
      <trkpt lat="59.9443393" lon="17.6656924">
        <ele>25.1317</ele>
        <time>2013-05-07T17:05:30Z</time>
      </trkpt>
      <trkpt lat="59.9444302" lon="17.6657293">
        <ele>24.651</ele>
        <time>2013-05-07T17:05:31Z</time>
      </trkpt>
      <trkpt lat="59.9445205" lon="17.6657669">
        <ele>23.6896</ele>
        <time>2013-05-07T17:05:32Z</time>
      </trkpt>
      <trkpt lat="59.9446122" lon="17.6658067">
        <ele>23.209</ele>
        <time>2013-05-07T17:05:33Z</time>
      </trkpt>
      <trkpt lat="59.9447035" lon="17.6658436">
        <ele>22.7283</ele>
        <time>2013-05-07T17:05:34Z</time>
      </trkpt>
      <trkpt lat="59.9447961" lon="17.6658786">
        <ele>22.2476</ele>
        <time>2013-05-07T17:05:35Z</time>
      </trkpt>
      <trkpt lat="59.9448884" lon="17.6659144">
        <ele>22.2476</ele>
        <time>2013-05-07T17:05:36Z</time>
      </trkpt>
      <trkpt lat="59.9449806" lon="17.6659508">
        <ele>21.767</ele>
        <time>2013-05-07T17:05:37Z</time>
      </trkpt>
      <trkpt lat="59.945072" lon="17.6659861">
        <ele>21.2864</ele>
        <time>2013-05-07T17:05:38Z</time>
      </trkpt>
      <trkpt lat="59.9451633" lon="17.6660202">
        <ele>21.2864</ele>
        <time>2013-05-07T17:05:39Z</time>
      </trkpt>
      <trkpt lat="59.9452551" lon="17.6660536">
        <ele>20.8057</ele>
        <time>2013-05-07T17:05:40Z</time>
      </trkpt>
      <trkpt lat="59.9453474" lon="17.666087">
        <ele>20.8057</ele>
        <time>2013-05-07T17:05:41Z</time>
      </trkpt>
      <trkpt lat="59.94544" lon="17.6661207">
        <ele>20.325</ele>
        <time>2013-05-07T17:05:42Z</time>
      </trkpt>
      <trkpt lat="59.9455317" lon="17.6661541">
        <ele>20.325</ele>
        <time>2013-05-07T17:05:43Z</time>
      </trkpt>
      <trkpt lat="59.9456237" lon="17.6661868">
        <ele>20.325</ele>
        <time>2013-05-07T17:05:44Z</time>
      </trkpt>
      <trkpt lat="59.9457149" lon="17.6662213">
        <ele>19.8444</ele>
        <time>2013-05-07T17:05:45Z</time>
      </trkpt>
      <trkpt lat="59.9458067" lon="17.6662573">
        <ele>19.8444</ele>
        <time>2013-05-07T17:05:46Z</time>
      </trkpt>
      <trkpt lat="59.9458985" lon="17.6662926">
        <ele>19.8444</ele>
        <time>2013-05-07T17:05:47Z</time>
      </trkpt>
      <trkpt lat="59.9459909" lon="17.6663267">
        <ele>19.8444</ele>
        <time>2013-05-07T17:05:48Z</time>
      </trkpt>
      <trkpt lat="59.9460845" lon="17.6663625">
        <ele>20.325</ele>
        <time>2013-05-07T17:05:49Z</time>
      </trkpt>
      <trkpt lat="59.9461764" lon="17.6664082">
        <ele>19.8444</ele>
        <time>2013-05-07T17:05:50Z</time>
      </trkpt>
      <trkpt lat="59.9462667" lon="17.666468">
        <ele>19.8444</ele>
        <time>2013-05-07T17:05:51Z</time>
      </trkpt>
      <trkpt lat="59.9463587" lon="17.6665328">
        <ele>19.3638</ele>
        <time>2013-05-07T17:05:52Z</time>
      </trkpt>
      <trkpt lat="59.9464421" lon="17.6665875">
        <ele>20.325</ele>
        <time>2013-05-07T17:05:53Z</time>
      </trkpt>
      <trkpt lat="59.9465319" lon="17.6666148">
        <ele>20.325</ele>
        <time>2013-05-07T17:05:54Z</time>
      </trkpt>
      <trkpt lat="59.9466238" lon="17.6666266">
        <ele>19.8444</ele>
        <time>2013-05-07T17:05:55Z</time>
      </trkpt>
      <trkpt lat="59.9467177" lon="17.6666402">
        <ele>18.8831</ele>
        <time>2013-05-07T17:05:56Z</time>
      </trkpt>
      <trkpt lat="59.9468125" lon="17.6666682">
        <ele>18.4023</ele>
        <time>2013-05-07T17:05:57Z</time>
      </trkpt>
      <trkpt lat="59.9469076" lon="17.666705">
        <ele>17.9218</ele>
        <time>2013-05-07T17:05:58Z</time>
      </trkpt>
      <trkpt lat="59.9470023" lon="17.6667418">
        <ele>17.4412</ele>
        <time>2013-05-07T17:05:59Z</time>
      </trkpt>
      <trkpt lat="59.9470969" lon="17.6667825">
        <ele>17.4412</ele>
        <time>2013-05-07T17:06:00Z</time>
      </trkpt>
      <trkpt lat="59.9471907" lon="17.666826">
        <ele>17.4412</ele>
        <time>2013-05-07T17:06:01Z</time>
      </trkpt>
      <trkpt lat="59.9472845" lon="17.6668681">
        <ele>17.9218</ele>
        <time>2013-05-07T17:06:02Z</time>
      </trkpt>
      <trkpt lat="59.9473773" lon="17.6669101">
        <ele>17.9218</ele>
        <time>2013-05-07T17:06:03Z</time>
      </trkpt>
      <trkpt lat="59.9474688" lon="17.6669521">
        <ele>17.9218</ele>
        <time>2013-05-07T17:06:04Z</time>
      </trkpt>
      <trkpt lat="59.9475607" lon="17.6669943">
        <ele>17.9218</ele>
        <time>2013-05-07T17:06:05Z</time>
      </trkpt>
      <trkpt lat="59.947652" lon="17.6670375">
        <ele>17.9218</ele>
        <time>2013-05-07T17:06:06Z</time>
      </trkpt>
      <trkpt lat="59.9477431" lon="17.6670801">
        <ele>18.4023</ele>
        <time>2013-05-07T17:06:07Z</time>
      </trkpt>
      <trkpt lat="59.9478341" lon="17.6671246">
        <ele>18.4023</ele>
        <time>2013-05-07T17:06:08Z</time>
      </trkpt>
      <trkpt lat="59.9479245" lon="17.6671716">
        <ele>18.4023</ele>
        <time>2013-05-07T17:06:09Z</time>
      </trkpt>
      <trkpt lat="59.9480145" lon="17.6672205">
        <ele>18.4023</ele>
        <time>2013-05-07T17:06:10Z</time>
      </trkpt>
      <trkpt lat="59.9481058" lon="17.6672694">
        <ele>18.4023</ele>
        <time>2013-05-07T17:06:11Z</time>
      </trkpt>
      <trkpt lat="59.9481984" lon="17.6673184">
        <ele>18.4023</ele>
        <time>2013-05-07T17:06:12Z</time>
      </trkpt>
      <trkpt lat="59.9482906" lon="17.6673694">
        <ele>18.4023</ele>
        <time>2013-05-07T17:06:13Z</time>
      </trkpt>
      <trkpt lat="59.9483832" lon="17.667422">
        <ele>17.9218</ele>
        <time>2013-05-07T17:06:14Z</time>
      </trkpt>
      <trkpt lat="59.9484774" lon="17.6674758">
        <ele>17.9218</ele>
        <time>2013-05-07T17:06:15Z</time>
      </trkpt>
      <trkpt lat="59.9485725" lon="17.6675301">
        <ele>17.9218</ele>
        <time>2013-05-07T17:06:16Z</time>
      </trkpt>
      <trkpt lat="59.9486688" lon="17.6675849">
        <ele>17.9218</ele>
        <time>2013-05-07T17:06:17Z</time>
      </trkpt>
      <trkpt lat="59.9487654" lon="17.6676377">
        <ele>17.9218</ele>
        <time>2013-05-07T17:06:18Z</time>
      </trkpt>
      <trkpt lat="59.9488616" lon="17.6676902">
        <ele>17.4412</ele>
        <time>2013-05-07T17:06:19Z</time>
      </trkpt>
      <trkpt lat="59.9489586" lon="17.6677436">
        <ele>17.4412</ele>
        <time>2013-05-07T17:06:20Z</time>
      </trkpt>
      <trkpt lat="59.9490552" lon="17.6677995">
        <ele>17.4412</ele>
        <time>2013-05-07T17:06:21Z</time>
      </trkpt>
      <trkpt lat="59.9491506" lon="17.6678571">
        <ele>17.4412</ele>
        <time>2013-05-07T17:06:22Z</time>
      </trkpt>
      <trkpt lat="59.9492458" lon="17.6679153">
        <ele>16.9604</ele>
        <time>2013-05-07T17:06:23Z</time>
      </trkpt>
      <trkpt lat="59.9493417" lon="17.6679734">
        <ele>16.9604</ele>
        <time>2013-05-07T17:06:24Z</time>
      </trkpt>
      <trkpt lat="59.9494375" lon="17.6680298">
        <ele>16.4797</ele>
        <time>2013-05-07T17:06:25Z</time>
      </trkpt>
      <trkpt lat="59.9495338" lon="17.6680824">
        <ele>16.4797</ele>
        <time>2013-05-07T17:06:26Z</time>
      </trkpt>
      <trkpt lat="59.9496294" lon="17.6681314">
        <ele>15.999</ele>
        <time>2013-05-07T17:06:27Z</time>
      </trkpt>
      <trkpt lat="59.9497243" lon="17.6681761">
        <ele>15.999</ele>
        <time>2013-05-07T17:06:28Z</time>
      </trkpt>
      <trkpt lat="59.9498192" lon="17.6682159">
        <ele>16.4797</ele>
        <time>2013-05-07T17:06:29Z</time>
      </trkpt>
      <trkpt lat="59.9499133" lon="17.6682516">
        <ele>16.4797</ele>
        <time>2013-05-07T17:06:30Z</time>
      </trkpt>
      <trkpt lat="59.950005" lon="17.6682866">
        <ele>16.4797</ele>
        <time>2013-05-07T17:06:31Z</time>
      </trkpt>
      <trkpt lat="59.9500941" lon="17.668318">
        <ele>16.4797</ele>
        <time>2013-05-07T17:06:32Z</time>
      </trkpt>
      <trkpt lat="59.9501843" lon="17.6683408">
        <ele>16.4797</ele>
        <time>2013-05-07T17:06:33Z</time>
      </trkpt>
      <trkpt lat="59.9502746" lon="17.6683569">
        <ele>16.4797</ele>
        <time>2013-05-07T17:06:34Z</time>
      </trkpt>
      <trkpt lat="59.9503698" lon="17.6683629">
        <ele>16.4797</ele>
        <time>2013-05-07T17:06:35Z</time>
      </trkpt>
      <trkpt lat="59.9504631" lon="17.6683641">
        <ele>16.4797</ele>
        <time>2013-05-07T17:06:36Z</time>
      </trkpt>
      <trkpt lat="59.9505537" lon="17.6683624">
        <ele>15.999</ele>
        <time>2013-05-07T17:06:37Z</time>
      </trkpt>
      <trkpt lat="59.9506424" lon="17.6683547">
        <ele>15.5184</ele>
        <time>2013-05-07T17:06:38Z</time>
      </trkpt>
      <trkpt lat="59.9507316" lon="17.6683393">
        <ele>15.0377</ele>
        <time>2013-05-07T17:06:39Z</time>
      </trkpt>
      <trkpt lat="59.9508206" lon="17.6683181">
        <ele>15.0377</ele>
        <time>2013-05-07T17:06:40Z</time>
      </trkpt>
      <trkpt lat="59.9509076" lon="17.6682925">
        <ele>15.0377</ele>
        <time>2013-05-07T17:06:41Z</time>
      </trkpt>
      <trkpt lat="59.950994" lon="17.6682653">
        <ele>14.557</ele>
        <time>2013-05-07T17:06:42Z</time>
      </trkpt>
      <trkpt lat="59.9510804" lon="17.6682367">
        <ele>14.557</ele>
        <time>2013-05-07T17:06:43Z</time>
      </trkpt>
      <trkpt lat="59.9511669" lon="17.6682051">
        <ele>14.0764</ele>
        <time>2013-05-07T17:06:44Z</time>
      </trkpt>
      <trkpt lat="59.9512526" lon="17.6681735">
        <ele>13.5958</ele>
        <time>2013-05-07T17:06:45Z</time>
      </trkpt>
      <trkpt lat="59.9513389" lon="17.668142">
        <ele>13.5958</ele>
        <time>2013-05-07T17:06:46Z</time>
      </trkpt>
      <trkpt lat="59.9514246" lon="17.6681155">
        <ele>13.5958</ele>
        <time>2013-05-07T17:06:47Z</time>
      </trkpt>
      <trkpt lat="59.9515091" lon="17.6681053">
        <ele>13.5958</ele>
        <time>2013-05-07T17:06:48Z</time>
      </trkpt>
      <trkpt lat="59.9515955" lon="17.6681357">
        <ele>13.5958</ele>
        <time>2013-05-07T17:06:49Z</time>
      </trkpt>
      <trkpt lat="59.9516694" lon="17.6681948">
        <ele>13.5958</ele>
        <time>2013-05-07T17:06:50Z</time>
      </trkpt>
      <trkpt lat="59.9517308" lon="17.6683042">
        <ele>13.5958</ele>
        <time>2013-05-07T17:06:51Z</time>
      </trkpt>
      <trkpt lat="59.9517784" lon="17.6684693">
        <ele>13.5958</ele>
        <time>2013-05-07T17:06:52Z</time>
      </trkpt>
      <trkpt lat="59.9518187" lon="17.6686268">
        <ele>13.5958</ele>
        <time>2013-05-07T17:06:53Z</time>
      </trkpt>
      <trkpt lat="59.9518518" lon="17.6688318">
        <ele>13.5958</ele>
        <time>2013-05-07T17:06:54Z</time>
      </trkpt>
      <trkpt lat="59.9518613" lon="17.6690197">
        <ele>13.1151</ele>
        <time>2013-05-07T17:06:55Z</time>
      </trkpt>
      <trkpt lat="59.9518574" lon="17.6692168">
        <ele>13.5958</ele>
        <time>2013-05-07T17:06:56Z</time>
      </trkpt>
      <trkpt lat="59.9518432" lon="17.6693979">
        <ele>13.5958</ele>
        <time>2013-05-07T17:06:57Z</time>
      </trkpt>
      <trkpt lat="59.9518328" lon="17.6695773">
        <ele>14.0764</ele>
        <time>2013-05-07T17:06:58Z</time>
      </trkpt>
      <trkpt lat="59.9518214" lon="17.6697545">
        <ele>14.0764</ele>
        <time>2013-05-07T17:06:59Z</time>
      </trkpt>
      <trkpt lat="59.9518095" lon="17.6699291">
        <ele>14.0764</ele>
        <time>2013-05-07T17:07:00Z</time>
      </trkpt>
      <trkpt lat="59.9517965" lon="17.6701035">
        <ele>13.5958</ele>
        <time>2013-05-07T17:07:01Z</time>
      </trkpt>
      <trkpt lat="59.951781" lon="17.6702761">
        <ele>14.0764</ele>
        <time>2013-05-07T17:07:02Z</time>
      </trkpt>
      <trkpt lat="59.9517663" lon="17.6704471">
        <ele>14.0764</ele>
        <time>2013-05-07T17:07:03Z</time>
      </trkpt>
      <trkpt lat="59.9517529" lon="17.6706159">
        <ele>14.0764</ele>
        <time>2013-05-07T17:07:04Z</time>
      </trkpt>
      <trkpt lat="59.9517372" lon="17.6707864">
        <ele>14.557</ele>
        <time>2013-05-07T17:07:05Z</time>
      </trkpt>
      <trkpt lat="59.9517287" lon="17.6709569">
        <ele>14.557</ele>
        <time>2013-05-07T17:07:06Z</time>
      </trkpt>
      <trkpt lat="59.9517254" lon="17.6711516">
        <ele>15.0377</ele>
        <time>2013-05-07T17:07:07Z</time>
      </trkpt>
      <trkpt lat="59.9517272" lon="17.6713">
        <ele>17.4412</ele>
        <time>2013-05-07T17:07:08Z</time>
      </trkpt>
      <trkpt lat="59.9517254" lon="17.671444">
        <ele>19.3638</ele>
        <time>2013-05-07T17:07:09Z</time>
      </trkpt>
      <trkpt lat="59.9517429" lon="17.6715929">
        <ele>19.3638</ele>
        <time>2013-05-07T17:07:10Z</time>
      </trkpt>
      <trkpt lat="59.9517681" lon="17.6717354">
        <ele>17.9218</ele>
        <time>2013-05-07T17:07:11Z</time>
      </trkpt>
      <trkpt lat="59.9517773" lon="17.6718793">
        <ele>18.8831</ele>
        <time>2013-05-07T17:07:12Z</time>
      </trkpt>
      <trkpt lat="59.951788" lon="17.6720102">
        <ele>17.9218</ele>
        <time>2013-05-07T17:07:13Z</time>
      </trkpt>
      <trkpt lat="59.9518053" lon="17.6721532">
        <ele>17.4412</ele>
        <time>2013-05-07T17:07:14Z</time>
      </trkpt>
      <trkpt lat="59.9518202" lon="17.6722983">
        <ele>18.4023</ele>
        <time>2013-05-07T17:07:15Z</time>
      </trkpt>
      <trkpt lat="59.9518315" lon="17.672457">
        <ele>18.4023</ele>
        <time>2013-05-07T17:07:16Z</time>
      </trkpt>
      <trkpt lat="59.9518462" lon="17.6726233">
        <ele>19.3638</ele>
        <time>2013-05-07T17:07:17Z</time>
      </trkpt>
      <trkpt lat="59.9518649" lon="17.6727714">
        <ele>20.325</ele>
        <time>2013-05-07T17:07:18Z</time>
      </trkpt>
      <trkpt lat="59.9518887" lon="17.6729258">
        <ele>21.2864</ele>
        <time>2013-05-07T17:07:19Z</time>
      </trkpt>
      <trkpt lat="59.9519114" lon="17.673082">
        <ele>21.2864</ele>
        <time>2013-05-07T17:07:20Z</time>
      </trkpt>
      <trkpt lat="59.9519316" lon="17.6732376">
        <ele>21.767</ele>
        <time>2013-05-07T17:07:21Z</time>
      </trkpt>
      <trkpt lat="59.9519533" lon="17.6733951">
        <ele>21.767</ele>
        <time>2013-05-07T17:07:22Z</time>
      </trkpt>
      <trkpt lat="59.9519741" lon="17.6735479">
        <ele>22.2476</ele>
        <time>2013-05-07T17:07:23Z</time>
      </trkpt>
      <trkpt lat="59.9519996" lon="17.6737007">
        <ele>22.2476</ele>
        <time>2013-05-07T17:07:24Z</time>
      </trkpt>
      <trkpt lat="59.9520301" lon="17.6738621">
        <ele>22.7283</ele>
        <time>2013-05-07T17:07:25Z</time>
      </trkpt>
      <trkpt lat="59.9520612" lon="17.6740213">
        <ele>23.209</ele>
        <time>2013-05-07T17:07:26Z</time>
      </trkpt>
      <trkpt lat="59.9520917" lon="17.674167">
        <ele>23.6896</ele>
        <time>2013-05-07T17:07:27Z</time>
      </trkpt>
      <trkpt lat="59.9521228" lon="17.6743082">
        <ele>24.1703</ele>
        <time>2013-05-07T17:07:28Z</time>
      </trkpt>
      <trkpt lat="59.952156" lon="17.6744491">
        <ele>24.651</ele>
        <time>2013-05-07T17:07:29Z</time>
      </trkpt>
      <trkpt lat="59.9521861" lon="17.6745813">
        <ele>25.6123</ele>
        <time>2013-05-07T17:07:30Z</time>
      </trkpt>
      <trkpt lat="59.9522093" lon="17.6747148">
        <ele>26.0929</ele>
        <time>2013-05-07T17:07:31Z</time>
      </trkpt>
      <trkpt lat="59.9522289" lon="17.6748432">
        <ele>25.6123</ele>
        <time>2013-05-07T17:07:32Z</time>
      </trkpt>
      <trkpt lat="59.9522523" lon="17.6749755">
        <ele>24.1703</ele>
        <time>2013-05-07T17:07:33Z</time>
      </trkpt>
      <trkpt lat="59.9522791" lon="17.6751031">
        <ele>23.209</ele>
        <time>2013-05-07T17:07:34Z</time>
      </trkpt>
      <trkpt lat="59.9523021" lon="17.6752139">
        <ele>24.1703</ele>
        <time>2013-05-07T17:07:35Z</time>
      </trkpt>
      <trkpt lat="59.9523394" lon="17.6753216">
        <ele>25.1317</ele>
        <time>2013-05-07T17:07:36Z</time>
      </trkpt>
      <trkpt lat="59.9523778" lon="17.675435">
        <ele>24.1703</ele>
        <time>2013-05-07T17:07:37Z</time>
      </trkpt>
      <trkpt lat="59.9524185" lon="17.6755477">
        <ele>23.6896</ele>
        <time>2013-05-07T17:07:38Z</time>
      </trkpt>
      <trkpt lat="59.952458" lon="17.6756614">
        <ele>24.1703</ele>
        <time>2013-05-07T17:07:39Z</time>
      </trkpt>
      <trkpt lat="59.9525027" lon="17.6757732">
        <ele>25.1317</ele>
        <time>2013-05-07T17:07:40Z</time>
      </trkpt>
      <trkpt lat="59.9525507" lon="17.6758917">
        <ele>25.6123</ele>
        <time>2013-05-07T17:07:41Z</time>
      </trkpt>
      <trkpt lat="59.9526009" lon="17.6760178">
        <ele>26.0929</ele>
        <time>2013-05-07T17:07:42Z</time>
      </trkpt>
      <trkpt lat="59.9526555" lon="17.67615">
        <ele>27.0543</ele>
        <time>2013-05-07T17:07:43Z</time>
      </trkpt>
      <trkpt lat="59.9527056" lon="17.6762887">
        <ele>27.5349</ele>
        <time>2013-05-07T17:07:44Z</time>
      </trkpt>
      <trkpt lat="59.9527564" lon="17.676432">
        <ele>27.0543</ele>
        <time>2013-05-07T17:07:45Z</time>
      </trkpt>
      <trkpt lat="59.9528074" lon="17.676572">
        <ele>27.0543</ele>
        <time>2013-05-07T17:07:46Z</time>
      </trkpt>
      <trkpt lat="59.9528561" lon="17.6767081">
        <ele>27.0543</ele>
        <time>2013-05-07T17:07:47Z</time>
      </trkpt>
      <trkpt lat="59.9529096" lon="17.6768424">
        <ele>28.0155</ele>
        <time>2013-05-07T17:07:48Z</time>
      </trkpt>
      <trkpt lat="59.9529657" lon="17.6769772">
        <ele>28.4962</ele>
        <time>2013-05-07T17:07:49Z</time>
      </trkpt>
      <trkpt lat="59.9530203" lon="17.6771149">
        <ele>29.4575</ele>
        <time>2013-05-07T17:07:50Z</time>
      </trkpt>
      <trkpt lat="59.9530712" lon="17.6772546">
        <ele>29.9381</ele>
        <time>2013-05-07T17:07:51Z</time>
      </trkpt>
      <trkpt lat="59.9531188" lon="17.6773961">
        <ele>29.9381</ele>
        <time>2013-05-07T17:07:52Z</time>
      </trkpt>
      <trkpt lat="59.9531687" lon="17.6775365">
        <ele>30.4188</ele>
        <time>2013-05-07T17:07:53Z</time>
      </trkpt>
      <trkpt lat="59.9532163" lon="17.677678">
        <ele>29.9381</ele>
        <time>2013-05-07T17:07:54Z</time>
      </trkpt>
      <trkpt lat="59.9532671" lon="17.67782">
        <ele>28.4962</ele>
        <time>2013-05-07T17:07:55Z</time>
      </trkpt>
      <trkpt lat="59.9533095" lon="17.6779697">
        <ele>27.5349</ele>
        <time>2013-05-07T17:07:56Z</time>
      </trkpt>
      <trkpt lat="59.9533593" lon="17.6781144">
        <ele>28.0155</ele>
        <time>2013-05-07T17:07:57Z</time>
      </trkpt>
      <trkpt lat="59.9534076" lon="17.6782587">
        <ele>27.5349</ele>
        <time>2013-05-07T17:07:58Z</time>
      </trkpt>
      <trkpt lat="59.9534568" lon="17.6784073">
        <ele>28.4962</ele>
        <time>2013-05-07T17:07:59Z</time>
      </trkpt>
      <trkpt lat="59.953507" lon="17.678556">
        <ele>28.4962</ele>
        <time>2013-05-07T17:08:00Z</time>
      </trkpt>
      <trkpt lat="59.9535448" lon="17.6787269">
        <ele>24.651</ele>
        <time>2013-05-07T17:08:01Z</time>
      </trkpt>
      <trkpt lat="59.9535908" lon="17.6788751">
        <ele>25.1317</ele>
        <time>2013-05-07T17:08:02Z</time>
      </trkpt>
      <trkpt lat="59.9536344" lon="17.679033">
        <ele>22.7283</ele>
        <time>2013-05-07T17:08:03Z</time>
      </trkpt>
      <trkpt lat="59.9536844" lon="17.6791837">
        <ele>21.767</ele>
        <time>2013-05-07T17:08:04Z</time>
      </trkpt>
      <trkpt lat="59.953735" lon="17.6793311">
        <ele>21.2864</ele>
        <time>2013-05-07T17:08:05Z</time>
      </trkpt>
      <trkpt lat="59.9537928" lon="17.679481">
        <ele>21.767</ele>
        <time>2013-05-07T17:08:06Z</time>
      </trkpt>
      <trkpt lat="59.9538466" lon="17.6796267">
        <ele>21.767</ele>
        <time>2013-05-07T17:08:07Z</time>
      </trkpt>
      <trkpt lat="59.9539067" lon="17.6797723">
        <ele>22.7283</ele>
        <time>2013-05-07T17:08:08Z</time>
      </trkpt>
      <trkpt lat="59.9539647" lon="17.679926">
        <ele>22.7283</ele>
        <time>2013-05-07T17:08:09Z</time>
      </trkpt>
      <trkpt lat="59.9540175" lon="17.6800767">
        <ele>23.6896</ele>
        <time>2013-05-07T17:08:10Z</time>
      </trkpt>
      <trkpt lat="59.9540675" lon="17.6802233">
        <ele>23.6896</ele>
        <time>2013-05-07T17:08:11Z</time>
      </trkpt>
      <trkpt lat="59.9541166" lon="17.6803693">
        <ele>22.7283</ele>
        <time>2013-05-07T17:08:12Z</time>
      </trkpt>
      <trkpt lat="59.954168" lon="17.6805196">
        <ele>22.7283</ele>
        <time>2013-05-07T17:08:13Z</time>
      </trkpt>
      <trkpt lat="59.954219" lon="17.6806737">
        <ele>22.7283</ele>
        <time>2013-05-07T17:08:14Z</time>
      </trkpt>
      <trkpt lat="59.9542693" lon="17.6808227">
        <ele>22.7283</ele>
        <time>2013-05-07T17:08:15Z</time>
      </trkpt>
      <trkpt lat="59.9543208" lon="17.680959">
        <ele>22.7283</ele>
        <time>2013-05-07T17:08:16Z</time>
      </trkpt>
      <trkpt lat="59.9543763" lon="17.6810734">
        <ele>22.7283</ele>
        <time>2013-05-07T17:08:17Z</time>
      </trkpt>
      <trkpt lat="59.9544452" lon="17.6811651">
        <ele>23.209</ele>
        <time>2013-05-07T17:08:18Z</time>
      </trkpt>
      <trkpt lat="59.9545129" lon="17.6812636">
        <ele>23.6896</ele>
        <time>2013-05-07T17:08:19Z</time>
      </trkpt>
      <trkpt lat="59.9545741" lon="17.6813735">
        <ele>23.6896</ele>
        <time>2013-05-07T17:08:20Z</time>
      </trkpt>
      <trkpt lat="59.9546295" lon="17.681495">
        <ele>23.6896</ele>
        <time>2013-05-07T17:08:21Z</time>
      </trkpt>
      <trkpt lat="59.9546814" lon="17.6816216">
        <ele>23.209</ele>
        <time>2013-05-07T17:08:22Z</time>
      </trkpt>
      <trkpt lat="59.9547346" lon="17.6817526">
        <ele>23.209</ele>
        <time>2013-05-07T17:08:23Z</time>
      </trkpt>
      <trkpt lat="59.9547876" lon="17.6818842">
        <ele>24.1703</ele>
        <time>2013-05-07T17:08:24Z</time>
      </trkpt>
      <trkpt lat="59.9548383" lon="17.6820184">
        <ele>24.1703</ele>
        <time>2013-05-07T17:08:25Z</time>
      </trkpt>
      <trkpt lat="59.9548841" lon="17.6821615">
        <ele>25.1317</ele>
        <time>2013-05-07T17:08:26Z</time>
      </trkpt>
      <trkpt lat="59.9549321" lon="17.6823052">
        <ele>25.6123</ele>
        <time>2013-05-07T17:08:27Z</time>
      </trkpt>
      <trkpt lat="59.9549781" lon="17.6824488">
        <ele>26.0929</ele>
        <time>2013-05-07T17:08:28Z</time>
      </trkpt>
      <trkpt lat="59.9550216" lon="17.6825943">
        <ele>26.0929</ele>
        <time>2013-05-07T17:08:29Z</time>
      </trkpt>
      <trkpt lat="59.9550649" lon="17.6827394">
        <ele>27.5349</ele>
        <time>2013-05-07T17:08:30Z</time>
      </trkpt>
      <trkpt lat="59.955103" lon="17.682884">
        <ele>28.4962</ele>
        <time>2013-05-07T17:08:31Z</time>
      </trkpt>
      <trkpt lat="59.9551357" lon="17.6830363">
        <ele>30.4188</ele>
        <time>2013-05-07T17:08:32Z</time>
      </trkpt>
      <trkpt lat="59.9551737" lon="17.6831875">
        <ele>30.4188</ele>
        <time>2013-05-07T17:08:33Z</time>
      </trkpt>
      <trkpt lat="59.9552127" lon="17.6833419">
        <ele>31.8607</ele>
        <time>2013-05-07T17:08:34Z</time>
      </trkpt>
      <trkpt lat="59.9552494" lon="17.6834987">
        <ele>31.8607</ele>
        <time>2013-05-07T17:08:35Z</time>
      </trkpt>
      <trkpt lat="59.9552858" lon="17.6836549">
        <ele>31.8607</ele>
        <time>2013-05-07T17:08:36Z</time>
      </trkpt>
      <trkpt lat="59.9553203" lon="17.6838112">
        <ele>32.3416</ele>
        <time>2013-05-07T17:08:37Z</time>
      </trkpt>
      <trkpt lat="59.9553526" lon="17.6839707">
        <ele>32.3416</ele>
        <time>2013-05-07T17:08:38Z</time>
      </trkpt>
      <trkpt lat="59.9553867" lon="17.6841351">
        <ele>32.3416</ele>
        <time>2013-05-07T17:08:39Z</time>
      </trkpt>
      <trkpt lat="59.9554215" lon="17.6843062">
        <ele>31.3801</ele>
        <time>2013-05-07T17:08:40Z</time>
      </trkpt>
      <trkpt lat="59.9554552" lon="17.6844738">
        <ele>30.8995</ele>
        <time>2013-05-07T17:08:41Z</time>
      </trkpt>
      <trkpt lat="59.9554856" lon="17.684641">
        <ele>30.4188</ele>
        <time>2013-05-07T17:08:42Z</time>
      </trkpt>
      <trkpt lat="59.9555132" lon="17.684811">
        <ele>29.9381</ele>
        <time>2013-05-07T17:08:43Z</time>
      </trkpt>
      <trkpt lat="59.9555374" lon="17.6849814">
        <ele>29.9381</ele>
        <time>2013-05-07T17:08:44Z</time>
      </trkpt>
      <trkpt lat="59.9555645" lon="17.6851569">
        <ele>29.9381</ele>
        <time>2013-05-07T17:08:45Z</time>
      </trkpt>
      <trkpt lat="59.9555947" lon="17.6853304">
        <ele>28.9769</ele>
        <time>2013-05-07T17:08:46Z</time>
      </trkpt>
      <trkpt lat="59.9556211" lon="17.6855067">
        <ele>28.9769</ele>
        <time>2013-05-07T17:08:47Z</time>
      </trkpt>
      <trkpt lat="59.955649" lon="17.685681">
        <ele>28.4962</ele>
        <time>2013-05-07T17:08:48Z</time>
      </trkpt>
      <trkpt lat="59.9556752" lon="17.6858569">
        <ele>28.0155</ele>
        <time>2013-05-07T17:08:49Z</time>
      </trkpt>
      <trkpt lat="59.9557013" lon="17.6860315">
        <ele>27.5349</ele>
        <time>2013-05-07T17:08:50Z</time>
      </trkpt>
      <trkpt lat="59.9557272" lon="17.6862091">
        <ele>27.5349</ele>
        <time>2013-05-07T17:08:51Z</time>
      </trkpt>
      <trkpt lat="59.9557509" lon="17.686384">
        <ele>27.5349</ele>
        <time>2013-05-07T17:08:52Z</time>
      </trkpt>
      <trkpt lat="59.9557782" lon="17.6865651">
        <ele>26.5736</ele>
        <time>2013-05-07T17:08:53Z</time>
      </trkpt>
      <trkpt lat="59.955809" lon="17.6867453">
        <ele>25.6123</ele>
        <time>2013-05-07T17:08:54Z</time>
      </trkpt>
      <trkpt lat="59.9558342" lon="17.6869151">
        <ele>25.1317</ele>
        <time>2013-05-07T17:08:55Z</time>
      </trkpt>
      <trkpt lat="59.9558712" lon="17.6870892">
        <ele>24.651</ele>
        <time>2013-05-07T17:08:56Z</time>
      </trkpt>
      <trkpt lat="59.9558986" lon="17.6872689">
        <ele>25.1317</ele>
        <time>2013-05-07T17:08:57Z</time>
      </trkpt>
      <trkpt lat="59.9559249" lon="17.6874428">
        <ele>25.6123</ele>
        <time>2013-05-07T17:08:58Z</time>
      </trkpt>
      <trkpt lat="59.9559497" lon="17.6876129">
        <ele>26.0929</ele>
        <time>2013-05-07T17:08:59Z</time>
      </trkpt>
      <trkpt lat="59.9559752" lon="17.6877818">
        <ele>26.5736</ele>
        <time>2013-05-07T17:09:00Z</time>
      </trkpt>
      <trkpt lat="59.9560001" lon="17.6879506">
        <ele>27.5349</ele>
        <time>2013-05-07T17:09:01Z</time>
      </trkpt>
      <trkpt lat="59.956025" lon="17.6881184">
        <ele>27.5349</ele>
        <time>2013-05-07T17:09:02Z</time>
      </trkpt>
      <trkpt lat="59.9560524" lon="17.6882867">
        <ele>27.5349</ele>
        <time>2013-05-07T17:09:03Z</time>
      </trkpt>
      <trkpt lat="59.9560784" lon="17.6884526">
        <ele>28.4962</ele>
        <time>2013-05-07T17:09:04Z</time>
      </trkpt>
      <trkpt lat="59.9561041" lon="17.6886178">
        <ele>29.4575</ele>
        <time>2013-05-07T17:09:05Z</time>
      </trkpt>
      <trkpt lat="59.9561337" lon="17.6887851">
        <ele>29.9381</ele>
        <time>2013-05-07T17:09:06Z</time>
      </trkpt>
      <trkpt lat="59.9561581" lon="17.6889481">
        <ele>31.3801</ele>
        <time>2013-05-07T17:09:07Z</time>
      </trkpt>
      <trkpt lat="59.9561821" lon="17.6891162">
        <ele>32.3416</ele>
        <time>2013-05-07T17:09:08Z</time>
      </trkpt>
      <trkpt lat="59.9562104" lon="17.6892835">
        <ele>34.2642</ele>
        <time>2013-05-07T17:09:09Z</time>
      </trkpt>
      <trkpt lat="59.9562421" lon="17.6894492">
        <ele>34.2642</ele>
        <time>2013-05-07T17:09:10Z</time>
      </trkpt>
      <trkpt lat="59.9562784" lon="17.6896065">
        <ele>34.2642</ele>
        <time>2013-05-07T17:09:11Z</time>
      </trkpt>
      <trkpt lat="59.9563124" lon="17.689765">
        <ele>34.7449</ele>
        <time>2013-05-07T17:09:12Z</time>
      </trkpt>
      <trkpt lat="59.9563447" lon="17.6899202">
        <ele>35.2255</ele>
        <time>2013-05-07T17:09:13Z</time>
      </trkpt>
      <trkpt lat="59.9563845" lon="17.6900673">
        <ele>35.2255</ele>
        <time>2013-05-07T17:09:14Z</time>
      </trkpt>
      <trkpt lat="59.9564259" lon="17.6902077">
        <ele>34.2642</ele>
        <time>2013-05-07T17:09:15Z</time>
      </trkpt>
      <trkpt lat="59.9564695" lon="17.6903468">
        <ele>33.7834</ele>
        <time>2013-05-07T17:09:16Z</time>
      </trkpt>
      <trkpt lat="59.9565156" lon="17.6904883">
        <ele>32.8223</ele>
        <time>2013-05-07T17:09:17Z</time>
      </trkpt>
      <trkpt lat="59.9565653" lon="17.6906287">
        <ele>31.8607</ele>
        <time>2013-05-07T17:09:18Z</time>
      </trkpt>
      <trkpt lat="59.9566212" lon="17.6907659">
        <ele>29.9381</ele>
        <time>2013-05-07T17:09:19Z</time>
      </trkpt>
      <trkpt lat="59.9566699" lon="17.6909199">
        <ele>29.4575</ele>
        <time>2013-05-07T17:09:20Z</time>
      </trkpt>
      <trkpt lat="59.9567172" lon="17.6910551">
        <ele>27.5349</ele>
        <time>2013-05-07T17:09:21Z</time>
      </trkpt>
      <trkpt lat="59.9567697" lon="17.6911885">
        <ele>26.5736</ele>
        <time>2013-05-07T17:09:22Z</time>
      </trkpt>
      <trkpt lat="59.9568211" lon="17.6913249">
        <ele>25.1317</ele>
        <time>2013-05-07T17:09:23Z</time>
      </trkpt>
      <trkpt lat="59.9568668" lon="17.6914698">
        <ele>25.1317</ele>
        <time>2013-05-07T17:09:24Z</time>
      </trkpt>
      <trkpt lat="59.9569201" lon="17.6916293">
        <ele>24.1703</ele>
        <time>2013-05-07T17:09:25Z</time>
      </trkpt>
      <trkpt lat="59.9569703" lon="17.6917853">
        <ele>24.1703</ele>
        <time>2013-05-07T17:09:26Z</time>
      </trkpt>
      <trkpt lat="59.957013" lon="17.6919322">
        <ele>23.209</ele>
        <time>2013-05-07T17:09:27Z</time>
      </trkpt>
      <trkpt lat="59.9570663" lon="17.6920867">
        <ele>23.209</ele>
        <time>2013-05-07T17:09:28Z</time>
      </trkpt>
      <trkpt lat="59.95712" lon="17.6922411">
        <ele>23.209</ele>
        <time>2013-05-07T17:09:29Z</time>
      </trkpt>
      <trkpt lat="59.9571812" lon="17.6923971">
        <ele>21.767</ele>
        <time>2013-05-07T17:09:30Z</time>
      </trkpt>
      <trkpt lat="59.9572369" lon="17.692553">
        <ele>21.2864</ele>
        <time>2013-05-07T17:09:31Z</time>
      </trkpt>
      <trkpt lat="59.9572921" lon="17.6927117">
        <ele>20.8057</ele>
        <time>2013-05-07T17:09:32Z</time>
      </trkpt>
      <trkpt lat="59.9573455" lon="17.6928691">
        <ele>19.8444</ele>
        <time>2013-05-07T17:09:33Z</time>
      </trkpt>
      <trkpt lat="59.9573975" lon="17.6930181">
        <ele>18.8831</ele>
        <time>2013-05-07T17:09:34Z</time>
      </trkpt>
      <trkpt lat="59.9574485" lon="17.693168">
        <ele>18.4023</ele>
        <time>2013-05-07T17:09:35Z</time>
      </trkpt>
      <trkpt lat="59.9574986" lon="17.6933175">
        <ele>18.4023</ele>
        <time>2013-05-07T17:09:36Z</time>
      </trkpt>
      <trkpt lat="59.957549" lon="17.6934686">
        <ele>18.8831</ele>
        <time>2013-05-07T17:09:37Z</time>
      </trkpt>
      <trkpt lat="59.9575971" lon="17.6936169">
        <ele>19.3638</ele>
        <time>2013-05-07T17:09:38Z</time>
      </trkpt>
      <trkpt lat="59.957665" lon="17.6937938">
        <ele>19.8444</ele>
        <time>2013-05-07T17:09:39Z</time>
      </trkpt>
      <trkpt lat="59.9577132" lon="17.6939549">
        <ele>19.8444</ele>
        <time>2013-05-07T17:09:40Z</time>
      </trkpt>
      <trkpt lat="59.9577561" lon="17.6941033">
        <ele>20.325</ele>
        <time>2013-05-07T17:09:41Z</time>
      </trkpt>
      <trkpt lat="59.9577976" lon="17.6942501">
        <ele>20.8057</ele>
        <time>2013-05-07T17:09:42Z</time>
      </trkpt>
      <trkpt lat="59.957847" lon="17.6943791">
        <ele>21.767</ele>
        <time>2013-05-07T17:09:43Z</time>
      </trkpt>
      <trkpt lat="59.9578924" lon="17.6945142">
        <ele>21.767</ele>
        <time>2013-05-07T17:09:44Z</time>
      </trkpt>
      <trkpt lat="59.9579397" lon="17.694649">
        <ele>21.2864</ele>
        <time>2013-05-07T17:09:45Z</time>
      </trkpt>
      <trkpt lat="59.9579892" lon="17.6947802">
        <ele>22.2476</ele>
        <time>2013-05-07T17:09:46Z</time>
      </trkpt>
      <trkpt lat="59.958038" lon="17.6949127">
        <ele>22.7283</ele>
        <time>2013-05-07T17:09:47Z</time>
      </trkpt>
      <trkpt lat="59.9580867" lon="17.6950457">
        <ele>23.209</ele>
        <time>2013-05-07T17:09:48Z</time>
      </trkpt>
      <trkpt lat="59.9581352" lon="17.6951804">
        <ele>23.6896</ele>
        <time>2013-05-07T17:09:49Z</time>
      </trkpt>
      <trkpt lat="59.9581835" lon="17.6953172">
        <ele>24.1703</ele>
        <time>2013-05-07T17:09:50Z</time>
      </trkpt>
      <trkpt lat="59.9582348" lon="17.6954523">
        <ele>24.651</ele>
        <time>2013-05-07T17:09:51Z</time>
      </trkpt>
      <trkpt lat="59.9582898" lon="17.6955897">
        <ele>25.1317</ele>
        <time>2013-05-07T17:09:52Z</time>
      </trkpt>
      <trkpt lat="59.958342" lon="17.6957229">
        <ele>25.1317</ele>
        <time>2013-05-07T17:09:53Z</time>
      </trkpt>
      <trkpt lat="59.9583969" lon="17.6958499">
        <ele>26.0929</ele>
        <time>2013-05-07T17:09:54Z</time>
      </trkpt>
      <trkpt lat="59.9584565" lon="17.6959843">
        <ele>27.0543</ele>
        <time>2013-05-07T17:09:55Z</time>
      </trkpt>
      <trkpt lat="59.9585156" lon="17.6961153">
        <ele>27.5349</ele>
        <time>2013-05-07T17:09:56Z</time>
      </trkpt>
      <trkpt lat="59.9585664" lon="17.6962464">
        <ele>27.5349</ele>
        <time>2013-05-07T17:09:57Z</time>
      </trkpt>
      <trkpt lat="59.95862" lon="17.6963795">
        <ele>27.5349</ele>
        <time>2013-05-07T17:09:58Z</time>
      </trkpt>
      <trkpt lat="59.9586689" lon="17.6965103">
        <ele>28.0155</ele>
        <time>2013-05-07T17:09:59Z</time>
      </trkpt>
      <trkpt lat="59.9587093" lon="17.6966444">
        <ele>28.9769</ele>
        <time>2013-05-07T17:10:00Z</time>
      </trkpt>
      <trkpt lat="59.9587496" lon="17.6967802">
        <ele>28.4962</ele>
        <time>2013-05-07T17:10:01Z</time>
      </trkpt>
      <trkpt lat="59.9587808" lon="17.696913">
        <ele>29.9381</ele>
        <time>2013-05-07T17:10:02Z</time>
      </trkpt>
      <trkpt lat="59.9588086" lon="17.6970441">
        <ele>29.9381</ele>
        <time>2013-05-07T17:10:03Z</time>
      </trkpt>
      <trkpt lat="59.9588369" lon="17.6971751">
        <ele>30.8995</ele>
        <time>2013-05-07T17:10:04Z</time>
      </trkpt>
      <trkpt lat="59.9588522" lon="17.6973111">
        <ele>31.8607</ele>
        <time>2013-05-07T17:10:05Z</time>
      </trkpt>
      <trkpt lat="59.9588733" lon="17.6974452">
        <ele>32.3416</ele>
        <time>2013-05-07T17:10:06Z</time>
      </trkpt>
      <trkpt lat="59.9588978" lon="17.6975797">
        <ele>31.8607</ele>
        <time>2013-05-07T17:10:07Z</time>
      </trkpt>
      <trkpt lat="59.958919" lon="17.6977136">
        <ele>32.3416</ele>
        <time>2013-05-07T17:10:08Z</time>
      </trkpt>
      <trkpt lat="59.9589377" lon="17.6978489">
        <ele>32.3416</ele>
        <time>2013-05-07T17:10:09Z</time>
      </trkpt>
      <trkpt lat="59.9589433" lon="17.6979881">
        <ele>33.3029</ele>
        <time>2013-05-07T17:10:10Z</time>
      </trkpt>
      <trkpt lat="59.9589571" lon="17.6981212">
        <ele>34.7449</ele>
        <time>2013-05-07T17:10:11Z</time>
      </trkpt>
      <trkpt lat="59.958965" lon="17.6982616">
        <ele>35.2255</ele>
        <time>2013-05-07T17:10:12Z</time>
      </trkpt>
      <trkpt lat="59.9589811" lon="17.6984173">
        <ele>35.2255</ele>
        <time>2013-05-07T17:10:13Z</time>
      </trkpt>
      <trkpt lat="59.9589933" lon="17.6985683">
        <ele>34.7449</ele>
        <time>2013-05-07T17:10:14Z</time>
      </trkpt>
      <trkpt lat="59.959001" lon="17.6987307">
        <ele>34.2642</ele>
        <time>2013-05-07T17:10:15Z</time>
      </trkpt>
      <trkpt lat="59.9590009" lon="17.6988882">
        <ele>35.2255</ele>
        <time>2013-05-07T17:10:16Z</time>
      </trkpt>
      <trkpt lat="59.9590075" lon="17.6990421">
        <ele>35.7061</ele>
        <time>2013-05-07T17:10:17Z</time>
      </trkpt>
      <trkpt lat="59.9590138" lon="17.6992045">
        <ele>34.7449</ele>
        <time>2013-05-07T17:10:18Z</time>
      </trkpt>
      <trkpt lat="59.9590232" lon="17.6993637">
        <ele>34.2642</ele>
        <time>2013-05-07T17:10:19Z</time>
      </trkpt>
      <trkpt lat="59.9590246" lon="17.6995145">
        <ele>33.7834</ele>
        <time>2013-05-07T17:10:20Z</time>
      </trkpt>
      <trkpt lat="59.9590305" lon="17.6996623">
        <ele>33.7834</ele>
        <time>2013-05-07T17:10:21Z</time>
      </trkpt>
      <trkpt lat="59.9590362" lon="17.6998074">
        <ele>34.7449</ele>
        <time>2013-05-07T17:10:22Z</time>
      </trkpt>
      <trkpt lat="59.9590471" lon="17.6999529">
        <ele>34.2642</ele>
        <time>2013-05-07T17:10:23Z</time>
      </trkpt>
      <trkpt lat="59.959059" lon="17.7001001">
        <ele>34.2642</ele>
        <time>2013-05-07T17:10:24Z</time>
      </trkpt>
      <trkpt lat="59.9590712" lon="17.7002487">
        <ele>34.7449</ele>
        <time>2013-05-07T17:10:25Z</time>
      </trkpt>
      <trkpt lat="59.9590844" lon="17.7003969">
        <ele>34.7449</ele>
        <time>2013-05-07T17:10:26Z</time>
      </trkpt>
      <trkpt lat="59.9590953" lon="17.7005474">
        <ele>35.2255</ele>
        <time>2013-05-07T17:10:27Z</time>
      </trkpt>
      <trkpt lat="59.9591083" lon="17.7006961">
        <ele>35.2255</ele>
        <time>2013-05-07T17:10:28Z</time>
      </trkpt>
      <trkpt lat="59.9591258" lon="17.7008423">
        <ele>35.2255</ele>
        <time>2013-05-07T17:10:29Z</time>
      </trkpt>
      <trkpt lat="59.9591429" lon="17.7009879">
        <ele>34.2642</ele>
        <time>2013-05-07T17:10:30Z</time>
      </trkpt>
      <trkpt lat="59.9591615" lon="17.7011318">
        <ele>33.7834</ele>
        <time>2013-05-07T17:10:31Z</time>
      </trkpt>
      <trkpt lat="59.9591808" lon="17.7012816">
        <ele>33.7834</ele>
        <time>2013-05-07T17:10:32Z</time>
      </trkpt>
      <trkpt lat="59.9591946" lon="17.7014231">
        <ele>34.2642</ele>
        <time>2013-05-07T17:10:33Z</time>
      </trkpt>
      <trkpt lat="59.9592179" lon="17.7015567">
        <ele>35.2255</ele>
        <time>2013-05-07T17:10:34Z</time>
      </trkpt>
      <trkpt lat="59.9592408" lon="17.7016948">
        <ele>34.2642</ele>
        <time>2013-05-07T17:10:35Z</time>
      </trkpt>
      <trkpt lat="59.9592843" lon="17.7018101">
        <ele>32.8223</ele>
        <time>2013-05-07T17:10:36Z</time>
      </trkpt>
      <trkpt lat="59.9593263" lon="17.7019344">
        <ele>31.8607</ele>
        <time>2013-05-07T17:10:37Z</time>
      </trkpt>
      <trkpt lat="59.959366" lon="17.7020901">
        <ele>33.7834</ele>
        <time>2013-05-07T17:10:38Z</time>
      </trkpt>
      <trkpt lat="59.9593904" lon="17.7022123">
        <ele>34.2642</ele>
        <time>2013-05-07T17:10:39Z</time>
      </trkpt>
      <trkpt lat="59.9594195" lon="17.7023418">
        <ele>34.7449</ele>
        <time>2013-05-07T17:10:40Z</time>
      </trkpt>
      <trkpt lat="59.9594568" lon="17.7024744">
        <ele>35.2255</ele>
        <time>2013-05-07T17:10:41Z</time>
      </trkpt>
      <trkpt lat="59.9594656" lon="17.7025993">
        <ele>35.7061</ele>
        <time>2013-05-07T17:10:42Z</time>
      </trkpt>
      <trkpt lat="59.9595054" lon="17.7027269">
        <ele>35.2255</ele>
        <time>2013-05-07T17:10:43Z</time>
      </trkpt>
      <trkpt lat="59.9595501" lon="17.7028777">
        <ele>35.7061</ele>
        <time>2013-05-07T17:10:44Z</time>
      </trkpt>
      <trkpt lat="59.9595826" lon="17.7029976">
        <ele>34.7449</ele>
        <time>2013-05-07T17:10:45Z</time>
      </trkpt>
      <trkpt lat="59.9596227" lon="17.7031433">
        <ele>35.2255</ele>
        <time>2013-05-07T17:10:46Z</time>
      </trkpt>
      <trkpt lat="59.959669" lon="17.7032646">
        <ele>34.7449</ele>
        <time>2013-05-07T17:10:47Z</time>
      </trkpt>
      <trkpt lat="59.9597027" lon="17.7033814">
        <ele>35.2255</ele>
        <time>2013-05-07T17:10:48Z</time>
      </trkpt>
      <trkpt lat="59.9597432" lon="17.7035035">
        <ele>34.7449</ele>
        <time>2013-05-07T17:10:49Z</time>
      </trkpt>
      <trkpt lat="59.9597774" lon="17.7036306">
        <ele>34.2642</ele>
        <time>2013-05-07T17:10:50Z</time>
      </trkpt>
      <trkpt lat="59.9598122" lon="17.7037339">
        <ele>34.7449</ele>
        <time>2013-05-07T17:10:51Z</time>
      </trkpt>
      <trkpt lat="59.9598428" lon="17.7038112">
        <ele>33.7834</ele>
        <time>2013-05-07T17:10:52Z</time>
      </trkpt>
      <trkpt lat="59.9598614" lon="17.7038639">
        <ele>33.3029</ele>
        <time>2013-05-07T17:10:53Z</time>
      </trkpt>
      <trkpt lat="59.9598706" lon="17.7039054">
        <ele>33.3029</ele>
        <time>2013-05-07T17:10:54Z</time>
      </trkpt>
      <trkpt lat="59.9598873" lon="17.7039557">
        <ele>33.3029</ele>
        <time>2013-05-07T17:10:55Z</time>
      </trkpt>
      <trkpt lat="59.9599054" lon="17.7040089">
        <ele>33.3029</ele>
        <time>2013-05-07T17:10:56Z</time>
      </trkpt>
      <trkpt lat="59.9599241" lon="17.7040649">
        <ele>33.3029</ele>
        <time>2013-05-07T17:10:57Z</time>
      </trkpt>
      <trkpt lat="59.959953" lon="17.7041368">
        <ele>34.2642</ele>
        <time>2013-05-07T17:10:58Z</time>
      </trkpt>
      <trkpt lat="59.9599805" lon="17.7042005">
        <ele>34.7449</ele>
        <time>2013-05-07T17:10:59Z</time>
      </trkpt>
      <trkpt lat="59.9600109" lon="17.7042662">
        <ele>33.7834</ele>
        <time>2013-05-07T17:11:00Z</time>
      </trkpt>
      <trkpt lat="59.9600558" lon="17.7043476">
        <ele>34.7449</ele>
        <time>2013-05-07T17:11:01Z</time>
      </trkpt>
      <trkpt lat="59.960115" lon="17.7044193">
        <ele>35.7061</ele>
        <time>2013-05-07T17:11:02Z</time>
      </trkpt>
      <trkpt lat="59.9601762" lon="17.7044999">
        <ele>36.1868</ele>
        <time>2013-05-07T17:11:03Z</time>
      </trkpt>
      <trkpt lat="59.9602464" lon="17.7045793">
        <ele>34.7449</ele>
        <time>2013-05-07T17:11:04Z</time>
      </trkpt>
      <trkpt lat="59.9603173" lon="17.704658">
        <ele>33.3029</ele>
        <time>2013-05-07T17:11:05Z</time>
      </trkpt>
      <trkpt lat="59.9603847" lon="17.7047342">
        <ele>33.3029</ele>
        <time>2013-05-07T17:11:06Z</time>
      </trkpt>
      <trkpt lat="59.9604536" lon="17.7048103">
        <ele>33.7834</ele>
        <time>2013-05-07T17:11:07Z</time>
      </trkpt>
      <trkpt lat="59.9605277" lon="17.7048942">
        <ele>32.3416</ele>
        <time>2013-05-07T17:11:08Z</time>
      </trkpt>
      <trkpt lat="59.960597" lon="17.704973">
        <ele>31.8607</ele>
        <time>2013-05-07T17:11:09Z</time>
      </trkpt>
      <trkpt lat="59.9606695" lon="17.705061">
        <ele>32.8223</ele>
        <time>2013-05-07T17:11:10Z</time>
      </trkpt>
      <trkpt lat="59.9607449" lon="17.7051464">
        <ele>31.3801</ele>
        <time>2013-05-07T17:11:11Z</time>
      </trkpt>
      <trkpt lat="59.9608176" lon="17.705244">
        <ele>29.4575</ele>
        <time>2013-05-07T17:11:12Z</time>
      </trkpt>
      <trkpt lat="59.9608855" lon="17.7053434">
        <ele>29.4575</ele>
        <time>2013-05-07T17:11:13Z</time>
      </trkpt>
      <trkpt lat="59.9609529" lon="17.7054432">
        <ele>28.9769</ele>
        <time>2013-05-07T17:11:14Z</time>
      </trkpt>
      <trkpt lat="59.9610143" lon="17.7055488">
        <ele>29.4575</ele>
        <time>2013-05-07T17:11:15Z</time>
      </trkpt>
      <trkpt lat="59.9610709" lon="17.7056614">
        <ele>28.9769</ele>
        <time>2013-05-07T17:11:16Z</time>
      </trkpt>
      <trkpt lat="59.9611341" lon="17.7057763">
        <ele>28.4962</ele>
        <time>2013-05-07T17:11:17Z</time>
      </trkpt>
      <trkpt lat="59.9611999" lon="17.7058927">
        <ele>28.4962</ele>
        <time>2013-05-07T17:11:18Z</time>
      </trkpt>
      <trkpt lat="59.9612593" lon="17.706013">
        <ele>28.0155</ele>
        <time>2013-05-07T17:11:19Z</time>
      </trkpt>
      <trkpt lat="59.9613166" lon="17.7061286">
        <ele>28.0155</ele>
        <time>2013-05-07T17:11:20Z</time>
      </trkpt>
      <trkpt lat="59.96138" lon="17.7062386">
        <ele>28.0155</ele>
        <time>2013-05-07T17:11:21Z</time>
      </trkpt>
      <trkpt lat="59.9614406" lon="17.7063442">
        <ele>28.0155</ele>
        <time>2013-05-07T17:11:22Z</time>
      </trkpt>
      <trkpt lat="59.9615024" lon="17.7064478">
        <ele>28.0155</ele>
        <time>2013-05-07T17:11:23Z</time>
      </trkpt>
      <trkpt lat="59.9615662" lon="17.7065482">
        <ele>28.4962</ele>
        <time>2013-05-07T17:11:24Z</time>
      </trkpt>
      <trkpt lat="59.9616335" lon="17.7066368">
        <ele>28.4962</ele>
        <time>2013-05-07T17:11:25Z</time>
      </trkpt>
      <trkpt lat="59.9616998" lon="17.7067254">
        <ele>28.4962</ele>
        <time>2013-05-07T17:11:26Z</time>
      </trkpt>
      <trkpt lat="59.9617717" lon="17.7068088">
        <ele>27.5349</ele>
        <time>2013-05-07T17:11:27Z</time>
      </trkpt>
      <trkpt lat="59.9618521" lon="17.7068754">
        <ele>28.0155</ele>
        <time>2013-05-07T17:11:28Z</time>
      </trkpt>
      <trkpt lat="59.9619345" lon="17.7069337">
        <ele>28.0155</ele>
        <time>2013-05-07T17:11:29Z</time>
      </trkpt>
      <trkpt lat="59.9620262" lon="17.7069744">
        <ele>28.9769</ele>
        <time>2013-05-07T17:11:30Z</time>
      </trkpt>
      <trkpt lat="59.9621088" lon="17.7070217">
        <ele>28.4962</ele>
        <time>2013-05-07T17:11:31Z</time>
      </trkpt>
      <trkpt lat="59.9621914" lon="17.7070683">
        <ele>28.4962</ele>
        <time>2013-05-07T17:11:32Z</time>
      </trkpt>
      <trkpt lat="59.9622751" lon="17.7071086">
        <ele>28.9769</ele>
        <time>2013-05-07T17:11:33Z</time>
      </trkpt>
      <trkpt lat="59.9623603" lon="17.7071433">
        <ele>29.4575</ele>
        <time>2013-05-07T17:11:34Z</time>
      </trkpt>
      <trkpt lat="59.9624446" lon="17.7071764">
        <ele>29.4575</ele>
        <time>2013-05-07T17:11:35Z</time>
      </trkpt>
      <trkpt lat="59.9625312" lon="17.7072051">
        <ele>29.4575</ele>
        <time>2013-05-07T17:11:36Z</time>
      </trkpt>
      <trkpt lat="59.9626219" lon="17.7072261">
        <ele>30.4188</ele>
        <time>2013-05-07T17:11:37Z</time>
      </trkpt>
      <trkpt lat="59.962714" lon="17.7072413">
        <ele>31.3801</ele>
        <time>2013-05-07T17:11:38Z</time>
      </trkpt>
      <trkpt lat="59.9628031" lon="17.7072511">
        <ele>31.8607</ele>
        <time>2013-05-07T17:11:39Z</time>
      </trkpt>
      <trkpt lat="59.9628893" lon="17.7072554">
        <ele>31.8607</ele>
        <time>2013-05-07T17:11:40Z</time>
      </trkpt>
      <trkpt lat="59.9629756" lon="17.7072589">
        <ele>31.8607</ele>
        <time>2013-05-07T17:11:41Z</time>
      </trkpt>
      <trkpt lat="59.9630652" lon="17.7072583">
        <ele>31.8607</ele>
        <time>2013-05-07T17:11:42Z</time>
      </trkpt>
      <trkpt lat="59.963154" lon="17.7072606">
        <ele>31.8607</ele>
        <time>2013-05-07T17:11:43Z</time>
      </trkpt>
      <trkpt lat="59.9632446" lon="17.7072614">
        <ele>31.8607</ele>
        <time>2013-05-07T17:11:44Z</time>
      </trkpt>
      <trkpt lat="59.9633448" lon="17.7072683">
        <ele>28.0155</ele>
        <time>2013-05-07T17:11:45Z</time>
      </trkpt>
      <trkpt lat="59.9634372" lon="17.7072694">
        <ele>28.4962</ele>
        <time>2013-05-07T17:11:46Z</time>
      </trkpt>
      <trkpt lat="59.9635309" lon="17.7072697">
        <ele>28.4962</ele>
        <time>2013-05-07T17:11:47Z</time>
      </trkpt>
      <trkpt lat="59.9636253" lon="17.707275">
        <ele>28.9769</ele>
        <time>2013-05-07T17:11:48Z</time>
      </trkpt>
      <trkpt lat="59.9637176" lon="17.7072854">
        <ele>28.9769</ele>
        <time>2013-05-07T17:11:49Z</time>
      </trkpt>
      <trkpt lat="59.9638093" lon="17.7072939">
        <ele>28.9769</ele>
        <time>2013-05-07T17:11:50Z</time>
      </trkpt>
      <trkpt lat="59.963902" lon="17.7073009">
        <ele>28.9769</ele>
        <time>2013-05-07T17:11:51Z</time>
      </trkpt>
      <trkpt lat="59.9639915" lon="17.7073126">
        <ele>28.4962</ele>
        <time>2013-05-07T17:11:52Z</time>
      </trkpt>
      <trkpt lat="59.9640877" lon="17.7073216">
        <ele>29.4575</ele>
        <time>2013-05-07T17:11:53Z</time>
      </trkpt>
      <trkpt lat="59.9641838" lon="17.7073357">
        <ele>29.4575</ele>
        <time>2013-05-07T17:11:54Z</time>
      </trkpt>
      <trkpt lat="59.9642755" lon="17.7073605">
        <ele>29.4575</ele>
        <time>2013-05-07T17:11:55Z</time>
      </trkpt>
      <trkpt lat="59.9643737" lon="17.7073774">
        <ele>30.4188</ele>
        <time>2013-05-07T17:11:56Z</time>
      </trkpt>
      <trkpt lat="59.9644644" lon="17.7074155">
        <ele>29.9381</ele>
        <time>2013-05-07T17:11:57Z</time>
      </trkpt>
      <trkpt lat="59.9645549" lon="17.7074613">
        <ele>29.4575</ele>
        <time>2013-05-07T17:11:58Z</time>
      </trkpt>
      <trkpt lat="59.964644" lon="17.7075133">
        <ele>28.4962</ele>
        <time>2013-05-07T17:11:59Z</time>
      </trkpt>
      <trkpt lat="59.9647312" lon="17.7075755">
        <ele>27.5349</ele>
        <time>2013-05-07T17:12:00Z</time>
      </trkpt>
      <trkpt lat="59.9648162" lon="17.7076366">
        <ele>26.5736</ele>
        <time>2013-05-07T17:12:01Z</time>
      </trkpt>
      <trkpt lat="59.9648962" lon="17.7076977">
        <ele>27.0543</ele>
        <time>2013-05-07T17:12:02Z</time>
      </trkpt>
      <trkpt lat="59.9649805" lon="17.7077634">
        <ele>25.6123</ele>
        <time>2013-05-07T17:12:03Z</time>
      </trkpt>
      <trkpt lat="59.9650665" lon="17.7078324">
        <ele>24.1703</ele>
        <time>2013-05-07T17:12:04Z</time>
      </trkpt>
      <trkpt lat="59.9651516" lon="17.707906">
        <ele>22.2476</ele>
        <time>2013-05-07T17:12:05Z</time>
      </trkpt>
      <trkpt lat="59.9652352" lon="17.7079795">
        <ele>22.2476</ele>
        <time>2013-05-07T17:12:06Z</time>
      </trkpt>
      <trkpt lat="59.9653205" lon="17.7080515">
        <ele>22.7283</ele>
        <time>2013-05-07T17:12:07Z</time>
      </trkpt>
      <trkpt lat="59.9654031" lon="17.7081288">
        <ele>22.7283</ele>
        <time>2013-05-07T17:12:08Z</time>
      </trkpt>
      <trkpt lat="59.9654843" lon="17.7082125">
        <ele>22.2476</ele>
        <time>2013-05-07T17:12:09Z</time>
      </trkpt>
      <trkpt lat="59.9655591" lon="17.7083007">
        <ele>23.6896</ele>
        <time>2013-05-07T17:12:10Z</time>
      </trkpt>
      <trkpt lat="59.9656355" lon="17.7083975">
        <ele>26.0929</ele>
        <time>2013-05-07T17:12:11Z</time>
      </trkpt>
      <trkpt lat="59.9657035" lon="17.7085185">
        <ele>26.5736</ele>
        <time>2013-05-07T17:12:12Z</time>
      </trkpt>
      <trkpt lat="59.9657615" lon="17.708648">
        <ele>27.0543</ele>
        <time>2013-05-07T17:12:13Z</time>
      </trkpt>
      <trkpt lat="59.9658157" lon="17.7087869">
        <ele>27.0543</ele>
        <time>2013-05-07T17:12:14Z</time>
      </trkpt>
      <trkpt lat="59.9658682" lon="17.708934">
        <ele>27.5349</ele>
        <time>2013-05-07T17:12:15Z</time>
      </trkpt>
      <trkpt lat="59.9659186" lon="17.7090834">
        <ele>26.5736</ele>
        <time>2013-05-07T17:12:16Z</time>
      </trkpt>
      <trkpt lat="59.965961" lon="17.7092386">
        <ele>27.0543</ele>
        <time>2013-05-07T17:12:17Z</time>
      </trkpt>
      <trkpt lat="59.9660044" lon="17.7093937">
        <ele>26.5736</ele>
        <time>2013-05-07T17:12:18Z</time>
      </trkpt>
      <trkpt lat="59.9660458" lon="17.7095471">
        <ele>26.0929</ele>
        <time>2013-05-07T17:12:19Z</time>
      </trkpt>
      <trkpt lat="59.9660877" lon="17.7097012">
        <ele>25.6123</ele>
        <time>2013-05-07T17:12:20Z</time>
      </trkpt>
      <trkpt lat="59.9661268" lon="17.7098556">
        <ele>25.6123</ele>
        <time>2013-05-07T17:12:21Z</time>
      </trkpt>
      <trkpt lat="59.9661671" lon="17.7100096">
        <ele>26.5736</ele>
        <time>2013-05-07T17:12:22Z</time>
      </trkpt>
      <trkpt lat="59.9662102" lon="17.7101634">
        <ele>27.0543</ele>
        <time>2013-05-07T17:12:23Z</time>
      </trkpt>
      <trkpt lat="59.9662526" lon="17.7103171">
        <ele>27.5349</ele>
        <time>2013-05-07T17:12:24Z</time>
      </trkpt>
      <trkpt lat="59.9662944" lon="17.7104678">
        <ele>26.0929</ele>
        <time>2013-05-07T17:12:25Z</time>
      </trkpt>
      <trkpt lat="59.9663307" lon="17.7106203">
        <ele>26.5736</ele>
        <time>2013-05-07T17:12:26Z</time>
      </trkpt>
      <trkpt lat="59.9663702" lon="17.7107711">
        <ele>26.0929</ele>
        <time>2013-05-07T17:12:27Z</time>
      </trkpt>
      <trkpt lat="59.9664068" lon="17.7109183">
        <ele>27.5349</ele>
        <time>2013-05-07T17:12:28Z</time>
      </trkpt>
      <trkpt lat="59.9664458" lon="17.7110632">
        <ele>28.0155</ele>
        <time>2013-05-07T17:12:29Z</time>
      </trkpt>
      <trkpt lat="59.9664845" lon="17.7112042">
        <ele>28.0155</ele>
        <time>2013-05-07T17:12:30Z</time>
      </trkpt>
      <trkpt lat="59.9665214" lon="17.7113482">
        <ele>28.9769</ele>
        <time>2013-05-07T17:12:31Z</time>
      </trkpt>
      <trkpt lat="59.966564" lon="17.7114872">
        <ele>28.9769</ele>
        <time>2013-05-07T17:12:32Z</time>
      </trkpt>
      <trkpt lat="59.9666081" lon="17.7116168">
        <ele>27.5349</ele>
        <time>2013-05-07T17:12:33Z</time>
      </trkpt>
      <trkpt lat="59.9666524" lon="17.7117474">
        <ele>28.0155</ele>
        <time>2013-05-07T17:12:34Z</time>
      </trkpt>
      <trkpt lat="59.9667033" lon="17.7118789">
        <ele>27.5349</ele>
        <time>2013-05-07T17:12:35Z</time>
      </trkpt>
      <trkpt lat="59.9667534" lon="17.7120136">
        <ele>26.5736</ele>
        <time>2013-05-07T17:12:36Z</time>
      </trkpt>
      <trkpt lat="59.9667999" lon="17.7121459">
        <ele>26.5736</ele>
        <time>2013-05-07T17:12:37Z</time>
      </trkpt>
      <trkpt lat="59.966842" lon="17.7122731">
        <ele>26.5736</ele>
        <time>2013-05-07T17:12:38Z</time>
      </trkpt>
      <trkpt lat="59.9668888" lon="17.7124028">
        <ele>25.6123</ele>
        <time>2013-05-07T17:12:39Z</time>
      </trkpt>
      <trkpt lat="59.9669372" lon="17.7125281">
        <ele>24.651</ele>
        <time>2013-05-07T17:12:40Z</time>
      </trkpt>
      <trkpt lat="59.9669847" lon="17.71266">
        <ele>23.6896</ele>
        <time>2013-05-07T17:12:41Z</time>
      </trkpt>
      <trkpt lat="59.9670247" lon="17.7127979">
        <ele>23.6896</ele>
        <time>2013-05-07T17:12:42Z</time>
      </trkpt>
      <trkpt lat="59.9670639" lon="17.7129446">
        <ele>23.6896</ele>
        <time>2013-05-07T17:12:43Z</time>
      </trkpt>
      <trkpt lat="59.9671035" lon="17.7130917">
        <ele>22.2476</ele>
        <time>2013-05-07T17:12:44Z</time>
      </trkpt>
      <trkpt lat="59.9671437" lon="17.7132493">
        <ele>20.8057</ele>
        <time>2013-05-07T17:12:45Z</time>
      </trkpt>
      <trkpt lat="59.9671799" lon="17.7134127">
        <ele>19.8444</ele>
        <time>2013-05-07T17:12:46Z</time>
      </trkpt>
      <trkpt lat="59.9672136" lon="17.7135869">
        <ele>18.8831</ele>
        <time>2013-05-07T17:12:47Z</time>
      </trkpt>
      <trkpt lat="59.9672456" lon="17.7137671">
        <ele>17.4412</ele>
        <time>2013-05-07T17:12:48Z</time>
      </trkpt>
      <trkpt lat="59.9672731" lon="17.7139532">
        <ele>16.4797</ele>
        <time>2013-05-07T17:12:49Z</time>
      </trkpt>
      <trkpt lat="59.9672986" lon="17.7141376">
        <ele>15.5184</ele>
        <time>2013-05-07T17:12:50Z</time>
      </trkpt>
      <trkpt lat="59.9673224" lon="17.7143324">
        <ele>15.0377</ele>
        <time>2013-05-07T17:12:51Z</time>
      </trkpt>
      <trkpt lat="59.9673472" lon="17.7145297">
        <ele>14.557</ele>
        <time>2013-05-07T17:12:52Z</time>
      </trkpt>
      <trkpt lat="59.9673741" lon="17.7147389">
        <ele>12.6344</ele>
        <time>2013-05-07T17:12:53Z</time>
      </trkpt>
      <trkpt lat="59.9674145" lon="17.7149934">
        <ele>12.1538</ele>
        <time>2013-05-07T17:12:54Z</time>
      </trkpt>
      <trkpt lat="59.9674382" lon="17.7152213">
        <ele>11.1925</ele>
        <time>2013-05-07T17:12:55Z</time>
      </trkpt>
      <trkpt lat="59.9674694" lon="17.7154509">
        <ele>10.2312</ele>
        <time>2013-05-07T17:12:56Z</time>
      </trkpt>
      <trkpt lat="59.967504" lon="17.7156609">
        <ele>10.2312</ele>
        <time>2013-05-07T17:12:57Z</time>
      </trkpt>
      <trkpt lat="59.9675357" lon="17.7158538">
        <ele>9.75061</ele>
        <time>2013-05-07T17:12:58Z</time>
      </trkpt>
      <trkpt lat="59.9675921" lon="17.716034">
        <ele>10.2312</ele>
        <time>2013-05-07T17:12:59Z</time>
      </trkpt>
      <trkpt lat="59.9676776" lon="17.7161688">
        <ele>10.2312</ele>
        <time>2013-05-07T17:13:00Z</time>
      </trkpt>
      <trkpt lat="59.9677458" lon="17.7163141">
        <ele>9.2699</ele>
        <time>2013-05-07T17:13:01Z</time>
      </trkpt>
      <trkpt lat="59.9678192" lon="17.7164806">
        <ele>9.75061</ele>
        <time>2013-05-07T17:13:02Z</time>
      </trkpt>
      <trkpt lat="59.967888" lon="17.716629">
        <ele>9.75061</ele>
        <time>2013-05-07T17:13:03Z</time>
      </trkpt>
      <trkpt lat="59.9679474" lon="17.7167588">
        <ele>9.75061</ele>
        <time>2013-05-07T17:13:04Z</time>
      </trkpt>
      <trkpt lat="59.9680117" lon="17.7168583">
        <ele>10.7118</ele>
        <time>2013-05-07T17:13:05Z</time>
      </trkpt>
      <trkpt lat="59.9680734" lon="17.7169404">
        <ele>11.6732</ele>
        <time>2013-05-07T17:13:06Z</time>
      </trkpt>
      <trkpt lat="59.9681261" lon="17.7170255">
        <ele>11.6732</ele>
        <time>2013-05-07T17:13:07Z</time>
      </trkpt>
      <trkpt lat="59.9681954" lon="17.7170921">
        <ele>12.1538</ele>
        <time>2013-05-07T17:13:08Z</time>
      </trkpt>
      <trkpt lat="59.9682609" lon="17.7171503">
        <ele>12.1538</ele>
        <time>2013-05-07T17:13:09Z</time>
      </trkpt>
      <trkpt lat="59.9683297" lon="17.7172037">
        <ele>12.6344</ele>
        <time>2013-05-07T17:13:10Z</time>
      </trkpt>
      <trkpt lat="59.9684033" lon="17.7172467">
        <ele>14.557</ele>
        <time>2013-05-07T17:13:11Z</time>
      </trkpt>
      <trkpt lat="59.9684866" lon="17.7172834">
        <ele>15.999</ele>
        <time>2013-05-07T17:13:12Z</time>
      </trkpt>
      <trkpt lat="59.9685633" lon="17.7173088">
        <ele>17.4412</ele>
        <time>2013-05-07T17:13:13Z</time>
      </trkpt>
      <trkpt lat="59.9686387" lon="17.7173368">
        <ele>18.4023</ele>
        <time>2013-05-07T17:13:14Z</time>
      </trkpt>
      <trkpt lat="59.9687158" lon="17.7173626">
        <ele>19.8444</ele>
        <time>2013-05-07T17:13:15Z</time>
      </trkpt>
      <trkpt lat="59.9687929" lon="17.7173861">
        <ele>21.2864</ele>
        <time>2013-05-07T17:13:16Z</time>
      </trkpt>
      <trkpt lat="59.9688669" lon="17.7174088">
        <ele>22.2476</ele>
        <time>2013-05-07T17:13:17Z</time>
      </trkpt>
      <trkpt lat="59.9689458" lon="17.7174245">
        <ele>23.6896</ele>
        <time>2013-05-07T17:13:18Z</time>
      </trkpt>
      <trkpt lat="59.9690214" lon="17.7174469">
        <ele>23.6896</ele>
        <time>2013-05-07T17:13:19Z</time>
      </trkpt>
      <trkpt lat="59.9690965" lon="17.7174694">
        <ele>24.1703</ele>
        <time>2013-05-07T17:13:20Z</time>
      </trkpt>
      <trkpt lat="59.9691711" lon="17.7174958">
        <ele>24.651</ele>
        <time>2013-05-07T17:13:21Z</time>
      </trkpt>
      <trkpt lat="59.9692421" lon="17.717531">
        <ele>24.651</ele>
        <time>2013-05-07T17:13:22Z</time>
      </trkpt>
      <trkpt lat="59.9693135" lon="17.717571">
        <ele>24.651</ele>
        <time>2013-05-07T17:13:23Z</time>
      </trkpt>
      <trkpt lat="59.9693866" lon="17.7176124">
        <ele>24.651</ele>
        <time>2013-05-07T17:13:24Z</time>
      </trkpt>
      <trkpt lat="59.9694612" lon="17.7176545">
        <ele>25.1317</ele>
        <time>2013-05-07T17:13:25Z</time>
      </trkpt>
      <trkpt lat="59.9695392" lon="17.7176957">
        <ele>25.1317</ele>
        <time>2013-05-07T17:13:26Z</time>
      </trkpt>
      <trkpt lat="59.9696146" lon="17.717744">
        <ele>25.1317</ele>
        <time>2013-05-07T17:13:27Z</time>
      </trkpt>
      <trkpt lat="59.969691" lon="17.7177973">
        <ele>25.1317</ele>
        <time>2013-05-07T17:13:28Z</time>
      </trkpt>
      <trkpt lat="59.9697699" lon="17.7178537">
        <ele>25.1317</ele>
        <time>2013-05-07T17:13:29Z</time>
      </trkpt>
      <trkpt lat="59.9698461" lon="17.7179166">
        <ele>25.6123</ele>
        <time>2013-05-07T17:13:30Z</time>
      </trkpt>
      <trkpt lat="59.9699217" lon="17.7179812">
        <ele>25.6123</ele>
        <time>2013-05-07T17:13:31Z</time>
      </trkpt>
      <trkpt lat="59.9699967" lon="17.7180464">
        <ele>26.0929</ele>
        <time>2013-05-07T17:13:32Z</time>
      </trkpt>
      <trkpt lat="59.970072" lon="17.7181121">
        <ele>26.0929</ele>
        <time>2013-05-07T17:13:33Z</time>
      </trkpt>
      <trkpt lat="59.9701484" lon="17.7181791">
        <ele>26.0929</ele>
        <time>2013-05-07T17:13:34Z</time>
      </trkpt>
      <trkpt lat="59.9702245" lon="17.718249">
        <ele>26.0929</ele>
        <time>2013-05-07T17:13:35Z</time>
      </trkpt>
      <trkpt lat="59.9702998" lon="17.7183195">
        <ele>26.0929</ele>
        <time>2013-05-07T17:13:36Z</time>
      </trkpt>
      <trkpt lat="59.9703754" lon="17.718389">
        <ele>26.5736</ele>
        <time>2013-05-07T17:13:37Z</time>
      </trkpt>
      <trkpt lat="59.9704514" lon="17.7184584">
        <ele>26.5736</ele>
        <time>2013-05-07T17:13:38Z</time>
      </trkpt>
      <trkpt lat="59.9705284" lon="17.7185282">
        <ele>26.5736</ele>
        <time>2013-05-07T17:13:39Z</time>
      </trkpt>
      <trkpt lat="59.9706071" lon="17.7185975">
        <ele>26.5736</ele>
        <time>2013-05-07T17:13:40Z</time>
      </trkpt>
      <trkpt lat="59.9706864" lon="17.7186658">
        <ele>26.5736</ele>
        <time>2013-05-07T17:13:41Z</time>
      </trkpt>
      <trkpt lat="59.9707651" lon="17.7187348">
        <ele>26.5736</ele>
        <time>2013-05-07T17:13:42Z</time>
      </trkpt>
      <trkpt lat="59.970843" lon="17.7188044">
        <ele>27.0543</ele>
        <time>2013-05-07T17:13:43Z</time>
      </trkpt>
      <trkpt lat="59.9709193" lon="17.7188752">
        <ele>27.0543</ele>
        <time>2013-05-07T17:13:44Z</time>
      </trkpt>
      <trkpt lat="59.9709948" lon="17.7189463">
        <ele>27.5349</ele>
        <time>2013-05-07T17:13:45Z</time>
      </trkpt>
      <trkpt lat="59.9710699" lon="17.7190161">
        <ele>27.5349</ele>
        <time>2013-05-07T17:13:46Z</time>
      </trkpt>
      <trkpt lat="59.9711447" lon="17.7190835">
        <ele>27.5349</ele>
        <time>2013-05-07T17:13:47Z</time>
      </trkpt>
      <trkpt lat="59.9712192" lon="17.7191478">
        <ele>27.5349</ele>
        <time>2013-05-07T17:13:48Z</time>
      </trkpt>
      <trkpt lat="59.9712921" lon="17.719213">
        <ele>28.0155</ele>
        <time>2013-05-07T17:13:49Z</time>
      </trkpt>
      <trkpt lat="59.9713642" lon="17.7192787">
        <ele>27.5349</ele>
        <time>2013-05-07T17:13:50Z</time>
      </trkpt>
      <trkpt lat="59.9714369" lon="17.7193432">
        <ele>27.5349</ele>
        <time>2013-05-07T17:13:51Z</time>
      </trkpt>
      <trkpt lat="59.9715082" lon="17.7194078">
        <ele>27.0543</ele>
        <time>2013-05-07T17:13:52Z</time>
      </trkpt>
      <trkpt lat="59.9715792" lon="17.7194726">
        <ele>27.0543</ele>
        <time>2013-05-07T17:13:53Z</time>
      </trkpt>
      <trkpt lat="59.9716503" lon="17.7195373">
        <ele>27.0543</ele>
        <time>2013-05-07T17:13:54Z</time>
      </trkpt>
      <trkpt lat="59.9717221" lon="17.7196016">
        <ele>27.0543</ele>
        <time>2013-05-07T17:13:55Z</time>
      </trkpt>
      <trkpt lat="59.9717938" lon="17.7196661">
        <ele>27.0543</ele>
        <time>2013-05-07T17:13:56Z</time>
      </trkpt>
      <trkpt lat="59.9718646" lon="17.7197314">
        <ele>27.0543</ele>
        <time>2013-05-07T17:13:57Z</time>
      </trkpt>
      <trkpt lat="59.9719356" lon="17.7197963">
        <ele>27.0543</ele>
        <time>2013-05-07T17:13:58Z</time>
      </trkpt>
      <trkpt lat="59.9720078" lon="17.7198619">
        <ele>27.0543</ele>
        <time>2013-05-07T17:13:59Z</time>
      </trkpt>
      <trkpt lat="59.9720819" lon="17.7199274">
        <ele>27.0543</ele>
        <time>2013-05-07T17:14:00Z</time>
      </trkpt>
      <trkpt lat="59.9721573" lon="17.7199915">
        <ele>27.0543</ele>
        <time>2013-05-07T17:14:01Z</time>
      </trkpt>
      <trkpt lat="59.9722325" lon="17.7200554">
        <ele>27.0543</ele>
        <time>2013-05-07T17:14:02Z</time>
      </trkpt>
      <trkpt lat="59.9723076" lon="17.7201212">
        <ele>27.0543</ele>
        <time>2013-05-07T17:14:03Z</time>
      </trkpt>
      <trkpt lat="59.9723822" lon="17.7201878">
        <ele>27.0543</ele>
        <time>2013-05-07T17:14:04Z</time>
      </trkpt>
      <trkpt lat="59.9724556" lon="17.7202535">
        <ele>27.0543</ele>
        <time>2013-05-07T17:14:05Z</time>
      </trkpt>
      <trkpt lat="59.9725277" lon="17.7203199">
        <ele>27.0543</ele>
        <time>2013-05-07T17:14:06Z</time>
      </trkpt>
      <trkpt lat="59.9725987" lon="17.7203865">
        <ele>27.0543</ele>
        <time>2013-05-07T17:14:07Z</time>
      </trkpt>
      <trkpt lat="59.9726695" lon="17.7204533">
        <ele>27.5349</ele>
        <time>2013-05-07T17:14:08Z</time>
      </trkpt>
      <trkpt lat="59.9727394" lon="17.7205236">
        <ele>27.0543</ele>
        <time>2013-05-07T17:14:09Z</time>
      </trkpt>
      <trkpt lat="59.972809" lon="17.7205977">
        <ele>27.0543</ele>
        <time>2013-05-07T17:14:10Z</time>
      </trkpt>
      <trkpt lat="59.9728781" lon="17.7206747">
        <ele>27.0543</ele>
        <time>2013-05-07T17:14:11Z</time>
      </trkpt>
      <trkpt lat="59.9729454" lon="17.7207567">
        <ele>27.0543</ele>
        <time>2013-05-07T17:14:12Z</time>
      </trkpt>
      <trkpt lat="59.9730121" lon="17.7208451">
        <ele>26.5736</ele>
        <time>2013-05-07T17:14:13Z</time>
      </trkpt>
      <trkpt lat="59.9730782" lon="17.720938">
        <ele>26.5736</ele>
        <time>2013-05-07T17:14:14Z</time>
      </trkpt>
      <trkpt lat="59.9731433" lon="17.7210339">
        <ele>26.5736</ele>
        <time>2013-05-07T17:14:15Z</time>
      </trkpt>
      <trkpt lat="59.9732079" lon="17.7211357">
        <ele>26.0929</ele>
        <time>2013-05-07T17:14:16Z</time>
      </trkpt>
      <trkpt lat="59.9732727" lon="17.7212442">
        <ele>25.6123</ele>
        <time>2013-05-07T17:14:17Z</time>
      </trkpt>
      <trkpt lat="59.973336" lon="17.7213566">
        <ele>25.6123</ele>
        <time>2013-05-07T17:14:18Z</time>
      </trkpt>
      <trkpt lat="59.9733973" lon="17.7214721">
        <ele>25.6123</ele>
        <time>2013-05-07T17:14:19Z</time>
      </trkpt>
      <trkpt lat="59.9734562" lon="17.7215902">
        <ele>25.1317</ele>
        <time>2013-05-07T17:14:20Z</time>
      </trkpt>
      <trkpt lat="59.973512" lon="17.7217112">
        <ele>25.6123</ele>
        <time>2013-05-07T17:14:21Z</time>
      </trkpt>
      <trkpt lat="59.9735648" lon="17.7218345">
        <ele>25.6123</ele>
        <time>2013-05-07T17:14:22Z</time>
      </trkpt>
      <trkpt lat="59.9736165" lon="17.7219606">
        <ele>26.0929</ele>
        <time>2013-05-07T17:14:23Z</time>
      </trkpt>
      <trkpt lat="59.9736663" lon="17.7220901">
        <ele>26.5736</ele>
        <time>2013-05-07T17:14:24Z</time>
      </trkpt>
      <trkpt lat="59.9737135" lon="17.7222258">
        <ele>26.5736</ele>
        <time>2013-05-07T17:14:25Z</time>
      </trkpt>
      <trkpt lat="59.9737589" lon="17.7223656">
        <ele>26.5736</ele>
        <time>2013-05-07T17:14:26Z</time>
      </trkpt>
      <trkpt lat="59.9738027" lon="17.7225095">
        <ele>26.5736</ele>
        <time>2013-05-07T17:14:27Z</time>
      </trkpt>
      <trkpt lat="59.9738444" lon="17.7226552">
        <ele>27.0543</ele>
        <time>2013-05-07T17:14:28Z</time>
      </trkpt>
      <trkpt lat="59.9738839" lon="17.7228024">
        <ele>27.0543</ele>
        <time>2013-05-07T17:14:29Z</time>
      </trkpt>
      <trkpt lat="59.9739198" lon="17.7229557">
        <ele>26.5736</ele>
        <time>2013-05-07T17:14:30Z</time>
      </trkpt>
      <trkpt lat="59.9739544" lon="17.7231112">
        <ele>26.5736</ele>
        <time>2013-05-07T17:14:31Z</time>
      </trkpt>
      <trkpt lat="59.9739847" lon="17.7232701">
        <ele>26.0929</ele>
        <time>2013-05-07T17:14:32Z</time>
      </trkpt>
      <trkpt lat="59.9740137" lon="17.72343">
        <ele>26.0929</ele>
        <time>2013-05-07T17:14:33Z</time>
      </trkpt>
      <trkpt lat="59.9740394" lon="17.7235931">
        <ele>25.6123</ele>
        <time>2013-05-07T17:14:34Z</time>
      </trkpt>
      <trkpt lat="59.9740642" lon="17.7237586">
        <ele>25.1317</ele>
        <time>2013-05-07T17:14:35Z</time>
      </trkpt>
      <trkpt lat="59.974088" lon="17.7239257">
        <ele>24.651</ele>
        <time>2013-05-07T17:14:36Z</time>
      </trkpt>
      <trkpt lat="59.9741102" lon="17.7240896">
        <ele>24.1703</ele>
        <time>2013-05-07T17:14:37Z</time>
      </trkpt>
      <trkpt lat="59.9741335" lon="17.7242533">
        <ele>24.1703</ele>
        <time>2013-05-07T17:14:38Z</time>
      </trkpt>
      <trkpt lat="59.9741568" lon="17.7244196">
        <ele>23.6896</ele>
        <time>2013-05-07T17:14:39Z</time>
      </trkpt>
      <trkpt lat="59.9741797" lon="17.7245894">
        <ele>23.209</ele>
        <time>2013-05-07T17:14:40Z</time>
      </trkpt>
      <trkpt lat="59.9742014" lon="17.724761">
        <ele>22.7283</ele>
        <time>2013-05-07T17:14:41Z</time>
      </trkpt>
      <trkpt lat="59.9742231" lon="17.7249293">
        <ele>22.7283</ele>
        <time>2013-05-07T17:14:42Z</time>
      </trkpt>
      <trkpt lat="59.9742449" lon="17.7250955">
        <ele>22.7283</ele>
        <time>2013-05-07T17:14:43Z</time>
      </trkpt>
      <trkpt lat="59.9742683" lon="17.7252623">
        <ele>23.209</ele>
        <time>2013-05-07T17:14:44Z</time>
      </trkpt>
      <trkpt lat="59.9742859" lon="17.7254276">
        <ele>23.6896</ele>
        <time>2013-05-07T17:14:45Z</time>
      </trkpt>
      <trkpt lat="59.9743015" lon="17.7255913">
        <ele>24.1703</ele>
        <time>2013-05-07T17:14:46Z</time>
      </trkpt>
      <trkpt lat="59.9743153" lon="17.7257558">
        <ele>24.1703</ele>
        <time>2013-05-07T17:14:47Z</time>
      </trkpt>
      <trkpt lat="59.9743277" lon="17.7259219">
        <ele>24.1703</ele>
        <time>2013-05-07T17:14:48Z</time>
      </trkpt>
      <trkpt lat="59.974336" lon="17.7260886">
        <ele>24.651</ele>
        <time>2013-05-07T17:14:49Z</time>
      </trkpt>
      <trkpt lat="59.9743383" lon="17.726258">
        <ele>25.6123</ele>
        <time>2013-05-07T17:14:50Z</time>
      </trkpt>
      <trkpt lat="59.9743449" lon="17.726427">
        <ele>26.0929</ele>
        <time>2013-05-07T17:14:51Z</time>
      </trkpt>
      <trkpt lat="59.9743515" lon="17.7265962">
        <ele>26.5736</ele>
        <time>2013-05-07T17:14:52Z</time>
      </trkpt>
      <trkpt lat="59.9743584" lon="17.7267619">
        <ele>26.0929</ele>
        <time>2013-05-07T17:14:53Z</time>
      </trkpt>
      <trkpt lat="59.9743609" lon="17.7269317">
        <ele>26.5736</ele>
        <time>2013-05-07T17:14:54Z</time>
      </trkpt>
      <trkpt lat="59.974363" lon="17.7270995">
        <ele>26.5736</ele>
        <time>2013-05-07T17:14:55Z</time>
      </trkpt>
      <trkpt lat="59.9743639" lon="17.7272746">
        <ele>26.5736</ele>
        <time>2013-05-07T17:14:56Z</time>
      </trkpt>
      <trkpt lat="59.9743665" lon="17.7274484">
        <ele>26.5736</ele>
        <time>2013-05-07T17:14:57Z</time>
      </trkpt>
      <trkpt lat="59.9743694" lon="17.727624">
        <ele>25.6123</ele>
        <time>2013-05-07T17:14:58Z</time>
      </trkpt>
      <trkpt lat="59.9743746" lon="17.7278078">
        <ele>25.6123</ele>
        <time>2013-05-07T17:14:59Z</time>
      </trkpt>
      <trkpt lat="59.9743827" lon="17.7279928">
        <ele>24.651</ele>
        <time>2013-05-07T17:15:00Z</time>
      </trkpt>
      <trkpt lat="59.9743898" lon="17.728183">
        <ele>24.1703</ele>
        <time>2013-05-07T17:15:01Z</time>
      </trkpt>
      <trkpt lat="59.9743963" lon="17.7283705">
        <ele>24.1703</ele>
        <time>2013-05-07T17:15:02Z</time>
      </trkpt>
      <trkpt lat="59.9744017" lon="17.7285624">
        <ele>24.1703</ele>
        <time>2013-05-07T17:15:03Z</time>
      </trkpt>
      <trkpt lat="59.9744096" lon="17.7287525">
        <ele>24.651</ele>
        <time>2013-05-07T17:15:04Z</time>
      </trkpt>
      <trkpt lat="59.9744165" lon="17.72894">
        <ele>25.1317</ele>
        <time>2013-05-07T17:15:05Z</time>
      </trkpt>
      <trkpt lat="59.9744216" lon="17.729119">
        <ele>25.6123</ele>
        <time>2013-05-07T17:15:06Z</time>
      </trkpt>
      <trkpt lat="59.9744242" lon="17.7292951">
        <ele>26.0929</ele>
        <time>2013-05-07T17:15:07Z</time>
      </trkpt>
      <trkpt lat="59.9744204" lon="17.7294765">
        <ele>26.0929</ele>
        <time>2013-05-07T17:15:08Z</time>
      </trkpt>
      <trkpt lat="59.9744127" lon="17.7296577">
        <ele>26.5736</ele>
        <time>2013-05-07T17:15:09Z</time>
      </trkpt>
      <trkpt lat="59.9744023" lon="17.7298354">
        <ele>27.0543</ele>
        <time>2013-05-07T17:15:10Z</time>
      </trkpt>
      <trkpt lat="59.9743903" lon="17.7300113">
        <ele>27.0543</ele>
        <time>2013-05-07T17:15:11Z</time>
      </trkpt>
      <trkpt lat="59.9743772" lon="17.7301851">
        <ele>27.0543</ele>
        <time>2013-05-07T17:15:12Z</time>
      </trkpt>
      <trkpt lat="59.9743629" lon="17.7303586">
        <ele>27.0543</ele>
        <time>2013-05-07T17:15:13Z</time>
      </trkpt>
      <trkpt lat="59.974347" lon="17.7305353">
        <ele>28.0155</ele>
        <time>2013-05-07T17:15:14Z</time>
      </trkpt>
      <trkpt lat="59.974331" lon="17.7307119">
        <ele>28.4962</ele>
        <time>2013-05-07T17:15:15Z</time>
      </trkpt>
      <trkpt lat="59.9743191" lon="17.7308916">
        <ele>28.9769</ele>
        <time>2013-05-07T17:15:16Z</time>
      </trkpt>
      <trkpt lat="59.9743087" lon="17.7310719">
        <ele>28.0155</ele>
        <time>2013-05-07T17:15:17Z</time>
      </trkpt>
      <trkpt lat="59.974302" lon="17.7312468">
        <ele>28.0155</ele>
        <time>2013-05-07T17:15:18Z</time>
      </trkpt>
      <trkpt lat="59.9742942" lon="17.7314272">
        <ele>29.4575</ele>
        <time>2013-05-07T17:15:19Z</time>
      </trkpt>
      <trkpt lat="59.9742956" lon="17.7316107">
        <ele>29.9381</ele>
        <time>2013-05-07T17:15:20Z</time>
      </trkpt>
      <trkpt lat="59.9742961" lon="17.7317919">
        <ele>30.4188</ele>
        <time>2013-05-07T17:15:21Z</time>
      </trkpt>
      <trkpt lat="59.9742947" lon="17.7319772">
        <ele>29.9381</ele>
        <time>2013-05-07T17:15:22Z</time>
      </trkpt>
      <trkpt lat="59.9742968" lon="17.7321577">
        <ele>29.9381</ele>
        <time>2013-05-07T17:15:23Z</time>
      </trkpt>
      <trkpt lat="59.9743007" lon="17.7323378">
        <ele>29.4575</ele>
        <time>2013-05-07T17:15:24Z</time>
      </trkpt>
      <trkpt lat="59.9743059" lon="17.7325118">
        <ele>29.4575</ele>
        <time>2013-05-07T17:15:25Z</time>
      </trkpt>
      <trkpt lat="59.9743067" lon="17.7326839">
        <ele>28.9769</ele>
        <time>2013-05-07T17:15:26Z</time>
      </trkpt>
      <trkpt lat="59.9743067" lon="17.7328564">
        <ele>28.9769</ele>
        <time>2013-05-07T17:15:27Z</time>
      </trkpt>
      <trkpt lat="59.9743045" lon="17.7330287">
        <ele>28.4962</ele>
        <time>2013-05-07T17:15:28Z</time>
      </trkpt>
      <trkpt lat="59.974302" lon="17.7332025">
        <ele>28.0155</ele>
        <time>2013-05-07T17:15:29Z</time>
      </trkpt>
      <trkpt lat="59.9742969" lon="17.7333738">
        <ele>28.0155</ele>
        <time>2013-05-07T17:15:30Z</time>
      </trkpt>
      <trkpt lat="59.9742895" lon="17.7335401">
        <ele>28.0155</ele>
        <time>2013-05-07T17:15:31Z</time>
      </trkpt>
      <trkpt lat="59.9742813" lon="17.7337035">
        <ele>28.0155</ele>
        <time>2013-05-07T17:15:32Z</time>
      </trkpt>
      <trkpt lat="59.9742738" lon="17.7338639">
        <ele>28.0155</ele>
        <time>2013-05-07T17:15:33Z</time>
      </trkpt>
      <trkpt lat="59.9742661" lon="17.7340215">
        <ele>27.5349</ele>
        <time>2013-05-07T17:15:34Z</time>
      </trkpt>
      <trkpt lat="59.9742593" lon="17.7341854">
        <ele>27.5349</ele>
        <time>2013-05-07T17:15:35Z</time>
      </trkpt>
      <trkpt lat="59.974252" lon="17.7343497">
        <ele>28.4962</ele>
        <time>2013-05-07T17:15:36Z</time>
      </trkpt>
      <trkpt lat="59.9742481" lon="17.7345159">
        <ele>28.9769</ele>
        <time>2013-05-07T17:15:37Z</time>
      </trkpt>
      <trkpt lat="59.974249" lon="17.7346823">
        <ele>29.9381</ele>
        <time>2013-05-07T17:15:38Z</time>
      </trkpt>
      <trkpt lat="59.9742565" lon="17.7348513">
        <ele>30.4188</ele>
        <time>2013-05-07T17:15:39Z</time>
      </trkpt>
      <trkpt lat="59.9742672" lon="17.7350184">
        <ele>30.8995</ele>
        <time>2013-05-07T17:15:40Z</time>
      </trkpt>
      <trkpt lat="59.9742807" lon="17.7351859">
        <ele>30.8995</ele>
        <time>2013-05-07T17:15:41Z</time>
      </trkpt>
      <trkpt lat="59.9742988" lon="17.7353523">
        <ele>31.3801</ele>
        <time>2013-05-07T17:15:42Z</time>
      </trkpt>
      <trkpt lat="59.9743205" lon="17.7355141">
        <ele>29.9381</ele>
        <time>2013-05-07T17:15:43Z</time>
      </trkpt>
      <trkpt lat="59.9743412" lon="17.735674">
        <ele>29.9381</ele>
        <time>2013-05-07T17:15:44Z</time>
      </trkpt>
      <trkpt lat="59.9743632" lon="17.7358259">
        <ele>29.9381</ele>
        <time>2013-05-07T17:15:45Z</time>
      </trkpt>
      <trkpt lat="59.9743878" lon="17.7359717">
        <ele>30.4188</ele>
        <time>2013-05-07T17:15:46Z</time>
      </trkpt>
      <trkpt lat="59.9744145" lon="17.7361138">
        <ele>30.4188</ele>
        <time>2013-05-07T17:15:47Z</time>
      </trkpt>
      <trkpt lat="59.9744438" lon="17.7362525">
        <ele>30.4188</ele>
        <time>2013-05-07T17:15:48Z</time>
      </trkpt>
      <trkpt lat="59.9744755" lon="17.7363819">
        <ele>29.9381</ele>
        <time>2013-05-07T17:15:49Z</time>
      </trkpt>
      <trkpt lat="59.9745108" lon="17.7365047">
        <ele>29.9381</ele>
        <time>2013-05-07T17:15:50Z</time>
      </trkpt>
      <trkpt lat="59.9745479" lon="17.7366228">
        <ele>29.4575</ele>
        <time>2013-05-07T17:15:51Z</time>
      </trkpt>
      <trkpt lat="59.9745852" lon="17.7367397">
        <ele>29.9381</ele>
        <time>2013-05-07T17:15:52Z</time>
      </trkpt>
      <trkpt lat="59.9746237" lon="17.7368497">
        <ele>29.9381</ele>
        <time>2013-05-07T17:15:53Z</time>
      </trkpt>
      <trkpt lat="59.974667" lon="17.7369692">
        <ele>28.0155</ele>
        <time>2013-05-07T17:15:54Z</time>
      </trkpt>
      <trkpt lat="59.9747089" lon="17.7370859">
        <ele>28.0155</ele>
        <time>2013-05-07T17:15:55Z</time>
      </trkpt>
      <trkpt lat="59.9747531" lon="17.7372029">
        <ele>27.5349</ele>
        <time>2013-05-07T17:15:56Z</time>
      </trkpt>
      <trkpt lat="59.9747997" lon="17.7373185">
        <ele>27.0543</ele>
        <time>2013-05-07T17:15:57Z</time>
      </trkpt>
      <trkpt lat="59.974846" lon="17.7374311">
        <ele>27.0543</ele>
        <time>2013-05-07T17:15:58Z</time>
      </trkpt>
      <trkpt lat="59.9748951" lon="17.7375364">
        <ele>27.0543</ele>
        <time>2013-05-07T17:15:59Z</time>
      </trkpt>
      <trkpt lat="59.9749464" lon="17.7376343">
        <ele>27.0543</ele>
        <time>2013-05-07T17:16:00Z</time>
      </trkpt>
      <trkpt lat="59.9750008" lon="17.7377267">
        <ele>27.0543</ele>
        <time>2013-05-07T17:16:01Z</time>
      </trkpt>
      <trkpt lat="59.9750567" lon="17.7378169">
        <ele>27.0543</ele>
        <time>2013-05-07T17:16:02Z</time>
      </trkpt>
      <trkpt lat="59.9751125" lon="17.7379092">
        <ele>27.5349</ele>
        <time>2013-05-07T17:16:03Z</time>
      </trkpt>
      <trkpt lat="59.975167" lon="17.7380044">
        <ele>27.0543</ele>
        <time>2013-05-07T17:16:04Z</time>
      </trkpt>
      <trkpt lat="59.975222" lon="17.7381005">
        <ele>27.5349</ele>
        <time>2013-05-07T17:16:05Z</time>
      </trkpt>
      <trkpt lat="59.9752779" lon="17.7381991">
        <ele>27.0543</ele>
        <time>2013-05-07T17:16:06Z</time>
      </trkpt>
      <trkpt lat="59.9753339" lon="17.7382991">
        <ele>27.0543</ele>
        <time>2013-05-07T17:16:07Z</time>
      </trkpt>
      <trkpt lat="59.9753904" lon="17.7383992">
        <ele>27.0543</ele>
        <time>2013-05-07T17:16:08Z</time>
      </trkpt>
      <trkpt lat="59.9754477" lon="17.7384999">
        <ele>27.0543</ele>
        <time>2013-05-07T17:16:09Z</time>
      </trkpt>
      <trkpt lat="59.9755061" lon="17.7385999">
        <ele>27.0543</ele>
        <time>2013-05-07T17:16:10Z</time>
      </trkpt>
      <trkpt lat="59.9755647" lon="17.7387011">
        <ele>27.0543</ele>
        <time>2013-05-07T17:16:11Z</time>
      </trkpt>
      <trkpt lat="59.9756229" lon="17.738805">
        <ele>27.0543</ele>
        <time>2013-05-07T17:16:12Z</time>
      </trkpt>
      <trkpt lat="59.9756799" lon="17.7389092">
        <ele>27.0543</ele>
        <time>2013-05-07T17:16:13Z</time>
      </trkpt>
      <trkpt lat="59.9757353" lon="17.7390103">
        <ele>27.0543</ele>
        <time>2013-05-07T17:16:14Z</time>
      </trkpt>
      <trkpt lat="59.9757876" lon="17.7391058">
        <ele>27.0543</ele>
        <time>2013-05-07T17:16:15Z</time>
      </trkpt>
      <trkpt lat="59.9758346" lon="17.7391932">
        <ele>26.5736</ele>
        <time>2013-05-07T17:16:16Z</time>
      </trkpt>
      <trkpt lat="59.9758879" lon="17.739278">
        <ele>25.1317</ele>
        <time>2013-05-07T17:16:17Z</time>
      </trkpt>
      <trkpt lat="59.9759387" lon="17.7393619">
        <ele>24.1703</ele>
        <time>2013-05-07T17:16:18Z</time>
      </trkpt>
      <trkpt lat="59.9759824" lon="17.7394362">
        <ele>23.6896</ele>
        <time>2013-05-07T17:16:19Z</time>
      </trkpt>
      <trkpt lat="59.9760289" lon="17.7395083">
        <ele>22.7283</ele>
        <time>2013-05-07T17:16:20Z</time>
      </trkpt>
      <trkpt lat="59.9760749" lon="17.7395677">
        <ele>22.2476</ele>
        <time>2013-05-07T17:16:21Z</time>
      </trkpt>
      <trkpt lat="59.97612" lon="17.739611">
        <ele>22.2476</ele>
        <time>2013-05-07T17:16:22Z</time>
      </trkpt>
      <trkpt lat="59.9761641" lon="17.7396478">
        <ele>22.7283</ele>
        <time>2013-05-07T17:16:23Z</time>
      </trkpt>
      <trkpt lat="59.9762018" lon="17.739691">
        <ele>22.7283</ele>
        <time>2013-05-07T17:16:24Z</time>
      </trkpt>
      <trkpt lat="59.9762319" lon="17.7397324">
        <ele>22.7283</ele>
        <time>2013-05-07T17:16:25Z</time>
      </trkpt>
      <trkpt lat="59.9762683" lon="17.7397646">
        <ele>23.6896</ele>
        <time>2013-05-07T17:16:26Z</time>
      </trkpt>
      <trkpt lat="59.9763055" lon="17.7397858">
        <ele>23.6896</ele>
        <time>2013-05-07T17:16:27Z</time>
      </trkpt>
      <trkpt lat="59.9763341" lon="17.7397936">
        <ele>24.651</ele>
        <time>2013-05-07T17:16:28Z</time>
      </trkpt>
      <trkpt lat="59.9763754" lon="17.7397843">
        <ele>23.209</ele>
        <time>2013-05-07T17:16:29Z</time>
      </trkpt>
      <trkpt lat="59.9764128" lon="17.7397547">
        <ele>22.7283</ele>
        <time>2013-05-07T17:16:30Z</time>
      </trkpt>
      <trkpt lat="59.9764538" lon="17.739717">
        <ele>23.209</ele>
        <time>2013-05-07T17:16:31Z</time>
      </trkpt>
      <trkpt lat="59.976493" lon="17.7396735">
        <ele>22.7283</ele>
        <time>2013-05-07T17:16:32Z</time>
      </trkpt>
      <trkpt lat="59.9765331" lon="17.7396303">
        <ele>22.7283</ele>
        <time>2013-05-07T17:16:33Z</time>
      </trkpt>
      <trkpt lat="59.9765852" lon="17.7395738">
        <ele>20.8057</ele>
        <time>2013-05-07T17:16:34Z</time>
      </trkpt>
      <trkpt lat="59.9766344" lon="17.7395341">
        <ele>19.8444</ele>
        <time>2013-05-07T17:16:35Z</time>
      </trkpt>
      <trkpt lat="59.9766864" lon="17.7394898">
        <ele>20.325</ele>
        <time>2013-05-07T17:16:36Z</time>
      </trkpt>
      <trkpt lat="59.9767376" lon="17.7394548">
        <ele>20.325</ele>
        <time>2013-05-07T17:16:37Z</time>
      </trkpt>
      <trkpt lat="59.976791" lon="17.7394284">
        <ele>19.8444</ele>
        <time>2013-05-07T17:16:38Z</time>
      </trkpt>
      <trkpt lat="59.9768376" lon="17.7394056">
        <ele>20.8057</ele>
        <time>2013-05-07T17:16:39Z</time>
      </trkpt>
      <trkpt lat="59.9768936" lon="17.7393891">
        <ele>19.3638</ele>
        <time>2013-05-07T17:16:40Z</time>
      </trkpt>
      <trkpt lat="59.9769453" lon="17.7393756">
        <ele>18.8831</ele>
        <time>2013-05-07T17:16:41Z</time>
      </trkpt>
      <trkpt lat="59.9769936" lon="17.7393506">
        <ele>20.325</ele>
        <time>2013-05-07T17:16:42Z</time>
      </trkpt>
      <trkpt lat="59.9770525" lon="17.7393403">
        <ele>20.325</ele>
        <time>2013-05-07T17:16:43Z</time>
      </trkpt>
      <trkpt lat="59.9771116" lon="17.7393393">
        <ele>18.8831</ele>
        <time>2013-05-07T17:16:44Z</time>
      </trkpt>
      <trkpt lat="59.977164" lon="17.7393216">
        <ele>19.8444</ele>
        <time>2013-05-07T17:16:45Z</time>
      </trkpt>
      <trkpt lat="59.9772182" lon="17.7392992">
        <ele>21.2864</ele>
        <time>2013-05-07T17:16:46Z</time>
      </trkpt>
      <trkpt lat="59.9772596" lon="17.7392454">
        <ele>22.7283</ele>
        <time>2013-05-07T17:16:47Z</time>
      </trkpt>
      <trkpt lat="59.9773086" lon="17.7391958">
        <ele>23.209</ele>
        <time>2013-05-07T17:16:48Z</time>
      </trkpt>
      <trkpt lat="59.977351" lon="17.7391638">
        <ele>23.6896</ele>
        <time>2013-05-07T17:16:49Z</time>
      </trkpt>
      <trkpt lat="59.9773979" lon="17.7391376">
        <ele>24.1703</ele>
        <time>2013-05-07T17:16:50Z</time>
      </trkpt>
      <trkpt lat="59.9774455" lon="17.739128">
        <ele>25.1317</ele>
        <time>2013-05-07T17:16:51Z</time>
      </trkpt>
      <trkpt lat="59.9774878" lon="17.7391158">
        <ele>25.6123</ele>
        <time>2013-05-07T17:16:52Z</time>
      </trkpt>
      <trkpt lat="59.9775286" lon="17.7391019">
        <ele>26.5736</ele>
        <time>2013-05-07T17:16:53Z</time>
      </trkpt>
      <trkpt lat="59.9775675" lon="17.7390844">
        <ele>27.0543</ele>
        <time>2013-05-07T17:16:54Z</time>
      </trkpt>
      <trkpt lat="59.9776061" lon="17.739072">
        <ele>27.5349</ele>
        <time>2013-05-07T17:16:55Z</time>
      </trkpt>
      <trkpt lat="59.9776431" lon="17.7390651">
        <ele>28.4962</ele>
        <time>2013-05-07T17:16:56Z</time>
      </trkpt>
      <trkpt lat="59.9776742" lon="17.739072">
        <ele>28.4962</ele>
        <time>2013-05-07T17:16:57Z</time>
      </trkpt>
      <trkpt lat="59.9777104" lon="17.7390751">
        <ele>28.9769</ele>
        <time>2013-05-07T17:16:58Z</time>
      </trkpt>
      <trkpt lat="59.9777445" lon="17.7390782">
        <ele>29.4575</ele>
        <time>2013-05-07T17:16:59Z</time>
      </trkpt>
      <trkpt lat="59.9777819" lon="17.7390782">
        <ele>30.4188</ele>
        <time>2013-05-07T17:17:00Z</time>
      </trkpt>
      <trkpt lat="59.9778133" lon="17.7390948">
        <ele>30.8995</ele>
        <time>2013-05-07T17:17:01Z</time>
      </trkpt>
      <trkpt lat="59.9778462" lon="17.7391112">
        <ele>31.3801</ele>
        <time>2013-05-07T17:17:02Z</time>
      </trkpt>
      <trkpt lat="59.9778788" lon="17.7391298">
        <ele>31.3801</ele>
        <time>2013-05-07T17:17:03Z</time>
      </trkpt>
      <trkpt lat="59.977914" lon="17.7391481">
        <ele>31.8607</ele>
        <time>2013-05-07T17:17:04Z</time>
      </trkpt>
      <trkpt lat="59.9779436" lon="17.7391809">
        <ele>31.8607</ele>
        <time>2013-05-07T17:17:05Z</time>
      </trkpt>
      <trkpt lat="59.9779735" lon="17.7392129">
        <ele>31.3801</ele>
        <time>2013-05-07T17:17:06Z</time>
      </trkpt>
      <trkpt lat="59.9779995" lon="17.7392453">
        <ele>31.8607</ele>
        <time>2013-05-07T17:17:07Z</time>
      </trkpt>
      <trkpt lat="59.9780352" lon="17.7392641">
        <ele>32.8223</ele>
        <time>2013-05-07T17:17:08Z</time>
      </trkpt>
      <trkpt lat="59.978072" lon="17.7392785">
        <ele>33.3029</ele>
        <time>2013-05-07T17:17:09Z</time>
      </trkpt>
      <trkpt lat="59.9781129" lon="17.739285">
        <ele>33.7834</ele>
        <time>2013-05-07T17:17:10Z</time>
      </trkpt>
      <trkpt lat="59.9781514" lon="17.7392963">
        <ele>33.7834</ele>
        <time>2013-05-07T17:17:11Z</time>
      </trkpt>
      <trkpt lat="59.978191" lon="17.739306">
        <ele>34.7449</ele>
        <time>2013-05-07T17:17:12Z</time>
      </trkpt>
      <trkpt lat="59.9782298" lon="17.7393226">
        <ele>34.2642</ele>
        <time>2013-05-07T17:17:13Z</time>
      </trkpt>
      <trkpt lat="59.9782642" lon="17.7393383">
        <ele>33.7834</ele>
        <time>2013-05-07T17:17:14Z</time>
      </trkpt>
      <trkpt lat="59.9783082" lon="17.7393471">
        <ele>35.2255</ele>
        <time>2013-05-07T17:17:15Z</time>
      </trkpt>
      <trkpt lat="59.978355" lon="17.7393465">
        <ele>37.1481</ele>
        <time>2013-05-07T17:17:16Z</time>
      </trkpt>
      <trkpt lat="59.978405" lon="17.7393301">
        <ele>37.1481</ele>
        <time>2013-05-07T17:17:17Z</time>
      </trkpt>
      <trkpt lat="59.9784455" lon="17.7393313">
        <ele>36.6675</ele>
        <time>2013-05-07T17:17:18Z</time>
      </trkpt>
      <trkpt lat="59.9784884" lon="17.7393096">
        <ele>36.1868</ele>
        <time>2013-05-07T17:17:19Z</time>
      </trkpt>
      <trkpt lat="59.9785299" lon="17.7393101">
        <ele>35.7061</ele>
        <time>2013-05-07T17:17:20Z</time>
      </trkpt>
      <trkpt lat="59.978571" lon="17.7393107">
        <ele>34.7449</ele>
        <time>2013-05-07T17:17:21Z</time>
      </trkpt>
      <trkpt lat="59.9786149" lon="17.739314">
        <ele>34.7449</ele>
        <time>2013-05-07T17:17:22Z</time>
      </trkpt>
      <trkpt lat="59.9786579" lon="17.7393389">
        <ele>35.2255</ele>
        <time>2013-05-07T17:17:23Z</time>
      </trkpt>
      <trkpt lat="59.978706" lon="17.7393375">
        <ele>34.2642</ele>
        <time>2013-05-07T17:17:24Z</time>
      </trkpt>
      <trkpt lat="59.9787421" lon="17.7393393">
        <ele>34.7449</ele>
        <time>2013-05-07T17:17:25Z</time>
      </trkpt>
      <trkpt lat="59.9787844" lon="17.7393367">
        <ele>34.2642</ele>
        <time>2013-05-07T17:17:26Z</time>
      </trkpt>
      <trkpt lat="59.9788267" lon="17.7393299">
        <ele>33.3029</ele>
        <time>2013-05-07T17:17:27Z</time>
      </trkpt>
      <trkpt lat="59.9788681" lon="17.7393238">
        <ele>31.8607</ele>
        <time>2013-05-07T17:17:28Z</time>
      </trkpt>
      <trkpt lat="59.978903" lon="17.7393179">
        <ele>30.8995</ele>
        <time>2013-05-07T17:17:29Z</time>
      </trkpt>
      <trkpt lat="59.9789356" lon="17.7393021">
        <ele>30.4188</ele>
        <time>2013-05-07T17:17:30Z</time>
      </trkpt>
      <trkpt lat="59.9789737" lon="17.7392834">
        <ele>30.8995</ele>
        <time>2013-05-07T17:17:31Z</time>
      </trkpt>
      <trkpt lat="59.9790095" lon="17.7392642">
        <ele>30.8995</ele>
        <time>2013-05-07T17:17:32Z</time>
      </trkpt>
      <trkpt lat="59.9790446" lon="17.7392469">
        <ele>30.4188</ele>
        <time>2013-05-07T17:17:33Z</time>
      </trkpt>
      <trkpt lat="59.9790773" lon="17.7392269">
        <ele>29.4575</ele>
        <time>2013-05-07T17:17:34Z</time>
      </trkpt>
      <trkpt lat="59.9791066" lon="17.7392077">
        <ele>28.4962</ele>
        <time>2013-05-07T17:17:35Z</time>
      </trkpt>
      <trkpt lat="59.9791344" lon="17.7391894">
        <ele>27.5349</ele>
        <time>2013-05-07T17:17:36Z</time>
      </trkpt>
      <trkpt lat="59.979151" lon="17.7391875">
        <ele>28.4962</ele>
        <time>2013-05-07T17:17:37Z</time>
      </trkpt>
      <trkpt lat="59.9791729" lon="17.7391798">
        <ele>28.4962</ele>
        <time>2013-05-07T17:17:38Z</time>
      </trkpt>
      <trkpt lat="59.9791961" lon="17.7391694">
        <ele>28.4962</ele>
        <time>2013-05-07T17:17:39Z</time>
      </trkpt>
      <trkpt lat="59.979221" lon="17.7391576">
        <ele>28.4962</ele>
        <time>2013-05-07T17:17:40Z</time>
      </trkpt>
      <trkpt lat="59.9792464" lon="17.7391471">
        <ele>27.5349</ele>
        <time>2013-05-07T17:17:41Z</time>
      </trkpt>
      <trkpt lat="59.9792665" lon="17.7391384">
        <ele>28.0155</ele>
        <time>2013-05-07T17:17:42Z</time>
      </trkpt>
      <trkpt lat="59.9792757" lon="17.7391376">
        <ele>28.0155</ele>
        <time>2013-05-07T17:17:43Z</time>
      </trkpt>
      <trkpt lat="59.9792841" lon="17.7391329">
        <ele>28.0155</ele>
        <time>2013-05-07T17:17:44Z</time>
      </trkpt>
      <trkpt lat="59.9792841" lon="17.7391373">
        <ele>28.4962</ele>
        <time>2013-05-07T17:17:45Z</time>
      </trkpt>
      <trkpt lat="59.9792912" lon="17.7391321">
        <ele>28.4962</ele>
        <time>2013-05-07T17:17:46Z</time>
      </trkpt>
      <trkpt lat="59.9792983" lon="17.7391144">
        <ele>28.9769</ele>
        <time>2013-05-07T17:17:47Z</time>
      </trkpt>
      <trkpt lat="59.9793053" lon="17.739087">
        <ele>29.4575</ele>
        <time>2013-05-07T17:17:48Z</time>
      </trkpt>
      <trkpt lat="59.9792961" lon="17.7390684">
        <ele>29.9381</ele>
        <time>2013-05-07T17:17:49Z</time>
      </trkpt>
      <trkpt lat="59.9792809" lon="17.7390649">
        <ele>30.4188</ele>
        <time>2013-05-07T17:17:50Z</time>
      </trkpt>
      <trkpt lat="59.9792633" lon="17.7390782">
        <ele>29.9381</ele>
        <time>2013-05-07T17:17:51Z</time>
      </trkpt>
      <trkpt lat="59.9792449" lon="17.7390948">
        <ele>29.4575</ele>
        <time>2013-05-07T17:17:52Z</time>
      </trkpt>
      <trkpt lat="59.9792262" lon="17.7391088">
        <ele>29.9381</ele>
        <time>2013-05-07T17:17:53Z</time>
      </trkpt>
      <trkpt lat="59.9792102" lon="17.7391252">
        <ele>29.9381</ele>
        <time>2013-05-07T17:17:54Z</time>
      </trkpt>
      <trkpt lat="59.9791945" lon="17.7391409">
        <ele>30.8995</ele>
        <time>2013-05-07T17:17:55Z</time>
      </trkpt>
      <trkpt lat="59.9791718" lon="17.7391522">
        <ele>32.3416</ele>
        <time>2013-05-07T17:17:56Z</time>
      </trkpt>
      <trkpt lat="59.9791434" lon="17.7391703">
        <ele>33.3029</ele>
        <time>2013-05-07T17:17:57Z</time>
      </trkpt>
      <trkpt lat="59.9791122" lon="17.7391837">
        <ele>33.7834</ele>
        <time>2013-05-07T17:17:58Z</time>
      </trkpt>
      <trkpt lat="59.9790893" lon="17.739193">
        <ele>32.3416</ele>
        <time>2013-05-07T17:17:59Z</time>
      </trkpt>
      <trkpt lat="59.9790695" lon="17.7392056">
        <ele>31.8607</ele>
        <time>2013-05-07T17:18:00Z</time>
      </trkpt>
      <trkpt lat="59.9790296" lon="17.739243">
        <ele>32.3416</ele>
        <time>2013-05-07T17:18:01Z</time>
      </trkpt>
      <trkpt lat="59.9789997" lon="17.7392631">
        <ele>32.3416</ele>
        <time>2013-05-07T17:18:02Z</time>
      </trkpt>
      <trkpt lat="59.9789744" lon="17.7392751">
        <ele>32.3416</ele>
        <time>2013-05-07T17:18:03Z</time>
      </trkpt>
      <trkpt lat="59.9789546" lon="17.7392987">
        <ele>33.3029</ele>
        <time>2013-05-07T17:18:04Z</time>
      </trkpt>
      <trkpt lat="59.9789318" lon="17.7393299">
        <ele>33.7834</ele>
        <time>2013-05-07T17:18:05Z</time>
      </trkpt>
      <trkpt lat="59.9789217" lon="17.7393666">
        <ele>33.3029</ele>
        <time>2013-05-07T17:18:06Z</time>
      </trkpt>
      <trkpt lat="59.9789242" lon="17.7394076">
        <ele>32.8223</ele>
        <time>2013-05-07T17:18:07Z</time>
      </trkpt>
      <trkpt lat="59.9789406" lon="17.7394517">
        <ele>31.8607</ele>
        <time>2013-05-07T17:18:08Z</time>
      </trkpt>
      <trkpt lat="59.9789563" lon="17.7395009">
        <ele>31.8607</ele>
        <time>2013-05-07T17:18:09Z</time>
      </trkpt>
      <trkpt lat="59.9789739" lon="17.7395439">
        <ele>32.3416</ele>
        <time>2013-05-07T17:18:10Z</time>
      </trkpt>
      <trkpt lat="59.9789903" lon="17.739582">
        <ele>31.8607</ele>
        <time>2013-05-07T17:18:11Z</time>
      </trkpt>
      <trkpt lat="59.9790004" lon="17.7396043">
        <ele>30.8995</ele>
        <time>2013-05-07T17:18:12Z</time>
      </trkpt>
      <trkpt lat="59.979011" lon="17.7396108">
        <ele>29.4575</ele>
        <time>2013-05-07T17:18:13Z</time>
      </trkpt>
      <trkpt lat="59.9790169" lon="17.7396087">
        <ele>28.9769</ele>
        <time>2013-05-07T17:18:14Z</time>
      </trkpt>
      <trkpt lat="59.9790175" lon="17.7396126">
        <ele>29.4575</ele>
        <time>2013-05-07T17:18:15Z</time>
      </trkpt>
      <trkpt lat="59.9790138" lon="17.7396134">
        <ele>29.9381</ele>
        <time>2013-05-07T17:18:16Z</time>
      </trkpt>
    </trkseg>
  </trk>
</gpx>